10	 weather.weatherbug.com									
(Timestamp)	(Location)	Temp (F)	(Wind Speed) (mph)	Lo (F)	Rain (")	Hi (F)	Gust	Wind Chill (F)	Humidity (%)	Dew Point (F)
Fri Jan 29 08:47:45 2010	San Jose, CA 95101  	48.0	0	45	0.00	58	NNW 6	48	88	45
Fri Jan 29 08:47:47 2010	Charlotte, NC 28201  	42.5	4	42	0.00	45	ENE 7	40	51	26
Fri Jan 29 08:47:49 2010	San Diego, CA 92101  	53.5	0	49	0.00	65	WNW 11	54	96	53
Fri Jan 29 08:47:51 2010	Denver, CO 80214  	24.5	0	25	0.00	25	WSW 0	25	96	24
Fri Jan 29 08:47:53 2010	Memphis, TN 37501  	33.1	16	33	0.00	33	NNE 23	23	61	21
Fri Jan 29 08:47:56 2010	Los Angeles, CA 90001  	54.2	0	46	0.00	70	W 15	54	81	49
Fri Jan 29 08:47:58 2010	El Paso, TX 79901  	31.6	7	32	0.00	32	E 15	25	88	29
Fri Jan 29 08:48:00 2010	New York, NY 10001  	17.9	1	17	0.00	20	NNW 24	18	48	1
Fri Jan 29 08:48:03 2010	Baltimore, MD 21201  	17.9	7	18	0.00	22	NW 17	8	41	-2
Fri Jan 29 08:48:05 2010	Las Vegas, NV 89101  	43.5	1	40	0.00	58	NNW 21	44	61	31
Fri Jan 29 08:48:07 2010	Washington, DC 20001  	19.5	11	19	0.00	24	NNW 21	8	49	3
Fri Jan 29 08:48:09 2010	Austin, TX 73301  	59.0	10	59	0.60	64	NNW 22	57	88	55
Fri Jan 29 08:48:11 2010	San Francisco, CA 94101  	49.4	4	48	0.00	56	WNW 12	48	N/A	--
Fri Jan 29 08:48:13 2010	Oklahoma City, OK 73101  	26.6	16	27	0.00	27	NNE 17	14	93	25
Fri Jan 29 08:48:16 2010	Nashville, TN 37201  	29.6	8	29	0.00	30	NNW 14	22	60	17
Fri Jan 29 08:48:18 2010	Fort Worth, TX 76101  	43.1	6	43	0.16	46	N 13	39	100	43
Fri Jan 29 08:48:20 2010	Phoenix, AZ 85001  	53.3	2	53	0.00	54	ENE 11	53	76	46
Fri Jan 29 08:48:22 2010	Portland, OR 97201  	46.7	1	45	0.00	52	NE 17	47	65	36
Fri Jan 29 08:48:25 2010	Chicago, IL 60601  	6.4	5	6	0.00	8	NW 12	-3	53	-8
Fri Jan 29 08:48:27 2010	San Antonio, TX 78201  	51.6	5	52	0.12	63	WNW 27	50	100	52
Fri Jan 29 08:48:29 2010	Indianapolis, IN 46201  	11.7	0	11	0.00	12	NNW 6	12	78	6
Fri Jan 29 08:48:31 2010	Boston, MA 02101  	13.1	14	13	0.00	18	WNW 38	-2	34	-11
Fri Jan 29 08:48:34 2010	Jacksonville, FL 32099  	48.9	0	49	0.00	49	NNE 0	49	76	42
Fri Jan 29 08:48:36 2010	Columbus, OH 43085  	9.4	2	9	N/A	12	NNE 9	9	N/A	--
Fri Jan 29 08:48:38 2010	Dallas, TX 75201  	43.5	4	43	0.13	44	ESE 16	41	98	43
Fri Jan 29 08:48:40 2010	Houston, TX 77001  	60.8	6	58	0.06	61	SE 21	61	98	60
Fri Jan 29 08:48:42 2010	Seattle, WA 98101  	47.3	2	43	0.00	54	SSW 12	47	70	38
Fri Jan 29 08:48:44 2010	Milwaukee, WI 53201  	1.1	1	1	0.00	2	WNW 9	1	65	-8
Fri Jan 29 08:48:46 2010	Detroit, MI 48201  	6.6	6	7	0.00	8	W 13	-4	71	-1
Fri Jan 29 08:48:48 2010	Philadelphia, PA 19019  	18.1	7	18	0.00	20	NW 25	8	46	0
Fri Jan 29 09:31:55 2010	San Jose, CA 95101  	48.0	0	45	0.00	58	NNW 6	48	88	45
Fri Jan 29 09:31:56 2010	Charlotte, NC 28201  	42.5	4	42	0.00	45	ENE 7	40	51	26
Fri Jan 29 09:31:57 2010	San Diego, CA 92101  	53.5	0	49	0.00	65	WNW 11	54	96	53
Fri Jan 29 09:31:57 2010	Denver, CO 80214  	24.5	0	25	0.00	25	WSW 0	25	96	24
Fri Jan 29 09:31:58 2010	Memphis, TN 37501  	33.1	16	33	0.00	33	NNE 23	23	61	21
Fri Jan 29 09:31:59 2010	El Paso, TX 79901  	31.6	7	32	0.00	32	E 15	25	88	29
Fri Jan 29 09:31:59 2010	Los Angeles, CA 90001  	54.2	0	46	0.00	70	W 15	54	81	49
Fri Jan 29 09:32:00 2010	New York, NY 10001  	17.9	1	17	0.00	20	NNW 24	18	48	1
Fri Jan 29 09:32:01 2010	Baltimore, MD 21201  	17.9	7	18	0.00	22	NW 17	8	41	-2
Fri Jan 29 09:32:02 2010	Las Vegas, NV 89101  	43.5	1	40	0.00	58	NNW 21	44	61	31
Fri Jan 29 09:32:03 2010	Washington, DC 20001  	19.5	11	19	0.00	24	NNW 21	8	49	3
Fri Jan 29 09:32:04 2010	Austin, TX 73301  	59.0	10	59	0.60	64	NNW 22	57	88	55
Fri Jan 29 09:32:04 2010	San Francisco, CA 94101  	49.4	4	48	0.00	56	WNW 12	48	N/A	--
Fri Jan 29 09:32:05 2010	Oklahoma City, OK 73101  	26.6	16	27	0.00	27	NNE 17	14	93	25
Fri Jan 29 09:32:06 2010	Nashville, TN 37201  	29.6	8	29	0.00	30	NNW 14	22	60	17
Fri Jan 29 09:32:07 2010	Phoenix, AZ 85001  	53.3	2	53	0.00	54	ENE 11	53	76	46
Fri Jan 29 09:32:07 2010	Fort Worth, TX 76101  	43.1	6	43	0.16	46	N 13	39	100	43
Fri Jan 29 09:32:08 2010	Portland, OR 97201  	46.7	1	45	0.00	52	NE 17	47	65	36
Fri Jan 29 09:32:09 2010	Chicago, IL 60601  	6.4	5	6	0.00	8	NW 12	-3	53	-8
Fri Jan 29 09:32:10 2010	Indianapolis, IN 46201  	11.7	0	11	0.00	12	NNW 6	12	78	6
Fri Jan 29 09:32:10 2010	San Antonio, TX 78201  	51.6	5	52	0.12	63	WNW 27	50	100	52
Fri Jan 29 09:32:11 2010	Boston, MA 02101  	13.1	14	13	0.00	18	WNW 38	-2	34	-11
Fri Jan 29 09:32:12 2010	Jacksonville, FL 32099  	48.9	0	49	0.00	49	NNE 0	49	76	42
Fri Jan 29 09:32:13 2010	Dallas, TX 75201  	43.5	4	43	0.13	44	ESE 16	41	98	43
Fri Jan 29 09:32:13 2010	Columbus, OH 43085  	9.4	2	9	N/A	12	NNE 9	9	N/A	--
Fri Jan 29 09:32:14 2010	Houston, TX 77001  	60.8	6	58	0.06	61	SE 21	61	98	60
Fri Jan 29 09:32:15 2010	Seattle, WA 98101  	47.3	2	43	0.00	54	SSW 12	47	70	38
Fri Jan 29 09:32:15 2010	Milwaukee, WI 53201  	1.1	1	1	0.00	2	WNW 9	1	65	-8
Fri Jan 29 09:32:16 2010	Detroit, MI 48201  	6.6	6	7	0.00	8	W 13	-4	71	-1
Fri Jan 29 09:32:17 2010	Philadelphia, PA 19019  	18.1	7	18	0.00	20	NW 25	8	46	0
Fri Jan 29 12:03:50 2010	San Jose, CA 95101  	46.0	0	46	0.00	46	NNE 5	46	91	44
Fri Jan 29 12:03:53 2010	Charlotte, NC 28201  	39.2	2	39	0.00	45	NE 14	39	45	20
Fri Jan 29 12:03:58 2010	San Diego, CA 92101  	52.0	3	52	0.00	54	ENE 7	52	92	50
Fri Jan 29 12:04:02 2010	Denver, CO 80214  	24.7	0	24	0.00	28	NW 5	25	97	24
Fri Jan 29 12:04:05 2010	Memphis, TN 37501  	32.0	18	32	0.00	33	ENE 30	20	64	21
Fri Jan 29 12:04:07 2010	Los Angeles, CA 90001  	52.0	1	52	0.00	54	NE 6	52	72	43
Fri Jan 29 12:04:11 2010	El Paso, TX 79901  	31.1	4	31	0.00	32	ENE 16	27	87	28
Fri Jan 29 12:04:15 2010	New York, NY 10001  	16.5	5	16	0.00	20	NNW 24	9	51	1
Fri Jan 29 12:04:18 2010	Baltimore, MD 21201  	17.0	3	17	0.00	22	NW 17	12	47	0
Fri Jan 29 12:04:22 2010	Las Vegas, NV 89101  	41.8	6	41	0.00	44	W 8	38	60	29
Fri Jan 29 12:04:25 2010	Washington, DC 20001  	17.5	6	17	0.00	24	NNW 22	9	49	1
Fri Jan 29 12:04:29 2010	Austin, TX 73301  	46.9	11	46	0.83	64	NNW 24	42	91	45
Fri Jan 29 12:04:31 2010	San Francisco, CA 94101  	49.5	2	49	0.00	50	E 10	49	N/A	--
Fri Jan 29 12:04:34 2010	Oklahoma City, OK 73101  	24.1	16	24	0.00	27	NNE 24	11	89	21
Fri Jan 29 12:04:39 2010	Nashville, TN 37201  	28.7	8	29	0.00	30	N 17	21	62	17
Fri Jan 29 12:04:41 2010	Fort Worth, TX 76101  	37.7	13	38	0.32	46	NW 21	29	100	38
Fri Jan 29 12:04:44 2010	Phoenix, AZ 85001  	52.2	5	51	0.00	54	ENE 12	51	83	47
Fri Jan 29 12:04:48 2010	Portland, OR 97201  	47.1	6	46	0.00	47	E 15	44	63	35
Fri Jan 29 12:04:51 2010	Chicago, IL 60601  	6.0	5	6	0.00	8	NW 12	-4	56	-7
Fri Jan 29 12:04:53 2010	San Antonio, TX 78201  	42.2	11	42	0.51	63	NW 32	36	100	42
Fri Jan 29 12:04:57 2010	Indianapolis, IN 46201  	13.2	3	11	0.00	13	NE 9	8	75	7
Fri Jan 29 12:05:00 2010	Boston, MA 02101  	10.2	2	10	0.00	18	WNW 38	10	39	-10
Fri Jan 29 12:05:03 2010	Jacksonville, FL 32099  	48.9	0	47	0.00	49	N 5	49	79	43
Fri Jan 29 12:05:07 2010	Columbus, OH 43085  	9.5	4	9	N/A	12	NNE 9	2	N/A	--
Fri Jan 29 12:05:10 2010	Dallas, TX 75201  	40.9	1	41	0.32	44	ESE 16	41	100	41
Fri Jan 29 12:05:13 2010	Houston, TX 77001  	63.4	12	58	0.08	64	SSE 25	62	96	62
Fri Jan 29 12:05:16 2010	Seattle, WA 98101  	44.5	3	45	0.00	48	E 7	43	77	38
Fri Jan 29 12:05:19 2010	Milwaukee, WI 53201  	0.2	5	0	0.00	2	NW 10	-11	72	-7
Fri Jan 29 12:05:21 2010	Detroit, MI 48201  	6.4	4	6	0.00	8	W 13	-1	76	0
Fri Jan 29 12:05:26 2010	Philadelphia, PA 19019  	16.8	4	16	0.00	20	NW 25	10	53	2
Fri Jan 29 12:51:09 2010	San Jose, CA 95101  	46.0	0	46	0.00	46	NNE 5	46	91	44
Fri Jan 29 12:51:11 2010	Charlotte, NC 28201  	39.2	2	39	0.00	45	NE 14	39	45	20
Fri Jan 29 12:51:13 2010	San Diego, CA 92101  	52.0	3	52	0.00	54	ENE 7	52	92	50
Fri Jan 29 12:51:14 2010	Denver, CO 80214  	24.7	0	24	0.00	28	NW 5	25	97	24
Fri Jan 29 12:51:16 2010	Memphis, TN 37501  	32.0	18	32	0.00	33	ENE 30	20	64	21
Fri Jan 29 12:51:18 2010	Los Angeles, CA 90001  	52.0	1	52	0.00	54	NE 6	52	72	43
Fri Jan 29 12:51:20 2010	El Paso, TX 79901  	31.1	4	31	0.00	32	ENE 16	27	87	28
Fri Jan 29 12:51:22 2010	New York, NY 10001  	16.5	5	16	0.00	20	NNW 24	9	51	1
Fri Jan 29 12:51:23 2010	Baltimore, MD 21201  	17.0	3	17	0.00	22	NW 17	12	47	0
Fri Jan 29 12:51:25 2010	Las Vegas, NV 89101  	41.8	6	41	0.00	44	W 8	38	60	29
Fri Jan 29 12:51:27 2010	Washington, DC 20001  	18.1	4	18	0.00	25	NNE 18	12	48	1
Fri Jan 29 12:51:29 2010	Austin, TX 73301  	46.9	11	46	0.83	64	NNW 24	42	91	45
Fri Jan 29 12:51:31 2010	San Francisco, CA 94101  	49.5	2	49	0.00	50	E 10	49	N/A	--
Fri Jan 29 12:51:32 2010	Oklahoma City, OK 73101  	24.1	16	24	0.00	27	NNE 24	11	89	21
Fri Jan 29 12:51:34 2010	Nashville, TN 37201  	28.7	8	29	0.00	30	N 17	21	62	17
Fri Jan 29 12:51:36 2010	Fort Worth, TX 76101  	37.7	13	38	0.32	46	NW 21	29	100	38
Fri Jan 29 12:51:38 2010	Phoenix, AZ 85001  	52.2	5	51	0.00	54	ENE 12	51	83	47
Fri Jan 29 12:51:39 2010	Portland, OR 97201  	47.1	6	46	0.00	47	E 15	44	63	35
Fri Jan 29 12:51:41 2010	Chicago, IL 60601  	6.0	5	6	0.00	8	NW 12	-4	56	-7
Fri Jan 29 12:51:43 2010	San Antonio, TX 78201  	42.2	11	42	0.51	63	NW 32	36	100	42
Fri Jan 29 12:51:45 2010	Indianapolis, IN 46201  	13.2	3	11	0.00	13	NE 9	8	75	7
Fri Jan 29 12:51:46 2010	Boston, MA 02101  	10.2	2	10	0.00	18	WNW 38	10	39	-10
Fri Jan 29 12:51:48 2010	Jacksonville, FL 32099  	48.9	0	47	0.00	49	N 5	49	79	43
Fri Jan 29 12:51:49 2010	Columbus, OH 43085  	9.5	4	9	N/A	12	NNE 9	2	N/A	--
Fri Jan 29 12:51:51 2010	Dallas, TX 75201  	40.9	1	41	0.32	44	ESE 16	41	100	41
Fri Jan 29 12:51:53 2010	Houston, TX 77001  	63.4	12	58	0.08	64	SSE 25	62	96	62
Fri Jan 29 12:51:54 2010	Seattle, WA 98101  	44.5	3	45	0.00	48	E 7	43	77	38
Fri Jan 29 12:51:56 2010	Milwaukee, WI 53201  	0.2	5	0	0.00	2	NW 10	-11	72	-7
Fri Jan 29 12:51:57 2010	Detroit, MI 48201  	6.4	4	6	0.00	8	W 13	-1	76	0
Fri Jan 29 12:51:59 2010	Philadelphia, PA 19019  	16.8	4	16	0.00	20	NW 25	10	53	2
Fri Jan 29 13:39:15 2010	San Jose, CA 95101  	46.0	0	46	0.00	46	NNE 5	46	88	43
Fri Jan 29 13:39:17 2010	Charlotte, NC 28201  	37.1	2	37	0.00	45	NE 14	37	48	19
Fri Jan 29 13:39:19 2010	San Diego, CA 92101  	51.5	2	51	0.00	54	ENE 7	51	90	49
Fri Jan 29 13:39:22 2010	Denver, CO 80214  	24.9	2	24	0.00	28	S 6	25	98	24
Fri Jan 29 13:39:24 2010	Memphis, TN 37501  	32.0	12	32	0.00	33	ENE 30	23	64	21
Fri Jan 29 13:39:26 2010	Los Angeles, CA 90001  	48.8	0	49	0.00	54	NE 6	49	80	43
Fri Jan 29 13:39:28 2010	El Paso, TX 79901  	31.1	3	31	0.00	32	ENE 16	28	82	26
Fri Jan 29 13:39:31 2010	New York, NY 10001  	15.6	12	15	0.00	20	NNW 24	2	54	2
Fri Jan 29 13:39:35 2010	Baltimore, MD 21201  	16.2	2	16	0.00	22	NW 17	16	49	0
Fri Jan 29 13:39:37 2010	Las Vegas, NV 89101  	41.6	0	41	0.00	44	W 8	42	59	28
Fri Jan 29 13:39:41 2010	Washington, DC 20001  	16.9	9	17	0.00	24	NNW 22	6	52	2
Fri Jan 29 13:39:43 2010	Austin, TX 73301  	44.1	17	44	0.88	64	NNW 25	36	94	42
Fri Jan 29 13:39:47 2010	San Francisco, CA 94101  	49.3	1	49	0.00	50	E 10	49	N/A	--
Fri Jan 29 13:39:50 2010	Oklahoma City, OK 73101  	24.1	16	24	0.00	27	NNE 31	11	89	21
Fri Jan 29 13:39:52 2010	Nashville, TN 37201  	28.8	5	28	0.00	30	N 17	24	62	17
Fri Jan 29 13:39:55 2010	Fort Worth, TX 76101  	36.2	2	36	0.46	46	NW 21	36	100	36
Fri Jan 29 13:39:59 2010	Phoenix, AZ 85001  	51.2	2	51	0.00	54	ENE 12	51	85	47
Fri Jan 29 13:40:03 2010	Portland, OR 97201  	47.1	5	46	0.00	48	E 15	45	64	36
Fri Jan 29 13:40:05 2010	Chicago, IL 60601  	5.8	4	5	0.00	8	NW 10	-1	68	-3
Fri Jan 29 13:40:08 2010	San Antonio, TX 78201  	38.7	9	39	0.57	63	NW 32	32	99	38
Fri Jan 29 13:40:13 2010	Indianapolis, IN 46201  	13.4	2	11	0.00	14	NE 9	13	76	7
Fri Jan 29 13:40:16 2010	Boston, MA 02101  	9.6	9	9	0.00	18	WNW 38	-3	42	-9
Fri Jan 29 13:40:18 2010	Jacksonville, FL 32099  	50.0	0	47	0.00	50	N 5	50	86	46
Fri Jan 29 13:40:20 2010	Columbus, OH 43085  	10.0	3	9	N/A	12	NNE 9	4	N/A	--
Fri Jan 29 13:40:23 2010	Dallas, TX 75201  	40.1	1	40	0.37	44	ESE 16	40	99	40
Fri Jan 29 13:40:25 2010	Houston, TX 77001  	59.4	10	58	0.74	64	SSE 25	58	98	59
Fri Jan 29 13:40:28 2010	Seattle, WA 98101  	46.8	2	45	0.00	48	E 7	47	65	36
Fri Jan 29 13:40:30 2010	Milwaukee, WI 53201  	-0.7	6	-1	0.00	2	NW 10	-13	75	-7
Fri Jan 29 13:40:32 2010	Detroit, MI 48201  	7.3	3	6	0.00	8	W 13	7	72	0
Fri Jan 29 13:40:34 2010	Philadelphia, PA 19019  	16.4	6	16	0.00	20	NW 25	7	56	3
Fri Jan 29 14:24:29 2010	San Jose, CA 95101  	46.0	0	46	0.00	46	NNE 5	46	88	43
Fri Jan 29 14:24:31 2010	Charlotte, NC 28201  	37.1	2	37	0.00	45	NE 14	37	48	19
Fri Jan 29 14:24:32 2010	San Diego, CA 92101  	51.5	2	51	0.00	54	ENE 7	51	90	49
Fri Jan 29 14:24:34 2010	Denver, CO 80214  	24.9	2	24	0.00	28	S 6	25	98	24
Fri Jan 29 14:24:36 2010	Memphis, TN 37501  	32.0	12	32	0.00	33	ENE 30	23	64	21
Fri Jan 29 14:24:37 2010	Los Angeles, CA 90001  	48.8	0	49	0.00	54	NE 6	49	80	43
Fri Jan 29 14:24:39 2010	El Paso, TX 79901  	31.1	3	31	0.00	32	ENE 16	28	82	26
Fri Jan 29 14:24:41 2010	New York, NY 10001  	15.6	12	15	0.00	20	NNW 24	2	54	2
Fri Jan 29 14:24:42 2010	Baltimore, MD 21201  	16.2	2	16	0.00	22	NW 17	16	49	0
Fri Jan 29 14:24:45 2010	Las Vegas, NV 89101  	41.6	0	41	0.00	44	W 8	42	59	28
Fri Jan 29 14:24:47 2010	Washington, DC 20001  	17.3	4	17	0.00	25	NNW 24	11	59	5
Fri Jan 29 14:24:49 2010	Austin, TX 73301  	44.1	17	44	0.88	64	NNW 25	36	94	42
Fri Jan 29 14:24:50 2010	San Francisco, CA 94101  	49.3	1	49	0.00	50	E 10	49	N/A	--
Fri Jan 29 14:24:52 2010	Oklahoma City, OK 73101  	24.1	16	24	0.00	27	NNE 31	11	89	21
Fri Jan 29 14:24:53 2010	Nashville, TN 37201  	28.8	5	28	0.00	30	N 17	24	62	17
Fri Jan 29 14:24:55 2010	Fort Worth, TX 76101  	36.2	2	36	0.46	46	NW 21	36	100	36
Fri Jan 29 14:24:56 2010	Phoenix, AZ 85001  	51.2	2	51	0.00	54	ENE 12	51	85	47
Fri Jan 29 14:24:57 2010	Portland, OR 97201  	47.1	5	46	0.00	48	E 15	45	64	36
Fri Jan 29 14:24:58 2010	Chicago, IL 60601  	5.8	4	5	0.00	8	NW 10	-1	68	-3
Fri Jan 29 14:24:59 2010	Indianapolis, IN 46201  	13.4	2	11	0.00	14	NE 9	13	76	7
Fri Jan 29 14:24:59 2010	San Antonio, TX 78201  	38.7	9	39	0.57	63	NW 32	32	99	38
Fri Jan 29 14:25:00 2010	Boston, MA 02101  	9.6	9	9	0.00	18	WNW 38	-3	42	-9
Fri Jan 29 14:25:01 2010	Jacksonville, FL 32099  	50.0	0	47	0.00	50	N 5	50	86	46
Fri Jan 29 14:25:02 2010	Dallas, TX 75201  	40.1	1	40	0.37	44	ESE 16	40	99	40
Fri Jan 29 14:25:02 2010	Columbus, OH 43085  	10.0	3	9	N/A	12	NNE 9	4	N/A	--
Fri Jan 29 14:25:03 2010	Houston, TX 77001  	59.4	10	58	0.74	64	SSE 25	58	98	59
Fri Jan 29 14:25:04 2010	Seattle, WA 98101  	46.8	2	45	0.00	48	E 7	47	65	36
Fri Jan 29 14:25:05 2010	Milwaukee, WI 53201  	-0.7	6	-1	0.00	2	NW 10	-13	75	-7
Fri Jan 29 14:25:06 2010	Detroit, MI 48201  	7.3	3	6	0.00	8	W 13	7	72	0
Fri Jan 29 14:25:07 2010	Philadelphia, PA 19019  	16.4	6	16	0.00	20	NW 25	7	56	3
Fri Jan 29 15:09:56 2010	San Jose, CA 95101  	44.1	0	44	0.00	46	NNE 5	44	91	42
Fri Jan 29 15:09:58 2010	Charlotte, NC 28201  	37.0	7	37	0.00	45	ENE 16	31	44	17
Fri Jan 29 15:10:00 2010	San Diego, CA 92101  	52.1	0	51	0.00	54	ENE 7	52	80	46
Fri Jan 29 15:10:08 2010	Denver, CO 80214  	22.8	0	22	0.00	28	SSW 6	23	98	22
Fri Jan 29 15:10:10 2010	Memphis, TN 37501  	30.2	15	30	0.00	33	ENE 30	19	80	25
Fri Jan 29 15:10:13 2010	Los Angeles, CA 90001  	49.0	0	49	0.00	54	NE 6	49	77	42
Fri Jan 29 15:10:15 2010	El Paso, TX 79901  	31.4	1	31	0.00	32	ENE 16	31	83	27
Fri Jan 29 15:10:18 2010	New York, NY 10001  	16.5	2	15	0.00	20	NNW 24	16	48	0
Fri Jan 29 15:10:20 2010	Baltimore, MD 21201  	17.1	5	16	0.00	22	NW 17	10	49	1
Fri Jan 29 15:10:23 2010	Las Vegas, NV 89101  	41.2	0	40	0.00	44	W 8	41	59	28
Fri Jan 29 15:10:24 2010	Washington, DC 20001  	17.3	4	17	0.00	25	NNW 24	11	59	5
Fri Jan 29 15:10:27 2010	Austin, TX 73301  	42.8	16	43	0.97	64	NNW 25	35	93	41
Fri Jan 29 15:10:29 2010	San Francisco, CA 94101  	49.5	3	49	0.00	50	E 10	49	N/A	--
Fri Jan 29 15:10:31 2010	Oklahoma City, OK 73101  	23.0	15	23	0.00	27	NNE 31	10	92	21
Fri Jan 29 15:10:33 2010	Nashville, TN 37201  	27.8	3	28	0.00	30	NNE 17	24	64	17
Fri Jan 29 15:10:35 2010	Fort Worth, TX 76101  	36.2	2	35	0.50	46	NNE 25	36	100	36
Fri Jan 29 15:10:38 2010	Phoenix, AZ 85001  	51.1	2	51	0.00	54	ENE 12	51	89	48
Fri Jan 29 15:10:40 2010	Portland, OR 97201  	46.9	2	46	0.00	48	E 15	47	65	36
Fri Jan 29 15:10:42 2010	Chicago, IL 60601  	8.6	1	7	0.00	10	NNE 14	9	68	0
Fri Jan 29 15:10:45 2010	San Antonio, TX 78201  	37.6	8	37	0.63	63	NW 32	32	98	37
Fri Jan 29 15:10:47 2010	Indianapolis, IN 46201  	13.2	4	11	0.00	14	E 11	6	75	7
Fri Jan 29 15:10:51 2010	Boston, MA 02101  	11.0	14	9	0.00	18	WNW 38	-5	36	-11
Fri Jan 29 15:10:54 2010	Jacksonville, FL 32099  	54.0	5	47	0.00	54	N 5	53	78	47
Fri Jan 29 15:10:57 2010	Columbus, OH 43085  	11.4	1	9	N/A	12	NNE 9	11	N/A	--
Fri Jan 29 15:10:59 2010	Dallas, TX 75201  	38.6	4	38	0.47	44	ESE 16	35	100	39
Fri Jan 29 15:11:02 2010	Houston, TX 77001  	54.9	9	55	1.17	64	SSE 25	52	98	54
Fri Jan 29 15:11:05 2010	Seattle, WA 98101  	45.7	0	45	0.00	48	E 7	46	82	41
Fri Jan 29 15:11:08 2010	Milwaukee, WI 53201  	0.4	3	-1	0.00	2	NW 10	0	75	-6
Fri Jan 29 15:11:10 2010	Detroit, MI 48201  	9.0	10	6	0.00	9	W 13	-5	68	0
Fri Jan 29 15:11:12 2010	Philadelphia, PA 19019  	17.3	9	16	0.00	20	NW 25	6	54	3
Fri Jan 29 15:57:13 2010	San Jose, CA 95101  	44.1	0	44	0.00	46	NNE 5	44	91	42
Fri Jan 29 15:57:15 2010	Charlotte, NC 28201  	37.0	7	37	0.00	45	ENE 16	31	44	17
Fri Jan 29 15:57:17 2010	San Diego, CA 92101  	52.1	0	51	0.00	54	ENE 7	52	80	46
Fri Jan 29 15:57:19 2010	Denver, CO 80214  	22.8	0	22	0.00	28	SSW 6	23	98	22
Fri Jan 29 15:57:20 2010	Memphis, TN 37501  	30.2	15	30	0.00	33	ENE 30	19	80	25
Fri Jan 29 15:57:23 2010	Los Angeles, CA 90001  	49.0	0	49	0.00	54	NE 6	49	77	42
Fri Jan 29 15:57:25 2010	El Paso, TX 79901  	31.4	1	31	0.00	32	ENE 16	31	83	27
Fri Jan 29 15:57:27 2010	New York, NY 10001  	16.5	2	15	0.00	20	NNW 24	16	48	0
Fri Jan 29 15:57:29 2010	Baltimore, MD 21201  	17.1	5	16	0.00	22	NW 17	10	49	1
Fri Jan 29 15:57:31 2010	Las Vegas, NV 89101  	41.2	0	40	0.00	44	W 8	41	59	28
Fri Jan 29 15:57:34 2010	Washington, DC 20001  	17.9	3	17	0.00	25	NNW 24	13	58	6
Fri Jan 29 15:57:36 2010	Austin, TX 73301  	42.8	16	43	0.97	64	NNW 25	35	93	41
Fri Jan 29 15:57:38 2010	San Francisco, CA 94101  	49.5	3	49	0.00	50	E 10	49	N/A	--
Fri Jan 29 15:57:40 2010	Oklahoma City, OK 73101  	23.0	15	23	0.00	27	NNE 31	10	92	21
Fri Jan 29 15:57:42 2010	Nashville, TN 37201  	27.8	3	28	0.00	30	NNE 17	24	64	17
Fri Jan 29 15:57:44 2010	Fort Worth, TX 76101  	36.2	2	35	0.50	46	NNE 25	36	100	36
Fri Jan 29 15:57:46 2010	Phoenix, AZ 85001  	51.1	2	51	0.00	54	ENE 12	51	89	48
Fri Jan 29 15:57:48 2010	Portland, OR 97201  	46.9	2	46	0.00	48	E 15	47	65	36
Fri Jan 29 15:57:50 2010	Chicago, IL 60601  	8.6	1	7	0.00	10	NNE 14	9	68	0
Fri Jan 29 15:57:53 2010	San Antonio, TX 78201  	37.6	8	37	0.63	63	NW 32	32	98	37
Fri Jan 29 15:57:55 2010	Indianapolis, IN 46201  	13.2	4	11	0.00	14	E 11	6	75	7
Fri Jan 29 15:57:57 2010	Boston, MA 02101  	11.0	14	9	0.00	18	WNW 38	-5	36	-11
Fri Jan 29 15:58:00 2010	Jacksonville, FL 32099  	54.0	5	47	0.00	54	N 5	53	78	47
Fri Jan 29 15:58:01 2010	Columbus, OH 43085  	11.4	1	9	N/A	12	NNE 9	11	N/A	--
Fri Jan 29 15:58:04 2010	Dallas, TX 75201  	38.6	4	38	0.47	44	ESE 16	35	100	39
Fri Jan 29 15:58:05 2010	Houston, TX 77001  	54.9	9	55	1.17	64	SSE 25	52	98	54
Fri Jan 29 15:58:08 2010	Seattle, WA 98101  	45.7	0	45	0.00	48	E 7	46	82	41
Fri Jan 29 15:58:10 2010	Milwaukee, WI 53201  	0.4	3	-1	0.00	2	NW 10	0	75	-6
Fri Jan 29 15:58:12 2010	Detroit, MI 48201  	9.0	10	6	0.00	9	W 13	-5	68	0
Fri Jan 29 15:58:14 2010	Philadelphia, PA 19019  	17.3	9	16	0.00	20	NW 25	6	54	3
Fri Jan 29 16:41:55 2010	San Jose, CA 95101  	45.0	0	44	0.00	46	NNE 5	45	94	43
Fri Jan 29 16:41:58 2010	Charlotte, NC 28201  	39.8	3	37	0.00	45	ENE 16	40	38	16
Fri Jan 29 16:42:00 2010	San Diego, CA 92101  	50.8	2	50	0.00	54	ENE 7	51	86	47
Fri Jan 29 16:42:02 2010	Denver, CO 80214  	28.2	2	22	0.00	28	SSW 6	28	85	24
Fri Jan 29 16:42:04 2010	Memphis, TN 37501  	30.2	11	30	0.04	33	ENE 30	21	80	25
Fri Jan 29 16:42:05 2010	Los Angeles, CA 90001  	51.4	0	49	0.00	54	NE 6	51	71	42
Fri Jan 29 16:42:07 2010	El Paso, TX 79901  	33.8	4	31	0.00	34	ENE 16	30	76	27
Fri Jan 29 16:42:11 2010	New York, NY 10001  	18.8	3	15	0.00	20	NNW 24	14	43	-1
Fri Jan 29 16:42:12 2010	Baltimore, MD 21201  	17.4	4	16	0.00	22	NW 19	11	45	-1
Fri Jan 29 16:42:15 2010	Las Vegas, NV 89101  	41.4	0	40	0.00	44	W 8	41	63	30
Fri Jan 29 16:42:16 2010	Washington, DC 20001  	17.9	3	17	0.00	25	NNW 24	13	58	6
Fri Jan 29 16:42:18 2010	Austin, TX 73301  	41.0	16	41	1.04	64	NNW 25	33	93	39
Fri Jan 29 16:42:20 2010	San Francisco, CA 94101  	49.7	0	49	0.00	50	E 10	50	N/A	--
Fri Jan 29 16:42:22 2010	Oklahoma City, OK 73101  	23.0	15	23	0.00	27	NNE 31	10	86	19
Fri Jan 29 16:42:23 2010	Nashville, TN 37201  	25.0	10	25	0.00	30	NNE 17	15	86	21
Fri Jan 29 16:42:25 2010	Fort Worth, TX 76101  	34.5	5	34	0.56	46	NNE 25	30	100	34
Fri Jan 29 16:42:27 2010	Phoenix, AZ 85001  	53.4	1	51	0.00	54	ENE 12	53	83	48
Fri Jan 29 16:42:28 2010	Portland, OR 97201  	46.9	0	46	0.00	48	E 15	47	64	35
Fri Jan 29 16:42:30 2010	Chicago, IL 60601  	14.2	0	7	0.00	14	NNE 14	14	62	3
Fri Jan 29 16:42:32 2010	San Antonio, TX 78201  	38.0	12	37	0.68	63	NW 32	30	94	36
Fri Jan 29 16:42:35 2010	Indianapolis, IN 46201  	15.4	6	11	0.00	16	E 12	6	71	8
Fri Jan 29 16:42:36 2010	Boston, MA 02101  	12.4	6	9	0.00	18	WNW 38	3	31	-13
Fri Jan 29 16:42:38 2010	Jacksonville, FL 32099  	55.0	5	47	0.00	55	N 5	54	65	44
Fri Jan 29 16:42:40 2010	Columbus, OH 43085  	13.5	3	9	N/A	14	NE 12	8	N/A	--
Fri Jan 29 16:42:42 2010	Dallas, TX 75201  	38.2	9	38	0.57	44	ESE 16	32	100	38
Fri Jan 29 16:42:43 2010	Houston, TX 77001  	49.8	11	50	1.18	64	NW 27	46	96	49
Fri Jan 29 16:42:45 2010	Seattle, WA 98101  	45.8	3	44	0.00	50	SE 15	46	73	38
Fri Jan 29 16:42:46 2010	Milwaukee, WI 53201  	5.4	3	-1	0.00	6	NW 10	-1	65	-4
Fri Jan 29 16:42:49 2010	Detroit, MI 48201  	11.6	11	6	0.00	12	NW 16	-2	55	-2
Fri Jan 29 16:42:51 2010	Philadelphia, PA 19019  	19.1	8	16	0.00	20	NW 25	9	50	3
Fri Jan 29 17:29:50 2010	San Jose, CA 95101  	45.0	0	44	0.00	46	NNE 5	45	94	43
Fri Jan 29 17:29:52 2010	Charlotte, NC 28201  	39.8	3	37	0.00	45	ENE 16	40	38	16
Fri Jan 29 17:29:55 2010	San Diego, CA 92101  	50.8	2	50	0.00	54	ENE 7	51	86	47
Fri Jan 29 17:30:00 2010	Denver, CO 80214  	28.2	2	22	0.00	28	SSW 6	28	85	24
Fri Jan 29 17:30:04 2010	Memphis, TN 37501  	30.2	11	30	0.04	33	ENE 30	21	80	25
Fri Jan 29 17:30:07 2010	Los Angeles, CA 90001  	51.4	0	49	0.00	54	NE 6	51	71	42
Fri Jan 29 17:30:18 2010	El Paso, TX 79901  	33.8	4	31	0.00	34	ENE 16	30	76	27
Fri Jan 29 17:30:27 2010	New York, NY 10001  	18.8	3	15	0.00	20	NNW 24	14	43	-1
Fri Jan 29 17:30:29 2010	Baltimore, MD 21201  	17.4	4	16	0.00	22	NW 19	11	45	-1
Fri Jan 29 17:30:36 2010	Las Vegas, NV 89101  	41.4	0	40	0.00	44	W 8	41	63	30
Fri Jan 29 17:30:41 2010	Washington, DC 20001  	19.7	0	17	0.00	25	NNW 24	20	57	7
Fri Jan 29 17:30:43 2010	Austin, TX 73301  	41.0	16	41	1.04	64	NNW 25	33	93	39
Fri Jan 29 17:30:44 2010	San Francisco, CA 94101  	49.7	0	49	0.00	50	E 10	50	N/A	--
Fri Jan 29 17:30:46 2010	Oklahoma City, OK 73101  	23.0	15	23	0.00	27	NNE 31	10	86	19
Fri Jan 29 17:30:48 2010	Nashville, TN 37201  	25.0	10	25	0.00	30	NNE 17	15	86	21
Fri Jan 29 17:30:49 2010	Fort Worth, TX 76101  	34.5	5	34	0.56	46	NNE 25	30	100	34
Fri Jan 29 17:30:51 2010	Phoenix, AZ 85001  	53.4	1	51	0.00	54	ENE 12	53	83	48
Fri Jan 29 17:30:53 2010	Portland, OR 97201  	46.9	0	46	0.00	48	E 15	47	64	35
Fri Jan 29 17:30:54 2010	Chicago, IL 60601  	14.2	0	7	0.00	14	NNE 14	14	62	3
Fri Jan 29 17:30:56 2010	San Antonio, TX 78201  	38.0	12	37	0.68	63	NW 32	30	94	36
Fri Jan 29 17:30:58 2010	Indianapolis, IN 46201  	15.4	6	11	0.00	16	E 12	6	71	8
Fri Jan 29 17:31:00 2010	Boston, MA 02101  	12.4	6	9	0.00	18	WNW 38	3	31	-13
Fri Jan 29 17:31:01 2010	Jacksonville, FL 32099  	55.0	5	47	0.00	55	N 5	54	65	44
Fri Jan 29 17:31:03 2010	Columbus, OH 43085  	13.5	3	9	N/A	14	NE 12	8	N/A	--
Fri Jan 29 17:31:04 2010	Dallas, TX 75201  	38.2	9	38	0.57	44	ESE 16	32	100	38
Fri Jan 29 17:31:06 2010	Houston, TX 77001  	49.8	11	50	1.18	64	NW 27	46	96	49
Fri Jan 29 17:31:08 2010	Seattle, WA 98101  	45.8	3	44	0.00	50	SE 15	46	73	38
Fri Jan 29 17:31:09 2010	Milwaukee, WI 53201  	5.4	3	-1	0.00	6	NW 10	-1	65	-4
Fri Jan 29 17:31:11 2010	Detroit, MI 48201  	11.6	11	6	0.00	12	NW 16	-2	55	-2
Fri Jan 29 17:31:12 2010	Philadelphia, PA 19019  	19.1	8	16	0.00	20	NW 25	9	50	3
Fri Jan 29 18:15:11 2010	San Jose, CA 95101  	48.9	5	44	0.00	49	NNE 5	47	85	45
Fri Jan 29 18:15:13 2010	Charlotte, NC 28201  	42.0	9	37	0.00	45	ENE 16	37	35	16
Fri Jan 29 18:15:15 2010	San Diego, CA 92101  	58.5	5	50	0.00	59	ENE 7	58	61	45
Fri Jan 29 18:15:18 2010	Denver, CO 80214  	37.6	0	22	0.00	38	SSW 6	38	58	24
Fri Jan 29 18:15:20 2010	Memphis, TN 37501  	30.0	17	30	0.25	33	ENE 30	18	88	27
Fri Jan 29 18:15:22 2010	Los Angeles, CA 90001  	58.5	0	49	0.00	58	NE 6	58	57	43
Fri Jan 29 18:15:24 2010	El Paso, TX 79901  	40.1	3	31	0.00	40	ENE 16	40	66	30
Fri Jan 29 18:15:26 2010	New York, NY 10001  	20.2	4	15	0.00	20	NNW 24	15	41	0
Fri Jan 29 18:15:28 2010	Baltimore, MD 21201  	20.0	4	16	0.00	22	NW 19	15	39	-1
Fri Jan 29 18:15:29 2010	Las Vegas, NV 89101  	45.0	0	40	0.00	45	W 8	45	55	30
Fri Jan 29 18:15:30 2010	Washington, DC 20001  	19.7	0	17	0.00	25	NNW 24	20	57	7
Fri Jan 29 18:15:32 2010	Austin, TX 73301  	42.1	18	41	1.06	64	NW 32	34	80	36
Fri Jan 29 18:15:33 2010	San Francisco, CA 94101  	49.6	4	49	0.00	50	E 10	49	N/A	--
Fri Jan 29 18:15:35 2010	Oklahoma City, OK 73101  	23.0	16	23	0.00	27	NNE 31	10	88	20
Fri Jan 29 18:15:36 2010	Nashville, TN 37201  	25.9	7	25	0.00	30	NNE 17	19	92	24
Fri Jan 29 18:15:38 2010	Fort Worth, TX 76101  	32.0	6	32	0.60	46	NNW 28	26	100	32
Fri Jan 29 18:15:39 2010	Phoenix, AZ 85001  	56.6	2	51	0.00	57	ENE 12	57	69	47
Fri Jan 29 18:15:41 2010	Portland, OR 97201  	47.6	1	46	0.00	48	ENE 16	48	62	35
Fri Jan 29 18:15:44 2010	Chicago, IL 60601  	16.3	1	7	0.00	18	NNE 14	16	54	2
Fri Jan 29 18:15:46 2010	San Antonio, TX 78201  	40.0	13	37	0.73	63	W 39	32	84	36
Fri Jan 29 18:15:47 2010	Indianapolis, IN 46201  	18.0	5	11	0.00	18	ESE 14	11	68	9
Fri Jan 29 18:15:51 2010	Boston, MA 02101  	16.1	2	9	0.00	18	WNW 38	16	27	-13
Fri Jan 29 18:15:55 2010	Jacksonville, FL 32099  	63.0	8	47	0.00	63	ESE 8	63	40	38
Fri Jan 29 18:15:58 2010	Columbus, OH 43085  	15.9	8	9	N/A	16	ENE 12	5	N/A	--
Fri Jan 29 18:16:01 2010	Dallas, TX 75201  	38.6	1	38	0.60	44	ESE 16	39	100	38
Fri Jan 29 18:16:03 2010	Houston, TX 77001  	47.2	13	47	1.20	64	WNW 30	42	94	46
Fri Jan 29 18:16:05 2010	Seattle, WA 98101  	46.0	0	44	0.00	50	SE 15	46	82	41
Fri Jan 29 18:16:07 2010	Milwaukee, WI 53201  	10.3	0	-1	0.00	12	NW 10	10	61	-1
Fri Jan 29 18:16:09 2010	Detroit, MI 48201  	13.2	2	6	0.00	14	NW 16	13	50	-2
Fri Jan 29 18:16:10 2010	Philadelphia, PA 19019  	19.7	7	16	0.00	21	NW 25	11	47	2
Fri Jan 29 19:07:41 2010	San Jose, CA 95101  	48.9	5	44	0.00	49	NNE 5	47	85	45
Fri Jan 29 19:07:43 2010	Charlotte, NC 28201  	42.0	9	37	0.00	45	ENE 16	37	35	16
Fri Jan 29 19:07:45 2010	San Diego, CA 92101  	58.5	5	50	0.00	59	ENE 7	58	61	45
Fri Jan 29 19:07:46 2010	Denver, CO 80214  	37.6	0	22	0.00	38	SSW 6	38	58	24
Fri Jan 29 19:07:48 2010	Memphis, TN 37501  	30.0	17	30	0.25	33	ENE 30	18	88	27
Fri Jan 29 19:07:49 2010	Los Angeles, CA 90001  	58.5	0	49	0.00	58	NE 6	58	57	43
Fri Jan 29 19:07:51 2010	El Paso, TX 79901  	40.1	3	31	0.00	40	ENE 16	40	66	30
Fri Jan 29 19:07:52 2010	New York, NY 10001  	20.2	4	15	0.00	20	NNW 24	15	41	0
Fri Jan 29 19:07:54 2010	Baltimore, MD 21201  	20.0	4	16	0.00	22	NW 19	15	39	-1
Fri Jan 29 19:07:55 2010	Las Vegas, NV 89101  	45.0	0	40	0.00	45	W 8	45	55	30
Fri Jan 29 19:07:58 2010	Washington, DC 20001  	21.8	9	17	0.00	25	NNW 24	12	55	8
Fri Jan 29 19:07:59 2010	Austin, TX 73301  	42.1	18	41	1.06	64	NW 32	34	80	36
Fri Jan 29 19:08:01 2010	San Francisco, CA 94101  	49.6	4	49	0.00	50	E 10	49	N/A	--
Fri Jan 29 19:08:02 2010	Oklahoma City, OK 73101  	23.0	16	23	0.00	27	NNE 31	10	88	20
Fri Jan 29 19:08:04 2010	Nashville, TN 37201  	25.9	7	25	0.00	30	NNE 17	19	92	24
Fri Jan 29 19:08:05 2010	Fort Worth, TX 76101  	32.0	6	32	0.60	46	NNW 28	26	100	32
Fri Jan 29 19:08:07 2010	Phoenix, AZ 85001  	56.6	2	51	0.00	57	ENE 12	57	69	47
Fri Jan 29 19:08:09 2010	Portland, OR 97201  	47.6	1	46	0.00	48	ENE 16	48	62	35
Fri Jan 29 19:08:11 2010	Chicago, IL 60601  	16.3	1	7	0.00	18	NNE 14	16	54	2
Fri Jan 29 19:08:14 2010	San Antonio, TX 78201  	40.0	13	37	0.73	63	W 39	32	84	36
Fri Jan 29 19:08:15 2010	Indianapolis, IN 46201  	18.0	5	11	0.00	18	ESE 14	11	68	9
Fri Jan 29 19:08:17 2010	Boston, MA 02101  	16.1	2	9	0.00	18	WNW 38	16	27	-13
Fri Jan 29 19:08:19 2010	Jacksonville, FL 32099  	63.0	8	47	0.00	63	ESE 8	63	40	38
Fri Jan 29 19:08:21 2010	Columbus, OH 43085  	15.9	8	9	N/A	16	ENE 12	5	N/A	--
Fri Jan 29 19:08:23 2010	Dallas, TX 75201  	38.6	1	38	0.60	44	ESE 16	39	100	38
Fri Jan 29 19:08:24 2010	Houston, TX 77001  	47.2	13	47	1.20	64	WNW 30	42	94	46
Fri Jan 29 19:08:26 2010	Seattle, WA 98101  	46.0	0	44	0.00	50	SE 15	46	82	41
Fri Jan 29 19:08:28 2010	Milwaukee, WI 53201  	10.3	0	-1	0.00	12	NW 10	10	61	-1
Fri Jan 29 19:08:30 2010	Detroit, MI 48201  	13.2	2	6	0.00	14	NW 16	13	50	-2
Fri Jan 29 19:08:32 2010	Philadelphia, PA 19019  	19.7	7	16	0.00	21	NW 25	11	47	2
Fri Jan 29 20:04:14 2010	San Jose, CA 95101  	52.0	7	44	0.00	52	ESE 7	50	83	47
Fri Jan 29 20:04:16 2010	Charlotte, NC 28201  	41.2	2	37	0.00	45	ENE 16	41	37	17
Fri Jan 29 20:04:19 2010	San Diego, CA 92101  	62.1	1	50	0.00	63	SSW 7	62	58	47
Fri Jan 29 20:04:25 2010	Denver, CO 80214  	41.6	3	22	0.00	42	SSE 8	40	34	15
Fri Jan 29 20:04:27 2010	Memphis, TN 37501  	30.2	15	30	0.26	33	E 31	19	86	27
Fri Jan 29 20:04:30 2010	Los Angeles, CA 90001  	63.3	0	49	0.00	63	NE 6	63	49	44
Fri Jan 29 20:04:33 2010	El Paso, TX 79901  	42.8	4	31	0.00	43	ENE 16	40	64	31
Fri Jan 29 20:04:35 2010	New York, NY 10001  	23.6	2	15	0.00	24	NNW 24	24	37	1
Fri Jan 29 20:04:37 2010	Baltimore, MD 21201  	20.4	13	16	0.00	22	NW 20	8	40	0
Fri Jan 29 20:04:39 2010	Las Vegas, NV 89101  	52.1	4	40	0.00	52	W 8	52	39	28
Fri Jan 29 20:04:41 2010	Washington, DC 20001  	21.8	9	17	0.00	25	NNW 24	12	55	8
Fri Jan 29 20:04:43 2010	Austin, TX 73301  	44.6	20	41	1.06	64	N 30	37	70	36
Fri Jan 29 20:04:45 2010	San Francisco, CA 94101  	50.8	3	49	0.00	51	E 11	51	N/A	--
Fri Jan 29 20:04:48 2010	Oklahoma City, OK 73101  	23.0	16	23	0.00	27	NNE 31	10	86	19
Fri Jan 29 20:04:50 2010	Nashville, TN 37201  	26.6	8	25	0.00	30	NNE 17	18	93	25
Fri Jan 29 20:04:52 2010	Fort Worth, TX 76101  	32.8	5	32	0.60	46	NNW 28	28	100	33
Fri Jan 29 20:04:54 2010	Phoenix, AZ 85001  	61.4	0	51	0.00	62	ENE 12	61	57	46
Fri Jan 29 20:04:56 2010	Portland, OR 97201  	49.3	1	46	0.00	49	ENE 16	49	60	36
Fri Jan 29 20:04:58 2010	Chicago, IL 60601  	18.1	6	7	0.00	22	NNE 14	9	65	8
Fri Jan 29 20:05:03 2010	San Antonio, TX 78201  	43.2	18	37	0.73	63	W 39	35	71	34
Fri Jan 29 20:05:20 2010	Boston, MA 02101  	16.4	12	9	0.00	18	WNW 38	3	24	-15
Fri Jan 29 20:05:56 2010	Jacksonville, FL 32099  	64.9	6	47	0.00	65	ESE 8	65	40	40
Fri Jan 29 20:06:03 2010	Columbus, OH 43085  	18.5	3	9	N/A	21	ENE 12	14	N/A	--
Fri Jan 29 20:06:05 2010	Dallas, TX 75201  	37.1	2	37	0.62	44	ESE 16	37	100	37
Fri Jan 29 20:06:08 2010	Houston, TX 77001  	48.7	4	47	1.20	64	WNW 30	47	89	46
Fri Jan 29 20:06:13 2010	Seattle, WA 98101  	50.3	2	44	0.00	50	WNW 18	50	61	37
Fri Jan 29 20:06:18 2010	Milwaukee, WI 53201  	11.6	4	-1	0.00	13	NW 10	5	70	4
Fri Jan 29 20:06:21 2010	Detroit, MI 48201  	16.3	7	6	0.00	17	NW 16	7	46	-1
Fri Jan 29 20:06:29 2010	Philadelphia, PA 19019  	21.0	9	16	0.00	22	NW 25	11	48	4
Fri Jan 29 20:49:57 2010	San Jose, CA 95101  	52.0	7	44	0.00	52	ESE 7	50	83	47
Fri Jan 29 20:49:59 2010	Charlotte, NC 28201  	41.2	2	37	0.00	45	ENE 16	41	37	17
Fri Jan 29 20:50:00 2010	San Diego, CA 92101  	62.1	1	50	0.00	63	SSW 7	62	58	47
Fri Jan 29 20:50:02 2010	Denver, CO 80214  	41.6	3	22	0.00	42	SSE 8	40	34	15
Fri Jan 29 20:50:04 2010	Memphis, TN 37501  	30.2	15	30	0.26	33	E 31	19	86	27
Fri Jan 29 20:50:06 2010	Los Angeles, CA 90001  	63.3	0	49	0.00	63	NE 6	63	49	44
Fri Jan 29 20:50:08 2010	El Paso, TX 79901  	42.8	4	31	0.00	43	ENE 16	40	64	31
Fri Jan 29 20:50:10 2010	New York, NY 10001  	23.6	2	15	0.00	24	NNW 24	24	37	1
Fri Jan 29 20:50:12 2010	Baltimore, MD 21201  	20.4	13	16	0.00	22	NW 20	8	40	0
Fri Jan 29 20:50:14 2010	Las Vegas, NV 89101  	52.1	4	40	0.00	52	W 8	52	39	28
Fri Jan 29 20:50:16 2010	Washington, DC 20001  	24.0	10	17	0.00	25	NNW 24	14	48	7
Fri Jan 29 20:50:18 2010	Austin, TX 73301  	44.6	20	41	1.06	64	N 30	37	70	36
Fri Jan 29 20:50:20 2010	San Francisco, CA 94101  	50.8	3	49	0.00	51	E 11	51	N/A	--
Fri Jan 29 20:50:21 2010	Oklahoma City, OK 73101  	23.0	16	23	0.00	27	NNE 31	10	86	19
Fri Jan 29 20:50:23 2010	Nashville, TN 37201  	26.6	8	25	0.00	30	NNE 17	18	93	25
Fri Jan 29 20:50:25 2010	Fort Worth, TX 76101  	32.8	5	32	0.60	46	NNW 28	28	100	33
Fri Jan 29 20:50:27 2010	Phoenix, AZ 85001  	61.4	0	51	0.00	62	ENE 12	61	57	46
Fri Jan 29 20:50:28 2010	Portland, OR 97201  	49.3	1	46	0.00	49	ENE 16	49	60	36
Fri Jan 29 20:50:30 2010	Chicago, IL 60601  	18.1	6	7	0.00	22	NNE 14	9	65	8
Fri Jan 29 20:50:31 2010	San Antonio, TX 78201  	43.2	18	37	0.73	63	W 39	35	71	34
Fri Jan 29 20:50:34 2010	Boston, MA 02101  	16.4	12	9	0.00	18	WNW 38	3	24	-15
Fri Jan 29 20:50:35 2010	Jacksonville, FL 32099  	64.9	6	47	0.00	65	ESE 8	65	40	40
Fri Jan 29 20:50:36 2010	Columbus, OH 43085  	18.5	3	9	N/A	21	ENE 12	14	N/A	--
Fri Jan 29 20:50:37 2010	Dallas, TX 75201  	37.1	2	37	0.62	44	ESE 16	37	100	37
Fri Jan 29 20:50:38 2010	Seattle, WA 98101  	50.3	2	44	0.00	50	WNW 18	50	61	37
Fri Jan 29 20:50:38 2010	Houston, TX 77001  	48.7	4	47	1.20	64	WNW 30	47	89	46
Fri Jan 29 20:50:39 2010	Milwaukee, WI 53201  	11.6	4	-1	0.00	13	NW 10	5	70	4
Fri Jan 29 20:50:40 2010	Detroit, MI 48201  	16.3	7	6	0.00	17	NW 16	7	46	-1
Fri Jan 29 20:50:41 2010	Philadelphia, PA 19019  	21.0	9	16	0.00	22	NW 25	11	48	4
Fri Jan 29 21:35:33 2010	San Jose, CA 95101  	60.1	11	44	0.00	60	ESE 22	58	65	48
Fri Jan 29 21:35:36 2010	Charlotte, NC 28201  	40.0	3	37	0.00	45	ENE 16	40	35	14
Fri Jan 29 21:35:38 2010	San Diego, CA 92101  	61.6	5	50	0.00	64	SW 11	62	71	52
Fri Jan 29 21:35:40 2010	Denver, CO 80214  	44.3	4	22	0.00	45	SSE 8	42	26	11
Fri Jan 29 21:35:43 2010	Memphis, TN 37501  	32.0	14	30	0.30	33	E 31	22	86	28
Fri Jan 29 21:35:45 2010	Los Angeles, CA 90001  	67.6	0	49	0.00	68	SE 7	68	41	44
Fri Jan 29 21:35:47 2010	El Paso, TX 79901  	47.6	1	31	0.00	48	ENE 16	48	56	33
Fri Jan 29 21:35:50 2010	New York, NY 10001  	23.2	4	15	0.00	25	NNW 24	18	38	1
Fri Jan 29 21:35:52 2010	Baltimore, MD 21201  	21.6	11	16	0.00	22	NW 20	10	37	-1
Fri Jan 29 21:35:54 2010	Las Vegas, NV 89101  	54.7	0	40	0.00	55	W 8	55	36	29
Fri Jan 29 21:35:56 2010	Washington, DC 20001  	23.2	5	17	0.00	25	NNW 24	17	49	6
Fri Jan 29 21:35:59 2010	Austin, TX 73301  	42.1	16	41	1.06	64	N 30	34	68	32
Fri Jan 29 21:36:01 2010	San Francisco, CA 94101  	55.3	1	49	0.00	56	WNW 13	55	N/A	--
Fri Jan 29 21:36:03 2010	Oklahoma City, OK 73101  	21.2	17	21	0.00	27	NNE 31	7	93	19
Fri Jan 29 21:36:05 2010	Nashville, TN 37201  	27.3	4	25	0.00	30	NNE 17	23	95	26
Fri Jan 29 21:36:07 2010	Fort Worth, TX 76101  	32.8	10	32	0.61	46	NNW 28	25	97	32
Fri Jan 29 21:36:10 2010	Phoenix, AZ 85001  	62.7	4	51	0.00	65	ENE 12	63	52	45
Fri Jan 29 21:36:12 2010	Portland, OR 97201  	48.3	18	46	0.00	50	E 20	42	65	37
Fri Jan 29 21:36:15 2010	Chicago, IL 60601  	18.0	2	7	0.00	22	NNE 14	18	76	12
Fri Jan 29 21:36:17 2010	San Antonio, TX 78201  	42.9	7	37	0.73	63	W 39	38	68	33
Fri Jan 29 21:36:19 2010	Indianapolis, IN 46201  	19.1	6	11	0.00	20	E 15	11	69	10
Fri Jan 29 21:36:22 2010	Boston, MA 02101  	16.3	17	9	0.00	18	WNW 38	1	24	-15
Fri Jan 29 21:36:25 2010	Jacksonville, FL 32099  	68.0	6	47	0.00	68	ESE 8	68	43	45
Fri Jan 29 21:36:27 2010	Columbus, OH 43085  	16.6	5	9	N/A	21	ENE 12	9	N/A	--
Fri Jan 29 21:36:30 2010	Dallas, TX 75201  	35.6	2	36	0.63	44	NNW 19	36	99	35
Fri Jan 29 21:36:32 2010	Houston, TX 77001  	47.3	6	46	1.20	64	WNW 30	44	87	44
Fri Jan 29 21:36:34 2010	Seattle, WA 98101  	52.5	0	44	0.00	53	WNW 18	53	60	39
Fri Jan 29 21:36:37 2010	Milwaukee, WI 53201  	12.1	7	-1	0.00	13	NNE 11	2	61	1
Fri Jan 29 21:36:39 2010	Detroit, MI 48201  	18.9	0	6	0.00	19	NW 16	19	44	0
Fri Jan 29 21:36:41 2010	Philadelphia, PA 19019  	22.5	13	16	0.00	23	NW 25	10	45	4
Fri Jan 29 22:22:03 2010	San Jose, CA 95101  	60.1	11	44	0.00	60	ESE 22	58	65	48
Fri Jan 29 22:22:04 2010	Charlotte, NC 28201  	40.0	3	37	0.00	45	ENE 16	40	35	14
Fri Jan 29 22:22:06 2010	San Diego, CA 92101  	61.6	5	50	0.00	64	SW 11	62	71	52
Fri Jan 29 22:22:07 2010	Denver, CO 80214  	44.3	4	22	0.00	45	SSE 8	42	26	11
Fri Jan 29 22:22:09 2010	Memphis, TN 37501  	32.0	14	30	0.30	33	E 31	22	86	28
Fri Jan 29 22:22:10 2010	Los Angeles, CA 90001  	67.6	0	49	0.00	68	SE 7	68	41	44
Fri Jan 29 22:22:12 2010	El Paso, TX 79901  	47.6	1	31	0.00	48	ENE 16	48	56	33
Fri Jan 29 22:22:13 2010	New York, NY 10001  	23.2	4	15	0.00	25	NNW 24	18	38	1
Fri Jan 29 22:22:15 2010	Baltimore, MD 21201  	21.6	11	16	0.00	22	NW 20	10	37	-1
Fri Jan 29 22:22:17 2010	Las Vegas, NV 89101  	54.7	0	40	0.00	55	W 8	55	36	29
Fri Jan 29 22:22:19 2010	Washington, DC 20001  	24.1	4	17	0.00	25	NNW 24	19	48	7
Fri Jan 29 22:22:22 2010	Austin, TX 73301  	42.1	16	41	1.06	64	N 30	34	68	32
Fri Jan 29 22:22:24 2010	San Francisco, CA 94101  	55.3	1	49	0.00	56	WNW 13	55	N/A	--
Fri Jan 29 22:22:26 2010	Oklahoma City, OK 73101  	21.2	17	21	0.00	27	NNE 31	7	93	19
Fri Jan 29 22:22:27 2010	Nashville, TN 37201  	27.3	4	25	0.00	30	NNE 17	23	95	26
Fri Jan 29 22:22:29 2010	Fort Worth, TX 76101  	32.8	10	32	0.61	46	NNW 28	25	97	32
Fri Jan 29 22:22:31 2010	Phoenix, AZ 85001  	62.7	4	51	0.00	65	ENE 12	63	52	45
Fri Jan 29 22:22:32 2010	Portland, OR 97201  	48.3	18	46	0.00	50	E 20	42	65	37
Fri Jan 29 22:22:35 2010	Chicago, IL 60601  	18.0	2	7	0.00	22	NNE 14	18	76	12
Fri Jan 29 22:22:38 2010	San Antonio, TX 78201  	42.9	7	37	0.73	63	W 39	38	68	33
Fri Jan 29 22:22:39 2010	Indianapolis, IN 46201  	19.1	6	11	0.00	20	E 15	11	69	10
Fri Jan 29 22:22:41 2010	Boston, MA 02101  	16.3	17	9	0.00	18	WNW 38	1	24	-15
Fri Jan 29 22:22:45 2010	Jacksonville, FL 32099  	68.0	6	47	0.00	68	ESE 8	68	43	45
Fri Jan 29 22:22:46 2010	Columbus, OH 43085  	16.6	5	9	N/A	21	ENE 12	9	N/A	--
Fri Jan 29 22:22:48 2010	Dallas, TX 75201  	35.6	2	36	0.63	44	NNW 19	36	99	35
Fri Jan 29 22:22:50 2010	Houston, TX 77001  	47.3	6	46	1.20	64	WNW 30	44	87	44
Fri Jan 29 22:22:51 2010	Seattle, WA 98101  	52.5	0	44	0.00	53	WNW 18	53	60	39
Fri Jan 29 22:22:54 2010	Milwaukee, WI 53201  	12.1	7	-1	0.00	13	NNE 11	2	61	1
Fri Jan 29 22:22:55 2010	Detroit, MI 48201  	18.9	0	6	0.00	19	NW 16	19	44	0
Fri Jan 29 22:22:57 2010	Philadelphia, PA 19019  	22.5	13	16	0.00	23	NW 25	10	45	4
Fri Jan 29 23:06:31 2010	San Jose, CA 95101  	60.1	8	44	0.00	60	ESE 22	59	62	47
Fri Jan 29 23:06:32 2010	Charlotte, NC 28201  	32.5	2	32	0.00	45	ENE 16	33	95	31
Fri Jan 29 23:06:33 2010	San Diego, CA 92101  	62.4	4	50	0.00	64	SW 11	62	70	52
Fri Jan 29 23:06:34 2010	Denver, CO 80214  	45.6	5	22	0.00	48	ENE 9	43	21	7
Fri Jan 29 23:06:36 2010	Memphis, TN 37501  	30.2	18	30	0.42	33	E 31	18	93	28
Fri Jan 29 23:06:37 2010	Los Angeles, CA 90001  	66.2	0	49	0.00	69	WSW 10	66	48	46
Fri Jan 29 23:06:38 2010	El Paso, TX 79901  	47.3	4	31	0.00	49	ENE 16	46	57	33
Fri Jan 29 23:06:39 2010	New York, NY 10001  	22.2	9	15	0.00	25	NNW 24	12	41	2
Fri Jan 29 23:06:40 2010	Baltimore, MD 21201  	21.9	7	16	0.00	22	NW 20	14	38	0
Fri Jan 29 23:06:42 2010	Washington, DC 20001  	24.1	4	17	0.00	25	NNW 24	19	48	7
Fri Jan 29 23:06:42 2010	Las Vegas, NV 89101  	53.0	3	40	0.00	56	W 8	53	37	28
Fri Jan 29 23:06:43 2010	Austin, TX 73301  	42.1	21	40	1.06	64	NNW 30	33	63	30
Fri Jan 29 23:06:45 2010	San Francisco, CA 94101  	56.4	1	49	0.00	57	S 14	56	N/A	--
Fri Jan 29 23:06:46 2010	Oklahoma City, OK 73101  	21.9	17	21	0.00	27	NNE 31	8	91	20
Fri Jan 29 23:06:47 2010	Nashville, TN 37201  	26.9	8	25	0.00	30	NE 17	18	97	26
Fri Jan 29 23:06:48 2010	Fort Worth, TX 76101  	32.0	7	32	0.61	46	NNW 28	25	96	31
Fri Jan 29 23:06:49 2010	Phoenix, AZ 85001  	63.6	0	51	0.00	65	ENE 12	64	45	42
Fri Jan 29 23:06:51 2010	Portland, OR 97201  	48.5	3	46	0.00	50	E 20	48	66	38
Fri Jan 29 23:06:52 2010	Chicago, IL 60601  	17.8	7	7	0.00	22	ENE 15	8	80	13
Fri Jan 29 23:06:53 2010	San Antonio, TX 78201  	42.7	15	37	0.73	63	W 39	35	62	30
Fri Jan 29 23:06:55 2010	Indianapolis, IN 46201  	18.2	4	11	0.00	20	E 15	12	72	10
Fri Jan 29 23:06:56 2010	Boston, MA 02101  	15.0	6	9	0.00	18	WNW 38	6	25	-15
Fri Jan 29 23:06:57 2010	Jacksonville, FL 32099  	63.0	10	47	0.00	68	E 11	62	54	46
Fri Jan 29 23:06:59 2010	Columbus, OH 43085  	15.9	4	9	N/A	21	ENE 12	9	N/A	--
Fri Jan 29 23:07:00 2010	Dallas, TX 75201  	33.7	12	34	0.63	44	NNW 25	25	94	32
Fri Jan 29 23:07:03 2010	Houston, TX 77001  	43.2	12	43	1.20	64	WNW 30	37	89	40
Fri Jan 29 23:07:05 2010	Seattle, WA 98101  	50.3	2	44	0.00	55	WNW 18	50	70	41
Fri Jan 29 23:07:07 2010	Milwaukee, WI 53201  	12.9	3	-1	0.00	14	NNE 11	7	64	3
Fri Jan 29 23:07:09 2010	Detroit, MI 48201  	18.2	0	6	0.00	21	NW 16	18	44	0
Fri Jan 29 23:07:11 2010	Philadelphia, PA 19019  	22.7	3	16	0.00	23	NW 25	18	45	4
Fri Jan 29 23:50:39 2010	Charlotte, NC 28201  	32.5	2	32	0.00	45	ENE 16	33	95	31
Fri Jan 29 23:50:39 2010	San Jose, CA 95101  	60.1	8	44	0.00	60	ESE 22	59	62	47
Fri Jan 29 23:50:40 2010	Denver, CO 80214  	45.6	5	22	0.00	48	ENE 9	43	21	7
Fri Jan 29 23:50:40 2010	San Diego, CA 92101  	62.4	4	50	0.00	64	SW 11	62	70	52
Fri Jan 29 23:50:41 2010	Memphis, TN 37501  	30.2	18	30	0.42	33	E 31	18	93	28
Fri Jan 29 23:50:42 2010	El Paso, TX 79901  	47.3	4	31	0.00	49	ENE 16	46	57	33
Fri Jan 29 23:50:42 2010	Los Angeles, CA 90001  	66.2	0	49	0.00	69	WSW 10	66	48	46
Fri Jan 29 23:50:43 2010	New York, NY 10001  	22.2	9	15	0.00	25	NNW 24	12	41	2
Fri Jan 29 23:50:44 2010	Baltimore, MD 21201  	21.9	7	16	0.00	22	NW 20	14	38	0
Fri Jan 29 23:50:44 2010	Las Vegas, NV 89101  	53.0	3	40	0.00	56	W 8	53	37	28
Fri Jan 29 23:50:46 2010	Washington, DC 20001  	23.6	6	17	0.00	25	NNW 24	16	46	6
Fri Jan 29 23:50:47 2010	Austin, TX 73301  	42.1	21	40	1.06	64	NNW 30	33	63	30
Fri Jan 29 23:50:47 2010	San Francisco, CA 94101  	56.4	1	49	0.00	57	S 14	56	N/A	--
Fri Jan 29 23:50:48 2010	Oklahoma City, OK 73101  	21.9	17	21	0.00	27	NNE 31	8	91	20
Fri Jan 29 23:50:49 2010	Nashville, TN 37201  	26.9	8	25	0.00	30	NE 17	18	97	26
Fri Jan 29 23:50:50 2010	Phoenix, AZ 85001  	63.6	0	51	0.00	65	ENE 12	64	45	42
Fri Jan 29 23:50:50 2010	Fort Worth, TX 76101  	32.0	7	32	0.61	46	NNW 28	25	96	31
Fri Jan 29 23:50:51 2010	Portland, OR 97201  	48.5	3	46	0.00	50	E 20	48	66	38
Fri Jan 29 23:50:55 2010	Chicago, IL 60601  	18.5	4	6	0.00	21	NW 12	12	71	10
Fri Jan 29 23:50:56 2010	San Antonio, TX 78201  	42.7	15	37	0.73	63	W 39	35	62	30
Fri Jan 29 23:50:57 2010	Indianapolis, IN 46201  	18.2	4	11	0.00	20	E 15	12	72	10
Fri Jan 29 23:50:57 2010	Boston, MA 02101  	15.0	6	9	0.00	18	WNW 38	6	25	-15
Fri Jan 29 23:50:58 2010	Jacksonville, FL 32099  	63.0	10	47	0.00	68	E 11	62	54	46
Fri Jan 29 23:50:59 2010	Columbus, OH 43085  	15.9	4	9	N/A	21	ENE 12	9	N/A	--
Fri Jan 29 23:50:59 2010	Dallas, TX 75201  	33.7	12	34	0.63	44	NNW 25	25	94	32
Fri Jan 29 23:51:00 2010	Houston, TX 77001  	43.2	12	43	1.20	64	WNW 30	37	89	40
Fri Jan 29 23:51:01 2010	Seattle, WA 98101  	50.3	2	44	0.00	55	WNW 18	50	70	41
Fri Jan 29 23:51:02 2010	Milwaukee, WI 53201  	12.9	3	-1	0.00	14	NNE 11	7	64	3
Fri Jan 29 23:51:03 2010	Detroit, MI 48201  	18.2	0	6	0.00	21	NW 16	18	44	0
Fri Jan 29 23:51:04 2010	Philadelphia, PA 19019  	22.7	3	16	0.00	23	NW 25	18	45	4
Mon Feb  1 00:16:54 2010	San Jose, CA 95101  	60.1	5	48	0.00	60	NNW 5	60	58	45
Mon Feb  1 00:16:55 2010	Charlotte, NC 28201  	38.1	0	18	0.33	42	N 11	38	44	18
Mon Feb  1 00:16:56 2010	Denver, CO 80214  	37.5	3	26	0.00	42	NE 15	35	50	20
Mon Feb  1 00:16:56 2010	San Diego, CA 92101  	59.1	2	49	0.00	60	WNW 15	59	75	51
Mon Feb  1 00:16:57 2010	Memphis, TN 37501  	37.0	3	20	0.00	37	NNE 7	35	63	26
Mon Feb  1 00:16:57 2010	Los Angeles, CA 90001  	62.9	0	48	0.00	68	W 19	63	57	48
Mon Feb  1 00:16:58 2010	El Paso, TX 79901  	60.1	2	42	0.00	62	SE 11	60	39	35
Mon Feb  1 00:16:59 2010	New York, NY 10001  	28.5	5	13	0.00	31	NW 18	23	36	4
Mon Feb  1 00:17:00 2010	Las Vegas, NV 89101  	58.4	5	36	0.00	59	NE 11	58	29	26
Mon Feb  1 00:17:00 2010	Baltimore, MD 21201  	27.3	5	14	0.00	29	NW 16	21	38	4
Mon Feb  1 00:17:01 2010	Austin, TX 73301  	35.1	0	30	0.00	35	NNE 12	35	80	29
Mon Feb  1 00:17:01 2010	Washington, DC 20001  	31.8	0	15	0.00	34	NNW 22	32	44	12
Mon Feb  1 00:17:02 2010	San Francisco, CA 94101  	57.8	1	49	0.00	58	E 6	58	N/A	--
Mon Feb  1 00:17:03 2010	Oklahoma City, OK 73101  	27.0	11	19	0.00	27	S 11	17	90	24
Mon Feb  1 00:17:03 2010	Nashville, TN 37201  	40.4	2	18	0.16	47	WSW 7	40	40	18
Mon Feb  1 00:17:04 2010	Fort Worth, TX 76101  	34.5	0	28	0.00	35	NE 12	34	91	32
Mon Feb  1 00:17:05 2010	Phoenix, AZ 85001  	68.3	2	46	0.00	69	ENE 11	68	33	38
Mon Feb  1 00:17:05 2010	Portland, OR 97201  	48.9	3	43	0.02	52	SSE 9	48	89	46
Mon Feb  1 00:17:06 2010	San Antonio, TX 78201  	33.4	4	28	0.00	34	NE 13	29	87	30
Mon Feb  1 00:17:06 2010	Chicago, IL 60601  	27.0	1	15	0.00	29	W 25	27	47	9
Mon Feb  1 00:17:07 2010	Indianapolis, IN 46201  	30.1	3	10	0.00	31	WNW 15	27	56	16
Mon Feb  1 00:17:08 2010	Boston, MA 02101  	26.0	3	11	0.00	28	NNW 18	26	41	5
Mon Feb  1 00:17:08 2010	Jacksonville, FL 32099  	44.1	15	41	0.00	50	NNW 21	37	69	34
Mon Feb  1 00:17:09 2010	Dallas, TX 75201  	41.3	3	31	0.00	41	SE 10	40	74	34
Mon Feb  1 00:17:09 2010	Columbus, OH 43085  	28.6	7	7	N/A	31	WSW 17	21	N/A	--
Mon Feb  1 00:17:10 2010	Houston, TX 77001  	39.3	4	31	0.00	41	NNE 16	37	74	32
Mon Feb  1 00:17:11 2010	Seattle, WA 98101  	47.8	2	44	0.06	48	WSW 12	48	84	43
Mon Feb  1 00:17:11 2010	Milwaukee, WI 53201  	20.1	1	11	0.00	23	WSW 20	20	57	7
Mon Feb  1 00:17:12 2010	Detroit, MI 48201  	25.5	10	12	0.00	26	S 21	16	59	13
Mon Feb  1 00:17:13 2010	Philadelphia, PA 19019  	29.0	4	15	0.00	31	N 17	24	35	4
Mon Feb  1 01:00:35 2010	San Jose, CA 95101  	59.0	5	48	0.00	60	NNW 5	59	59	45
Mon Feb  1 01:00:37 2010	Charlotte, NC 28201  	31.7	2	18	0.33	42	N 11	32	67	22
Mon Feb  1 01:00:39 2010	San Diego, CA 92101  	57.6	5	49	0.00	60	WNW 15	57	83	53
Mon Feb  1 01:00:44 2010	Denver, CO 80214  	35.4	1	26	0.00	42	NE 15	35	53	20
Mon Feb  1 01:00:46 2010	Memphis, TN 37501  	36.0	7	20	0.00	37	NNE 7	30	70	27
Mon Feb  1 01:00:48 2010	Los Angeles, CA 90001  	60.1	0	48	0.00	68	W 19	60	65	49
Mon Feb  1 01:00:49 2010	El Paso, TX 79901  	57.5	0	42	0.00	62	SE 11	57	43	35
Mon Feb  1 01:00:53 2010	New York, NY 10001  	28.7	8	13	0.00	31	NW 18	21	35	4
Mon Feb  1 01:00:54 2010	Baltimore, MD 21201  	26.3	3	14	0.00	29	NW 16	23	44	7
Mon Feb  1 01:00:56 2010	Las Vegas, NV 89101  	56.6	1	36	0.00	59	NE 11	57	30	26
Mon Feb  1 01:00:58 2010	Washington, DC 20001  	29.7	0	15	0.00	34	NNW 22	30	52	14
Mon Feb  1 01:00:59 2010	Austin, TX 73301  	35.1	3	30	0.00	35	NNE 12	32	80	29
Mon Feb  1 01:01:00 2010	San Francisco, CA 94101  	56.6	1	49	0.00	58	E 6	57	N/A	--
Mon Feb  1 01:01:02 2010	Oklahoma City, OK 73101  	27.0	11	19	0.00	27	S 11	17	90	24
Mon Feb  1 01:01:05 2010	Nashville, TN 37201  	34.6	1	18	0.16	47	WSW 7	35	51	18
Mon Feb  1 01:01:09 2010	Fort Worth, TX 76101  	34.6	1	28	0.00	35	NE 12	35	92	33
Mon Feb  1 01:01:11 2010	Phoenix, AZ 85001  	66.5	4	46	0.00	69	ENE 11	66	34	38
Mon Feb  1 01:01:14 2010	Portland, OR 97201  	48.7	2	43	0.02	52	SSE 9	49	88	45
Mon Feb  1 01:01:18 2010	Chicago, IL 60601  	25.0	7	15	0.00	29	W 25	17	48	8
Mon Feb  1 01:01:20 2010	San Antonio, TX 78201  	33.0	4	28	0.00	34	NE 13	30	89	30
Mon Feb  1 01:01:22 2010	Indianapolis, IN 46201  	27.2	3	10	0.00	31	WNW 15	23	61	15
Mon Feb  1 01:01:29 2010	Boston, MA 02101  	24.9	3	11	0.00	28	NNW 18	21	44	6
Mon Feb  1 01:01:31 2010	Jacksonville, FL 32099  	44.1	14	41	0.00	50	NNW 21	37	69	34
Mon Feb  1 01:01:32 2010	Columbus, OH 43085  	26.6	3	7	N/A	31	WSW 17	27	N/A	--
Mon Feb  1 01:01:35 2010	Dallas, TX 75201  	38.6	4	31	0.00	41	SE 10	36	80	33
Mon Feb  1 01:01:40 2010	Houston, TX 77001  	38.8	3	31	0.00	41	NNE 16	39	74	31
Mon Feb  1 01:01:41 2010	Seattle, WA 98101  	47.7	4	44	0.06	48	WSW 12	46	84	43
Mon Feb  1 01:01:43 2010	Milwaukee, WI 53201  	18.6	2	11	0.00	23	WSW 20	19	61	7
Mon Feb  1 01:01:45 2010	Detroit, MI 48201  	24.7	10	12	0.00	26	S 21	15	61	13
Mon Feb  1 01:01:48 2010	Philadelphia, PA 19019  	27.5	4	15	0.00	31	N 17	22	41	7
Mon Feb  1 01:46:02 2010	San Jose, CA 95101  	59.0	5	48	0.00	60	NNW 5	59	59	45
Mon Feb  1 01:46:04 2010	Charlotte, NC 28201  	31.7	2	18	0.33	42	N 11	32	67	22
Mon Feb  1 01:46:06 2010	San Diego, CA 92101  	57.6	5	49	0.00	60	WNW 15	57	83	53
Mon Feb  1 01:46:08 2010	Denver, CO 80214  	35.4	1	26	0.00	42	NE 15	35	53	20
Mon Feb  1 01:46:10 2010	Memphis, TN 37501  	36.0	7	20	0.00	37	NNE 7	30	70	27
Mon Feb  1 01:46:13 2010	Los Angeles, CA 90001  	60.1	0	48	0.00	68	W 19	60	65	49
Mon Feb  1 01:46:15 2010	El Paso, TX 79901  	57.5	0	42	0.00	62	SE 11	57	43	35
Mon Feb  1 01:46:17 2010	New York, NY 10001  	28.7	8	13	0.00	31	NW 18	21	35	4
Mon Feb  1 01:46:19 2010	Baltimore, MD 21201  	26.3	3	14	0.00	29	NW 16	23	44	7
Mon Feb  1 01:46:21 2010	Las Vegas, NV 89101  	56.6	1	36	0.00	59	NE 11	57	30	26
Mon Feb  1 01:46:22 2010	Washington, DC 20001  	29.7	0	15	0.00	34	NNW 22	30	52	14
Mon Feb  1 01:46:24 2010	Austin, TX 73301  	35.1	3	30	0.00	35	NNE 12	32	80	29
Mon Feb  1 01:46:26 2010	San Francisco, CA 94101  	56.6	1	49	0.00	58	E 6	57	N/A	--
Mon Feb  1 01:46:28 2010	Oklahoma City, OK 73101  	27.0	11	19	0.00	27	S 11	17	90	24
Mon Feb  1 01:46:30 2010	Nashville, TN 37201  	34.6	1	18	0.16	47	WSW 7	35	51	18
Mon Feb  1 01:46:32 2010	Fort Worth, TX 76101  	34.6	1	28	0.00	35	NE 12	35	92	33
Mon Feb  1 01:46:34 2010	Phoenix, AZ 85001  	66.5	4	46	0.00	69	ENE 11	66	34	38
Mon Feb  1 01:46:36 2010	Portland, OR 97201  	48.7	2	43	0.02	52	SSE 9	49	88	45
Mon Feb  1 01:46:37 2010	Chicago, IL 60601  	25.0	7	15	0.00	29	W 25	17	48	8
Mon Feb  1 01:46:39 2010	San Antonio, TX 78201  	33.0	4	28	0.00	34	NE 13	30	89	30
Mon Feb  1 01:46:41 2010	Indianapolis, IN 46201  	27.2	3	10	0.00	31	WNW 15	23	61	15
Mon Feb  1 01:46:43 2010	Boston, MA 02101  	24.9	3	11	0.00	28	NNW 18	21	44	6
Mon Feb  1 01:46:44 2010	Jacksonville, FL 32099  	44.1	14	41	0.00	50	NNW 21	37	69	34
Mon Feb  1 01:46:46 2010	Columbus, OH 43085  	26.6	3	7	N/A	31	WSW 17	27	N/A	--
Mon Feb  1 01:46:47 2010	Dallas, TX 75201  	38.6	4	31	0.00	41	SE 10	36	80	33
Mon Feb  1 01:46:49 2010	Houston, TX 77001  	38.8	3	31	0.00	41	NNE 16	39	74	31
Mon Feb  1 01:46:51 2010	Seattle, WA 98101  	47.7	4	44	0.06	48	WSW 12	46	84	43
Mon Feb  1 01:46:53 2010	Milwaukee, WI 53201  	18.6	2	11	0.00	23	WSW 20	19	61	7
Mon Feb  1 01:46:54 2010	Detroit, MI 48201  	24.7	10	12	0.00	26	S 21	15	61	13
Mon Feb  1 01:46:56 2010	Philadelphia, PA 19019  	27.5	4	15	0.00	31	N 17	22	41	7
Mon Feb  1 02:30:01 2010	San Jose, CA 95101  	55.9	7	48	0.00	60	NW 7	54	73	47
Mon Feb  1 02:30:03 2010	Charlotte, NC 28201  	28.7	0	18	0.33	42	N 11	29	86	25
Mon Feb  1 02:30:06 2010	San Diego, CA 92101  	56.2	5	49	0.00	60	WNW 15	55	86	52
Mon Feb  1 02:30:09 2010	Denver, CO 80214  	31.0	0	26	0.00	42	NE 15	31	64	20
Mon Feb  1 02:30:11 2010	Memphis, TN 37501  	33.1	7	20	0.00	37	NNE 7	27	73	25
Mon Feb  1 02:30:13 2010	Los Angeles, CA 90001  	57.7	0	48	0.00	68	W 19	58	70	48
Mon Feb  1 02:30:15 2010	El Paso, TX 79901  	54.0	0	42	0.00	62	SE 11	54	49	35
Mon Feb  1 02:30:16 2010	New York, NY 10001  	27.8	4	13	0.00	31	NW 18	23	37	4
Mon Feb  1 02:30:19 2010	Baltimore, MD 21201  	25.1	2	14	0.00	29	NW 16	25	49	9
Mon Feb  1 02:30:21 2010	Las Vegas, NV 89101  	54.0	1	36	0.00	59	NE 11	54	34	26
Mon Feb  1 02:30:23 2010	Washington, DC 20001  	29.1	1	15	0.00	34	NNW 22	29	57	15
Mon Feb  1 02:30:25 2010	Austin, TX 73301  	35.1	6	30	0.00	35	NNE 12	30	80	29
Mon Feb  1 02:30:27 2010	San Francisco, CA 94101  	54.2	2	49	0.00	58	WSW 7	54	N/A	--
Mon Feb  1 02:30:29 2010	Oklahoma City, OK 73101  	27.0	12	19	0.00	27	S 14	16	94	25
Mon Feb  1 02:30:32 2010	Nashville, TN 37201  	31.6	3	18	0.16	47	WSW 7	28	78	25
Mon Feb  1 02:30:34 2010	Fort Worth, TX 76101  	34.4	3	28	0.00	35	NE 12	34	93	33
Mon Feb  1 02:30:39 2010	Phoenix, AZ 85001  	63.7	4	46	0.00	69	ENE 11	64	40	39
Mon Feb  1 02:30:41 2010	Portland, OR 97201  	48.5	2	43	0.02	52	SSE 9	48	89	45
Mon Feb  1 02:30:43 2010	Chicago, IL 60601  	23.6	7	15	0.00	29	W 25	15	49	7
Mon Feb  1 02:30:45 2010	San Antonio, TX 78201  	32.8	3	28	0.00	34	NE 13	30	91	31
Mon Feb  1 02:30:47 2010	Indianapolis, IN 46201  	25.7	1	10	0.00	31	WNW 15	26	64	15
Mon Feb  1 02:30:50 2010	Boston, MA 02101  	23.6	4	11	0.00	28	NNW 18	19	46	6
Mon Feb  1 02:30:52 2010	Jacksonville, FL 32099  	44.6	11	41	0.00	50	NNW 21	39	76	37
Mon Feb  1 02:30:54 2010	Columbus, OH 43085  	24.9	5	7	N/A	31	WSW 17	19	N/A	--
Mon Feb  1 02:30:56 2010	Dallas, TX 75201  	37.6	3	31	0.00	41	SE 10	35	83	33
Mon Feb  1 02:30:57 2010	Houston, TX 77001  	37.7	2	31	0.00	41	NNE 16	38	78	31
Mon Feb  1 02:31:00 2010	Seattle, WA 98101  	48.4	0	44	0.06	49	WSW 12	48	81	43
Mon Feb  1 02:31:03 2010	Milwaukee, WI 53201  	17.1	3	11	0.00	23	WSW 20	12	66	8
Mon Feb  1 02:31:07 2010	Detroit, MI 48201  	22.7	11	12	0.00	26	WSW 27	12	63	12
Mon Feb  1 02:31:11 2010	Philadelphia, PA 19019  	26.5	4	15	0.00	31	N 17	22	46	8
Mon Feb  1 03:14:11 2010	Charlotte, NC 28201  	28.7	0	18	0.33	42	N 11	29	86	25
Mon Feb  1 03:14:11 2010	San Jose, CA 95101  	55.9	7	48	0.00	60	NW 7	54	73	47
Mon Feb  1 03:14:12 2010	San Diego, CA 92101  	56.2	5	49	0.00	60	WNW 15	55	86	52
Mon Feb  1 03:14:13 2010	Denver, CO 80214  	31.0	0	26	0.00	42	NE 15	31	64	20
Mon Feb  1 03:14:13 2010	Memphis, TN 37501  	33.1	7	20	0.00	37	NNE 7	27	73	25
Mon Feb  1 03:14:14 2010	Los Angeles, CA 90001  	57.7	0	48	0.00	68	W 19	58	70	48
Mon Feb  1 03:14:15 2010	New York, NY 10001  	27.8	4	13	0.00	31	NW 18	23	37	4
Mon Feb  1 03:14:15 2010	El Paso, TX 79901  	54.0	0	42	0.00	62	SE 11	54	49	35
Mon Feb  1 03:14:16 2010	Las Vegas, NV 89101  	54.0	1	36	0.00	59	NE 11	54	34	26
Mon Feb  1 03:14:16 2010	Baltimore, MD 21201  	25.1	2	14	0.00	29	NW 16	25	49	9
Mon Feb  1 03:14:18 2010	Austin, TX 73301  	35.1	6	30	0.00	35	NNE 12	30	80	29
Mon Feb  1 03:14:18 2010	Washington, DC 20001  	28.3	2	15	0.00	34	NNW 22	28	58	15
Mon Feb  1 03:14:19 2010	Oklahoma City, OK 73101  	27.0	12	19	0.00	27	S 14	16	94	25
Mon Feb  1 03:14:19 2010	San Francisco, CA 94101  	54.2	2	49	0.00	58	WSW 7	54	N/A	--
Mon Feb  1 03:14:20 2010	Nashville, TN 37201  	31.6	3	18	0.16	47	WSW 7	28	78	25
Mon Feb  1 03:14:21 2010	Phoenix, AZ 85001  	63.7	4	46	0.00	69	ENE 11	64	40	39
Mon Feb  1 03:14:21 2010	Fort Worth, TX 76101  	34.4	3	28	0.00	35	NE 12	34	93	33
Mon Feb  1 03:14:22 2010	Portland, OR 97201  	48.5	2	43	0.02	52	SSE 9	48	89	45
Mon Feb  1 03:14:22 2010	Chicago, IL 60601  	23.6	7	15	0.00	29	W 25	15	49	7
Mon Feb  1 03:14:23 2010	San Antonio, TX 78201  	32.8	3	28	0.00	34	NE 13	30	91	31
Mon Feb  1 03:14:24 2010	Boston, MA 02101  	23.6	4	11	0.00	28	NNW 18	19	46	6
Mon Feb  1 03:14:24 2010	Indianapolis, IN 46201  	25.7	1	10	0.00	31	WNW 15	26	64	15
Mon Feb  1 03:14:25 2010	Jacksonville, FL 32099  	44.6	11	41	0.00	50	NNW 21	39	76	37
Mon Feb  1 03:14:26 2010	Dallas, TX 75201  	37.6	3	31	0.00	41	SE 10	35	83	33
Mon Feb  1 03:14:26 2010	Columbus, OH 43085  	24.9	5	7	N/A	31	WSW 17	19	N/A	--
Mon Feb  1 03:14:27 2010	Houston, TX 77001  	37.7	2	31	0.00	41	NNE 16	38	78	31
Mon Feb  1 03:14:27 2010	Seattle, WA 98101  	48.4	0	44	0.06	49	WSW 12	48	81	43
Mon Feb  1 03:14:28 2010	Milwaukee, WI 53201  	17.1	3	11	0.00	23	WSW 20	12	66	8
Mon Feb  1 03:14:29 2010	Philadelphia, PA 19019  	26.5	4	15	0.00	31	N 17	22	46	8
Mon Feb  1 03:14:29 2010	Detroit, MI 48201  	22.7	11	12	0.00	26	WSW 27	12	63	12
Mon Feb  1 03:58:37 2010	San Jose, CA 95101  	53.1	9	48	0.00	60	NW 9	50	78	46
Mon Feb  1 03:58:40 2010	Charlotte, NC 28201  	27.0	0	18	0.33	42	N 11	27	95	26
Mon Feb  1 03:58:44 2010	San Diego, CA 92101  	55.6	0	49	0.00	60	WNW 15	56	87	52
Mon Feb  1 03:58:49 2010	Denver, CO 80214  	28.7	0	26	0.00	42	NE 15	29	72	21
Mon Feb  1 03:58:54 2010	Memphis, TN 37501  	32.0	5	20	0.00	37	NNE 7	27	81	27
Mon Feb  1 03:58:55 2010	Los Angeles, CA 90001  	56.2	0	48	0.00	68	W 19	56	78	49
Mon Feb  1 03:58:59 2010	El Paso, TX 79901  	50.5	2	42	0.00	62	SE 11	51	60	37
Mon Feb  1 03:59:01 2010	New York, NY 10001  	27.3	5	13	0.00	31	NW 18	22	38	5
Mon Feb  1 03:59:12 2010	Baltimore, MD 21201  	24.7	4	14	0.00	29	NW 16	19	48	7
Mon Feb  1 03:59:13 2010	Las Vegas, NV 89101  	49.8	0	36	0.00	59	NE 11	50	45	29
Mon Feb  1 03:59:23 2010	Washington, DC 20001  	28.1	2	15	0.00	34	NNW 22	28	61	16
Mon Feb  1 03:59:26 2010	Austin, TX 73301  	35.1	0	30	0.00	35	NNE 12	35	80	29
Mon Feb  1 03:59:29 2010	San Francisco, CA 94101  	53.8	2	49	0.00	58	WSW 7	54	N/A	--
Mon Feb  1 03:59:31 2010	Oklahoma City, OK 73101  	28.4	12	19	0.00	28	S 14	18	93	27
Mon Feb  1 03:59:33 2010	Nashville, TN 37201  	30.1	3	18	0.16	47	WSW 7	30	69	21
Mon Feb  1 03:59:36 2010	Fort Worth, TX 76101  	33.9	1	28	0.00	35	NE 12	34	96	33
Mon Feb  1 03:59:39 2010	Phoenix, AZ 85001  	61.8	1	46	0.00	69	ENE 11	62	42	39
Mon Feb  1 03:59:41 2010	Portland, OR 97201  	45.7	0	43	0.02	52	SSE 9	46	97	45
Mon Feb  1 03:59:44 2010	Chicago, IL 60601  	22.0	3	15	0.00	29	W 25	18	51	6
Mon Feb  1 03:59:47 2010	San Antonio, TX 78201  	32.5	1	28	0.00	34	NE 13	33	94	31
Mon Feb  1 03:59:49 2010	Indianapolis, IN 46201  	24.2	0	10	0.00	31	WNW 15	24	67	15
Mon Feb  1 03:59:52 2010	Boston, MA 02101  	23.0	2	11	0.00	28	NNW 18	23	48	6
Mon Feb  1 03:59:55 2010	Jacksonville, FL 32099  	46.0	12	41	0.00	50	NNW 21	40	72	38
Mon Feb  1 03:59:58 2010	Columbus, OH 43085  	23.1	4	7	N/A	31	WSW 17	18	N/A	--
Mon Feb  1 04:00:00 2010	Dallas, TX 75201  	37.1	3	31	0.00	41	SE 10	37	84	33
Mon Feb  1 04:00:03 2010	Houston, TX 77001  	36.8	5	31	0.00	41	NNE 16	33	81	32
Mon Feb  1 04:00:06 2010	Seattle, WA 98101  	48.6	1	44	0.06	49	WSW 12	49	81	43
Mon Feb  1 04:00:10 2010	Milwaukee, WI 53201  	14.7	3	11	0.00	23	WSW 20	15	70	7
Mon Feb  1 04:00:13 2010	Detroit, MI 48201  	20.3	10	12	0.00	26	WSW 27	9	59	8
Mon Feb  1 04:00:16 2010	Philadelphia, PA 19019  	25.2	5	15	0.00	31	N 17	19	55	11
Mon Feb  1 04:43:28 2010	Charlotte, NC 28201  	27.0	0	18	0.33	42	N 11	27	95	26
Mon Feb  1 04:43:28 2010	San Jose, CA 95101  	53.1	9	48	0.00	60	NW 9	50	78	46
Mon Feb  1 04:43:29 2010	San Diego, CA 92101  	55.6	0	49	0.00	60	WNW 15	56	87	52
Mon Feb  1 04:43:30 2010	Denver, CO 80214  	28.7	0	26	0.00	42	NE 15	29	72	21
Mon Feb  1 04:43:30 2010	Memphis, TN 37501  	32.0	5	20	0.00	37	NNE 7	27	81	27
Mon Feb  1 04:43:31 2010	El Paso, TX 79901  	50.5	2	42	0.00	62	SE 11	51	60	37
Mon Feb  1 04:43:31 2010	Los Angeles, CA 90001  	56.2	0	48	0.00	68	W 19	56	78	49
Mon Feb  1 04:43:32 2010	New York, NY 10001  	27.3	5	13	0.00	31	NW 18	22	38	5
Mon Feb  1 04:43:33 2010	Las Vegas, NV 89101  	49.8	0	36	0.00	59	NE 11	50	45	29
Mon Feb  1 04:43:33 2010	Baltimore, MD 21201  	24.7	4	14	0.00	29	NW 16	19	48	7
Mon Feb  1 04:43:34 2010	Washington, DC 20001  	28.1	2	15	0.00	34	NNW 22	28	61	16
Mon Feb  1 04:43:35 2010	Austin, TX 73301  	35.1	0	30	0.00	35	NNE 12	35	80	29
Mon Feb  1 04:43:35 2010	San Francisco, CA 94101  	53.8	2	49	0.00	58	WSW 7	54	N/A	--
Mon Feb  1 04:43:36 2010	Oklahoma City, OK 73101  	28.4	12	19	0.00	28	S 14	18	93	27
Mon Feb  1 04:43:36 2010	Nashville, TN 37201  	30.1	3	18	0.16	47	WSW 7	30	69	21
Mon Feb  1 04:43:37 2010	Fort Worth, TX 76101  	33.9	1	28	0.00	35	NE 12	34	96	33
Mon Feb  1 04:43:38 2010	Phoenix, AZ 85001  	61.8	1	46	0.00	69	ENE 11	62	42	39
Mon Feb  1 04:43:38 2010	Portland, OR 97201  	45.7	0	43	0.02	52	SSE 9	46	97	45
Mon Feb  1 04:43:39 2010	Chicago, IL 60601  	22.0	3	15	0.00	29	W 25	18	51	6
Mon Feb  1 04:43:40 2010	San Antonio, TX 78201  	32.5	1	28	0.00	34	NE 13	33	94	31
Mon Feb  1 04:43:40 2010	Indianapolis, IN 46201  	24.2	0	10	0.00	31	WNW 15	24	67	15
Mon Feb  1 04:43:41 2010	Boston, MA 02101  	23.0	2	11	0.00	28	NNW 18	23	48	6
Mon Feb  1 04:43:41 2010	Jacksonville, FL 32099  	46.0	12	41	0.00	50	NNW 21	40	72	38
Mon Feb  1 04:43:42 2010	Columbus, OH 43085  	23.1	4	7	N/A	31	WSW 17	18	N/A	--
Mon Feb  1 04:43:43 2010	Houston, TX 77001  	36.8	5	31	0.00	41	NNE 16	33	81	32
Mon Feb  1 04:43:43 2010	Dallas, TX 75201  	37.1	3	31	0.00	41	SE 10	37	84	33
Mon Feb  1 04:43:44 2010	Seattle, WA 98101  	48.6	1	44	0.06	49	WSW 12	49	81	43
Mon Feb  1 04:43:44 2010	Milwaukee, WI 53201  	14.7	3	11	0.00	23	WSW 20	15	70	7
Mon Feb  1 04:43:45 2010	Detroit, MI 48201  	20.3	10	12	0.00	26	WSW 27	9	59	8
Mon Feb  1 04:43:46 2010	Philadelphia, PA 19019  	25.2	5	15	0.00	31	N 17	19	55	11
Mon Feb  1 05:26:26 2010	San Jose, CA 95101  	53.1	0	48	0.00	60	NW 9	53	78	46
Mon Feb  1 05:26:28 2010	Charlotte, NC 28201  	25.8	0	18	0.33	42	N 11	26	100	26
Mon Feb  1 05:26:30 2010	San Diego, CA 92101  	54.1	1	49	0.00	60	WNW 15	54	91	51
Mon Feb  1 05:26:31 2010	Denver, CO 80214  	27.4	2	26	0.00	42	NE 15	27	75	20
Mon Feb  1 05:26:34 2010	Memphis, TN 37501  	30.0	6	20	0.00	37	NNE 7	24	78	24
Mon Feb  1 05:26:36 2010	Los Angeles, CA 90001  	55.3	0	48	0.00	68	W 19	55	80	49
Mon Feb  1 05:26:40 2010	El Paso, TX 79901  	50.5	3	42	0.00	62	SE 11	50	59	37
Mon Feb  1 05:26:42 2010	New York, NY 10001  	26.4	4	13	0.00	31	NW 18	22	43	7
Mon Feb  1 05:26:43 2010	Baltimore, MD 21201  	25.2	5	14	0.00	29	NW 16	19	51	9
Mon Feb  1 05:26:45 2010	Las Vegas, NV 89101  	47.2	3	36	0.00	59	NE 11	47	53	31
Mon Feb  1 05:26:48 2010	Washington, DC 20001  	28.6	1	15	0.00	34	NNW 22	29	58	16
Mon Feb  1 05:26:50 2010	Austin, TX 73301  	35.1	3	30	0.00	35	NNE 12	32	80	29
Mon Feb  1 05:26:51 2010	San Francisco, CA 94101  	54.3	0	49	0.00	58	WSW 7	54	N/A	--
Mon Feb  1 05:26:53 2010	Oklahoma City, OK 73101  	26.6	12	19	0.00	28	S 14	16	100	27
Mon Feb  1 05:26:54 2010	Nashville, TN 37201  	28.7	1	18	0.16	47	WSW 7	29	78	23
Mon Feb  1 05:26:59 2010	Fort Worth, TX 76101  	33.0	2	28	0.00	35	NE 12	33	99	33
Mon Feb  1 05:27:00 2010	Phoenix, AZ 85001  	59.1	4	46	0.00	69	ENE 11	59	50	41
Mon Feb  1 05:27:02 2010	Portland, OR 97201  	44.1	1	43	0.02	52	SSE 9	44	100	44
Mon Feb  1 05:27:03 2010	Chicago, IL 60601  	21.6	6	15	0.00	29	W 25	14	55	8
Mon Feb  1 05:27:04 2010	San Antonio, TX 78201  	32.8	4	28	0.00	34	NE 13	29	96	32
Mon Feb  1 05:27:05 2010	Indianapolis, IN 46201  	21.5	0	10	0.00	31	WNW 15	21	75	15
Mon Feb  1 05:27:07 2010	Boston, MA 02101  	22.8	6	11	0.00	28	NNW 18	15	47	5
Mon Feb  1 05:27:09 2010	Jacksonville, FL 32099  	46.9	10	41	0.00	49	NNW 21	42	78	40
Mon Feb  1 05:27:10 2010	Columbus, OH 43085  	21.9	3	7	N/A	31	WSW 17	18	N/A	--
Mon Feb  1 05:27:11 2010	Dallas, TX 75201  	36.6	3	31	0.00	41	SE 10	34	86	33
Mon Feb  1 05:27:14 2010	Houston, TX 77001  	36.1	0	31	0.00	41	NNE 16	36	84	32
Mon Feb  1 05:27:16 2010	Seattle, WA 98101  	47.9	1	44	0.06	49	WSW 12	48	85	44
Mon Feb  1 05:27:17 2010	Milwaukee, WI 53201  	13.3	0	11	0.00	23	WSW 20	13	72	6
Mon Feb  1 05:27:20 2010	Detroit, MI 48201  	18.9	7	12	0.00	26	WSW 27	10	64	9
Mon Feb  1 05:27:25 2010	Philadelphia, PA 19019  	25.2	3	15	0.00	31	N 17	22	52	10
Mon Feb  1 06:11:24 2010	San Jose, CA 95101  	53.1	0	48	0.00	60	NW 9	53	78	46
Mon Feb  1 06:11:25 2010	Charlotte, NC 28201  	25.8	0	18	0.33	42	N 11	26	100	26
Mon Feb  1 06:11:25 2010	San Diego, CA 92101  	54.1	1	49	0.00	60	WNW 15	54	91	51
Mon Feb  1 06:11:26 2010	Denver, CO 80214  	27.4	2	26	0.00	42	NE 15	27	75	20
Mon Feb  1 06:11:27 2010	Memphis, TN 37501  	30.0	6	20	0.00	37	NNE 7	24	78	24
Mon Feb  1 06:11:27 2010	Los Angeles, CA 90001  	55.3	0	48	0.00	68	W 19	55	80	49
Mon Feb  1 06:11:28 2010	New York, NY 10001  	26.4	4	13	0.00	31	NW 18	22	43	7
Mon Feb  1 06:11:28 2010	El Paso, TX 79901  	50.5	3	42	0.00	62	SE 11	50	59	37
Mon Feb  1 06:11:29 2010	Baltimore, MD 21201  	25.2	5	14	0.00	29	NW 16	19	51	9
Mon Feb  1 06:11:30 2010	Las Vegas, NV 89101  	47.2	3	36	0.00	59	NE 11	47	53	31
Mon Feb  1 06:11:31 2010	Austin, TX 73301  	35.1	3	30	0.00	35	NNE 12	32	80	29
Mon Feb  1 06:11:31 2010	Washington, DC 20001  	28.1	3	28	0.00	29	WNW 5	28	65	18
Mon Feb  1 06:11:32 2010	San Francisco, CA 94101  	54.3	0	49	0.00	58	WSW 7	54	N/A	--
Mon Feb  1 06:11:33 2010	Oklahoma City, OK 73101  	26.6	12	19	0.00	28	S 14	16	100	27
Mon Feb  1 06:11:33 2010	Nashville, TN 37201  	28.7	1	18	0.16	47	WSW 7	29	78	23
Mon Feb  1 06:11:34 2010	Phoenix, AZ 85001  	59.1	4	46	0.00	69	ENE 11	59	50	41
Mon Feb  1 06:11:34 2010	Fort Worth, TX 76101  	33.0	2	28	0.00	35	NE 12	33	99	33
Mon Feb  1 06:11:35 2010	Portland, OR 97201  	44.1	1	43	0.02	52	SSE 9	44	100	44
Mon Feb  1 06:11:36 2010	San Antonio, TX 78201  	32.8	4	28	0.00	34	NE 13	29	96	32
Mon Feb  1 06:11:36 2010	Chicago, IL 60601  	21.6	6	15	0.00	29	W 25	14	55	8
Mon Feb  1 06:11:37 2010	Boston, MA 02101  	22.8	6	11	0.00	28	NNW 18	15	47	5
Mon Feb  1 06:11:37 2010	Indianapolis, IN 46201  	21.5	0	10	0.00	31	WNW 15	21	75	15
Mon Feb  1 06:11:38 2010	Jacksonville, FL 32099  	46.9	10	41	0.00	49	NNW 21	42	78	40
Mon Feb  1 06:11:39 2010	Dallas, TX 75201  	36.6	3	31	0.00	41	SE 10	34	86	33
Mon Feb  1 06:11:39 2010	Columbus, OH 43085  	21.9	3	7	N/A	31	WSW 17	18	N/A	--
Mon Feb  1 06:11:40 2010	Houston, TX 77001  	36.1	0	31	0.00	41	NNE 16	36	84	32
Mon Feb  1 06:11:40 2010	Seattle, WA 98101  	47.9	1	44	0.06	49	WSW 12	48	85	44
Mon Feb  1 06:11:41 2010	Milwaukee, WI 53201  	13.3	0	11	0.00	23	WSW 20	13	72	6
Mon Feb  1 06:11:42 2010	Philadelphia, PA 19019  	25.2	3	15	0.00	31	N 17	22	52	10
Mon Feb  1 06:11:42 2010	Detroit, MI 48201  	18.9	7	12	0.00	26	WSW 27	10	64	9
Mon Feb  1 06:54:29 2010	San Jose, CA 95101  	52.0	0	48	0.00	60	NW 9	52	83	47
Mon Feb  1 06:54:34 2010	Charlotte, NC 28201  	25.0	0	25	0.00	25	WSW 1	25	100	25
Mon Feb  1 06:54:36 2010	San Diego, CA 92101  	53.3	0	49	0.00	60	WNW 15	53	93	51
Mon Feb  1 06:54:37 2010	Denver, CO 80214  	24.4	2	24	0.00	42	NE 15	24	81	19
Mon Feb  1 06:54:39 2010	Memphis, TN 37501  	30.0	6	20	0.00	37	NNE 7	24	74	23
Mon Feb  1 06:54:40 2010	Los Angeles, CA 90001  	54.7	0	48	0.00	68	W 19	55	83	50
Mon Feb  1 06:54:44 2010	El Paso, TX 79901  	50.0	3	42	0.00	62	SE 11	50	60	37
Mon Feb  1 06:54:48 2010	New York, NY 10001  	25.1	5	25	0.00	26	WNW 14	19	48	8
Mon Feb  1 06:54:50 2010	Baltimore, MD 21201  	24.6	2	24	0.00	25	W 10	25	50	8
Mon Feb  1 06:54:51 2010	Las Vegas, NV 89101  	44.3	2	36	0.00	59	NE 11	44	64	33
Mon Feb  1 06:54:52 2010	Washington, DC 20001  	26.9	0	27	0.00	29	SW 5	27	65	17
Mon Feb  1 06:54:53 2010	Austin, TX 73301  	35.1	6	30	0.00	35	NNE 12	30	80	29
Mon Feb  1 06:54:56 2010	San Francisco, CA 94101  	54.0	0	49	0.00	58	WSW 7	54	N/A	--
Mon Feb  1 06:54:58 2010	Oklahoma City, OK 73101  	28.4	9	19	0.00	28	S 14	20	93	27
Mon Feb  1 06:54:59 2010	Nashville, TN 37201  	26.8	0	18	0.16	47	WSW 7	27	85	23
Mon Feb  1 06:55:01 2010	Fort Worth, TX 76101  	32.6	1	28	0.00	35	NE 12	33	100	33
Mon Feb  1 06:55:05 2010	Phoenix, AZ 85001  	56.1	1	46	0.00	69	ENE 11	56	57	41
Mon Feb  1 06:55:06 2010	Portland, OR 97201  	42.6	0	42	0.02	52	SSE 9	43	100	43
Mon Feb  1 06:55:07 2010	Chicago, IL 60601  	20.4	4	15	0.00	29	W 25	15	60	9
Mon Feb  1 06:55:09 2010	San Antonio, TX 78201  	32.9	2	28	0.00	34	NE 13	33	96	32
Mon Feb  1 06:55:10 2010	Indianapolis, IN 46201  	19.4	0	19	0.00	21	WSW 0	19	80	14
Mon Feb  1 06:55:11 2010	Boston, MA 02101  	22.9	4	22	0.00	23	SW 13	18	48	6
Mon Feb  1 06:55:13 2010	Jacksonville, FL 32099  	46.9	11	41	0.00	50	NNW 21	42	78	40
Mon Feb  1 06:55:14 2010	Columbus, OH 43085  	19.0	1	19	N/A	21	NW 3	19	N/A	--
Mon Feb  1 06:55:16 2010	Dallas, TX 75201  	36.0	2	31	0.00	41	SE 10	36	90	33
Mon Feb  1 06:55:17 2010	Houston, TX 77001  	35.2	0	31	0.00	41	NNE 16	35	89	32
Mon Feb  1 06:55:22 2010	Seattle, WA 98101  	48.2	0	44	0.06	49	WSW 12	48	86	44
Mon Feb  1 06:55:26 2010	Milwaukee, WI 53201  	12.5	2	11	0.00	23	WSW 20	13	73	5
Mon Feb  1 06:55:28 2010	Detroit, MI 48201  	17.7	1	18	0.00	18	WSW 11	18	70	9
Mon Feb  1 06:55:33 2010	Philadelphia, PA 19019  	25.6	5	25	0.00	26	WNW 11	19	53	11
Mon Feb  1 07:38:18 2010	San Jose, CA 95101  	52.0	0	48	0.00	60	NW 9	52	83	47
Mon Feb  1 07:38:18 2010	Charlotte, NC 28201  	25.0	0	25	0.00	25	WSW 1	25	100	25
Mon Feb  1 07:38:19 2010	San Diego, CA 92101  	53.3	0	49	0.00	60	WNW 15	53	93	51
Mon Feb  1 07:38:20 2010	Denver, CO 80214  	24.4	2	24	0.00	42	NE 15	24	81	19
Mon Feb  1 07:38:20 2010	Memphis, TN 37501  	30.0	6	20	0.00	37	NNE 7	24	74	23
Mon Feb  1 07:38:21 2010	Los Angeles, CA 90001  	54.7	0	48	0.00	68	W 19	55	83	50
Mon Feb  1 07:38:22 2010	El Paso, TX 79901  	50.0	3	42	0.00	62	SE 11	50	60	37
Mon Feb  1 07:38:22 2010	New York, NY 10001  	25.1	5	25	0.00	26	WNW 14	19	48	8
Mon Feb  1 07:38:23 2010	Baltimore, MD 21201  	24.6	2	24	0.00	25	W 10	25	50	8
Mon Feb  1 07:38:24 2010	Las Vegas, NV 89101  	44.3	2	36	0.00	59	NE 11	44	64	33
Mon Feb  1 07:38:25 2010	Austin, TX 73301  	35.1	6	30	0.00	35	NNE 12	30	80	29
Mon Feb  1 07:38:25 2010	Washington, DC 20001  	26.9	0	27	0.00	29	SW 5	27	65	17
Mon Feb  1 07:38:26 2010	San Francisco, CA 94101  	54.0	0	49	0.00	58	WSW 7	54	N/A	--
Mon Feb  1 07:38:27 2010	Oklahoma City, OK 73101  	28.4	9	19	0.00	28	S 14	20	93	27
Mon Feb  1 07:38:27 2010	Nashville, TN 37201  	26.8	0	18	0.16	47	WSW 7	27	85	23
Mon Feb  1 07:38:28 2010	Fort Worth, TX 76101  	32.6	1	28	0.00	35	NE 12	33	100	33
Mon Feb  1 07:38:29 2010	Phoenix, AZ 85001  	56.1	1	46	0.00	69	ENE 11	56	57	41
Mon Feb  1 07:38:29 2010	Portland, OR 97201  	42.6	0	42	0.02	52	SSE 9	43	100	43
Mon Feb  1 07:38:30 2010	Chicago, IL 60601  	20.4	4	15	0.00	29	W 25	15	60	9
Mon Feb  1 07:38:31 2010	San Antonio, TX 78201  	32.9	2	28	0.00	34	NE 13	33	96	32
Mon Feb  1 07:38:31 2010	Indianapolis, IN 46201  	19.4	0	19	0.00	21	WSW 0	19	80	14
Mon Feb  1 07:38:32 2010	Boston, MA 02101  	22.9	4	22	0.00	23	SW 13	18	48	6
Mon Feb  1 07:38:33 2010	Jacksonville, FL 32099  	46.9	11	41	0.00	50	NNW 21	42	78	40
Mon Feb  1 07:38:33 2010	Columbus, OH 43085  	19.0	1	19	N/A	21	NW 3	19	N/A	--
Mon Feb  1 07:38:34 2010	Dallas, TX 75201  	36.0	2	31	0.00	41	SE 10	36	90	33
Mon Feb  1 07:38:35 2010	Houston, TX 77001  	35.2	0	31	0.00	41	NNE 16	35	89	32
Mon Feb  1 07:38:35 2010	Seattle, WA 98101  	48.2	0	44	0.06	49	WSW 12	48	86	44
Mon Feb  1 07:38:36 2010	Milwaukee, WI 53201  	12.5	2	11	0.00	23	WSW 20	13	73	5
Mon Feb  1 07:38:37 2010	Philadelphia, PA 19019  	25.6	5	25	0.00	26	WNW 11	19	53	11
Mon Feb  1 07:38:37 2010	Detroit, MI 48201  	17.7	1	18	0.00	18	WSW 11	18	70	9
Mon Feb  1 08:21:50 2010	San Jose, CA 95101  	48.9	5	48	0.00	60	NW 9	47	88	46
Mon Feb  1 08:21:51 2010	Charlotte, NC 28201  	24.1	0	24	0.00	25	WSW 1	24	100	24
Mon Feb  1 08:21:53 2010	San Diego, CA 92101  	52.8	0	49	0.00	60	WNW 15	53	95	51
Mon Feb  1 08:21:54 2010	Denver, CO 80214  	22.9	4	23	0.00	24	NW 5	18	84	19
Mon Feb  1 08:21:58 2010	Memphis, TN 37501  	28.0	7	28	0.00	28	NNE 7	21	76	22
Mon Feb  1 08:21:59 2010	Los Angeles, CA 90001  	52.4	0	48	0.00	68	W 19	52	87	49
Mon Feb  1 08:22:00 2010	El Paso, TX 79901  	49.4	2	49	0.00	50	NNE 11	49	62	37
Mon Feb  1 08:22:03 2010	New York, NY 10001  	25.1	9	25	0.00	26	W 14	16	49	8
Mon Feb  1 08:22:04 2010	Baltimore, MD 21201  	23.8	3	24	0.00	25	W 10	20	51	8
Mon Feb  1 08:22:06 2010	Las Vegas, NV 89101  	42.7	0	36	0.00	59	NE 11	43	67	33
Mon Feb  1 08:22:08 2010	Washington, DC 20001  	25.4	0	25	0.00	29	SW 7	25	73	18
Mon Feb  1 08:22:10 2010	Austin, TX 73301  	35.1	5	35	0.00	35	NNE 5	31	83	30
Mon Feb  1 08:22:11 2010	San Francisco, CA 94101  	53.4	0	49	0.00	58	WSW 7	53	N/A	--
Mon Feb  1 08:22:13 2010	Oklahoma City, OK 73101  	28.9	11	29	0.00	29	NNE 11	19	94	27
Mon Feb  1 08:22:14 2010	Nashville, TN 37201  	26.6	1	27	0.00	27	ENE 3	27	90	24
Mon Feb  1 08:22:16 2010	Fort Worth, TX 76101  	32.4	1	32	0.00	33	SW 5	32	100	32
Mon Feb  1 08:22:18 2010	Phoenix, AZ 85001  	55.4	0	55	0.00	55	N 1	55	57	41
Mon Feb  1 08:22:19 2010	Portland, OR 97201  	42.0	2	42	0.02	52	SSE 9	42	100	42
Mon Feb  1 08:22:21 2010	Chicago, IL 60601  	20.2	2	20	0.00	21	NW 6	20	60	8
Mon Feb  1 08:22:22 2010	San Antonio, TX 78201  	32.5	6	32	0.00	33	NNE 9	27	98	32
Mon Feb  1 08:22:25 2010	Indianapolis, IN 46201  	19.8	0	19	0.00	21	W 1	20	81	15
Mon Feb  1 08:22:26 2010	Boston, MA 02101  	23.2	4	22	0.00	23	SSW 13	18	51	7
Mon Feb  1 08:22:27 2010	Jacksonville, FL 32099  	46.9	9	47	0.00	48	NNE 11	43	85	43
Mon Feb  1 08:22:28 2010	Columbus, OH 43085  	18.7	0	18	N/A	21	NW 4	19	N/A	--
Mon Feb  1 08:22:30 2010	Dallas, TX 75201  	36.0	1	35	0.00	36	WSW 7	36	90	33
Mon Feb  1 08:22:31 2010	Houston, TX 77001  	35.7	2	35	0.00	36	NNE 6	36	87	32
Mon Feb  1 08:22:32 2010	Seattle, WA 98101  	47.9	1	44	0.06	49	WSW 12	48	87	44
Mon Feb  1 08:22:34 2010	Milwaukee, WI 53201  	11.6	3	12	0.00	13	WNW 8	12	75	5
Mon Feb  1 08:22:35 2010	Detroit, MI 48201  	16.3	5	16	0.00	18	WSW 11	8	75	10
Mon Feb  1 08:22:37 2010	Philadelphia, PA 19019  	24.8	2	25	0.00	26	WNW 11	25	56	11
Mon Feb  1 09:05:19 2010	San Jose, CA 95101  	48.9	5	48	0.00	60	NW 9	47	88	46
Mon Feb  1 09:05:20 2010	Charlotte, NC 28201  	24.1	0	24	0.00	25	WSW 1	24	100	24
Mon Feb  1 09:05:21 2010	Denver, CO 80214  	22.9	4	23	0.00	24	NW 5	18	84	19
Mon Feb  1 09:05:21 2010	San Diego, CA 92101  	52.8	0	49	0.00	60	WNW 15	53	95	51
Mon Feb  1 09:05:22 2010	Memphis, TN 37501  	28.0	7	28	0.00	28	NNE 7	21	76	22
Mon Feb  1 09:05:23 2010	El Paso, TX 79901  	49.4	2	49	0.00	50	NNE 11	49	62	37
Mon Feb  1 09:05:23 2010	Los Angeles, CA 90001  	52.4	0	48	0.00	68	W 19	52	87	49
Mon Feb  1 09:05:24 2010	New York, NY 10001  	25.1	9	25	0.00	26	W 14	16	49	8
Mon Feb  1 09:05:25 2010	Las Vegas, NV 89101  	42.7	0	36	0.00	59	NE 11	43	67	33
Mon Feb  1 09:05:25 2010	Baltimore, MD 21201  	23.8	3	24	0.00	25	W 10	20	51	8
Mon Feb  1 09:05:26 2010	Washington, DC 20001  	25.9	0	25	0.00	29	SW 7	26	75	19
Mon Feb  1 09:05:29 2010	Austin, TX 73301  	35.1	5	35	0.00	35	NNE 5	31	83	30
Mon Feb  1 09:05:29 2010	San Francisco, CA 94101  	53.4	0	49	0.00	58	WSW 7	53	N/A	--
Mon Feb  1 09:05:30 2010	Nashville, TN 37201  	26.6	1	27	0.00	27	ENE 3	27	90	24
Mon Feb  1 09:05:30 2010	Oklahoma City, OK 73101  	28.9	11	29	0.00	29	NNE 11	19	94	27
Mon Feb  1 09:05:31 2010	Fort Worth, TX 76101  	32.4	1	32	0.00	33	SW 5	32	100	32
Mon Feb  1 09:05:32 2010	Phoenix, AZ 85001  	55.4	0	55	0.00	55	N 1	55	57	41
Mon Feb  1 09:05:32 2010	Portland, OR 97201  	42.0	2	42	0.02	52	SSE 9	42	100	42
Mon Feb  1 09:05:33 2010	Chicago, IL 60601  	20.2	2	20	0.00	21	NW 6	20	60	8
Mon Feb  1 09:05:34 2010	San Antonio, TX 78201  	32.5	6	32	0.00	33	NNE 9	27	98	32
Mon Feb  1 09:05:34 2010	Indianapolis, IN 46201  	19.8	0	19	0.00	21	W 1	20	81	15
Mon Feb  1 09:05:35 2010	Boston, MA 02101  	23.2	4	22	0.00	23	SSW 13	18	51	7
Mon Feb  1 09:05:36 2010	Jacksonville, FL 32099  	46.9	9	47	0.00	48	NNE 11	43	85	43
Mon Feb  1 09:05:36 2010	Columbus, OH 43085  	18.7	0	18	N/A	21	NW 4	19	N/A	--
Mon Feb  1 09:05:37 2010	Dallas, TX 75201  	36.0	1	35	0.00	36	WSW 7	36	90	33
Mon Feb  1 09:05:38 2010	Houston, TX 77001  	35.7	2	35	0.00	36	NNE 6	36	87	32
Mon Feb  1 09:05:38 2010	Seattle, WA 98101  	47.9	1	44	0.06	49	WSW 12	48	87	44
Mon Feb  1 09:05:39 2010	Milwaukee, WI 53201  	11.6	3	12	0.00	13	WNW 8	12	75	5
Mon Feb  1 09:05:40 2010	Detroit, MI 48201  	16.3	5	16	0.00	18	WSW 11	8	75	10
Mon Feb  1 09:05:41 2010	Philadelphia, PA 19019  	24.8	2	25	0.00	26	WNW 11	25	56	11
Mon Feb  1 09:48:13 2010	San Jose, CA 95101  	47.9	0	47	0.00	48	ENE 2	48	94	46
Mon Feb  1 09:48:14 2010	Charlotte, NC 28201  	23.1	0	23	0.00	25	WSW 1	23	100	23
Mon Feb  1 09:48:17 2010	San Diego, CA 92101  	52.6	1	52	0.00	53	NNE 3	53	97	52
Mon Feb  1 09:48:18 2010	Denver, CO 80214  	31.8	6	21	0.00	32	WSW 10	26	38	9
Mon Feb  1 09:48:20 2010	Memphis, TN 37501  	28.0	5	28	0.00	28	NNE 7	23	76	22
Mon Feb  1 09:48:22 2010	Los Angeles, CA 90001  	51.4	2	51	0.00	52	ENE 3	51	90	48
Mon Feb  1 09:48:23 2010	El Paso, TX 79901  	44.5	0	45	0.00	50	NNE 11	45	75	37
Mon Feb  1 09:48:25 2010	New York, NY 10001  	25.7	1	25	0.00	26	W 14	26	47	8
Mon Feb  1 09:48:26 2010	Baltimore, MD 21201  	24.0	6	24	0.00	25	W 10	17	50	8
Mon Feb  1 09:48:28 2010	Las Vegas, NV 89101  	39.7	0	40	0.00	41	NW 1	40	75	33
Mon Feb  1 09:48:30 2010	Washington, DC 20001  	29.1	2	25	0.00	29	NW 14	29	57	15
Mon Feb  1 09:48:32 2010	Austin, TX 73301  	35.1	0	35	0.00	35	NNE 5	35	87	31
Mon Feb  1 09:48:33 2010	San Francisco, CA 94101  	53.4	0	53	0.00	54	SSE 3	53	N/A	--
Mon Feb  1 09:48:34 2010	Oklahoma City, OK 73101  	28.4	10	28	0.00	29	NNE 11	19	100	28
Mon Feb  1 09:48:36 2010	Nashville, TN 37201  	24.9	1	25	0.00	27	ENE 3	25	92	23
Mon Feb  1 09:48:38 2010	Fort Worth, TX 76101  	32.0	0	32	0.00	33	SW 5	32	100	32
Mon Feb  1 09:48:40 2010	Phoenix, AZ 85001  	54.0	3	54	0.00	55	ESE 5	54	63	42
Mon Feb  1 09:48:41 2010	Portland, OR 97201  	40.3	3	40	0.00	41	WNW 6	40	100	40
Mon Feb  1 09:48:43 2010	Chicago, IL 60601  	19.5	1	19	0.00	21	NW 6	20	62	8
Mon Feb  1 09:48:45 2010	San Antonio, TX 78201  	33.1	3	32	0.00	33	NNE 9	33	98	32
Mon Feb  1 09:48:46 2010	Indianapolis, IN 46201  	19.6	1	19	0.00	21	ESE 2	20	83	15
Mon Feb  1 09:48:48 2010	Boston, MA 02101  	22.0	4	22	0.00	23	SSW 13	16	55	8
Mon Feb  1 09:48:49 2010	Jacksonville, FL 32099  	48.9	15	47	0.00	49	NE 15	43	79	43
Mon Feb  1 09:48:51 2010	Columbus, OH 43085  	16.3	0	16	N/A	21	NW 4	16	N/A	--
Mon Feb  1 09:48:54 2010	Dallas, TX 75201  	35.8	0	35	0.00	36	WSW 7	36	92	34
Mon Feb  1 09:48:55 2010	Houston, TX 77001  	36.1	5	35	0.00	36	NNE 9	32	86	32
Mon Feb  1 09:48:57 2010	Seattle, WA 98101  	46.7	0	47	0.00	48	ENE 7	47	89	44
Mon Feb  1 09:48:59 2010	Milwaukee, WI 53201  	10.6	3	11	0.00	13	WNW 8	5	78	5
Mon Feb  1 09:49:00 2010	Detroit, MI 48201  	15.7	4	15	0.00	18	WSW 11	10	78	10
Mon Feb  1 09:49:02 2010	Philadelphia, PA 19019  	24.3	5	24	0.00	26	W 11	18	58	11
Mon Feb  1 10:31:42 2010	San Jose, CA 95101  	47.9	0	47	0.00	48	ENE 2	48	94	46
Mon Feb  1 10:31:43 2010	Charlotte, NC 28201  	23.1	0	23	0.00	25	WSW 1	23	100	23
Mon Feb  1 10:31:44 2010	San Diego, CA 92101  	52.6	1	52	0.00	53	NNE 3	53	97	52
Mon Feb  1 10:31:44 2010	Denver, CO 80214  	31.8	6	21	0.00	32	WSW 10	26	38	9
Mon Feb  1 10:31:45 2010	Memphis, TN 37501  	28.0	5	28	0.00	28	NNE 7	23	76	22
Mon Feb  1 10:31:46 2010	Los Angeles, CA 90001  	51.4	2	51	0.00	52	ENE 3	51	90	48
Mon Feb  1 10:31:47 2010	El Paso, TX 79901  	44.5	0	45	0.00	50	NNE 11	45	75	37
Mon Feb  1 10:31:47 2010	New York, NY 10001  	25.7	1	25	0.00	26	W 14	26	47	8
Mon Feb  1 10:31:48 2010	Baltimore, MD 21201  	24.0	6	24	0.00	25	W 10	17	50	8
Mon Feb  1 10:31:49 2010	Las Vegas, NV 89101  	39.7	0	40	0.00	41	NW 1	40	75	33
Mon Feb  1 10:31:49 2010	Washington, DC 20001  	29.1	2	25	0.00	29	NW 14	29	57	15
Mon Feb  1 10:31:51 2010	Austin, TX 73301  	35.1	0	35	0.00	35	NNE 5	35	87	31
Mon Feb  1 10:31:51 2010	San Francisco, CA 94101  	53.4	0	53	0.00	54	SSE 3	53	N/A	--
Mon Feb  1 10:31:52 2010	Oklahoma City, OK 73101  	28.4	10	28	0.00	29	NNE 11	19	100	28
Mon Feb  1 10:31:53 2010	Nashville, TN 37201  	24.9	1	25	0.00	27	ENE 3	25	92	23
Mon Feb  1 10:31:54 2010	Phoenix, AZ 85001  	54.0	3	54	0.00	55	ESE 5	54	63	42
Mon Feb  1 10:31:54 2010	Fort Worth, TX 76101  	32.0	0	32	0.00	33	SW 5	32	100	32
Mon Feb  1 10:31:55 2010	Portland, OR 97201  	40.3	3	40	0.00	41	WNW 6	40	100	40
Mon Feb  1 10:31:56 2010	San Antonio, TX 78201  	33.1	3	32	0.00	33	NNE 9	33	98	32
Mon Feb  1 10:31:56 2010	Chicago, IL 60601  	19.5	1	19	0.00	21	NW 6	20	62	8
Mon Feb  1 10:31:58 2010	Indianapolis, IN 46201  	19.6	1	19	0.00	21	ESE 2	20	83	15
Mon Feb  1 10:31:58 2010	Boston, MA 02101  	22.0	4	22	0.00	23	SSW 13	16	55	8
Mon Feb  1 10:31:59 2010	Jacksonville, FL 32099  	48.9	15	47	0.00	49	NE 15	43	79	43
Mon Feb  1 10:32:00 2010	Columbus, OH 43085  	16.3	0	16	N/A	21	NW 4	16	N/A	--
Mon Feb  1 10:32:00 2010	Dallas, TX 75201  	35.8	0	35	0.00	36	WSW 7	36	92	34
Mon Feb  1 10:32:01 2010	Houston, TX 77001  	36.1	5	35	0.00	36	NNE 9	32	86	32
Mon Feb  1 10:32:02 2010	Seattle, WA 98101  	46.7	0	47	0.00	48	ENE 7	47	89	44
Mon Feb  1 10:32:03 2010	Milwaukee, WI 53201  	10.6	3	11	0.00	13	WNW 8	5	78	5
Mon Feb  1 10:32:03 2010	Detroit, MI 48201  	15.7	4	15	0.00	18	WSW 11	10	78	10
Mon Feb  1 10:32:04 2010	Philadelphia, PA 19019  	24.3	5	24	0.00	26	W 11	18	58	11
Mon Feb  1 11:14:38 2010	San Jose, CA 95101  	46.0	5	46	0.00	49	SE 5	44	88	43
Mon Feb  1 11:14:39 2010	Charlotte, NC 28201  	22.6	0	22	0.00	25	WSW 1	23	100	23
Mon Feb  1 11:14:41 2010	San Diego, CA 92101  	52.1	0	52	0.00	53	ENE 4	52	97	51
Mon Feb  1 11:14:42 2010	Denver, CO 80214  	33.2	2	21	0.00	34	WSW 10	33	32	6
Mon Feb  1 11:14:44 2010	Memphis, TN 37501  	27.0	0	27	0.00	28	NNE 7	27	82	22
Mon Feb  1 11:14:45 2010	Los Angeles, CA 90001  	51.1	0	51	0.00	52	NE 4	51	87	47
Mon Feb  1 11:14:46 2010	El Paso, TX 79901  	44.2	1	44	0.00	50	NNE 11	44	77	37
Mon Feb  1 11:14:48 2010	New York, NY 10001  	25.7	1	25	0.00	26	W 14	26	49	9
Mon Feb  1 11:14:50 2010	Baltimore, MD 21201  	23.7	5	24	0.00	25	W 10	17	51	8
Mon Feb  1 11:14:51 2010	Las Vegas, NV 89101  	37.5	0	37	0.00	41	NW 1	37	80	32
Mon Feb  1 11:14:52 2010	Washington, DC 20001  	28.5	5	25	0.00	29	WNW 14	23	56	15
Mon Feb  1 11:14:54 2010	Austin, TX 73301  	36.0	0	35	0.00	36	NNE 5	36	87	32
Mon Feb  1 11:14:55 2010	San Francisco, CA 94101  	52.1	0	52	0.00	54	WSW 5	52	N/A	--
Mon Feb  1 11:14:56 2010	Oklahoma City, OK 73101  	30.0	10	28	0.00	30	NNE 11	21	92	28
Mon Feb  1 11:14:57 2010	Nashville, TN 37201  	23.8	2	24	0.00	27	ENE 3	24	93	22
Mon Feb  1 11:14:59 2010	Fort Worth, TX 76101  	32.3	0	32	0.00	33	SW 5	32	100	32
Mon Feb  1 11:15:01 2010	Phoenix, AZ 85001  	52.1	2	52	0.00	55	ESE 7	52	66	41
Mon Feb  1 11:15:02 2010	Portland, OR 97201  	39.4	3	39	0.00	41	WNW 6	37	100	39
Mon Feb  1 11:15:03 2010	Chicago, IL 60601  	20.7	2	19	0.00	21	NW 6	21	61	9
Mon Feb  1 11:15:05 2010	San Antonio, TX 78201  	33.4	4	32	0.00	34	NNE 9	30	97	32
Mon Feb  1 11:15:10 2010	Indianapolis, IN 46201  	21.7	1	19	0.00	22	ENE 4	22	84	17
Mon Feb  1 11:15:12 2010	Boston, MA 02101  	21.8	5	22	0.00	23	SSW 15	15	55	8
Mon Feb  1 11:15:13 2010	Jacksonville, FL 32099  	48.9	14	47	0.00	49	NE 15	44	82	44
Mon Feb  1 11:15:14 2010	Columbus, OH 43085  	14.6	0	15	N/A	21	NW 4	15	N/A	--
Mon Feb  1 11:15:16 2010	Dallas, TX 75201  	35.8	1	35	0.00	36	WSW 7	36	92	34
Mon Feb  1 11:15:17 2010	Houston, TX 77001  	36.4	6	35	0.00	37	NNE 9	31	88	33
Mon Feb  1 11:15:18 2010	Seattle, WA 98101  	44.8	2	45	0.00	48	ENE 7	45	95	44
Mon Feb  1 11:15:20 2010	Milwaukee, WI 53201  	10.3	1	10	0.00	13	WNW 8	10	80	5
Mon Feb  1 11:15:21 2010	Detroit, MI 48201  	14.9	3	15	0.00	18	WSW 11	10	80	10
Mon Feb  1 11:15:23 2010	Philadelphia, PA 19019  	23.8	4	24	0.00	26	W 11	19	61	12
Mon Feb  1 11:58:29 2010	San Jose, CA 95101  	46.0	5	46	0.00	49	SE 5	44	88	43
Mon Feb  1 11:58:29 2010	Charlotte, NC 28201  	22.6	0	22	0.00	25	WSW 1	23	100	23
Mon Feb  1 11:58:30 2010	San Diego, CA 92101  	52.1	0	52	0.00	53	ENE 4	52	97	51
Mon Feb  1 11:58:31 2010	Memphis, TN 37501  	27.0	0	27	0.00	28	NNE 7	27	82	22
Mon Feb  1 11:58:31 2010	Denver, CO 80214  	33.2	2	21	0.00	34	WSW 10	33	32	6
Mon Feb  1 11:58:32 2010	Los Angeles, CA 90001  	51.1	0	51	0.00	52	NE 4	51	87	47
Mon Feb  1 11:58:33 2010	El Paso, TX 79901  	44.2	1	44	0.00	50	NNE 11	44	77	37
Mon Feb  1 11:58:33 2010	New York, NY 10001  	25.7	1	25	0.00	26	W 14	26	49	9
Mon Feb  1 11:58:34 2010	Baltimore, MD 21201  	23.7	5	24	0.00	25	W 10	17	51	8
Mon Feb  1 11:58:35 2010	Las Vegas, NV 89101  	37.5	0	37	0.00	41	NW 1	37	80	32
Mon Feb  1 11:58:35 2010	Washington, DC 20001  	28.5	5	25	0.00	29	WNW 14	23	56	15
Mon Feb  1 11:58:36 2010	Austin, TX 73301  	36.0	0	35	0.00	36	NNE 5	36	87	32
Mon Feb  1 11:58:37 2010	San Francisco, CA 94101  	52.1	0	52	0.00	54	WSW 5	52	N/A	--
Mon Feb  1 11:58:38 2010	Nashville, TN 37201  	23.8	2	24	0.00	27	ENE 3	24	93	22
Mon Feb  1 11:58:38 2010	Oklahoma City, OK 73101  	30.0	10	28	0.00	30	NNE 11	21	92	28
Mon Feb  1 11:58:39 2010	Fort Worth, TX 76101  	32.3	0	32	0.00	33	SW 5	32	100	32
Mon Feb  1 11:58:40 2010	Phoenix, AZ 85001  	52.1	2	52	0.00	55	ESE 7	52	66	41
Mon Feb  1 11:58:40 2010	Portland, OR 97201  	39.4	3	39	0.00	41	WNW 6	37	100	39
Mon Feb  1 11:58:41 2010	Chicago, IL 60601  	20.7	2	19	0.00	21	NW 6	21	61	9
Mon Feb  1 11:58:42 2010	San Antonio, TX 78201  	33.4	4	32	0.00	34	NNE 9	30	97	32
Mon Feb  1 11:58:43 2010	Indianapolis, IN 46201  	21.7	1	19	0.00	22	ENE 4	22	84	17
Mon Feb  1 11:58:43 2010	Boston, MA 02101  	21.8	5	22	0.00	23	SSW 15	15	55	8
Mon Feb  1 11:58:44 2010	Jacksonville, FL 32099  	48.9	14	47	0.00	49	NE 15	44	82	44
Mon Feb  1 11:58:45 2010	Columbus, OH 43085  	14.6	0	15	N/A	21	NW 4	15	N/A	--
Mon Feb  1 11:58:46 2010	Houston, TX 77001  	36.4	6	35	0.00	37	NNE 9	31	88	33
Mon Feb  1 11:58:46 2010	Dallas, TX 75201  	35.8	1	35	0.00	36	WSW 7	36	92	34
Mon Feb  1 11:58:47 2010	Seattle, WA 98101  	44.8	2	45	0.00	48	ENE 7	45	95	44
Mon Feb  1 11:58:48 2010	Milwaukee, WI 53201  	10.3	1	10	0.00	13	WNW 8	10	80	5
Mon Feb  1 11:58:48 2010	Detroit, MI 48201  	14.9	3	15	0.00	18	WSW 11	10	80	10
Mon Feb  1 11:58:49 2010	Philadelphia, PA 19019  	23.8	4	24	0.00	26	W 11	19	61	12
Mon Feb  1 12:41:15 2010	San Jose, CA 95101  	46.9	0	46	0.00	49	SE 5	47	88	44
Mon Feb  1 12:41:17 2010	Charlotte, NC 28201  	21.9	0	22	0.00	25	WSW 2	22	100	22
Mon Feb  1 12:41:19 2010	San Diego, CA 92101  	51.7	0	51	0.00	53	ENE 4	52	96	51
Mon Feb  1 12:41:22 2010	Denver, CO 80214  	26.9	0	21	0.00	34	WSW 10	27	46	9
Mon Feb  1 12:41:24 2010	Memphis, TN 37501  	26.1	5	26	0.00	28	NNE 7	21	82	21
Mon Feb  1 12:41:25 2010	Los Angeles, CA 90001  	49.7	2	50	0.00	52	NE 4	50	89	46
Mon Feb  1 12:41:27 2010	El Paso, TX 79901  	46.3	5	44	0.00	50	NNE 11	44	75	39
Mon Feb  1 12:41:28 2010	New York, NY 10001  	26.1	1	25	0.00	26	WNW 16	26	52	11
Mon Feb  1 12:41:30 2010	Baltimore, MD 21201  	23.1	6	23	0.00	25	WNW 10	16	55	9
Mon Feb  1 12:41:31 2010	Las Vegas, NV 89101  	36.0	2	36	0.00	41	NW 2	36	83	31
Mon Feb  1 12:41:33 2010	Washington, DC 20001  	27.6	0	25	0.00	29	WNW 16	28	60	15
Mon Feb  1 12:41:35 2010	Austin, TX 73301  	36.0	3	35	0.00	36	NNE 5	33	87	32
Mon Feb  1 12:41:36 2010	San Francisco, CA 94101  	51.5	0	52	0.00	54	WSW 5	52	N/A	--
Mon Feb  1 12:41:37 2010	Oklahoma City, OK 73101  	30.0	15	28	0.00	30	SSE 15	19	92	28
Mon Feb  1 12:41:39 2010	Nashville, TN 37201  	23.0	0	23	0.00	27	ENE 3	23	98	22
Mon Feb  1 12:41:40 2010	Fort Worth, TX 76101  	31.2	0	31	0.00	33	SW 5	31	100	31
Mon Feb  1 12:41:42 2010	Phoenix, AZ 85001  	50.4	1	50	0.00	55	ESE 7	50	71	42
Mon Feb  1 12:41:43 2010	Portland, OR 97201  	39.7	2	39	0.00	41	WNW 6	40	99	39
Mon Feb  1 12:41:45 2010	Chicago, IL 60601  	22.3	4	19	0.00	22	NW 6	17	63	11
Mon Feb  1 12:41:47 2010	San Antonio, TX 78201  	33.5	1	32	0.00	34	NNE 9	33	100	33
Mon Feb  1 12:41:48 2010	Indianapolis, IN 46201  	21.3	0	19	0.00	22	SSW 5	21	85	17
Mon Feb  1 12:41:50 2010	Boston, MA 02101  	20.7	7	21	0.00	23	SSW 15	12	59	8
Mon Feb  1 12:41:51 2010	Jacksonville, FL 32099  	50.0	11	47	0.00	50	NE 15	46	80	44
Mon Feb  1 12:42:07 2010	Columbus, OH 43085  	14.2	0	14	N/A	21	NW 4	14	N/A	--
Mon Feb  1 12:42:09 2010	Dallas, TX 75201  	35.9	0	35	0.00	37	WSW 7	36	88	33
Mon Feb  1 12:42:10 2010	Houston, TX 77001  	37.6	3	35	0.00	38	NNE 9	36	84	33
Mon Feb  1 12:42:12 2010	Seattle, WA 98101  	44.2	4	44	0.00	48	ENE 7	42	95	43
Mon Feb  1 12:42:13 2010	Milwaukee, WI 53201  	11.2	3	10	0.00	13	WNW 8	5	80	6
Mon Feb  1 12:42:15 2010	Detroit, MI 48201  	15.1	2	15	0.00	18	WSW 11	15	81	10
Mon Feb  1 12:42:16 2010	Philadelphia, PA 19019  	23.8	5	24	0.00	26	W 11	18	64	13
Mon Feb  1 13:25:40 2010	San Jose, CA 95101  	46.9	0	46	0.00	49	SE 5	47	88	44
Mon Feb  1 13:25:40 2010	Charlotte, NC 28201  	21.9	0	22	0.00	25	WSW 2	22	100	22
Mon Feb  1 13:25:41 2010	San Diego, CA 92101  	51.7	0	51	0.00	53	ENE 4	52	96	51
Mon Feb  1 13:25:42 2010	Denver, CO 80214  	26.9	0	21	0.00	34	WSW 10	27	46	9
Mon Feb  1 13:25:43 2010	Memphis, TN 37501  	26.1	5	26	0.00	28	NNE 7	21	82	21
Mon Feb  1 13:25:44 2010	Los Angeles, CA 90001  	49.7	2	50	0.00	52	NE 4	50	89	46
Mon Feb  1 13:25:44 2010	El Paso, TX 79901  	46.3	5	44	0.00	50	NNE 11	44	75	39
Mon Feb  1 13:25:45 2010	New York, NY 10001  	26.1	1	25	0.00	26	WNW 16	26	52	11
Mon Feb  1 13:25:46 2010	Baltimore, MD 21201  	23.1	6	23	0.00	25	WNW 10	16	55	9
Mon Feb  1 13:25:47 2010	Las Vegas, NV 89101  	36.0	2	36	0.00	41	NW 2	36	83	31
Mon Feb  1 13:25:47 2010	Washington, DC 20001  	27.6	0	25	0.00	29	WNW 16	28	60	15
Mon Feb  1 13:25:48 2010	Austin, TX 73301  	36.0	3	35	0.00	36	NNE 5	33	87	32
Mon Feb  1 13:25:49 2010	San Francisco, CA 94101  	51.5	0	52	0.00	54	WSW 5	52	N/A	--
Mon Feb  1 13:25:50 2010	Nashville, TN 37201  	23.0	0	23	0.00	27	ENE 3	23	98	22
Mon Feb  1 13:25:50 2010	Oklahoma City, OK 73101  	30.0	15	28	0.00	30	SSE 15	19	92	28
Mon Feb  1 13:25:51 2010	Fort Worth, TX 76101  	31.2	0	31	0.00	33	SW 5	31	100	31
Mon Feb  1 13:25:52 2010	Phoenix, AZ 85001  	50.4	1	50	0.00	55	ESE 7	50	71	42
Mon Feb  1 13:25:53 2010	Chicago, IL 60601  	22.3	4	19	0.00	22	NW 6	17	63	11
Mon Feb  1 13:25:53 2010	Portland, OR 97201  	39.7	2	39	0.00	41	WNW 6	40	99	39
Mon Feb  1 13:25:54 2010	San Antonio, TX 78201  	33.5	1	32	0.00	34	NNE 9	33	100	33
Mon Feb  1 13:25:55 2010	Indianapolis, IN 46201  	21.3	0	19	0.00	22	SSW 5	21	85	17
Mon Feb  1 13:25:56 2010	Jacksonville, FL 32099  	50.0	11	47	0.00	50	NE 15	46	80	44
Mon Feb  1 13:25:56 2010	Boston, MA 02101  	20.7	7	21	0.00	23	SSW 15	12	59	8
Mon Feb  1 13:25:57 2010	Columbus, OH 43085  	14.2	0	14	N/A	21	NW 4	14	N/A	--
Mon Feb  1 13:25:58 2010	Houston, TX 77001  	37.6	3	35	0.00	38	NNE 9	36	84	33
Mon Feb  1 13:25:58 2010	Dallas, TX 75201  	35.9	0	35	0.00	37	WSW 7	36	88	33
Mon Feb  1 13:25:59 2010	Seattle, WA 98101  	44.2	4	44	0.00	48	ENE 7	42	95	43
Mon Feb  1 13:26:00 2010	Milwaukee, WI 53201  	11.2	3	10	0.00	13	WNW 8	5	80	6
Mon Feb  1 13:26:01 2010	Philadelphia, PA 19019  	23.8	5	24	0.00	26	W 11	18	64	13
Mon Feb  1 13:26:01 2010	Detroit, MI 48201  	15.1	2	15	0.00	18	WSW 11	15	81	10
Mon Feb  1 14:09:13 2010	San Jose, CA 95101  	46.0	0	46	0.00	49	SE 5	46	85	42
Mon Feb  1 14:09:16 2010	Charlotte, NC 28201  	22.4	0	22	0.00	25	WSW 2	22	100	22
Mon Feb  1 14:09:18 2010	San Diego, CA 92101  	50.8	0	51	0.00	53	ENE 4	51	99	50
Mon Feb  1 14:09:20 2010	Denver, CO 80214  	28.2	1	21	0.00	34	WSW 10	28	45	9
Mon Feb  1 14:09:22 2010	Memphis, TN 37501  	26.1	0	25	0.00	28	NNE 7	26	79	20
Mon Feb  1 14:09:24 2010	Los Angeles, CA 90001  	48.5	2	48	0.00	52	NE 4	48	90	46
Mon Feb  1 14:09:26 2010	El Paso, TX 79901  	45.8	2	44	0.00	50	NNE 11	46	77	39
Mon Feb  1 14:09:27 2010	New York, NY 10001  	25.5	1	25	0.00	26	WNW 16	26	55	12
Mon Feb  1 14:09:48 2010	Baltimore, MD 21201  	23.3	8	22	0.00	25	NW 13	14	58	10
Mon Feb  1 14:09:51 2010	Las Vegas, NV 89101  	36.2	1	36	0.00	41	NW 3	36	76	29
Mon Feb  1 14:09:53 2010	Washington, DC 20001  	27.7	5	25	0.00	29	NW 19	22	61	16
Mon Feb  1 14:09:55 2010	Austin, TX 73301  	37.0	0	35	0.00	37	NNE 5	37	84	33
Mon Feb  1 14:09:58 2010	San Francisco, CA 94101  	51.2	0	51	0.00	54	SE 5	51	N/A	--
Mon Feb  1 14:10:01 2010	Oklahoma City, OK 73101  	30.0	17	28	0.00	30	S 17	18	92	28
Mon Feb  1 14:10:04 2010	Nashville, TN 37201  	23.1	0	23	0.00	27	ENE 3	23	99	23
Mon Feb  1 14:10:08 2010	Fort Worth, TX 76101  	31.2	2	30	0.00	33	SW 8	31	100	31
Mon Feb  1 14:10:10 2010	Phoenix, AZ 85001  	49.8	5	50	0.00	55	ESE 7	48	71	41
Mon Feb  1 14:10:11 2010	Portland, OR 97201  	40.5	4	39	0.00	41	SSW 13	38	96	39
Mon Feb  1 14:10:14 2010	Chicago, IL 60601  	23.1	2	19	0.00	23	NW 6	23	66	13
Mon Feb  1 14:10:16 2010	San Antonio, TX 78201  	33.8	4	32	0.00	34	NNE 9	30	100	34
Mon Feb  1 14:10:19 2010	Indianapolis, IN 46201  	21.2	0	19	0.00	22	SSW 5	21	83	17
Mon Feb  1 14:10:24 2010	Boston, MA 02101  	21.9	2	20	0.00	23	SW 19	22	57	9
Mon Feb  1 14:10:27 2010	Jacksonville, FL 32099  	52.0	14	47	0.00	52	NE 15	47	83	47
Mon Feb  1 14:10:30 2010	Columbus, OH 43085  	15.7	0	14	N/A	21	NW 4	16	N/A	--
Mon Feb  1 14:10:32 2010	Dallas, TX 75201  	36.3	4	35	0.00	37	WSW 7	33	89	33
Mon Feb  1 14:10:34 2010	Houston, TX 77001  	39.3	2	35	0.00	40	NNE 9	39	86	35
Mon Feb  1 14:10:37 2010	Seattle, WA 98101  	42.8	1	43	0.00	48	ENE 7	43	97	42
Mon Feb  1 14:10:39 2010	Milwaukee, WI 53201  	12.6	1	10	0.00	13	WNW 8	13	81	8
Mon Feb  1 14:10:43 2010	Detroit, MI 48201  	15.0	2	14	0.00	18	WSW 11	15	81	10
Mon Feb  1 14:10:47 2010	Philadelphia, PA 19019  	26.5	2	24	0.00	26	W 11	26	59	14
Mon Feb  1 14:54:21 2010	San Jose, CA 95101  	46.0	0	46	0.00	49	SE 5	46	85	42
Mon Feb  1 14:54:23 2010	Charlotte, NC 28201  	22.4	0	22	0.00	25	WSW 2	22	100	22
Mon Feb  1 14:54:25 2010	San Diego, CA 92101  	50.8	0	51	0.00	53	ENE 4	51	99	50
Mon Feb  1 14:54:27 2010	Denver, CO 80214  	28.2	1	21	0.00	34	WSW 10	28	45	9
Mon Feb  1 14:54:29 2010	Memphis, TN 37501  	26.1	0	25	0.00	28	NNE 7	26	79	20
Mon Feb  1 14:54:31 2010	Los Angeles, CA 90001  	48.5	2	48	0.00	52	NE 4	48	90	46
Mon Feb  1 14:54:33 2010	El Paso, TX 79901  	45.8	2	44	0.00	50	NNE 11	46	77	39
Mon Feb  1 14:54:35 2010	New York, NY 10001  	25.5	1	25	0.00	26	WNW 16	26	55	12
Mon Feb  1 14:54:37 2010	Baltimore, MD 21201  	23.3	8	22	0.00	25	NW 13	14	58	10
Mon Feb  1 14:54:38 2010	Las Vegas, NV 89101  	36.2	1	36	0.00	41	NW 3	36	76	29
Mon Feb  1 14:54:40 2010	Washington, DC 20001  	29.0	4	25	0.00	29	NW 19	25	60	16
Mon Feb  1 14:54:41 2010	Austin, TX 73301  	37.0	0	35	0.00	37	NNE 5	37	84	33
Mon Feb  1 14:54:42 2010	Oklahoma City, OK 73101  	30.0	17	28	0.00	30	S 17	18	92	28
Mon Feb  1 14:54:42 2010	San Francisco, CA 94101  	51.2	0	51	0.00	54	SE 5	51	N/A	--
Mon Feb  1 14:54:43 2010	Nashville, TN 37201  	23.1	0	23	0.00	27	ENE 3	23	99	23
Mon Feb  1 14:54:44 2010	Phoenix, AZ 85001  	49.8	5	50	0.00	55	ESE 7	48	71	41
Mon Feb  1 14:54:44 2010	Fort Worth, TX 76101  	31.2	2	30	0.00	33	SW 8	31	100	31
Mon Feb  1 14:54:45 2010	Portland, OR 97201  	40.5	4	39	0.00	41	SSW 13	38	96	39
Mon Feb  1 14:54:46 2010	Chicago, IL 60601  	23.1	2	19	0.00	23	NW 6	23	66	13
Mon Feb  1 14:54:47 2010	San Antonio, TX 78201  	33.8	4	32	0.00	34	NNE 9	30	100	34
Mon Feb  1 14:54:48 2010	Indianapolis, IN 46201  	21.2	0	19	0.00	22	SSW 5	21	83	17
Mon Feb  1 14:54:49 2010	Jacksonville, FL 32099  	52.0	14	47	0.00	52	NE 15	47	83	47
Mon Feb  1 14:54:49 2010	Boston, MA 02101  	21.9	2	20	0.00	23	SW 19	22	57	9
Mon Feb  1 14:54:50 2010	Columbus, OH 43085  	15.7	0	14	N/A	21	NW 4	16	N/A	--
Mon Feb  1 14:54:51 2010	Dallas, TX 75201  	36.3	4	35	0.00	37	WSW 7	33	89	33
Mon Feb  1 14:54:52 2010	Seattle, WA 98101  	42.8	1	43	0.00	48	ENE 7	43	97	42
Mon Feb  1 14:54:52 2010	Houston, TX 77001  	39.3	2	35	0.00	40	NNE 9	39	86	35
Mon Feb  1 14:54:53 2010	Milwaukee, WI 53201  	12.6	1	10	0.00	13	WNW 8	13	81	8
Mon Feb  1 14:54:53 2010	Detroit, MI 48201  	15.0	2	14	0.00	18	WSW 11	15	81	10
Mon Feb  1 14:54:54 2010	Philadelphia, PA 19019  	26.5	2	24	0.00	26	W 11	26	59	14
Mon Feb  1 15:38:06 2010	San Jose, CA 95101  	43.0	5	43	0.00	49	SE 5	40	93	41
Mon Feb  1 15:38:09 2010	Charlotte, NC 28201  	34.1	0	22	0.00	34	ENE 3	34	100	34
Mon Feb  1 15:38:10 2010	San Diego, CA 92101  	51.0	0	51	0.00	53	ENE 4	51	99	51
Mon Feb  1 15:38:15 2010	Denver, CO 80214  	34.1	0	21	0.00	36	NNW 12	34	33	7
Mon Feb  1 15:38:17 2010	Memphis, TN 37501  	28.0	0	25	0.00	28	NNE 7	28	87	25
Mon Feb  1 15:38:20 2010	Los Angeles, CA 90001  	48.2	0	48	0.00	52	NE 4	48	90	45
Mon Feb  1 15:38:21 2010	El Paso, TX 79901  	46.1	4	44	0.00	50	NNE 11	44	77	39
Mon Feb  1 15:38:23 2010	New York, NY 10001  	28.6	4	25	0.00	29	WNW 16	24	50	12
Mon Feb  1 15:38:26 2010	Baltimore, MD 21201  	27.1	5	22	0.00	28	NNW 16	21	53	12
Mon Feb  1 15:38:28 2010	Las Vegas, NV 89101  	35.0	0	35	0.00	41	NW 3	35	79	29
Mon Feb  1 15:38:29 2010	Washington, DC 20001  	29.0	4	25	0.00	29	NW 19	25	60	16
Mon Feb  1 15:38:31 2010	Austin, TX 73301  	37.4	3	35	0.00	37	NNE 5	35	87	34
Mon Feb  1 15:38:33 2010	San Francisco, CA 94101  	50.3	1	50	0.00	54	SE 5	50	N/A	--
Mon Feb  1 15:38:34 2010	Oklahoma City, OK 73101  	28.9	14	28	0.00	30	S 17	18	99	29
Mon Feb  1 15:38:36 2010	Nashville, TN 37201  	31.3	0	23	0.00	31	E 4	31	82	26
Mon Feb  1 15:38:39 2010	Fort Worth, TX 76101  	32.4	4	30	0.00	33	SW 8	28	100	32
Mon Feb  1 15:38:42 2010	Phoenix, AZ 85001  	49.2	0	49	0.00	55	ESE 7	49	72	40
Mon Feb  1 15:38:43 2010	Portland, OR 97201  	40.4	2	39	0.04	41	SSW 13	40	95	39
Mon Feb  1 15:38:45 2010	Chicago, IL 60601  	24.3	1	19	0.00	24	NW 6	24	69	16
Mon Feb  1 15:38:46 2010	San Antonio, TX 78201  	35.1	0	32	0.00	35	NNE 9	35	100	35
Mon Feb  1 15:38:48 2010	Indianapolis, IN 46201  	26.1	2	19	0.00	26	SSW 6	26	69	17
Mon Feb  1 15:38:50 2010	Boston, MA 02101  	25.9	2	20	0.00	26	SW 19	26	52	10
Mon Feb  1 15:38:51 2010	Jacksonville, FL 32099  	53.1	11	47	0.00	53	NE 15	49	78	46
Mon Feb  1 15:38:53 2010	Columbus, OH 43085  	23.2	2	14	N/A	23	SSE 5	23	N/A	--
Mon Feb  1 15:38:55 2010	Dallas, TX 75201  	37.1	1	35	0.00	37	SSW 9	37	89	34
Mon Feb  1 15:38:56 2010	Houston, TX 77001  	40.5	7	35	0.00	40	NE 10	36	87	37
Mon Feb  1 15:38:58 2010	Seattle, WA 98101  	42.6	0	42	0.00	48	ENE 7	43	94	41
Mon Feb  1 15:39:00 2010	Milwaukee, WI 53201  	15.3	0	10	0.00	15	WNW 8	15	80	10
Mon Feb  1 15:39:04 2010	Detroit, MI 48201  	18.5	1	14	0.00	18	WSW 11	18	77	12
Mon Feb  1 15:39:07 2010	Philadelphia, PA 19019  	28.5	10	24	0.00	29	NNW 20	19	53	13
Mon Feb  1 16:23:15 2010	San Jose, CA 95101  	43.0	5	43	0.00	49	SE 5	40	93	41
Mon Feb  1 16:23:17 2010	Charlotte, NC 28201  	34.1	0	22	0.00	34	ENE 3	34	100	34
Mon Feb  1 16:23:18 2010	San Diego, CA 92101  	51.0	0	51	0.00	53	ENE 4	51	99	51
Mon Feb  1 16:23:20 2010	Denver, CO 80214  	34.1	0	21	0.00	36	NNW 12	34	33	7
Mon Feb  1 16:23:22 2010	Memphis, TN 37501  	28.0	0	25	0.00	28	NNE 7	28	87	25
Mon Feb  1 16:23:24 2010	Los Angeles, CA 90001  	48.2	0	48	0.00	52	NE 4	48	90	45
Mon Feb  1 16:23:25 2010	El Paso, TX 79901  	46.1	4	44	0.00	50	NNE 11	44	77	39
Mon Feb  1 16:23:27 2010	New York, NY 10001  	28.6	4	25	0.00	29	WNW 16	24	50	12
Mon Feb  1 16:23:29 2010	Baltimore, MD 21201  	27.1	5	22	0.00	28	NNW 16	21	53	12
Mon Feb  1 16:23:30 2010	Las Vegas, NV 89101  	35.0	0	35	0.00	41	NW 3	35	79	29
Mon Feb  1 16:23:32 2010	Washington, DC 20001  	29.2	4	25	0.00	31	NW 19	25	57	16
Mon Feb  1 16:23:35 2010	Austin, TX 73301  	37.4	3	35	0.00	37	NNE 5	35	87	34
Mon Feb  1 16:23:37 2010	San Francisco, CA 94101  	50.3	1	50	0.00	54	SE 5	50	N/A	--
Mon Feb  1 16:23:39 2010	Oklahoma City, OK 73101  	28.9	14	28	0.00	30	S 17	18	99	29
Mon Feb  1 16:23:41 2010	Nashville, TN 37201  	31.3	0	23	0.00	31	E 4	31	82	26
Mon Feb  1 16:23:44 2010	Fort Worth, TX 76101  	32.4	4	30	0.00	33	SW 8	28	100	32
Mon Feb  1 16:23:46 2010	Phoenix, AZ 85001  	49.2	0	49	0.00	55	ESE 7	49	72	40
Mon Feb  1 16:23:48 2010	Portland, OR 97201  	40.4	2	39	0.04	41	SSW 13	40	95	39
Mon Feb  1 16:23:51 2010	Chicago, IL 60601  	24.3	1	19	0.00	24	NW 6	24	69	16
Mon Feb  1 16:23:53 2010	San Antonio, TX 78201  	35.1	0	32	0.00	35	NNE 9	35	100	35
Mon Feb  1 16:23:55 2010	Indianapolis, IN 46201  	26.1	2	19	0.00	26	SSW 6	26	69	17
Mon Feb  1 16:23:58 2010	Boston, MA 02101  	25.9	2	20	0.00	26	SW 19	26	52	10
Mon Feb  1 16:24:04 2010	Jacksonville, FL 32099  	53.1	11	47	0.00	53	NE 15	49	78	46
Mon Feb  1 16:24:05 2010	Columbus, OH 43085  	23.2	2	14	N/A	23	SSE 5	23	N/A	--
Mon Feb  1 16:24:07 2010	Dallas, TX 75201  	37.1	1	35	0.00	37	SSW 9	37	89	34
Mon Feb  1 16:24:09 2010	Houston, TX 77001  	40.5	7	35	0.00	40	NE 10	36	87	37
Mon Feb  1 16:24:10 2010	Seattle, WA 98101  	42.6	0	42	0.00	48	ENE 7	43	94	41
Mon Feb  1 16:24:12 2010	Milwaukee, WI 53201  	15.3	0	10	0.00	15	WNW 8	15	80	10
Mon Feb  1 16:24:14 2010	Detroit, MI 48201  	18.5	1	14	0.00	18	WSW 11	18	77	12
Mon Feb  1 16:24:16 2010	Philadelphia, PA 19019  	28.5	10	24	0.00	29	NNW 20	19	53	13
Mon Feb  1 17:07:35 2010	San Jose, CA 95101  	45.0	0	43	0.00	49	SE 6	45	91	42
Mon Feb  1 17:07:37 2010	Charlotte, NC 28201  	41.8	4	22	0.03	42	S 5	40	66	31
Mon Feb  1 17:07:39 2010	San Diego, CA 92101  	53.5	1	51	0.00	53	NE 4	53	92	51
Mon Feb  1 17:07:41 2010	Denver, CO 80214  	39.1	5	21	0.00	40	NNW 12	36	26	7
Mon Feb  1 17:07:44 2010	Memphis, TN 37501  	37.0	7	25	0.00	37	NNE 7	32	71	29
Mon Feb  1 17:07:46 2010	Los Angeles, CA 90001  	50.5	0	48	0.00	52	ENE 8	51	84	46
Mon Feb  1 17:07:48 2010	El Paso, TX 79901  	49.4	7	44	0.00	50	N 11	47	69	40
Mon Feb  1 17:07:50 2010	New York, NY 10001  	30.3	0	25	0.00	31	NNW 16	30	45	11
Mon Feb  1 17:07:52 2010	Baltimore, MD 21201  	27.9	10	22	0.00	29	NNW 16	19	50	11
Mon Feb  1 17:07:53 2010	Las Vegas, NV 89101  	40.6	2	35	0.00	41	NW 3	41	63	29
Mon Feb  1 17:07:54 2010	Washington, DC 20001  	29.2	4	25	0.00	31	NW 19	25	57	16
Mon Feb  1 17:07:55 2010	Austin, TX 73301  	37.0	3	35	0.00	37	NNE 5	35	91	35
Mon Feb  1 17:07:57 2010	San Francisco, CA 94101  	51.6	0	50	0.00	54	SE 5	52	N/A	--
Mon Feb  1 17:07:59 2010	Oklahoma City, OK 73101  	28.9	14	28	0.00	30	S 17	18	99	29
Mon Feb  1 17:08:01 2010	Nashville, TN 37201  	37.0	3	23	0.00	38	ENE 7	35	65	26
Mon Feb  1 17:08:03 2010	Fort Worth, TX 76101  	34.4	3	30	0.00	34	SW 9	34	100	34
Mon Feb  1 17:08:05 2010	Phoenix, AZ 85001  	51.8	0	49	0.00	55	NE 9	52	64	40
Mon Feb  1 17:08:07 2010	Portland, OR 97201  	40.4	1	39	0.04	41	SSW 13	40	99	40
Mon Feb  1 17:08:09 2010	Chicago, IL 60601  	26.5	0	19	0.00	27	NW 6	27	64	16
Mon Feb  1 17:08:11 2010	San Antonio, TX 78201  	36.2	3	32	0.01	36	NNE 9	34	100	36
Mon Feb  1 17:08:12 2010	Indianapolis, IN 46201  	30.4	4	19	0.00	31	SSE 7	27	59	18
Mon Feb  1 17:08:14 2010	Boston, MA 02101  	29.5	6	20	0.00	30	NW 19	24	43	9
Mon Feb  1 17:08:15 2010	Jacksonville, FL 32099  	57.0	11	47	0.00	57	NE 15	54	71	48
Mon Feb  1 17:08:17 2010	Columbus, OH 43085  	29.0	4	14	N/A	29	SSW 6	24	N/A	--
Mon Feb  1 17:08:19 2010	Dallas, TX 75201  	40.4	1	35	0.00	40	SW 9	40	82	35
Mon Feb  1 17:08:20 2010	Houston, TX 77001  	40.5	4	35	0.02	41	ENE 11	38	93	39
Mon Feb  1 17:08:22 2010	Seattle, WA 98101  	41.7	4	42	0.00	48	ENE 7	40	91	39
Mon Feb  1 17:08:24 2010	Milwaukee, WI 53201  	18.8	0	10	0.00	19	WNW 8	19	77	13
Mon Feb  1 17:08:25 2010	Detroit, MI 48201  	21.2	7	14	0.00	22	WSW 11	13	65	11
Mon Feb  1 17:08:26 2010	Philadelphia, PA 19019  	30.4	9	24	0.00	31	NNW 22	22	50	14
Mon Feb  1 17:51:04 2010	San Jose, CA 95101  	45.0	0	43	0.00	49	SE 6	45	91	42
Mon Feb  1 17:51:05 2010	Charlotte, NC 28201  	41.8	4	22	0.03	42	S 5	40	66	31
Mon Feb  1 17:51:06 2010	San Diego, CA 92101  	53.5	1	51	0.00	53	NE 4	53	92	51
Mon Feb  1 17:51:11 2010	Memphis, TN 37501  	37.0	7	25	0.00	37	NNE 7	32	71	29
Mon Feb  1 17:51:11 2010	Denver, CO 80214  	39.1	5	21	0.00	40	NNW 12	36	26	7
Mon Feb  1 17:51:12 2010	Los Angeles, CA 90001  	50.5	0	48	0.00	52	ENE 8	51	84	46
Mon Feb  1 17:51:13 2010	El Paso, TX 79901  	49.4	7	44	0.00	50	N 11	47	69	40
Mon Feb  1 17:51:13 2010	New York, NY 10001  	30.3	0	25	0.00	31	NNW 16	30	45	11
Mon Feb  1 17:51:14 2010	Baltimore, MD 21201  	27.9	10	22	0.00	29	NNW 16	19	50	11
Mon Feb  1 17:51:15 2010	Las Vegas, NV 89101  	40.6	2	35	0.00	41	NW 3	41	63	29
Mon Feb  1 17:51:18 2010	Washington, DC 20001  	34.0	4	25	0.00	35	NW 19	30	52	18
Mon Feb  1 17:51:19 2010	Austin, TX 73301  	37.0	3	35	0.00	37	NNE 5	35	91	35
Mon Feb  1 17:51:19 2010	San Francisco, CA 94101  	51.6	0	50	0.00	54	SE 5	52	N/A	--
Mon Feb  1 17:51:20 2010	Oklahoma City, OK 73101  	28.9	14	28	0.00	30	S 17	18	99	29
Mon Feb  1 17:51:21 2010	Nashville, TN 37201  	37.0	3	23	0.00	38	ENE 7	35	65	26
Mon Feb  1 17:51:22 2010	Fort Worth, TX 76101  	34.4	3	30	0.00	34	SW 9	34	100	34
Mon Feb  1 17:51:23 2010	Phoenix, AZ 85001  	51.8	0	49	0.00	55	NE 9	52	64	40
Mon Feb  1 17:51:23 2010	Portland, OR 97201  	40.4	1	39	0.04	41	SSW 13	40	99	40
Mon Feb  1 17:51:24 2010	Chicago, IL 60601  	26.5	0	19	0.00	27	NW 6	27	64	16
Mon Feb  1 17:51:25 2010	San Antonio, TX 78201  	36.2	3	32	0.01	36	NNE 9	34	100	36
Mon Feb  1 17:51:25 2010	Indianapolis, IN 46201  	30.4	4	19	0.00	31	SSE 7	27	59	18
Mon Feb  1 17:51:26 2010	Boston, MA 02101  	29.5	6	20	0.00	30	NW 19	24	43	9
Mon Feb  1 17:51:27 2010	Jacksonville, FL 32099  	57.0	11	47	0.00	57	NE 15	54	71	48
Mon Feb  1 17:51:27 2010	Columbus, OH 43085  	29.0	4	14	N/A	29	SSW 6	24	N/A	--
Mon Feb  1 17:51:28 2010	Dallas, TX 75201  	40.4	1	35	0.00	40	SW 9	40	82	35
Mon Feb  1 17:51:29 2010	Houston, TX 77001  	40.5	4	35	0.02	41	ENE 11	38	93	39
Mon Feb  1 17:51:29 2010	Seattle, WA 98101  	41.7	4	42	0.00	48	ENE 7	40	91	39
Mon Feb  1 17:51:30 2010	Milwaukee, WI 53201  	18.8	0	10	0.00	19	WNW 8	19	77	13
Mon Feb  1 17:51:31 2010	Detroit, MI 48201  	21.2	7	14	0.00	22	WSW 11	13	65	11
Mon Feb  1 17:51:32 2010	Philadelphia, PA 19019  	30.4	9	24	0.00	31	NNW 22	22	50	14
Mon Feb  1 18:34:40 2010	San Jose, CA 95101  	48.9	0	43	0.00	49	SE 6	49	85	45
Mon Feb  1 18:34:42 2010	Charlotte, NC 28201  	44.6	0	22	0.03	45	S 6	45	57	30
Mon Feb  1 18:34:43 2010	San Diego, CA 92101  	57.6	0	51	0.00	58	NNE 6	58	84	53
Mon Feb  1 18:34:44 2010	Denver, CO 80214  	43.2	8	21	0.00	44	WNW 18	39	22	6
Mon Feb  1 18:34:46 2010	Memphis, TN 37501  	39.9	0	25	0.00	40	NNE 7	40	66	30
Mon Feb  1 18:34:47 2010	Los Angeles, CA 90001  	57.5	2	48	0.00	58	ENE 10	57	67	47
Mon Feb  1 18:34:48 2010	El Paso, TX 79901  	55.7	2	44	0.00	56	N 11	56	49	37
Mon Feb  1 18:34:50 2010	New York, NY 10001  	32.4	4	25	0.00	32	NNW 16	29	42	12
Mon Feb  1 18:34:51 2010	Baltimore, MD 21201  	31.2	3	22	0.00	31	NNW 16	31	46	13
Mon Feb  1 18:34:52 2010	Las Vegas, NV 89101  	45.9	4	35	0.00	46	NE 7	45	50	28
Mon Feb  1 18:34:53 2010	Washington, DC 20001  	34.0	4	25	0.00	35	NW 19	30	52	18
Mon Feb  1 18:34:54 2010	Austin, TX 73301  	39.0	3	35	0.00	39	NNE 5	37	88	36
Mon Feb  1 18:34:55 2010	San Francisco, CA 94101  	52.5	2	50	0.00	54	E 12	52	N/A	--
Mon Feb  1 18:34:56 2010	Oklahoma City, OK 73101  	30.9	7	28	0.00	31	S 17	24	95	30
Mon Feb  1 18:34:58 2010	Nashville, TN 37201  	49.8	3	23	0.01	50	ENE 7	50	43	28
Mon Feb  1 18:34:59 2010	Fort Worth, TX 76101  	37.3	4	30	0.00	37	SSW 11	34	100	37
Mon Feb  1 18:35:00 2010	Phoenix, AZ 85001  	57.3	3	49	0.00	57	NE 9	57	52	40
Mon Feb  1 18:35:01 2010	Portland, OR 97201  	40.6	4	39	0.04	41	SSW 13	38	98	40
Mon Feb  1 18:35:03 2010	Chicago, IL 60601  	28.4	0	19	0.00	28	NE 6	28	58	15
Mon Feb  1 18:35:04 2010	San Antonio, TX 78201  	38.7	3	32	0.01	39	NNE 9	39	100	39
Mon Feb  1 18:35:05 2010	Indianapolis, IN 46201  	35.4	2	19	0.00	35	ESE 8	35	50	19
Mon Feb  1 18:35:07 2010	Boston, MA 02101  	31.7	2	20	0.00	32	NW 19	32	40	10
Mon Feb  1 18:35:08 2010	Jacksonville, FL 32099  	57.9	11	47	0.00	58	NE 15	56	74	50
Mon Feb  1 18:35:09 2010	Columbus, OH 43085  	31.8	4	14	N/A	32	W 8	28	N/A	--
Mon Feb  1 18:35:11 2010	Dallas, TX 75201  	45.0	3	35	0.00	45	SSW 10	44	73	37
Mon Feb  1 18:35:12 2010	Houston, TX 77001  	42.6	2	35	0.06	43	ENE 11	43	96	42
Mon Feb  1 18:35:13 2010	Seattle, WA 98101  	42.6	2	42	0.00	48	ENE 7	43	92	41
Mon Feb  1 18:35:14 2010	Milwaukee, WI 53201  	21.8	1	10	0.00	22	WNW 8	22	64	11
Mon Feb  1 18:35:16 2010	Detroit, MI 48201  	23.3	5	14	0.00	24	WSW 15	17	60	11
Mon Feb  1 18:35:17 2010	Philadelphia, PA 19019  	33.5	6	24	0.00	34	NNW 22	28	44	14
Mon Feb  1 19:18:50 2010	San Jose, CA 95101  	48.9	0	43	0.00	49	SE 6	49	85	45
Mon Feb  1 19:18:51 2010	Charlotte, NC 28201  	44.6	0	22	0.03	45	S 6	45	57	30
Mon Feb  1 19:18:52 2010	San Diego, CA 92101  	57.6	0	51	0.00	58	NNE 6	58	84	53
Mon Feb  1 19:18:52 2010	Denver, CO 80214  	43.2	8	21	0.00	44	WNW 18	39	22	6
Mon Feb  1 19:18:53 2010	Memphis, TN 37501  	39.9	0	25	0.00	40	NNE 7	40	66	30
Mon Feb  1 19:18:54 2010	Los Angeles, CA 90001  	57.5	2	48	0.00	58	ENE 10	57	67	47
Mon Feb  1 19:18:54 2010	El Paso, TX 79901  	55.7	2	44	0.00	56	N 11	56	49	37
Mon Feb  1 19:18:55 2010	New York, NY 10001  	32.4	4	25	0.00	32	NNW 16	29	42	12
Mon Feb  1 19:18:56 2010	Baltimore, MD 21201  	31.2	3	22	0.00	31	NNW 16	31	46	13
Mon Feb  1 19:18:57 2010	Las Vegas, NV 89101  	45.9	4	35	0.00	46	NE 7	45	50	28
Mon Feb  1 19:18:58 2010	Austin, TX 73301  	39.0	3	35	0.00	39	NNE 5	37	88	36
Mon Feb  1 19:18:58 2010	Washington, DC 20001  	34.7	0	25	0.00	35	NW 19	35	49	18
Mon Feb  1 19:18:59 2010	San Francisco, CA 94101  	52.5	2	50	0.00	54	E 12	52	N/A	--
Mon Feb  1 19:19:00 2010	Oklahoma City, OK 73101  	30.9	7	28	0.00	31	S 17	24	95	30
Mon Feb  1 19:19:01 2010	Nashville, TN 37201  	49.8	3	23	0.01	50	ENE 7	50	43	28
Mon Feb  1 19:19:02 2010	Fort Worth, TX 76101  	37.3	4	30	0.00	37	SSW 11	34	100	37
Mon Feb  1 19:19:03 2010	Phoenix, AZ 85001  	57.3	3	49	0.00	57	NE 9	57	52	40
Mon Feb  1 19:19:04 2010	Portland, OR 97201  	40.6	4	39	0.04	41	SSW 13	38	98	40
Mon Feb  1 19:19:05 2010	Chicago, IL 60601  	28.4	0	19	0.00	28	NE 6	28	58	15
Mon Feb  1 19:19:06 2010	San Antonio, TX 78201  	38.7	3	32	0.01	39	NNE 9	39	100	39
Mon Feb  1 19:19:07 2010	Indianapolis, IN 46201  	35.4	2	19	0.00	35	ESE 8	35	50	19
Mon Feb  1 19:19:08 2010	Jacksonville, FL 32099  	57.9	11	47	0.00	58	NE 15	56	74	50
Mon Feb  1 19:19:08 2010	Boston, MA 02101  	31.7	2	20	0.00	32	NW 19	32	40	10
Mon Feb  1 19:19:09 2010	Columbus, OH 43085  	31.8	4	14	N/A	32	W 8	28	N/A	--
Mon Feb  1 19:19:10 2010	Dallas, TX 75201  	45.0	3	35	0.00	45	SSW 10	44	73	37
Mon Feb  1 19:19:11 2010	Houston, TX 77001  	42.6	2	35	0.06	43	ENE 11	43	96	42
Mon Feb  1 19:19:11 2010	Seattle, WA 98101  	42.6	2	42	0.00	48	ENE 7	43	92	41
Mon Feb  1 19:19:12 2010	Milwaukee, WI 53201  	21.8	1	10	0.00	22	WNW 8	22	64	11
Mon Feb  1 19:19:13 2010	Philadelphia, PA 19019  	33.5	6	24	0.00	34	NNW 22	28	44	14
Mon Feb  1 19:19:13 2010	Detroit, MI 48201  	23.3	5	14	0.00	24	WSW 15	17	60	11
Mon Feb  1 20:03:05 2010	San Jose, CA 95101  	57.0	0	43	0.00	57	SE 6	57	63	45
Mon Feb  1 20:03:06 2010	Charlotte, NC 28201  	47.2	0	22	0.03	47	S 6	47	44	26
Mon Feb  1 20:03:07 2010	San Diego, CA 92101  	61.7	1	51	0.00	62	NNE 6	62	70	52
Mon Feb  1 20:03:10 2010	Denver, CO 80214  	43.9	10	21	0.00	45	WNW 18	38	21	6
Mon Feb  1 20:03:12 2010	Memphis, TN 37501  	46.0	0	25	0.00	46	NNE 7	46	52	30
Mon Feb  1 20:03:13 2010	Los Angeles, CA 90001  	61.9	0	48	0.00	62	ENE 10	62	60	48
Mon Feb  1 20:03:15 2010	El Paso, TX 79901  	60.2	1	44	0.00	61	WNW 12	60	39	35
Mon Feb  1 20:03:16 2010	New York, NY 10001  	34.4	1	25	0.00	35	NNW 16	34	39	12
Mon Feb  1 20:03:17 2010	Baltimore, MD 21201  	31.5	3	22	0.00	32	WNW 20	32	46	13
Mon Feb  1 20:03:18 2010	Las Vegas, NV 89101  	52.6	0	35	0.00	53	NE 7	53	40	29
Mon Feb  1 20:03:19 2010	Washington, DC 20001  	34.6	9	25	0.00	36	NW 19	28	47	16
Mon Feb  1 20:03:21 2010	Austin, TX 73301  	41.0	0	35	0.01	41	NNE 5	41	93	39
Mon Feb  1 20:03:22 2010	San Francisco, CA 94101  	54.9	2	50	0.00	55	E 12	55	N/A	--
Mon Feb  1 20:03:24 2010	Oklahoma City, OK 73101  	30.9	14	28	0.00	31	S 17	21	95	30
Mon Feb  1 20:03:25 2010	Nashville, TN 37201  	44.5	2	23	0.06	50	NE 7	44	52	28
Mon Feb  1 20:03:27 2010	Fort Worth, TX 76101  	40.8	9	30	0.00	41	SSW 13	35	93	39
Mon Feb  1 20:03:28 2010	Phoenix, AZ 85001  	60.0	2	49	0.00	60	ENE 11	60	46	40
Mon Feb  1 20:03:30 2010	Portland, OR 97201  	43.9	0	39	0.04	44	SSW 13	44	87	40
Mon Feb  1 20:03:31 2010	Chicago, IL 60601  	29.3	1	19	0.00	29	NE 6	29	57	16
Mon Feb  1 20:03:33 2010	San Antonio, TX 78201  	40.4	0	32	0.02	41	NNE 9	40	98	40
Mon Feb  1 20:03:34 2010	Indianapolis, IN 46201  	35.8	3	19	0.00	37	S 9	36	48	18
Mon Feb  1 20:03:36 2010	Boston, MA 02101  	32.3	1	20	0.00	33	SSW 21	32	33	6
Mon Feb  1 20:03:37 2010	Jacksonville, FL 32099  	59.0	16	47	0.00	59	ENE 24	56	72	50
Mon Feb  1 20:03:39 2010	Columbus, OH 43085  	34.4	1	14	N/A	35	W 9	34	N/A	--
Mon Feb  1 20:03:42 2010	Dallas, TX 75201  	45.5	5	35	0.00	46	WSW 12	43	73	37
Mon Feb  1 20:03:43 2010	Houston, TX 77001  	44.1	2	35	0.08	45	ENE 11	44	97	43
Mon Feb  1 20:03:44 2010	Seattle, WA 98101  	44.5	2	42	0.00	48	ENE 7	44	84	40
Mon Feb  1 20:03:46 2010	Milwaukee, WI 53201  	22.2	1	10	0.00	23	WNW 8	22	71	14
Mon Feb  1 20:03:47 2010	Detroit, MI 48201  	24.5	2	14	0.00	25	WSW 15	24	59	12
Mon Feb  1 20:03:48 2010	Philadelphia, PA 19019  	34.3	5	24	0.00	35	NNW 22	30	43	14
Mon Feb  1 20:50:44 2010	San Jose, CA 95101  	57.0	0	43	0.00	57	SE 6	57	63	45
Mon Feb  1 20:50:46 2010	Charlotte, NC 28201  	47.2	0	22	0.03	47	S 6	47	44	26
Mon Feb  1 20:50:47 2010	San Diego, CA 92101  	61.7	1	51	0.00	62	NNE 6	62	70	52
Mon Feb  1 20:50:49 2010	Denver, CO 80214  	43.9	10	21	0.00	45	WNW 18	38	21	6
Mon Feb  1 20:50:51 2010	Memphis, TN 37501  	46.0	0	25	0.00	46	NNE 7	46	52	30
Mon Feb  1 20:50:52 2010	Los Angeles, CA 90001  	61.9	0	48	0.00	62	ENE 10	62	60	48
Mon Feb  1 20:50:54 2010	El Paso, TX 79901  	60.2	1	44	0.00	61	WNW 12	60	39	35
Mon Feb  1 20:50:55 2010	New York, NY 10001  	34.4	1	25	0.00	35	NNW 16	34	39	12
Mon Feb  1 20:50:57 2010	Baltimore, MD 21201  	31.5	3	22	0.00	32	WNW 20	32	46	13
Mon Feb  1 20:50:58 2010	Las Vegas, NV 89101  	52.6	0	35	0.00	53	NE 7	53	40	29
Mon Feb  1 20:51:00 2010	Washington, DC 20001  	38.2	2	25	0.00	38	NW 19	38	44	18
Mon Feb  1 20:51:02 2010	Austin, TX 73301  	41.0	0	35	0.01	41	NNE 5	41	93	39
Mon Feb  1 20:51:03 2010	San Francisco, CA 94101  	54.9	2	50	0.00	55	E 12	55	N/A	--
Mon Feb  1 20:51:05 2010	Oklahoma City, OK 73101  	30.9	14	28	0.00	31	S 17	21	95	30
Mon Feb  1 20:51:06 2010	Nashville, TN 37201  	44.5	2	23	0.06	50	NE 7	44	52	28
Mon Feb  1 20:51:08 2010	Fort Worth, TX 76101  	40.8	9	30	0.00	41	SSW 13	35	93	39
Mon Feb  1 20:51:09 2010	Phoenix, AZ 85001  	60.0	2	49	0.00	60	ENE 11	60	46	40
Mon Feb  1 20:51:11 2010	Portland, OR 97201  	43.9	0	39	0.04	44	SSW 13	44	87	40
Mon Feb  1 20:51:12 2010	Chicago, IL 60601  	29.3	1	19	0.00	29	NE 6	29	57	16
Mon Feb  1 20:51:14 2010	San Antonio, TX 78201  	40.4	0	32	0.02	41	NNE 9	40	98	40
Mon Feb  1 20:51:15 2010	Indianapolis, IN 46201  	35.8	3	19	0.00	37	S 9	36	48	18
Mon Feb  1 20:51:17 2010	Boston, MA 02101  	32.3	1	20	0.00	33	SSW 21	32	33	6
Mon Feb  1 20:51:18 2010	Jacksonville, FL 32099  	59.0	16	47	0.00	59	ENE 24	56	72	50
Mon Feb  1 20:51:20 2010	Columbus, OH 43085  	34.4	1	14	N/A	35	W 9	34	N/A	--
Mon Feb  1 20:51:21 2010	Dallas, TX 75201  	45.5	5	35	0.00	46	WSW 12	43	73	37
Mon Feb  1 20:51:23 2010	Houston, TX 77001  	44.1	2	35	0.08	45	ENE 11	44	97	43
Mon Feb  1 20:51:24 2010	Seattle, WA 98101  	44.5	2	42	0.00	48	ENE 7	44	84	40
Mon Feb  1 20:51:26 2010	Milwaukee, WI 53201  	22.2	1	10	0.00	23	WNW 8	22	71	14
Mon Feb  1 20:51:27 2010	Detroit, MI 48201  	24.5	2	14	0.00	25	WSW 15	24	59	12
Mon Feb  1 20:51:29 2010	Philadelphia, PA 19019  	34.3	5	24	0.00	35	NNW 22	30	43	14
Mon Feb  1 21:34:37 2010	San Jose, CA 95101  	60.1	3	43	0.00	60	SE 6	60	54	43
Mon Feb  1 21:34:38 2010	Charlotte, NC 28201  	48.4	2	22	0.03	49	S 8	48	39	24
Mon Feb  1 21:34:40 2010	San Diego, CA 92101  	63.2	5	51	0.00	64	NW 7	63	66	52
Mon Feb  1 21:34:41 2010	Denver, CO 80214  	44.9	11	21	0.00	45	NW 19	39	21	7
Mon Feb  1 21:34:42 2010	Memphis, TN 37501  	46.9	5	25	0.00	47	NNE 7	45	50	29
Mon Feb  1 21:34:43 2010	Los Angeles, CA 90001  	66.8	0	48	0.00	68	ENE 10	67	44	45
Mon Feb  1 21:34:44 2010	El Paso, TX 79901  	62.0	5	44	0.00	62	W 16	62	37	36
Mon Feb  1 21:34:46 2010	New York, NY 10001  	36.3	7	25	0.00	36	NNW 16	30	37	12
Mon Feb  1 21:34:47 2010	Baltimore, MD 21201  	33.1	8	22	0.00	33	WNW 20	26	43	13
Mon Feb  1 21:34:48 2010	Las Vegas, NV 89101  	53.3	4	35	0.00	54	ENE 10	53	33	25
Mon Feb  1 21:34:49 2010	Washington, DC 20001  	38.2	2	25	0.00	38	NW 19	38	44	18
Mon Feb  1 21:34:50 2010	Austin, TX 73301  	43.0	0	35	0.01	43	NNE 5	43	89	40
Mon Feb  1 21:34:51 2010	San Francisco, CA 94101  	55.5	4	50	0.00	57	E 12	55	N/A	--
Mon Feb  1 21:34:52 2010	Oklahoma City, OK 73101  	30.2	12	28	0.00	32	S 17	20	93	28
Mon Feb  1 21:34:54 2010	Nashville, TN 37201  	45.4	1	23	0.12	50	NE 8	45	50	28
Mon Feb  1 21:34:55 2010	Fort Worth, TX 76101  	42.5	5	30	0.00	43	SSW 13	39	91	40
Mon Feb  1 21:34:56 2010	Phoenix, AZ 85001  	63.2	0	49	0.00	64	ENE 11	63	40	39
Mon Feb  1 21:34:57 2010	Portland, OR 97201  	43.7	0	39	0.07	44	SSW 13	44	94	42
Mon Feb  1 21:34:59 2010	Chicago, IL 60601  	28.8	2	19	0.00	30	NE 6	29	60	16
Mon Feb  1 21:35:00 2010	San Antonio, TX 78201  	42.0	0	32	0.02	42	NNE 9	42	99	42
Mon Feb  1 21:35:01 2010	Indianapolis, IN 46201  	39.2	3	19	0.00	39	S 9	37	41	17
Mon Feb  1 21:35:02 2010	Boston, MA 02101  	32.1	3	20	0.00	33	SSW 21	29	33	6
Mon Feb  1 21:35:03 2010	Jacksonville, FL 32099  	59.0	15	47	0.00	59	ENE 24	56	75	51
Mon Feb  1 21:35:05 2010	Columbus, OH 43085  	34.6	0	14	N/A	37	W 9	35	N/A	--
Mon Feb  1 21:35:06 2010	Dallas, TX 75201  	48.5	3	35	0.00	50	WSW 12	49	70	39
Mon Feb  1 21:35:07 2010	Houston, TX 77001  	46.3	4	35	0.08	46	E 12	45	96	45
Mon Feb  1 21:35:08 2010	Seattle, WA 98101  	45.8	3	42	0.00	48	ENE 7	45	81	40
Mon Feb  1 21:35:10 2010	Milwaukee, WI 53201  	22.3	4	10	0.00	24	WNW 8	17	71	14
Mon Feb  1 21:35:11 2010	Detroit, MI 48201  	26.9	0	14	0.00	27	WSW 15	27	54	12
Mon Feb  1 21:35:12 2010	Philadelphia, PA 19019  	34.7	14	24	0.00	36	NNW 22	26	42	14
Mon Feb  1 22:18:00 2010	San Jose, CA 95101  	60.1	3	43	0.00	60	SE 6	60	54	43
Mon Feb  1 22:18:01 2010	Charlotte, NC 28201  	48.4	2	22	0.03	49	S 8	48	39	24
Mon Feb  1 22:18:02 2010	Denver, CO 80214  	44.9	11	21	0.00	45	NW 19	39	21	7
Mon Feb  1 22:18:02 2010	San Diego, CA 92101  	63.2	5	51	0.00	64	NW 7	63	66	52
Mon Feb  1 22:18:03 2010	Memphis, TN 37501  	46.9	5	25	0.00	47	NNE 7	45	50	29
Mon Feb  1 22:18:04 2010	Los Angeles, CA 90001  	66.8	0	48	0.00	68	ENE 10	67	44	45
Mon Feb  1 22:18:05 2010	New York, NY 10001  	36.3	7	25	0.00	36	NNW 16	30	37	12
Mon Feb  1 22:18:05 2010	El Paso, TX 79901  	62.0	5	44	0.00	62	W 16	62	37	36
Mon Feb  1 22:18:06 2010	Baltimore, MD 21201  	33.1	8	22	0.00	33	WNW 20	26	43	13
Mon Feb  1 22:18:07 2010	Las Vegas, NV 89101  	53.3	4	35	0.00	54	ENE 10	53	33	25
Mon Feb  1 22:18:08 2010	Washington, DC 20001  	38.0	6	25	0.00	38	NW 19	33	44	18
Mon Feb  1 22:18:09 2010	Austin, TX 73301  	43.0	0	35	0.01	43	NNE 5	43	89	40
Mon Feb  1 22:18:10 2010	San Francisco, CA 94101  	55.5	4	50	0.00	57	E 12	55	N/A	--
Mon Feb  1 22:18:11 2010	Nashville, TN 37201  	45.4	1	23	0.12	50	NE 8	45	50	28
Mon Feb  1 22:18:11 2010	Oklahoma City, OK 73101  	30.2	12	28	0.00	32	S 17	20	93	28
Mon Feb  1 22:18:12 2010	Fort Worth, TX 76101  	42.5	5	30	0.00	43	SSW 13	39	91	40
Mon Feb  1 22:18:13 2010	Phoenix, AZ 85001  	63.2	0	49	0.00	64	ENE 11	63	40	39
Mon Feb  1 22:18:13 2010	Portland, OR 97201  	43.7	0	39	0.07	44	SSW 13	44	94	42
Mon Feb  1 22:18:14 2010	Chicago, IL 60601  	28.8	2	19	0.00	30	NE 6	29	60	16
Mon Feb  1 22:18:15 2010	San Antonio, TX 78201  	42.0	0	32	0.02	42	NNE 9	42	99	42
Mon Feb  1 22:18:16 2010	Indianapolis, IN 46201  	39.2	3	19	0.00	39	S 9	37	41	17
Mon Feb  1 22:18:16 2010	Boston, MA 02101  	32.1	3	20	0.00	33	SSW 21	29	33	6
Mon Feb  1 22:18:17 2010	Jacksonville, FL 32099  	59.0	15	47	0.00	59	ENE 24	56	75	51
Mon Feb  1 22:18:18 2010	Columbus, OH 43085  	34.6	0	14	N/A	37	W 9	35	N/A	--
Mon Feb  1 22:18:19 2010	Dallas, TX 75201  	48.5	3	35	0.00	50	WSW 12	49	70	39
Mon Feb  1 22:18:20 2010	Houston, TX 77001  	46.3	4	35	0.08	46	E 12	45	96	45
Mon Feb  1 22:18:20 2010	Seattle, WA 98101  	45.8	3	42	0.00	48	ENE 7	45	81	40
Mon Feb  1 22:18:21 2010	Milwaukee, WI 53201  	22.3	4	10	0.00	24	WNW 8	17	71	14
Mon Feb  1 22:18:22 2010	Philadelphia, PA 19019  	34.7	14	24	0.00	36	NNW 22	26	42	14
Mon Feb  1 22:18:22 2010	Detroit, MI 48201  	26.9	0	14	0.00	27	WSW 15	27	54	12
Mon Feb  1 23:02:35 2010	San Jose, CA 95101  	63.0	5	43	0.00	63	SE 6	63	47	42
Mon Feb  1 23:02:36 2010	Charlotte, NC 28201  	46.8	0	22	0.03	50	S 8	47	41	24
Mon Feb  1 23:02:37 2010	San Diego, CA 92101  	61.5	3	51	0.00	64	W 12	62	72	53
Mon Feb  1 23:02:39 2010	Denver, CO 80214  	43.2	13	21	0.00	45	NW 25	37	22	7
Mon Feb  1 23:02:40 2010	Memphis, TN 37501  	46.0	3	25	0.00	47	NNE 7	45	52	30
Mon Feb  1 23:02:41 2010	Los Angeles, CA 90001  	67.8	7	48	0.00	70	SW 11	68	54	51
Mon Feb  1 23:02:43 2010	El Paso, TX 79901  	62.6	1	44	0.00	64	WSW 17	63	32	33
Mon Feb  1 23:02:44 2010	New York, NY 10001  	34.0	4	25	0.00	36	NNW 16	31	40	12
Mon Feb  1 23:02:45 2010	Baltimore, MD 21201  	32.0	4	22	0.00	34	WNW 20	28	44	12
Mon Feb  1 23:02:46 2010	Las Vegas, NV 89101  	56.6	2	35	0.00	57	ENE 10	57	33	28
Mon Feb  1 23:02:47 2010	Washington, DC 20001  	38.0	6	25	0.00	38	NW 19	33	44	18
Mon Feb  1 23:02:49 2010	Austin, TX 73301  	44.6	0	35	0.01	45	NNE 5	45	87	41
Mon Feb  1 23:02:50 2010	San Francisco, CA 94101  	59.5	0	50	0.00	60	E 12	60	N/A	--
Mon Feb  1 23:02:51 2010	Oklahoma City, OK 73101  	30.9	8	28	0.00	32	S 17	24	95	30
Mon Feb  1 23:02:54 2010	Nashville, TN 37201  	44.0	1	23	0.17	50	NE 8	44	59	31
Mon Feb  1 23:02:55 2010	Fort Worth, TX 76101  	44.0	3	30	0.00	44	SSW 13	43	88	41
Mon Feb  1 23:02:56 2010	Phoenix, AZ 85001  	65.4	0	49	0.00	67	ENE 11	65	32	35
Mon Feb  1 23:02:58 2010	Portland, OR 97201  	45.0	0	39	0.08	45	SSW 13	45	96	44
Mon Feb  1 23:02:59 2010	Chicago, IL 60601  	29.6	0	19	0.00	30	NE 6	30	62	18
Mon Feb  1 23:03:01 2010	San Antonio, TX 78201  	43.0	2	32	0.02	43	NNE 9	43	99	43
Mon Feb  1 23:03:02 2010	Indianapolis, IN 46201  	36.8	3	19	0.00	40	S 9	34	44	17
Mon Feb  1 23:03:04 2010	Boston, MA 02101  	29.5	3	20	0.00	33	SSW 21	26	34	4
Mon Feb  1 23:03:05 2010	Jacksonville, FL 32099  	57.9	10	47	0.00	59	ENE 24	56	80	52
Mon Feb  1 23:03:07 2010	Columbus, OH 43085  	34.2	0	14	N/A	37	W 9	34	N/A	--
Mon Feb  1 23:03:08 2010	Dallas, TX 75201  	48.0	5	35	0.00	50	WSW 12	46	73	40
Mon Feb  1 23:03:09 2010	Houston, TX 77001  	47.3	4	35	0.08	47	E 12	46	94	46
Mon Feb  1 23:03:11 2010	Seattle, WA 98101  	48.7	0	42	0.00	49	ENE 7	49	71	40
Mon Feb  1 23:03:12 2010	Milwaukee, WI 53201  	23.2	0	10	0.00	24	WNW 8	23	75	16
Mon Feb  1 23:03:13 2010	Detroit, MI 48201  	25.8	3	14	0.00	27	WSW 15	26	58	13
Mon Feb  1 23:03:15 2010	Philadelphia, PA 19019  	34.2	3	24	0.00	36	NNW 22	34	43	14
Mon Feb  1 23:47:41 2010	San Jose, CA 95101  	63.0	5	43	0.00	63	SE 6	63	47	42
Mon Feb  1 23:47:43 2010	Charlotte, NC 28201  	46.8	0	22	0.03	50	S 8	47	41	24
Mon Feb  1 23:47:44 2010	San Diego, CA 92101  	61.5	3	51	0.00	64	W 12	62	72	53
Mon Feb  1 23:47:46 2010	Denver, CO 80214  	43.2	13	21	0.00	45	NW 25	37	22	7
Mon Feb  1 23:47:47 2010	Memphis, TN 37501  	46.0	3	25	0.00	47	NNE 7	45	52	30
Mon Feb  1 23:47:48 2010	Los Angeles, CA 90001  	67.8	7	48	0.00	70	SW 11	68	54	51
Mon Feb  1 23:47:50 2010	El Paso, TX 79901  	62.6	1	44	0.00	64	WSW 17	63	32	33
Mon Feb  1 23:47:52 2010	New York, NY 10001  	34.0	4	25	0.00	36	NNW 16	31	40	12
Mon Feb  1 23:47:53 2010	Baltimore, MD 21201  	32.0	4	22	0.00	34	WNW 20	28	44	12
Mon Feb  1 23:47:54 2010	Las Vegas, NV 89101  	56.6	2	35	0.00	57	ENE 10	57	33	28
Mon Feb  1 23:47:57 2010	Washington, DC 20001  	36.6	1	25	0.00	38	NW 19	37	48	18
Mon Feb  1 23:47:59 2010	Austin, TX 73301  	44.6	0	35	0.01	45	NNE 5	45	87	41
Mon Feb  1 23:48:01 2010	San Francisco, CA 94101  	59.5	0	50	0.00	60	E 12	60	N/A	--
Mon Feb  1 23:48:02 2010	Oklahoma City, OK 73101  	30.9	8	28	0.00	32	S 17	24	95	30
Mon Feb  1 23:48:03 2010	Nashville, TN 37201  	44.0	1	23	0.17	50	NE 8	44	59	31
Mon Feb  1 23:48:05 2010	Fort Worth, TX 76101  	44.0	3	30	0.00	44	SSW 13	43	88	41
Mon Feb  1 23:48:07 2010	Phoenix, AZ 85001  	65.4	0	49	0.00	67	ENE 11	65	32	35
Mon Feb  1 23:48:08 2010	Portland, OR 97201  	45.0	0	39	0.08	45	SSW 13	45	96	44
Mon Feb  1 23:48:10 2010	Chicago, IL 60601  	29.6	0	19	0.00	30	NE 6	30	62	18
Mon Feb  1 23:48:12 2010	San Antonio, TX 78201  	43.0	2	32	0.02	43	NNE 9	43	99	43
Mon Feb  1 23:48:14 2010	Indianapolis, IN 46201  	36.8	3	19	0.00	40	S 9	34	44	17
Mon Feb  1 23:48:15 2010	Boston, MA 02101  	29.5	3	20	0.00	33	SSW 21	26	34	4
Mon Feb  1 23:48:16 2010	Jacksonville, FL 32099  	57.9	10	47	0.00	59	ENE 24	56	80	52
Mon Feb  1 23:48:18 2010	Columbus, OH 43085  	34.2	0	14	N/A	37	W 9	34	N/A	--
Mon Feb  1 23:48:20 2010	Dallas, TX 75201  	48.0	5	35	0.00	50	WSW 12	46	73	40
Mon Feb  1 23:48:22 2010	Houston, TX 77001  	47.3	4	35	0.08	47	E 12	46	94	46
Mon Feb  1 23:48:23 2010	Seattle, WA 98101  	48.7	0	42	0.00	49	ENE 7	49	71	40
Mon Feb  1 23:48:25 2010	Milwaukee, WI 53201  	23.2	0	10	0.00	24	WNW 8	23	75	16
Mon Feb  1 23:48:29 2010	Detroit, MI 48201  	25.8	3	14	0.00	27	WSW 15	26	58	13
Mon Feb  1 23:48:31 2010	Philadelphia, PA 19019  	34.2	3	24	0.00	36	NNW 22	34	43	14
Sat Jan 30 00:34:15 2010	San Jose, CA 95101  	61.0	17	44	0.00	62	SSW 24	58	56	45
Sat Jan 30 00:34:16 2010	Charlotte, NC 28201  	32.1	1	32	0.00	45	ENE 16	32	99	32
Sat Jan 30 00:34:18 2010	San Diego, CA 92101  	61.2	1	50	0.00	64	SW 11	61	71	52
Sat Jan 30 00:34:19 2010	Denver, CO 80214  	45.2	0	22	0.00	48	ENE 9	45	21	8
Sat Jan 30 00:34:21 2010	Memphis, TN 37501  	30.9	12	30	0.72	33	E 31	21	92	29
Sat Jan 30 00:34:22 2010	Los Angeles, CA 90001  	64.8	8	49	0.00	69	WNW 12	65	52	47
Sat Jan 30 00:34:24 2010	El Paso, TX 79901  	46.9	2	31	0.00	49	ENE 16	47	54	31
Sat Jan 30 00:34:25 2010	New York, NY 10001  	21.2	2	15	0.00	25	NNW 24	21	43	2
Sat Jan 30 00:34:26 2010	Baltimore, MD 21201  	21.5	5	16	0.00	22	NW 20	15	39	0
Sat Jan 30 00:34:28 2010	Las Vegas, NV 89101  	53.9	8	40	0.00	56	NE 10	52	39	30
Sat Jan 30 00:34:30 2010	Washington, DC 20001  	23.7	6	17	0.00	25	NNW 24	16	47	6
Sat Jan 30 00:34:32 2010	Austin, TX 73301  	39.0	21	39	1.00	64	NNW 30	29	64	28
Sat Jan 30 00:34:37 2010	San Francisco, CA 94101  	55.9	5	49	0.00	57	SSW 16	55	N/A	--
Sat Jan 30 00:34:38 2010	Oklahoma City, OK 73101  	21.9	17	21	0.00	27	NNE 31	8	87	19
Sat Jan 30 00:34:40 2010	Nashville, TN 37201  	26.4	12	25	0.00	30	NE 19	16	100	26
Sat Jan 30 00:34:44 2010	Fort Worth, TX 76101  	31.4	14	31	0.61	46	NNW 28	21	94	30
Sat Jan 30 00:34:48 2010	Phoenix, AZ 85001  	64.7	2	51	0.00	67	ENE 12	65	41	41
Sat Jan 30 00:34:54 2010	Portland, OR 97201  	48.0	4	46	0.00	50	E 20	47	68	38
Sat Jan 30 00:34:55 2010	Chicago, IL 60601  	18.5	4	6	0.00	21	NW 12	12	71	10
Sat Jan 30 00:35:01 2010	San Antonio, TX 78201  	41.2	12	37	0.73	63	W 39	34	60	28
Sat Jan 30 00:35:04 2010	Indianapolis, IN 46201  	17.8	5	11	0.00	20	ENE 16	11	74	11
Sat Jan 30 00:35:06 2010	Boston, MA 02101  	13.5	8	9	0.00	18	WNW 38	2	28	-14
Sat Jan 30 00:35:07 2010	Jacksonville, FL 32099  	60.1	9	47	0.00	68	E 11	59	56	44
Sat Jan 30 00:35:09 2010	Columbus, OH 43085  	14.3	2	9	N/A	21	ENE 12	14	N/A	--
Sat Jan 30 00:35:10 2010	Dallas, TX 75201  	33.5	6	34	0.63	44	NNW 25	28	89	31
Sat Jan 30 00:35:12 2010	Houston, TX 77001  	43.1	14	43	1.20	64	WNW 30	36	83	38
Sat Jan 30 00:35:14 2010	Seattle, WA 98101  	51.7	2	44	0.00	55	WNW 18	52	60	38
Sat Jan 30 00:35:16 2010	Milwaukee, WI 53201  	12.2	2	-1	0.00	14	NNE 11	12	75	6
Sat Jan 30 00:35:18 2010	Detroit, MI 48201  	18.1	0	6	0.00	21	NW 16	18	46	0
Sat Jan 30 00:35:19 2010	Philadelphia, PA 19019  	22.1	4	16	0.00	23	NW 25	17	48	5
Sat Jan 30 01:18:37 2010	San Jose, CA 95101  	61.0	17	44	0.00	62	SSW 24	58	56	45
Sat Jan 30 01:18:38 2010	Charlotte, NC 28201  	32.1	1	32	0.00	45	ENE 16	32	99	32
Sat Jan 30 01:18:38 2010	San Diego, CA 92101  	61.2	1	50	0.00	64	SW 11	61	71	52
Sat Jan 30 01:18:39 2010	Denver, CO 80214  	45.2	0	22	0.00	48	ENE 9	45	21	8
Sat Jan 30 01:18:40 2010	Memphis, TN 37501  	30.9	12	30	0.72	33	E 31	21	92	29
Sat Jan 30 01:18:41 2010	El Paso, TX 79901  	46.9	2	31	0.00	49	ENE 16	47	54	31
Sat Jan 30 01:18:41 2010	Los Angeles, CA 90001  	64.8	8	49	0.00	69	WNW 12	65	52	47
Sat Jan 30 01:18:42 2010	New York, NY 10001  	21.2	2	15	0.00	25	NNW 24	21	43	2
Sat Jan 30 01:18:43 2010	Las Vegas, NV 89101  	53.9	8	40	0.00	56	NE 10	52	39	30
Sat Jan 30 01:18:43 2010	Baltimore, MD 21201  	21.5	5	16	0.00	22	NW 20	15	39	0
Sat Jan 30 01:18:44 2010	Washington, DC 20001  	23.7	6	17	0.00	25	NNW 24	16	47	6
Sat Jan 30 01:18:45 2010	Austin, TX 73301  	39.0	21	39	1.00	64	NNW 30	29	64	28
Sat Jan 30 01:18:46 2010	San Francisco, CA 94101  	55.9	5	49	0.00	57	SSW 16	55	N/A	--
Sat Jan 30 01:18:47 2010	Nashville, TN 37201  	26.4	12	25	0.00	30	NE 19	16	100	26
Sat Jan 30 01:18:47 2010	Oklahoma City, OK 73101  	21.9	17	21	0.00	27	NNE 31	8	87	19
Sat Jan 30 01:18:48 2010	Fort Worth, TX 76101  	31.4	14	31	0.61	46	NNW 28	21	94	30
Sat Jan 30 01:18:49 2010	Portland, OR 97201  	48.0	4	46	0.00	50	E 20	47	68	38
Sat Jan 30 01:18:49 2010	Phoenix, AZ 85001  	64.7	2	51	0.00	67	ENE 12	65	41	41
Sat Jan 30 01:18:51 2010	Chicago, IL 60601  	19.1	2	6	0.00	21	NW 12	19	74	12
Sat Jan 30 01:18:51 2010	San Antonio, TX 78201  	41.2	12	37	0.73	63	W 39	34	60	28
Sat Jan 30 01:18:52 2010	Indianapolis, IN 46201  	17.8	5	11	0.00	20	ENE 16	11	74	11
Sat Jan 30 01:18:53 2010	Jacksonville, FL 32099  	60.1	9	47	0.00	68	E 11	59	56	44
Sat Jan 30 01:18:53 2010	Boston, MA 02101  	13.5	8	9	0.00	18	WNW 38	2	28	-14
Sat Jan 30 01:18:54 2010	Columbus, OH 43085  	14.3	2	9	N/A	21	ENE 12	14	N/A	--
Sat Jan 30 01:18:55 2010	Dallas, TX 75201  	33.5	6	34	0.63	44	NNW 25	28	89	31
Sat Jan 30 01:18:55 2010	Houston, TX 77001  	43.1	14	43	1.20	64	WNW 30	36	83	38
Sat Jan 30 01:18:56 2010	Seattle, WA 98101  	51.7	2	44	0.00	55	WNW 18	52	60	38
Sat Jan 30 01:18:57 2010	Milwaukee, WI 53201  	12.2	2	-1	0.00	14	NNE 11	12	75	6
Sat Jan 30 01:18:57 2010	Detroit, MI 48201  	18.1	0	6	0.00	21	NW 16	18	46	0
Sat Jan 30 01:18:58 2010	Philadelphia, PA 19019  	22.1	4	16	0.00	23	NW 25	17	48	5
Sat Jan 30 02:02:39 2010	San Jose, CA 95101  	59.0	12	44	0.00	62	SSW 24	57	55	43
Sat Jan 30 02:02:40 2010	Charlotte, NC 28201  	30.8	2	31	0.00	45	ENE 16	31	100	31
Sat Jan 30 02:02:41 2010	San Diego, CA 92101  	59.8	1	50	0.00	64	SW 11	60	81	54
Sat Jan 30 02:02:52 2010	Denver, CO 80214  	37.3	0	22	0.00	48	ENE 9	37	31	9
Sat Jan 30 02:02:53 2010	Memphis, TN 37501  	30.0	16	30	0.49	33	E 31	19	88	27
Sat Jan 30 02:02:55 2010	Los Angeles, CA 90001  	59.8	0	49	0.00	69	WSW 15	60	74	52
Sat Jan 30 02:02:56 2010	El Paso, TX 79901  	44.3	3	31	0.00	49	ENE 16	43	61	32
Sat Jan 30 02:02:57 2010	New York, NY 10001  	19.6	4	15	0.00	25	NNW 24	14	47	2
Sat Jan 30 02:02:59 2010	Baltimore, MD 21201  	21.0	6	16	0.00	22	NW 20	13	39	0
Sat Jan 30 02:03:00 2010	Las Vegas, NV 89101  	51.6	5	40	0.00	56	NE 12	50	44	31
Sat Jan 30 02:03:02 2010	Washington, DC 20001  	23.6	6	17	0.00	25	NNW 24	16	46	5
Sat Jan 30 02:03:04 2010	Austin, TX 73301  	37.0	10	37	1.06	64	NNW 31	30	63	26
Sat Jan 30 02:03:06 2010	San Francisco, CA 94101  	51.8	4	49	0.13	57	SSW 16	51	N/A	--
Sat Jan 30 02:03:08 2010	Oklahoma City, OK 73101  	21.0	16	21	0.00	27	NNE 31	7	87	18
Sat Jan 30 02:03:10 2010	Nashville, TN 37201  	27.2	12	25	0.00	30	NE 19	17	100	27
Sat Jan 30 02:03:11 2010	Fort Worth, TX 76101  	29.9	19	30	0.61	46	NNW 28	18	90	27
Sat Jan 30 02:03:13 2010	Phoenix, AZ 85001  	61.9	5	51	0.00	67	ENE 12	62	49	43
Sat Jan 30 02:03:14 2010	Portland, OR 97201  	47.8	1	46	0.00	50	E 20	48	68	38
Sat Jan 30 02:03:14 2010	Chicago, IL 60601  	19.1	2	6	0.00	21	NW 12	19	74	12
Sat Jan 30 02:03:16 2010	San Antonio, TX 78201  	38.5	5	37	0.73	63	W 39	34	62	27
Sat Jan 30 02:03:17 2010	Indianapolis, IN 46201  	17.1	11	11	0.00	20	ENE 16	5	76	11
Sat Jan 30 02:03:19 2010	Boston, MA 02101  	11.8	4	9	0.00	18	WNW 38	6	29	-15
Sat Jan 30 02:03:20 2010	Jacksonville, FL 32099  	59.0	5	47	0.00	68	E 11	59	69	49
Sat Jan 30 02:03:22 2010	Columbus, OH 43085  	14.0	2	9	N/A	21	ENE 12	14	N/A	--
Sat Jan 30 02:03:23 2010	Dallas, TX 75201  	32.3	8	32	0.63	44	NNW 25	25	83	28
Sat Jan 30 02:03:24 2010	Houston, TX 77001  	40.4	13	40	1.20	64	WNW 30	33	85	36
Sat Jan 30 02:03:25 2010	Seattle, WA 98101  	51.9	2	44	0.00	55	WNW 18	52	64	40
Sat Jan 30 02:03:27 2010	Milwaukee, WI 53201  	12.7	2	-1	0.00	14	NNE 11	13	72	5
Sat Jan 30 02:03:28 2010	Detroit, MI 48201  	16.9	0	6	0.00	21	NW 16	17	51	1
Sat Jan 30 02:03:30 2010	Philadelphia, PA 19019  	21.8	1	16	0.00	23	NW 25	22	48	5
Sat Jan 30 02:46:57 2010	San Jose, CA 95101  	59.0	12	44	0.00	62	SSW 24	57	55	43
Sat Jan 30 02:46:58 2010	Charlotte, NC 28201  	30.8	2	31	0.00	45	ENE 16	31	100	31
Sat Jan 30 02:46:58 2010	San Diego, CA 92101  	59.8	1	50	0.00	64	SW 11	60	81	54
Sat Jan 30 02:46:59 2010	Denver, CO 80214  	37.3	0	22	0.00	48	ENE 9	37	31	9
Sat Jan 30 02:47:00 2010	Memphis, TN 37501  	30.0	16	30	0.49	33	E 31	19	88	27
Sat Jan 30 02:47:00 2010	Los Angeles, CA 90001  	59.8	0	49	0.00	69	WSW 15	60	74	52
Sat Jan 30 02:47:01 2010	El Paso, TX 79901  	44.3	3	31	0.00	49	ENE 16	43	61	32
Sat Jan 30 02:47:02 2010	New York, NY 10001  	19.6	4	15	0.00	25	NNW 24	14	47	2
Sat Jan 30 02:47:03 2010	Baltimore, MD 21201  	21.0	6	16	0.00	22	NW 20	13	39	0
Sat Jan 30 02:47:04 2010	Las Vegas, NV 89101  	51.6	5	40	0.00	56	NE 12	50	44	31
Sat Jan 30 02:47:04 2010	Washington, DC 20001  	23.6	6	17	0.00	25	NNW 24	16	46	5
Sat Jan 30 02:47:05 2010	Austin, TX 73301  	37.0	10	37	1.06	64	NNW 31	30	63	26
Sat Jan 30 02:47:05 2010	San Francisco, CA 94101  	51.8	4	49	0.13	57	SSW 16	51	N/A	--
Sat Jan 30 02:47:06 2010	Oklahoma City, OK 73101  	21.0	16	21	0.00	27	NNE 31	7	87	18
Sat Jan 30 02:47:07 2010	Nashville, TN 37201  	27.2	12	25	0.00	30	NE 19	17	100	27
Sat Jan 30 02:47:08 2010	Phoenix, AZ 85001  	61.9	5	51	0.00	67	ENE 12	62	49	43
Sat Jan 30 02:47:08 2010	Fort Worth, TX 76101  	29.9	19	30	0.61	46	NNW 28	18	90	27
Sat Jan 30 02:47:09 2010	Portland, OR 97201  	47.8	1	46	0.00	50	E 20	48	68	38
Sat Jan 30 02:47:10 2010	Chicago, IL 60601  	20.1	3	6	0.00	21	NNE 12	20	72	12
Sat Jan 30 02:47:11 2010	San Antonio, TX 78201  	38.5	5	37	0.73	63	W 39	34	62	27
Sat Jan 30 02:47:12 2010	Indianapolis, IN 46201  	17.1	11	11	0.00	20	ENE 16	5	76	11
Sat Jan 30 02:47:13 2010	Jacksonville, FL 32099  	59.0	5	47	0.00	68	E 11	59	69	49
Sat Jan 30 02:47:13 2010	Boston, MA 02101  	11.8	4	9	0.00	18	WNW 38	6	29	-15
Sat Jan 30 02:47:14 2010	Columbus, OH 43085  	14.0	2	9	N/A	21	ENE 12	14	N/A	--
Sat Jan 30 02:47:15 2010	Dallas, TX 75201  	32.3	8	32	0.63	44	NNW 25	25	83	28
Sat Jan 30 02:47:15 2010	Houston, TX 77001  	40.4	13	40	1.20	64	WNW 30	33	85	36
Sat Jan 30 02:47:16 2010	Milwaukee, WI 53201  	12.7	2	-1	0.00	14	NNE 11	13	72	5
Sat Jan 30 02:47:16 2010	Seattle, WA 98101  	51.9	2	44	0.00	55	WNW 18	52	64	40
Sat Jan 30 02:47:17 2010	Detroit, MI 48201  	16.9	0	6	0.00	21	NW 16	17	51	1
Sat Jan 30 02:47:18 2010	Philadelphia, PA 19019  	21.8	1	16	0.00	23	NW 25	22	48	5
Sat Jan 30 03:30:21 2010	San Jose, CA 95101  	51.8	0	44	0.04	62	SSW 24	52	87	48
Sat Jan 30 03:30:22 2010	Charlotte, NC 28201  	30.6	3	31	0.00	45	ENE 16	28	100	31
Sat Jan 30 03:30:24 2010	San Diego, CA 92101  	58.6	1	50	0.00	64	SW 11	59	82	53
Sat Jan 30 03:30:25 2010	Denver, CO 80214  	33.6	2	22	0.00	48	ENE 9	34	40	12
Sat Jan 30 03:30:26 2010	Memphis, TN 37501  	30.2	17	30	0.74	33	E 31	19	86	27
Sat Jan 30 03:30:28 2010	Los Angeles, CA 90001  	57.6	0	49	0.00	69	WSW 15	58	82	52
Sat Jan 30 03:30:29 2010	El Paso, TX 79901  	43.4	0	31	0.00	49	ENE 16	43	64	32
Sat Jan 30 03:30:31 2010	New York, NY 10001  	17.9	5	15	0.00	25	NNW 24	10	51	3
Sat Jan 30 03:30:33 2010	Baltimore, MD 21201  	20.1	8	16	0.00	22	NW 20	11	42	0
Sat Jan 30 03:30:34 2010	Las Vegas, NV 89101  	49.5	0	40	0.00	56	NE 12	49	49	31
Sat Jan 30 03:30:35 2010	Washington, DC 20001  	22.0	4	17	0.00	25	NNW 24	16	48	5
Sat Jan 30 03:30:36 2010	Austin, TX 73301  	36.0	15	36	1.06	64	NNW 31	27	65	25
Sat Jan 30 03:30:38 2010	San Francisco, CA 94101  	50.7	5	49	0.16	57	SSW 16	49	N/A	--
Sat Jan 30 03:30:41 2010	Oklahoma City, OK 73101  	19.4	16	19	0.00	27	NNE 31	5	86	16
Sat Jan 30 03:30:42 2010	Nashville, TN 37201  	27.0	7	25	0.00	30	NE 19	19	100	27
Sat Jan 30 03:30:43 2010	Fort Worth, TX 76101  	30.1	10	29	0.61	46	NNW 28	21	96	29
Sat Jan 30 03:30:45 2010	Phoenix, AZ 85001  	60.3	3	51	0.00	67	ENE 12	60	55	44
Sat Jan 30 03:30:52 2010	Portland, OR 97201  	46.0	2	46	0.04	50	E 20	46	76	39
Sat Jan 30 03:30:52 2010	Chicago, IL 60601  	20.1	3	6	0.00	21	NNE 12	20	72	12
Sat Jan 30 03:30:54 2010	San Antonio, TX 78201  	36.2	9	36	0.73	63	W 39	29	64	25
Sat Jan 30 03:30:56 2010	Indianapolis, IN 46201  	16.5	5	11	0.00	20	NE 17	9	78	11
Sat Jan 30 03:30:57 2010	Boston, MA 02101  	10.5	10	9	0.00	18	WNW 38	-3	30	-16
Sat Jan 30 03:30:59 2010	Jacksonville, FL 32099  	55.9	7	47	0.00	68	E 11	54	85	52
Sat Jan 30 03:31:01 2010	Columbus, OH 43085  	14.1	0	9	N/A	21	ENE 12	14	N/A	--
Sat Jan 30 03:31:03 2010	Dallas, TX 75201  	32.3	3	32	0.63	44	NNW 25	30	84	28
Sat Jan 30 03:31:04 2010	Houston, TX 77001  	38.2	15	38	1.20	64	WNW 30	30	82	33
Sat Jan 30 03:31:06 2010	Seattle, WA 98101  	52.6	4	44	0.00	55	WNW 18	52	61	39
Sat Jan 30 03:31:08 2010	Milwaukee, WI 53201  	13.4	0	-1	0.00	14	NNE 11	13	74	7
Sat Jan 30 03:31:09 2010	Detroit, MI 48201  	15.4	0	6	0.00	21	NW 16	15	58	3
Sat Jan 30 03:31:10 2010	Philadelphia, PA 19019  	20.7	9	16	0.00	23	NW 25	10	51	5
Sat Jan 30 04:14:31 2010	San Jose, CA 95101  	51.8	0	44	0.04	62	SSW 24	52	87	48
Sat Jan 30 04:14:32 2010	Charlotte, NC 28201  	30.6	3	31	0.00	45	ENE 16	28	100	31
Sat Jan 30 04:14:32 2010	San Diego, CA 92101  	58.6	1	50	0.00	64	SW 11	59	82	53
Sat Jan 30 04:14:33 2010	Memphis, TN 37501  	30.2	17	30	0.74	33	E 31	19	86	27
Sat Jan 30 04:14:33 2010	Denver, CO 80214  	33.6	2	22	0.00	48	ENE 9	34	40	12
Sat Jan 30 04:14:34 2010	Los Angeles, CA 90001  	57.6	0	49	0.00	69	WSW 15	58	82	52
Sat Jan 30 04:14:35 2010	El Paso, TX 79901  	43.4	0	31	0.00	49	ENE 16	43	64	32
Sat Jan 30 04:14:35 2010	New York, NY 10001  	17.9	5	15	0.00	25	NNW 24	10	51	3
Sat Jan 30 04:14:36 2010	Las Vegas, NV 89101  	49.5	0	40	0.00	56	NE 12	49	49	31
Sat Jan 30 04:14:36 2010	Baltimore, MD 21201  	20.1	8	16	0.00	22	NW 20	11	42	0
Sat Jan 30 04:14:37 2010	Washington, DC 20001  	22.0	4	17	0.00	25	NNW 24	16	48	5
Sat Jan 30 04:14:38 2010	Austin, TX 73301  	36.0	15	36	1.06	64	NNW 31	27	65	25
Sat Jan 30 04:14:38 2010	San Francisco, CA 94101  	50.7	5	49	0.16	57	SSW 16	49	N/A	--
Sat Jan 30 04:14:39 2010	Oklahoma City, OK 73101  	19.4	16	19	0.00	27	NNE 31	5	86	16
Sat Jan 30 04:14:40 2010	Nashville, TN 37201  	27.0	7	25	0.00	30	NE 19	19	100	27
Sat Jan 30 04:14:40 2010	Fort Worth, TX 76101  	30.1	10	29	0.61	46	NNW 28	21	96	29
Sat Jan 30 04:14:41 2010	Portland, OR 97201  	46.0	2	46	0.04	50	E 20	46	76	39
Sat Jan 30 04:14:41 2010	Phoenix, AZ 85001  	60.3	3	51	0.00	67	ENE 12	60	55	44
Sat Jan 30 04:14:43 2010	Chicago, IL 60601  	20.1	3	6	0.00	21	NNE 12	20	79	15
Sat Jan 30 04:14:43 2010	San Antonio, TX 78201  	36.2	9	36	0.73	63	W 39	29	64	25
Sat Jan 30 04:14:44 2010	Indianapolis, IN 46201  	16.5	5	11	0.00	20	NE 17	9	78	11
Sat Jan 30 04:14:45 2010	Jacksonville, FL 32099  	55.9	7	47	0.00	68	E 11	54	85	52
Sat Jan 30 04:14:45 2010	Boston, MA 02101  	10.5	10	9	0.00	18	WNW 38	-3	30	-16
Sat Jan 30 04:14:46 2010	Columbus, OH 43085  	14.1	0	9	N/A	21	ENE 12	14	N/A	--
Sat Jan 30 04:14:46 2010	Dallas, TX 75201  	32.3	3	32	0.63	44	NNW 25	30	84	28
Sat Jan 30 04:14:47 2010	Houston, TX 77001  	38.2	15	38	1.20	64	WNW 30	30	82	33
Sat Jan 30 04:14:48 2010	Milwaukee, WI 53201  	13.4	0	-1	0.00	14	NNE 11	13	74	7
Sat Jan 30 04:14:48 2010	Seattle, WA 98101  	52.6	4	44	0.00	55	WNW 18	52	61	39
Sat Jan 30 04:14:49 2010	Detroit, MI 48201  	15.4	0	6	0.00	21	NW 16	15	58	3
Sat Jan 30 04:14:49 2010	Philadelphia, PA 19019  	20.7	9	16	0.00	23	NW 25	10	51	5
Sat Jan 30 04:58:00 2010	San Jose, CA 95101  	51.8	6	44	0.22	62	SSW 24	50	100	52
Sat Jan 30 04:58:01 2010	Charlotte, NC 28201  	29.6	1	30	0.00	45	ENE 16	30	100	30
Sat Jan 30 04:58:03 2010	San Diego, CA 92101  	57.9	0	50	0.00	64	SW 11	58	85	54
Sat Jan 30 04:58:05 2010	Denver, CO 80214  	32.1	0	22	0.00	48	ENE 9	32	44	13
Sat Jan 30 04:58:06 2010	Memphis, TN 37501  	30.0	16	30	0.51	33	E 31	19	88	27
Sat Jan 30 04:58:07 2010	Los Angeles, CA 90001  	56.4	3	49	0.00	69	WSW 15	56	88	53
Sat Jan 30 04:58:09 2010	El Paso, TX 79901  	42.1	0	31	0.00	49	ENE 16	42	65	31
Sat Jan 30 04:58:11 2010	New York, NY 10001  	17.2	2	15	0.00	25	NNW 24	17	53	3
Sat Jan 30 04:58:12 2010	Baltimore, MD 21201  	19.7	1	16	0.00	22	NW 20	20	44	1
Sat Jan 30 04:58:14 2010	Las Vegas, NV 89101  	47.3	0	40	0.00	56	NE 12	47	54	32
Sat Jan 30 04:58:17 2010	Washington, DC 20001  	20.4	11	17	0.00	25	NNW 24	9	51	5
Sat Jan 30 04:58:18 2010	Austin, TX 73301  	36.0	12	36	1.06	64	NNW 31	28	65	25
Sat Jan 30 04:58:19 2010	San Francisco, CA 94101  	50.6	4	49	0.17	57	SSW 16	49	N/A	--
Sat Jan 30 04:58:21 2010	Oklahoma City, OK 73101  	19.4	16	19	0.00	27	NNE 31	5	86	16
Sat Jan 30 04:58:22 2010	Nashville, TN 37201  	26.6	8	25	0.00	30	NE 19	18	100	27
Sat Jan 30 04:58:23 2010	Fort Worth, TX 76101  	29.3	4	29	0.61	46	NNW 28	25	92	27
Sat Jan 30 04:58:25 2010	Phoenix, AZ 85001  	58.8	1	51	0.00	67	ENE 12	59	61	45
Sat Jan 30 04:58:26 2010	Portland, OR 97201  	46.0	3	45	0.04	50	E 20	45	78	40
Sat Jan 30 04:58:27 2010	Chicago, IL 60601  	20.1	3	6	0.00	21	NNE 12	20	79	15
Sat Jan 30 04:58:28 2010	San Antonio, TX 78201  	34.3	4	34	0.73	63	W 39	30	71	26
Sat Jan 30 04:58:29 2010	Indianapolis, IN 46201  	16.1	8	11	0.00	20	ENE 18	5	80	11
Sat Jan 30 04:58:30 2010	Boston, MA 02101  	8.9	10	9	0.00	18	WNW 38	-5	34	-15
Sat Jan 30 04:58:32 2010	Jacksonville, FL 32099  	55.9	5	47	0.00	68	E 11	55	85	52
Sat Jan 30 04:58:33 2010	Columbus, OH 43085  	14.2	7	9	N/A	21	SSE 14	4	N/A	--
Sat Jan 30 04:58:35 2010	Dallas, TX 75201  	31.0	7	31	0.63	44	NNW 25	24	89	28
Sat Jan 30 04:58:36 2010	Houston, TX 77001  	36.9	6	37	1.20	64	WNW 30	32	78	31
Sat Jan 30 04:58:37 2010	Seattle, WA 98101  	47.4	2	44	0.00	55	WNW 18	47	87	44
Sat Jan 30 04:58:38 2010	Milwaukee, WI 53201  	13.4	4	-1	0.00	14	NNE 11	7	71	6
Sat Jan 30 04:58:41 2010	Detroit, MI 48201  	14.9	0	6	0.00	21	NW 16	15	66	5
Sat Jan 30 04:58:42 2010	Philadelphia, PA 19019  	20.1	2	16	0.00	23	NW 25	20	53	6
Sat Jan 30 05:41:54 2010	Charlotte, NC 28201  	29.6	1	30	0.00	45	ENE 16	30	100	30
Sat Jan 30 05:41:54 2010	San Jose, CA 95101  	51.8	6	44	0.22	62	SSW 24	50	100	52
Sat Jan 30 05:41:55 2010	San Diego, CA 92101  	57.9	0	50	0.00	64	SW 11	58	85	54
Sat Jan 30 05:41:56 2010	Memphis, TN 37501  	30.0	16	30	0.51	33	E 31	19	88	27
Sat Jan 30 05:41:56 2010	Denver, CO 80214  	32.1	0	22	0.00	48	ENE 9	32	44	13
Sat Jan 30 05:41:57 2010	Los Angeles, CA 90001  	56.4	3	49	0.00	69	WSW 15	56	88	53
Sat Jan 30 05:41:58 2010	El Paso, TX 79901  	42.1	0	31	0.00	49	ENE 16	42	65	31
Sat Jan 30 05:41:58 2010	New York, NY 10001  	17.2	2	15	0.00	25	NNW 24	17	53	3
Sat Jan 30 05:41:59 2010	Las Vegas, NV 89101  	47.3	0	40	0.00	56	NE 12	47	54	32
Sat Jan 30 05:41:59 2010	Baltimore, MD 21201  	19.7	1	16	0.00	22	NW 20	20	44	1
Sat Jan 30 05:42:00 2010	Washington, DC 20001  	20.4	11	17	0.00	25	NNW 24	9	51	5
Sat Jan 30 05:42:01 2010	Austin, TX 73301  	36.0	12	36	1.06	64	NNW 31	28	65	25
Sat Jan 30 05:42:01 2010	San Francisco, CA 94101  	50.6	4	49	0.17	57	SSW 16	49	N/A	--
Sat Jan 30 05:42:02 2010	Oklahoma City, OK 73101  	19.4	16	19	0.00	27	NNE 31	5	86	16
Sat Jan 30 05:42:03 2010	Nashville, TN 37201  	26.6	8	25	0.00	30	NE 19	18	100	27
Sat Jan 30 05:42:04 2010	Phoenix, AZ 85001  	58.8	1	51	0.00	67	ENE 12	59	61	45
Sat Jan 30 05:42:04 2010	Fort Worth, TX 76101  	29.3	4	29	0.61	46	NNW 28	25	92	27
Sat Jan 30 05:42:05 2010	Portland, OR 97201  	46.0	3	45	0.04	50	E 20	45	78	40
Sat Jan 30 05:42:13 2010	Chicago, IL 60601  	20.8	4	6	0.00	21	NNE 12	15	72	13
Sat Jan 30 05:42:14 2010	Indianapolis, IN 46201  	16.1	8	11	0.00	20	ENE 18	5	80	11
Sat Jan 30 05:42:14 2010	San Antonio, TX 78201  	34.3	4	34	0.73	63	W 39	30	71	26
Sat Jan 30 05:42:15 2010	Boston, MA 02101  	8.9	10	9	0.00	18	WNW 38	-5	34	-15
Sat Jan 30 05:42:16 2010	Jacksonville, FL 32099  	55.9	5	47	0.00	68	E 11	55	85	52
Sat Jan 30 05:42:16 2010	Columbus, OH 43085  	14.2	7	9	N/A	21	SSE 14	4	N/A	--
Sat Jan 30 05:42:18 2010	Dallas, TX 75201  	31.0	7	31	0.63	44	NNW 25	24	89	28
Sat Jan 30 05:42:18 2010	Houston, TX 77001  	36.9	6	37	1.20	64	WNW 30	32	78	31
Sat Jan 30 05:42:19 2010	Seattle, WA 98101  	47.4	2	44	0.00	55	WNW 18	47	87	44
Sat Jan 30 05:42:20 2010	Milwaukee, WI 53201  	13.4	4	-1	0.00	14	NNE 11	7	71	6
Sat Jan 30 05:42:20 2010	Detroit, MI 48201  	14.9	0	6	0.00	21	NW 16	15	66	5
Sat Jan 30 05:42:21 2010	Philadelphia, PA 19019  	20.1	2	16	0.00	23	NW 25	20	53	6
Sat Jan 30 06:26:47 2010	San Jose, CA 95101  	52.0	7	44	0.25	62	SSW 24	50	97	51
Sat Jan 30 06:26:48 2010	Charlotte, NC 28201  	29.6	5	29	0.00	30	ENE 9	25	100	30
Sat Jan 30 06:26:50 2010	San Diego, CA 92101  	55.7	0	50	0.00	64	SW 11	56	87	52
Sat Jan 30 06:26:52 2010	Denver, CO 80214  	28.9	0	22	0.00	48	ENE 9	29	53	14
Sat Jan 30 06:26:53 2010	Memphis, TN 37501  	28.9	11	29	0.75	33	E 31	19	91	27
Sat Jan 30 06:26:55 2010	Los Angeles, CA 90001  	54.3	0	49	0.00	69	WSW 15	54	90	52
Sat Jan 30 06:26:56 2010	El Paso, TX 79901  	39.7	0	31	0.00	49	ENE 16	40	75	32
Sat Jan 30 06:26:57 2010	New York, NY 10001  	16.1	4	16	0.00	17	NW 14	9	49	0
Sat Jan 30 06:26:59 2010	Baltimore, MD 21201  	18.9	5	19	0.00	20	NW 12	11	46	1
Sat Jan 30 06:27:03 2010	Las Vegas, NV 89101  	46.2	2	40	0.00	56	NE 12	46	60	33
Sat Jan 30 06:27:06 2010	Washington, DC 20001  	19.7	3	20	0.00	21	NNW 17	20	52	5
Sat Jan 30 06:27:09 2010	Austin, TX 73301  	33.1	14	33	1.00	64	NNW 31	23	73	25
Sat Jan 30 06:27:12 2010	San Francisco, CA 94101  	51.7	1	49	0.21	57	SSW 16	52	N/A	--
Sat Jan 30 06:27:15 2010	Oklahoma City, OK 73101  	19.0	18	19	0.00	27	NNE 31	4	83	15
Sat Jan 30 06:27:17 2010	Nashville, TN 37201  	26.4	7	25	0.00	30	NE 19	19	100	26
Sat Jan 30 06:27:19 2010	Fort Worth, TX 76101  	28.8	7	29	0.61	46	NNW 28	22	93	27
Sat Jan 30 06:27:22 2010	Phoenix, AZ 85001  	56.6	1	51	0.00	67	ENE 12	57	66	46
Sat Jan 30 06:27:27 2010	Portland, OR 97201  	45.5	3	45	0.04	50	E 20	45	79	39
Sat Jan 30 06:27:28 2010	Chicago, IL 60601  	20.8	4	6	0.00	21	NNE 12	15	72	13
Sat Jan 30 06:27:32 2010	San Antonio, TX 78201  	32.6	8	33	0.73	63	W 39	25	72	25
Sat Jan 30 06:27:34 2010	Indianapolis, IN 46201  	15.7	9	15	0.00	16	ENE 17	4	77	10
Sat Jan 30 06:27:36 2010	Boston, MA 02101  	6.7	9	7	0.00	8	WNW 25	-7	37	-15
Sat Jan 30 06:27:40 2010	Jacksonville, FL 32099  	57.9	6	47	0.00	68	E 11	57	86	54
Sat Jan 30 06:27:42 2010	Columbus, OH 43085  	14.2	10	14	N/A	14	SSE 14	2	N/A	--
Sat Jan 30 06:27:44 2010	Dallas, TX 75201  	30.6	3	30	0.63	44	NNW 25	31	86	27
Sat Jan 30 06:27:47 2010	Houston, TX 77001  	35.8	12	36	1.20	64	WNW 30	28	80	30
Sat Jan 30 06:27:49 2010	Seattle, WA 98101  	48.4	0	44	0.00	55	WNW 18	48	82	43
Sat Jan 30 06:27:53 2010	Milwaukee, WI 53201  	11.9	5	-1	0.00	14	NNE 11	3	70	4
Sat Jan 30 06:27:56 2010	Detroit, MI 48201  	14.3	0	14	0.00	14	NE 7	14	65	5
Sat Jan 30 06:27:59 2010	Philadelphia, PA 19019  	19.5	3	19	0.00	20	N 12	15	48	2
Sat Jan 30 07:11:17 2010	Charlotte, NC 28201  	29.6	5	29	0.00	30	ENE 9	25	100	30
Sat Jan 30 07:11:17 2010	San Jose, CA 95101  	52.0	7	44	0.25	62	SSW 24	50	97	51
Sat Jan 30 07:11:18 2010	San Diego, CA 92101  	55.7	0	50	0.00	64	SW 11	56	87	52
Sat Jan 30 07:11:19 2010	Memphis, TN 37501  	28.9	11	29	0.75	33	E 31	19	91	27
Sat Jan 30 07:11:19 2010	Denver, CO 80214  	28.9	0	22	0.00	48	ENE 9	29	53	14
Sat Jan 30 07:11:20 2010	El Paso, TX 79901  	39.7	0	31	0.00	49	ENE 16	40	75	32
Sat Jan 30 07:11:20 2010	Los Angeles, CA 90001  	54.3	0	49	0.00	69	WSW 15	54	90	52
Sat Jan 30 07:11:21 2010	New York, NY 10001  	16.1	4	16	0.00	17	NW 14	9	49	0
Sat Jan 30 07:11:22 2010	Las Vegas, NV 89101  	46.2	2	40	0.00	56	NE 12	46	60	33
Sat Jan 30 07:11:22 2010	Baltimore, MD 21201  	18.9	5	19	0.00	20	NW 12	11	46	1
Sat Jan 30 07:11:23 2010	Washington, DC 20001  	19.7	3	20	0.00	21	NNW 17	20	52	5
Sat Jan 30 07:11:23 2010	Austin, TX 73301  	33.1	14	33	1.00	64	NNW 31	23	73	25
Sat Jan 30 07:11:24 2010	San Francisco, CA 94101  	51.7	1	49	0.21	57	SSW 16	52	N/A	--
Sat Jan 30 07:11:25 2010	Nashville, TN 37201  	26.4	7	25	0.00	30	NE 19	19	100	26
Sat Jan 30 07:11:25 2010	Oklahoma City, OK 73101  	19.0	18	19	0.00	27	NNE 31	4	83	15
Sat Jan 30 07:11:26 2010	Fort Worth, TX 76101  	28.8	7	29	0.61	46	NNW 28	22	93	27
Sat Jan 30 07:11:27 2010	Portland, OR 97201  	45.5	3	45	0.04	50	E 20	45	79	39
Sat Jan 30 07:11:27 2010	Phoenix, AZ 85001  	56.6	1	51	0.00	67	ENE 12	57	66	46
Sat Jan 30 07:11:28 2010	Chicago, IL 60601  	20.6	1	20	0.00	21	W 4	21	71	12
Sat Jan 30 07:11:29 2010	San Antonio, TX 78201  	32.6	8	33	0.73	63	W 39	25	72	25
Sat Jan 30 07:11:30 2010	Indianapolis, IN 46201  	15.7	9	15	0.00	16	ENE 17	4	77	10
Sat Jan 30 07:11:30 2010	Boston, MA 02101  	6.7	9	7	0.00	8	WNW 25	-7	37	-15
Sat Jan 30 07:11:31 2010	Jacksonville, FL 32099  	57.9	6	47	0.00	68	E 11	57	86	54
Sat Jan 30 07:11:31 2010	Columbus, OH 43085  	14.2	10	14	N/A	14	SSE 14	2	N/A	--
Sat Jan 30 07:11:32 2010	Dallas, TX 75201  	30.6	3	30	0.63	44	NNW 25	31	86	27
Sat Jan 30 07:11:33 2010	Seattle, WA 98101  	48.4	0	44	0.00	55	WNW 18	48	82	43
Sat Jan 30 07:11:33 2010	Houston, TX 77001  	35.8	12	36	1.20	64	WNW 30	28	80	30
Sat Jan 30 07:11:34 2010	Milwaukee, WI 53201  	11.9	5	-1	0.00	14	NNE 11	3	70	4
Sat Jan 30 07:11:35 2010	Philadelphia, PA 19019  	19.5	3	19	0.00	20	N 12	15	48	2
Sat Jan 30 07:11:35 2010	Detroit, MI 48201  	14.3	0	14	0.00	14	NE 7	14	65	5
Sat Jan 30 07:54:04 2010	San Jose, CA 95101  	52.1	1	45	0.23	64	SSE 16	52	97	51
Sat Jan 30 07:54:06 2010	Charlotte, NC 28201  	28.4	7	28	0.00	30	ENE 14	21	100	28
Sat Jan 30 07:54:07 2010	San Diego, CA 92101  	53.7	0	50	0.00	64	SW 11	54	92	51
Sat Jan 30 07:54:08 2010	Denver, CO 80214  	27.5	0	22	0.00	48	ENE 9	27	54	13
Sat Jan 30 07:54:09 2010	Memphis, TN 37501  	28.4	12	28	0.00	28	NNE 12	18	86	25
Sat Jan 30 07:54:11 2010	Los Angeles, CA 90001  	53.2	0	49	0.00	69	WSW 15	53	92	51
Sat Jan 30 07:54:12 2010	El Paso, TX 79901  	37.3	0	31	0.00	49	ENE 16	37	82	32
Sat Jan 30 07:54:13 2010	New York, NY 10001  	15.3	10	15	0.00	17	NNW 18	3	52	0
Sat Jan 30 07:54:15 2010	Baltimore, MD 21201  	18.7	4	18	0.00	20	NNW 13	12	46	1
Sat Jan 30 07:54:16 2010	Las Vegas, NV 89101  	43.7	0	40	0.00	56	NE 12	44	70	35
Sat Jan 30 07:54:17 2010	Washington, DC 20001  	19.8	9	19	0.00	21	NNW 17	9	55	6
Sat Jan 30 07:54:19 2010	Austin, TX 73301  	28.4	13	28	0.00	29	NW 22	18	79	23
Sat Jan 30 07:54:20 2010	San Francisco, CA 94101  	51.4	2	49	0.21	57	SSW 16	51	N/A	--
Sat Jan 30 07:54:21 2010	Oklahoma City, OK 73101  	25.6	0	25	0.00	26	NNE 0	26	5	-38
Sat Jan 30 07:54:22 2010	Nashville, TN 37201  	26.1	7	26	0.00	26	NNE 16	18	100	26
Sat Jan 30 07:54:23 2010	Fort Worth, TX 76101  	28.5	3	28	0.00	29	NNW 25	25	90	26
Sat Jan 30 07:54:26 2010	Phoenix, AZ 85001  	54.0	1	51	0.00	67	ENE 12	54	67	44
Sat Jan 30 07:54:27 2010	Portland, OR 97201  	45.1	0	45	0.04	50	E 20	45	78	39
Sat Jan 30 07:54:28 2010	Chicago, IL 60601  	20.6	1	20	0.00	21	W 4	21	71	12
Sat Jan 30 07:54:29 2010	San Antonio, TX 78201  	30.9	6	31	0.00	32	NW 18	25	73	23
Sat Jan 30 07:54:32 2010	Indianapolis, IN 46201  	15.3	8	15	0.00	16	ENE 17	4	76	9
Sat Jan 30 07:54:33 2010	Boston, MA 02101  	5.4	7	5	0.00	8	WNW 28	-7	43	-13
Sat Jan 30 07:54:35 2010	Jacksonville, FL 32099  	55.4	0	55	0.00	55	NNE 3	55	88	52
Sat Jan 30 07:54:36 2010	Columbus, OH 43085  	14.3	7	14	N/A	14	ESE 16	4	N/A	--
Sat Jan 30 07:54:37 2010	Dallas, TX 75201  	29.6	14	29	0.00	31	WNW 18	19	89	27
Sat Jan 30 07:54:39 2010	Houston, TX 77001  	34.5	16	34	0.00	36	NW 20	24	82	30
Sat Jan 30 07:54:40 2010	Seattle, WA 98101  	48.9	2	44	0.01	55	WNW 18	49	80	43
Sat Jan 30 07:54:42 2010	Milwaukee, WI 53201  	11.2	5	11	0.00	12	NNE 12	2	79	6
Sat Jan 30 07:54:43 2010	Detroit, MI 48201  	14.3	0	13	0.00	15	NE 7	14	62	3
Sat Jan 30 07:54:44 2010	Philadelphia, PA 19019  	18.3	11	18	0.00	20	NNW 18	6	49	2
Sat Jan 30 08:37:18 2010	San Jose, CA 95101  	52.1	1	45	0.23	64	SSE 16	52	97	51
Sat Jan 30 08:37:19 2010	Charlotte, NC 28201  	28.4	7	28	0.00	30	ENE 14	21	100	28
Sat Jan 30 08:37:19 2010	San Diego, CA 92101  	53.7	0	50	0.00	64	SW 11	54	92	51
Sat Jan 30 08:37:20 2010	Denver, CO 80214  	27.5	0	22	0.00	48	ENE 9	27	54	13
Sat Jan 30 08:37:21 2010	Memphis, TN 37501  	28.4	12	28	0.00	28	NNE 12	18	86	25
Sat Jan 30 08:37:22 2010	Los Angeles, CA 90001  	53.2	0	49	0.00	69	WSW 15	53	92	51
Sat Jan 30 08:37:23 2010	El Paso, TX 79901  	37.3	0	31	0.00	49	ENE 16	37	82	32
Sat Jan 30 08:37:24 2010	Baltimore, MD 21201  	18.7	4	18	0.00	20	NNW 13	12	46	1
Sat Jan 30 08:37:24 2010	New York, NY 10001  	15.3	10	15	0.00	17	NNW 18	3	52	0
Sat Jan 30 08:37:25 2010	Las Vegas, NV 89101  	43.7	0	40	0.00	56	NE 12	44	70	35
Sat Jan 30 08:37:26 2010	Washington, DC 20001  	19.8	9	19	0.00	21	NNW 17	9	55	6
Sat Jan 30 08:37:27 2010	Austin, TX 73301  	28.4	13	28	0.00	29	NW 22	18	79	23
Sat Jan 30 08:37:27 2010	San Francisco, CA 94101  	51.4	2	49	0.21	57	SSW 16	51	N/A	--
Sat Jan 30 08:37:28 2010	Oklahoma City, OK 73101  	25.6	0	25	0.00	26	NNE 0	26	5	-38
Sat Jan 30 08:37:29 2010	Nashville, TN 37201  	26.1	7	26	0.00	26	NNE 16	18	100	26
Sat Jan 30 08:37:29 2010	Fort Worth, TX 76101  	28.5	3	28	0.00	29	NNW 25	25	90	26
Sat Jan 30 08:37:30 2010	Portland, OR 97201  	45.1	0	45	0.04	50	E 20	45	78	39
Sat Jan 30 08:37:30 2010	Phoenix, AZ 85001  	54.0	1	51	0.00	67	ENE 12	54	67	44
Sat Jan 30 08:37:32 2010	Chicago, IL 60601  	19.9	1	20	0.00	21	W 8	20	68	11
Sat Jan 30 08:37:33 2010	San Antonio, TX 78201  	30.9	6	31	0.00	32	NW 18	25	73	23
Sat Jan 30 08:37:34 2010	Indianapolis, IN 46201  	15.3	8	15	0.00	16	ENE 17	4	76	9
Sat Jan 30 08:37:34 2010	Boston, MA 02101  	5.4	7	5	0.00	8	WNW 28	-7	43	-13
Sat Jan 30 08:37:35 2010	Jacksonville, FL 32099  	55.4	0	55	0.00	55	NNE 3	55	88	52
Sat Jan 30 08:37:36 2010	Columbus, OH 43085  	14.3	7	14	N/A	14	ESE 16	4	N/A	--
Sat Jan 30 08:37:37 2010	Houston, TX 77001  	34.5	16	34	0.00	36	NW 20	24	82	30
Sat Jan 30 08:37:37 2010	Dallas, TX 75201  	29.6	14	29	0.00	31	WNW 18	19	89	27
Sat Jan 30 08:37:38 2010	Seattle, WA 98101  	48.9	2	44	0.01	55	WNW 18	49	80	43
Sat Jan 30 08:37:39 2010	Milwaukee, WI 53201  	11.2	5	11	0.00	12	NNE 12	2	79	6
Sat Jan 30 08:37:40 2010	Detroit, MI 48201  	14.3	0	13	0.00	15	NE 7	14	62	3
Sat Jan 30 08:37:40 2010	Philadelphia, PA 19019  	18.3	11	18	0.00	20	NNW 18	6	49	2
Sat Jan 30 11:22:37 2010	San Jose, CA 95101  	48.9	0	49	0.00	50	NNE 0	49	99	49
Sat Jan 30 11:22:40 2010	Charlotte, NC 28201  	26.3	5	26	0.00	30	E 18	20	100	26
Sat Jan 30 11:22:45 2010	San Diego, CA 92101  	51.0	2	51	0.00	54	NE 3	51	100	51
Sat Jan 30 11:22:47 2010	Denver, CO 80214  	23.0	0	23	0.00	28	WNW 2	23	70	14
Sat Jan 30 11:22:50 2010	Memphis, TN 37501  	25.0	12	25	0.00	28	NNE 22	14	85	21
Sat Jan 30 11:22:55 2010	Los Angeles, CA 90001  	52.6	0	52	0.00	53	NNE 2	53	94	51
Sat Jan 30 11:22:58 2010	El Paso, TX 79901  	34.7	1	35	0.00	37	NW 5	35	90	32
Sat Jan 30 11:23:00 2010	New York, NY 10001  	14.9	0	15	0.00	17	NNW 18	15	52	0
Sat Jan 30 11:23:04 2010	Baltimore, MD 21201  	18.4	8	17	0.00	20	NNE 15	9	49	2
Sat Jan 30 11:23:06 2010	Las Vegas, NV 89101  	40.1	1	40	0.00	44	NNW 1	40	82	35
Sat Jan 30 11:23:09 2010	Washington, DC 20001  	19.8	2	19	0.00	21	N 18	20	56	6
Sat Jan 30 11:23:12 2010	Austin, TX 73301  	32.0	10	31	0.00	32	NNE 22	24	72	24
Sat Jan 30 11:23:14 2010	San Francisco, CA 94101  	50.0	1	50	0.01	51	SW 6	50	N/A	--
Sat Jan 30 11:23:17 2010	Oklahoma City, OK 73101  	27.0	0	25	0.00	27	NNE 0	27	5	-37
Sat Jan 30 11:23:19 2010	Nashville, TN 37201  	25.0	11	25	0.00	27	NNE 16	15	100	25
Sat Jan 30 11:23:21 2010	Fort Worth, TX 76101  	25.7	10	25	0.00	29	SW 30	16	93	24
Sat Jan 30 11:23:24 2010	Phoenix, AZ 85001  	51.6	2	52	0.00	55	ESE 5	52	72	43
Sat Jan 30 11:23:27 2010	Portland, OR 97201  	42.9	0	43	0.01	45	SSE 9	43	91	40
Sat Jan 30 11:23:29 2010	Chicago, IL 60601  	19.6	2	19	0.00	21	ENE 12	20	69	11
Sat Jan 30 11:23:32 2010	San Antonio, TX 78201  	29.7	2	29	0.00	32	NW 19	30	79	24
Sat Jan 30 11:23:34 2010	Indianapolis, IN 46201  	15.6	2	15	0.00	16	ENE 20	16	77	9
Sat Jan 30 11:23:37 2010	Boston, MA 02101  	4.2	4	4	0.00	8	NNW 26	-4	51	-10
Sat Jan 30 11:23:40 2010	Jacksonville, FL 32099  	57.9	0	57	0.00	58	NNE 9	58	92	56
Sat Jan 30 11:23:43 2010	Columbus, OH 43085  	15.2	12	14	N/A	15	SSE 17	2	N/A	--
Sat Jan 30 11:23:45 2010	Dallas, TX 75201  	27.7	7	27	0.00	31	NW 24	20	87	24
Sat Jan 30 11:23:47 2010	Houston, TX 77001  	31.5	8	31	0.00	36	WNW 21	24	81	26
Sat Jan 30 11:23:52 2010	Seattle, WA 98101  	46.2	0	45	0.03	47	SSW 7	46	87	43
Sat Jan 30 11:23:56 2010	Milwaukee, WI 53201  	16.0	6	11	0.00	16	N 12	7	92	14
Sat Jan 30 11:23:58 2010	Detroit, MI 48201  	11.6	2	12	0.00	15	NNW 7	12	74	5
Sat Jan 30 11:24:01 2010	Philadelphia, PA 19019  	16.6	10	17	0.00	20	NNW 18	5	51	1
Sat Jan 30 12:06:57 2010	San Jose, CA 95101  	48.9	0	49	0.00	50	NNE 0	49	99	49
Sat Jan 30 12:06:59 2010	Charlotte, NC 28201  	27.0	3	26	0.00	30	E 18	27	100	27
Sat Jan 30 12:07:02 2010	San Diego, CA 92101  	51.7	0	51	0.00	54	NE 3	52	100	52
Sat Jan 30 12:07:04 2010	Denver, CO 80214  	22.3	0	22	0.00	28	WNW 2	22	70	14
Sat Jan 30 12:07:07 2010	Memphis, TN 37501  	25.0	12	25	0.00	28	NNE 22	14	85	21
Sat Jan 30 12:07:11 2010	Los Angeles, CA 90001  	51.9	2	52	0.00	53	E 3	52	93	50
Sat Jan 30 12:07:13 2010	El Paso, TX 79901  	33.7	0	34	0.00	37	NW 5	34	94	32
Sat Jan 30 12:07:15 2010	New York, NY 10001  	14.1	2	14	0.00	17	NNW 18	14	49	-2
Sat Jan 30 12:07:17 2010	Baltimore, MD 21201  	18.4	2	17	0.00	20	NNE 15	18	49	2
Sat Jan 30 12:07:19 2010	Las Vegas, NV 89101  	40.4	0	40	0.00	44	NNW 2	40	79	34
Sat Jan 30 12:07:22 2010	Washington, DC 20001  	19.7	5	19	0.00	21	N 18	13	56	6
Sat Jan 30 12:07:25 2010	Austin, TX 73301  	32.0	11	31	0.00	32	NNE 22	23	72	24
Sat Jan 30 12:07:27 2010	San Francisco, CA 94101  	49.3	2	49	0.01	51	SW 6	49	N/A	--
Sat Jan 30 12:07:29 2010	Oklahoma City, OK 73101  	26.9	0	25	0.00	27	NNE 0	27	5	-37
Sat Jan 30 12:07:31 2010	Nashville, TN 37201  	23.7	5	24	0.00	27	NNE 17	18	100	24
Sat Jan 30 12:07:33 2010	Fort Worth, TX 76101  	25.1	5	25	0.00	29	SW 30	19	91	23
Sat Jan 30 12:07:35 2010	Phoenix, AZ 85001  	51.6	2	52	0.00	55	SE 5	52	71	43
Sat Jan 30 12:07:38 2010	Portland, OR 97201  	42.8	5	43	0.01	45	SSE 9	40	89	40
Sat Jan 30 12:07:41 2010	Chicago, IL 60601  	19.1	2	19	0.00	21	ENE 12	19	67	10
Sat Jan 30 12:07:44 2010	San Antonio, TX 78201  	29.1	4	29	0.00	32	NW 19	25	80	24
Sat Jan 30 12:07:46 2010	Indianapolis, IN 46201  	15.3	6	15	0.00	16	ENE 20	6	76	9
Sat Jan 30 12:07:49 2010	Boston, MA 02101  	4.2	5	3	0.00	8	NNW 26	-5	52	-10
Sat Jan 30 12:07:52 2010	Jacksonville, FL 32099  	57.9	0	57	0.00	58	NNE 9	58	92	56
Sat Jan 30 12:07:55 2010	Columbus, OH 43085  	15.8	5	14	N/A	16	SSE 17	7	N/A	--
Sat Jan 30 12:07:57 2010	Dallas, TX 75201  	27.7	6	27	0.00	31	NW 24	21	87	24
Sat Jan 30 12:07:59 2010	Houston, TX 77001  	31.3	7	31	0.00	36	NW 21	24	82	26
Sat Jan 30 12:08:01 2010	Seattle, WA 98101  	45.6	1	45	0.04	47	SSW 7	46	91	43
Sat Jan 30 12:08:04 2010	Milwaukee, WI 53201  	15.8	5	11	0.00	16	N 12	7	95	15
Sat Jan 30 12:08:06 2010	Detroit, MI 48201  	11.7	3	12	0.00	15	NNW 7	6	72	4
Sat Jan 30 12:08:08 2010	Philadelphia, PA 19019  	16.7	7	17	0.00	20	NNW 18	7	53	2
Sat Jan 30 12:50:51 2010	San Jose, CA 95101  	48.9	0	49	0.00	50	NNE 0	49	99	49
Sat Jan 30 12:50:52 2010	Charlotte, NC 28201  	27.0	3	26	0.00	30	E 18	27	100	27
Sat Jan 30 12:50:52 2010	San Diego, CA 92101  	51.7	0	51	0.00	54	NE 3	52	100	52
Sat Jan 30 12:50:53 2010	Denver, CO 80214  	22.3	0	22	0.00	28	WNW 2	22	70	14
Sat Jan 30 12:50:54 2010	Los Angeles, CA 90001  	51.9	2	52	0.00	53	E 3	52	93	50
Sat Jan 30 12:50:54 2010	Memphis, TN 37501  	25.0	12	25	0.00	28	NNE 22	14	85	21
Sat Jan 30 12:50:55 2010	New York, NY 10001  	14.1	2	14	0.00	17	NNW 18	14	49	-2
Sat Jan 30 12:50:55 2010	El Paso, TX 79901  	33.7	0	34	0.00	37	NW 5	34	94	32
Sat Jan 30 12:50:56 2010	Baltimore, MD 21201  	18.4	2	17	0.00	20	NNE 15	18	49	2
Sat Jan 30 12:50:57 2010	Washington, DC 20001  	19.7	5	19	0.00	21	N 18	13	56	6
Sat Jan 30 12:50:57 2010	Las Vegas, NV 89101  	40.4	0	40	0.00	44	NNW 2	40	79	34
Sat Jan 30 12:50:58 2010	Austin, TX 73301  	32.0	11	31	0.00	32	NNE 22	23	72	24
Sat Jan 30 12:50:58 2010	San Francisco, CA 94101  	49.3	2	49	0.01	51	SW 6	49	N/A	--
Sat Jan 30 12:50:59 2010	Oklahoma City, OK 73101  	26.9	0	25	0.00	27	NNE 0	27	5	-37
Sat Jan 30 12:51:00 2010	Nashville, TN 37201  	23.7	5	24	0.00	27	NNE 17	18	100	24
Sat Jan 30 12:51:00 2010	Fort Worth, TX 76101  	25.1	5	25	0.00	29	SW 30	19	91	23
Sat Jan 30 12:51:01 2010	Phoenix, AZ 85001  	51.6	2	52	0.00	55	SE 5	52	71	43
Sat Jan 30 12:51:02 2010	Chicago, IL 60601  	19.1	2	19	0.00	21	ENE 12	19	67	10
Sat Jan 30 12:51:02 2010	Portland, OR 97201  	42.8	5	43	0.01	45	SSE 9	40	89	40
Sat Jan 30 12:51:03 2010	Indianapolis, IN 46201  	15.3	6	15	0.00	16	ENE 20	6	76	9
Sat Jan 30 12:51:03 2010	San Antonio, TX 78201  	29.1	4	29	0.00	32	NW 19	25	80	24
Sat Jan 30 12:51:04 2010	Boston, MA 02101  	4.2	5	3	0.00	8	NNW 26	-5	52	-10
Sat Jan 30 12:51:05 2010	Jacksonville, FL 32099  	57.9	0	57	0.00	58	NNE 9	58	92	56
Sat Jan 30 12:51:05 2010	Columbus, OH 43085  	15.8	5	14	N/A	16	SSE 17	7	N/A	--
Sat Jan 30 12:51:06 2010	Houston, TX 77001  	31.3	7	31	0.00	36	NW 21	24	82	26
Sat Jan 30 12:51:06 2010	Dallas, TX 75201  	27.7	6	27	0.00	31	NW 24	21	87	24
Sat Jan 30 12:51:07 2010	Seattle, WA 98101  	45.6	1	45	0.04	47	SSW 7	46	91	43
Sat Jan 30 12:51:08 2010	Milwaukee, WI 53201  	15.8	5	11	0.00	16	N 12	7	95	15
Sat Jan 30 12:51:08 2010	Detroit, MI 48201  	11.7	3	12	0.00	15	NNW 7	6	72	4
Sat Jan 30 12:51:09 2010	Philadelphia, PA 19019  	16.7	7	17	0.00	20	NNW 18	7	53	2
Sat Jan 30 13:34:11 2010	San Jose, CA 95101  	46.0	3	46	0.00	50	S 5	45	95	45
Sat Jan 30 13:34:13 2010	Charlotte, NC 28201  	26.3	9	26	0.00	30	E 18	17	100	26
Sat Jan 30 13:34:15 2010	San Diego, CA 92101  	48.7	1	49	0.00	54	NE 3	49	100	49
Sat Jan 30 13:34:18 2010	Denver, CO 80214  	21.4	0	21	0.00	28	WNW 2	21	69	13
Sat Jan 30 13:34:19 2010	Memphis, TN 37501  	24.8	10	25	0.00	28	NNE 22	15	86	21
Sat Jan 30 13:34:20 2010	Los Angeles, CA 90001  	51.0	1	51	0.00	53	E 3	51	91	48
Sat Jan 30 13:34:22 2010	El Paso, TX 79901  	33.3	0	33	0.00	37	NW 5	33	95	32
Sat Jan 30 13:34:23 2010	New York, NY 10001  	13.2	0	13	0.00	17	NNW 18	13	49	-3
Sat Jan 30 13:34:25 2010	Baltimore, MD 21201  	18.2	6	17	0.00	20	NNE 15	10	48	2
Sat Jan 30 13:34:27 2010	Las Vegas, NV 89101  	38.1	0	38	0.00	44	NNW 3	38	82	33
Sat Jan 30 13:34:29 2010	Washington, DC 20001  	19.3	9	19	0.00	21	N 18	9	57	6
Sat Jan 30 13:34:32 2010	Austin, TX 73301  	33.1	10	31	0.00	33	NNE 22	25	70	24
Sat Jan 30 13:34:34 2010	San Francisco, CA 94101  	48.8	3	49	0.01	51	SW 6	49	N/A	--
Sat Jan 30 13:34:36 2010	Oklahoma City, OK 73101  	26.9	0	25	0.00	27	NNE 0	27	5	-37
Sat Jan 30 13:34:37 2010	Nashville, TN 37201  	22.8	7	23	0.00	27	NNE 17	15	99	23
Sat Jan 30 13:34:39 2010	Fort Worth, TX 76101  	25.2	1	25	0.00	29	SW 30	25	93	23
Sat Jan 30 13:34:40 2010	Phoenix, AZ 85001  	50.9	3	51	0.00	55	E 11	50	69	41
Sat Jan 30 13:34:43 2010	Portland, OR 97201  	42.7	0	43	0.01	45	SSE 9	43	85	38
Sat Jan 30 13:34:45 2010	Chicago, IL 60601  	18.5	0	19	0.00	21	ENE 12	19	67	9
Sat Jan 30 13:34:46 2010	San Antonio, TX 78201  	28.3	4	28	0.00	32	NW 19	23	81	23
Sat Jan 30 13:34:48 2010	Indianapolis, IN 46201  	15.7	5	15	0.00	16	ENE 20	8	76	9
Sat Jan 30 13:34:50 2010	Boston, MA 02101  	3.9	7	3	0.00	8	NNW 26	-8	54	-9
Sat Jan 30 13:34:52 2010	Jacksonville, FL 32099  	61.0	10	57	0.00	61	SSW 10	60	90	58
Sat Jan 30 13:34:54 2010	Columbus, OH 43085  	15.3	8	14	N/A	16	ESE 18	4	N/A	--
Sat Jan 30 13:34:55 2010	Dallas, TX 75201  	27.0	5	27	0.00	31	NW 24	21	87	24
Sat Jan 30 13:34:56 2010	Houston, TX 77001  	31.5	6	31	0.00	36	NW 21	25	84	27
Sat Jan 30 13:34:58 2010	Seattle, WA 98101  	44.1	1	44	0.06	47	SSW 9	44	92	42
Sat Jan 30 13:35:00 2010	Milwaukee, WI 53201  	16.1	3	11	0.00	17	N 12	11	95	15
Sat Jan 30 13:35:03 2010	Detroit, MI 48201  	12.1	0	11	0.00	15	NNW 7	12	71	4
Sat Jan 30 13:35:04 2010	Philadelphia, PA 19019  	15.9	9	16	0.00	20	NNW 18	5	56	3
Sat Jan 30 14:18:47 2010	Charlotte, NC 28201  	26.3	9	26	0.00	30	E 18	17	100	26
Sat Jan 30 14:18:47 2010	San Jose, CA 95101  	46.0	3	46	0.00	50	S 5	45	95	45
Sat Jan 30 14:18:48 2010	San Diego, CA 92101  	48.7	1	49	0.00	54	NE 3	49	100	49
Sat Jan 30 14:18:48 2010	Denver, CO 80214  	21.4	0	21	0.00	28	WNW 2	21	69	13
Sat Jan 30 14:18:49 2010	Memphis, TN 37501  	24.8	10	25	0.00	28	NNE 22	15	86	21
Sat Jan 30 14:18:50 2010	Los Angeles, CA 90001  	51.0	1	51	0.00	53	E 3	51	91	48
Sat Jan 30 14:18:51 2010	New York, NY 10001  	13.2	0	13	0.00	17	NNW 18	13	49	-3
Sat Jan 30 14:18:51 2010	El Paso, TX 79901  	33.3	0	33	0.00	37	NW 5	33	95	32
Sat Jan 30 14:18:52 2010	Baltimore, MD 21201  	18.2	6	17	0.00	20	NNE 15	10	48	2
Sat Jan 30 14:18:53 2010	Las Vegas, NV 89101  	38.1	0	38	0.00	44	NNW 3	38	82	33
Sat Jan 30 14:18:54 2010	Washington, DC 20001  	19.3	9	19	0.00	21	N 18	9	57	6
Sat Jan 30 14:18:55 2010	Austin, TX 73301  	33.1	10	31	0.00	33	NNE 22	25	70	24
Sat Jan 30 14:18:56 2010	Oklahoma City, OK 73101  	26.9	0	25	0.00	27	NNE 0	27	5	-37
Sat Jan 30 14:18:56 2010	San Francisco, CA 94101  	48.8	3	49	0.01	51	SW 6	49	N/A	--
Sat Jan 30 14:18:57 2010	Nashville, TN 37201  	22.8	7	23	0.00	27	NNE 17	15	99	23
Sat Jan 30 14:18:58 2010	Phoenix, AZ 85001  	50.9	3	51	0.00	55	E 11	50	69	41
Sat Jan 30 14:18:58 2010	Fort Worth, TX 76101  	25.2	1	25	0.00	29	SW 30	25	93	23
Sat Jan 30 14:18:59 2010	Portland, OR 97201  	42.7	0	43	0.01	45	SSE 9	43	85	38
Sat Jan 30 14:19:00 2010	Chicago, IL 60601  	18.5	0	19	0.00	21	ENE 12	19	67	9
Sat Jan 30 14:19:01 2010	Indianapolis, IN 46201  	15.7	5	15	0.00	16	ENE 20	8	76	9
Sat Jan 30 14:19:01 2010	San Antonio, TX 78201  	28.3	4	28	0.00	32	NW 19	23	81	23
Sat Jan 30 14:19:02 2010	Boston, MA 02101  	3.9	7	3	0.00	8	NNW 26	-8	54	-9
Sat Jan 30 14:19:02 2010	Jacksonville, FL 32099  	61.0	10	57	0.00	61	SSW 10	60	90	58
Sat Jan 30 14:19:04 2010	Columbus, OH 43085  	15.3	8	14	N/A	16	ESE 18	4	N/A	--
Sat Jan 30 14:19:04 2010	Dallas, TX 75201  	27.0	5	27	0.00	31	NW 24	21	87	24
Sat Jan 30 14:19:05 2010	Houston, TX 77001  	31.5	6	31	0.00	36	NW 21	25	84	27
Sat Jan 30 14:19:06 2010	Milwaukee, WI 53201  	16.1	3	11	0.00	17	N 12	11	95	15
Sat Jan 30 14:19:06 2010	Seattle, WA 98101  	44.1	1	44	0.06	47	SSW 9	44	92	42
Sat Jan 30 14:19:07 2010	Detroit, MI 48201  	12.1	0	11	0.00	15	NNW 7	12	71	4
Sat Jan 30 14:19:08 2010	Philadelphia, PA 19019  	15.9	9	16	0.00	20	NNW 18	5	56	3
Sat Jan 30 15:02:45 2010	San Jose, CA 95101  	44.6	5	41	0.00	50	S 5	42	93	43
Sat Jan 30 15:02:48 2010	Charlotte, NC 28201  	25.2	7	25	0.00	30	E 18	18	100	25
Sat Jan 30 15:02:49 2010	San Diego, CA 92101  	50.1	0	48	0.00	54	NE 3	50	100	50
Sat Jan 30 15:02:51 2010	Denver, CO 80214  	20.3	0	20	0.00	28	WNW 2	20	73	13
Sat Jan 30 15:02:54 2010	Memphis, TN 37501  	24.8	10	25	0.00	28	NNE 22	15	86	21
Sat Jan 30 15:02:56 2010	Los Angeles, CA 90001  	49.2	2	49	0.00	53	ENE 3	49	92	47
Sat Jan 30 15:03:00 2010	El Paso, TX 79901  	32.5	0	32	0.00	37	NW 5	32	96	31
Sat Jan 30 15:03:01 2010	New York, NY 10001  	12.5	4	12	0.00	17	NNW 18	5	48	-4
Sat Jan 30 15:03:04 2010	Baltimore, MD 21201  	17.6	4	17	0.00	20	ENE 17	12	48	1
Sat Jan 30 15:03:07 2010	Las Vegas, NV 89101  	38.0	1	38	0.00	44	NNW 3	38	83	33
Sat Jan 30 15:03:08 2010	Washington, DC 20001  	20.0	2	19	0.00	21	N 18	20	57	7
Sat Jan 30 15:03:10 2010	Austin, TX 73301  	32.0	15	31	0.00	33	NNE 22	22	72	24
Sat Jan 30 15:03:12 2010	San Francisco, CA 94101  	49.1	2	49	0.01	51	SW 6	49	N/A	--
Sat Jan 30 15:03:14 2010	Oklahoma City, OK 73101  	27.0	0	25	0.00	27	NNE 0	27	5	-37
Sat Jan 30 15:03:16 2010	Nashville, TN 37201  	23.0	8	23	0.00	27	NNE 17	14	96	22
Sat Jan 30 15:03:19 2010	Fort Worth, TX 76101  	25.5	0	25	0.00	29	SW 30	25	93	24
Sat Jan 30 15:03:21 2010	Phoenix, AZ 85001  	52.3	2	51	0.00	55	E 11	52	60	39
Sat Jan 30 15:03:24 2010	Portland, OR 97201  	42.8	1	43	0.01	45	SSE 9	43	85	39
Sat Jan 30 15:03:32 2010	San Antonio, TX 78201  	28.1	8	28	0.00	32	NW 19	20	80	23
Sat Jan 30 15:03:35 2010	Indianapolis, IN 46201  	16.0	11	15	0.00	16	ENE 20	3	75	9
Sat Jan 30 15:03:37 2010	Boston, MA 02101  	6.5	6	3	0.00	8	NNW 26	-5	54	-7
Sat Jan 30 15:03:38 2010	Jacksonville, FL 32099  	62.1	9	57	0.00	62	SSW 10	61	84	57
Sat Jan 30 15:03:40 2010	Columbus, OH 43085  	16.0	7	14	N/A	16	ESE 18	6	N/A	--
Sat Jan 30 15:03:41 2010	Dallas, TX 75201  	27.3	6	27	0.00	31	NW 24	21	87	24
Sat Jan 30 15:03:42 2010	Houston, TX 77001  	32.2	6	31	0.00	36	NW 21	26	81	27
Sat Jan 30 15:03:44 2010	Seattle, WA 98101  	43.4	4	43	0.09	47	SSW 9	42	96	42
Sat Jan 30 15:03:45 2010	Milwaukee, WI 53201  	16.0	3	11	0.00	17	N 12	11	94	14
Sat Jan 30 15:03:47 2010	Detroit, MI 48201  	12.8	4	11	0.00	15	NNW 8	5	71	5
Sat Jan 30 15:03:48 2010	Philadelphia, PA 19019  	16.0	8	16	0.00	20	NNW 18	5	53	2
Sat Jan 30 15:48:49 2010	San Jose, CA 95101  	44.6	5	41	0.00	50	S 5	42	93	43
Sat Jan 30 15:48:50 2010	Charlotte, NC 28201  	25.2	7	25	0.00	30	E 18	18	100	25
Sat Jan 30 15:48:52 2010	San Diego, CA 92101  	50.1	0	48	0.00	54	NE 3	50	100	50
Sat Jan 30 15:48:53 2010	Denver, CO 80214  	20.3	0	20	0.00	28	WNW 2	20	73	13
Sat Jan 30 15:48:55 2010	Memphis, TN 37501  	24.8	10	25	0.00	28	NNE 22	15	86	21
Sat Jan 30 15:48:57 2010	Los Angeles, CA 90001  	49.2	2	49	0.00	53	ENE 3	49	92	47
Sat Jan 30 15:48:59 2010	El Paso, TX 79901  	32.5	0	32	0.00	37	NW 5	32	96	31
Sat Jan 30 15:49:00 2010	New York, NY 10001  	12.5	4	12	0.00	17	NNW 18	5	48	-4
Sat Jan 30 15:49:02 2010	Baltimore, MD 21201  	17.6	4	17	0.00	20	ENE 17	12	48	1
Sat Jan 30 15:49:04 2010	Las Vegas, NV 89101  	38.0	1	38	0.00	44	NNW 3	38	83	33
Sat Jan 30 15:49:06 2010	Washington, DC 20001  	20.0	2	19	0.00	21	N 18	20	57	7
Sat Jan 30 15:49:13 2010	Austin, TX 73301  	32.0	15	31	0.00	33	NNE 22	22	72	24
Sat Jan 30 15:49:20 2010	San Francisco, CA 94101  	49.1	2	49	0.01	51	SW 6	49	N/A	--
Sat Jan 30 15:49:22 2010	Oklahoma City, OK 73101  	27.0	0	25	0.00	27	NNE 0	27	5	-37
Sat Jan 30 15:49:24 2010	Nashville, TN 37201  	23.0	8	23	0.00	27	NNE 17	14	96	22
Sat Jan 30 15:49:25 2010	Fort Worth, TX 76101  	25.5	0	25	0.00	29	SW 30	25	93	24
Sat Jan 30 15:49:27 2010	Phoenix, AZ 85001  	52.3	2	51	0.00	55	E 11	52	60	39
Sat Jan 30 15:49:29 2010	Portland, OR 97201  	42.8	1	43	0.01	45	SSE 9	43	85	39
Sat Jan 30 15:49:32 2010	San Antonio, TX 78201  	28.1	8	28	0.00	32	NW 19	20	80	23
Sat Jan 30 15:49:38 2010	Indianapolis, IN 46201  	16.0	11	15	0.00	16	ENE 20	3	75	9
Sat Jan 30 15:49:39 2010	Boston, MA 02101  	6.5	6	3	0.00	8	NNW 26	-5	54	-7
Sat Jan 30 15:49:41 2010	Jacksonville, FL 32099  	62.1	9	57	0.00	62	SSW 10	61	84	57
Sat Jan 30 15:49:42 2010	Columbus, OH 43085  	16.0	7	14	N/A	16	ESE 18	6	N/A	--
Sat Jan 30 15:49:44 2010	Dallas, TX 75201  	27.3	6	27	0.00	31	NW 24	21	87	24
Sat Jan 30 15:49:46 2010	Houston, TX 77001  	32.2	6	31	0.00	36	NW 21	26	81	27
Sat Jan 30 15:49:47 2010	Seattle, WA 98101  	43.4	4	43	0.09	47	SSW 9	42	96	42
Sat Jan 30 15:49:49 2010	Milwaukee, WI 53201  	16.0	3	11	0.00	17	N 12	11	94	14
Sat Jan 30 15:49:51 2010	Detroit, MI 48201  	12.8	4	11	0.00	15	NNW 8	5	71	5
Sat Jan 30 15:49:54 2010	Philadelphia, PA 19019  	16.0	8	16	0.00	20	NNW 18	5	53	2
Sat Jan 30 16:33:38 2010	San Jose, CA 95101  	45.0	0	41	0.00	50	SE 6	45	100	45
Sat Jan 30 16:33:39 2010	Charlotte, NC 28201  	24.3	7	24	0.00	30	NNE 20	17	100	24
Sat Jan 30 16:33:40 2010	San Diego, CA 92101  	51.1	4	48	0.00	54	NNE 5	50	100	51
Sat Jan 30 16:33:42 2010	Denver, CO 80214  	30.8	0	20	0.00	31	SSW 2	31	55	16
Sat Jan 30 16:33:44 2010	Memphis, TN 37501  	25.0	9	24	0.00	28	NNE 22	15	85	21
Sat Jan 30 16:33:45 2010	Los Angeles, CA 90001  	48.3	2	48	0.00	53	ENE 3	48	92	46
Sat Jan 30 16:33:46 2010	El Paso, TX 79901  	38.0	5	32	0.00	38	SE 5	34	75	31
Sat Jan 30 16:33:48 2010	New York, NY 10001  	16.1	3	12	0.00	17	NNW 18	11	44	-3
Sat Jan 30 16:33:49 2010	Baltimore, MD 21201  	17.9	6	17	0.00	20	ENE 17	10	50	2
Sat Jan 30 16:33:51 2010	Las Vegas, NV 89101  	39.7	0	36	0.00	44	NNW 3	40	79	34
Sat Jan 30 16:33:52 2010	Washington, DC 20001  	16.4	8	16	0.00	21	N 18	6	98	16
Sat Jan 30 16:33:53 2010	Austin, TX 73301  	33.1	17	30	0.00	33	NNE 22	22	67	23
Sat Jan 30 16:33:55 2010	San Francisco, CA 94101  	48.8	3	49	0.01	51	SW 6	48	N/A	--
Sat Jan 30 16:33:56 2010	Oklahoma City, OK 73101  	26.9	0	25	0.00	27	NNE 0	27	5	-37
Sat Jan 30 16:33:57 2010	Nashville, TN 37201  	23.8	11	23	0.00	27	NNE 17	13	92	22
Sat Jan 30 16:33:59 2010	Fort Worth, TX 76101  	25.7	10	25	0.00	29	SW 30	16	92	24
Sat Jan 30 16:34:00 2010	Phoenix, AZ 85001  	50.7	6	51	0.00	55	E 11	48	70	41
Sat Jan 30 16:34:01 2010	Portland, OR 97201  	42.7	0	42	0.02	45	SSE 9	43	86	39
Sat Jan 30 16:34:02 2010	Chicago, IL 60601  	19.5	0	18	0.00	21	NE 13	19	65	9
Sat Jan 30 16:34:05 2010	San Antonio, TX 78201  	30.5	10	28	0.00	32	NW 19	22	73	23
Sat Jan 30 16:34:06 2010	Indianapolis, IN 46201  	18.9	6	15	0.00	19	ENE 20	11	68	10
Sat Jan 30 16:34:08 2010	Boston, MA 02101  	10.3	5	3	0.00	11	NNW 26	2	50	-5
Sat Jan 30 16:34:09 2010	Jacksonville, FL 32099  	63.0	10	57	0.11	64	SSW 11	62	91	60
Sat Jan 30 16:34:11 2010	Columbus, OH 43085  	17.8	10	14	N/A	18	ESE 18	6	N/A	--
Sat Jan 30 16:34:12 2010	Dallas, TX 75201  	27.0	6	26	0.00	31	NW 24	20	88	24
Sat Jan 30 16:34:13 2010	Houston, TX 77001  	33.1	5	31	0.00	36	NW 21	28	81	28
Sat Jan 30 16:34:15 2010	Seattle, WA 98101  	44.3	3	43	0.11	47	SSW 9	43	93	42
Sat Jan 30 16:34:16 2010	Milwaukee, WI 53201  	15.6	4	11	0.00	17	N 12	10	98	15
Sat Jan 30 16:34:17 2010	Detroit, MI 48201  	14.9	0	11	0.00	16	ENE 12	15	77	9
Sat Jan 30 16:34:18 2010	Philadelphia, PA 19019  	16.3	6	16	0.00	20	NNW 18	7	46	-1
Sat Jan 30 17:17:25 2010	San Jose, CA 95101  	45.0	0	41	0.00	50	SE 6	45	100	45
Sat Jan 30 17:17:26 2010	Charlotte, NC 28201  	24.3	7	24	0.00	30	NNE 20	17	100	24
Sat Jan 30 17:17:26 2010	San Diego, CA 92101  	51.1	4	48	0.00	54	NNE 5	50	100	51
Sat Jan 30 17:17:27 2010	Denver, CO 80214  	30.8	0	20	0.00	31	SSW 2	31	55	16
Sat Jan 30 17:17:28 2010	Los Angeles, CA 90001  	48.3	2	48	0.00	53	ENE 3	48	92	46
Sat Jan 30 17:17:28 2010	Memphis, TN 37501  	25.0	9	24	0.00	28	NNE 22	15	85	21
Sat Jan 30 17:17:29 2010	El Paso, TX 79901  	38.0	5	32	0.00	38	SE 5	34	75	31
Sat Jan 30 17:17:30 2010	Baltimore, MD 21201  	17.9	6	17	0.00	20	ENE 17	10	50	2
Sat Jan 30 17:17:30 2010	New York, NY 10001  	16.1	3	12	0.00	17	NNW 18	11	44	-3
Sat Jan 30 17:17:31 2010	Washington, DC 20001  	16.4	8	16	0.00	21	N 18	6	98	16
Sat Jan 30 17:17:31 2010	Las Vegas, NV 89101  	39.7	0	36	0.00	44	NNW 3	40	79	34
Sat Jan 30 17:17:32 2010	Austin, TX 73301  	33.1	17	30	0.00	33	NNE 22	22	67	23
Sat Jan 30 17:17:33 2010	Oklahoma City, OK 73101  	26.9	0	25	0.00	27	NNE 0	27	5	-37
Sat Jan 30 17:17:33 2010	San Francisco, CA 94101  	48.8	3	49	0.01	51	SW 6	48	N/A	--
Sat Jan 30 17:17:34 2010	Nashville, TN 37201  	23.8	11	23	0.00	27	NNE 17	13	92	22
Sat Jan 30 17:17:35 2010	Phoenix, AZ 85001  	50.7	6	51	0.00	55	E 11	48	70	41
Sat Jan 30 17:17:35 2010	Fort Worth, TX 76101  	25.7	10	25	0.00	29	SW 30	16	92	24
Sat Jan 30 17:17:36 2010	Chicago, IL 60601  	19.5	0	18	0.00	21	NE 13	19	65	9
Sat Jan 30 17:17:36 2010	Portland, OR 97201  	42.7	0	42	0.02	45	SSE 9	43	86	39
Sat Jan 30 17:17:37 2010	San Antonio, TX 78201  	30.5	10	28	0.00	32	NW 19	22	73	23
Sat Jan 30 17:17:38 2010	Indianapolis, IN 46201  	18.9	6	15	0.00	19	ENE 20	11	68	10
Sat Jan 30 17:17:38 2010	Boston, MA 02101  	10.3	5	3	0.00	11	NNW 26	2	50	-5
Sat Jan 30 17:17:39 2010	Jacksonville, FL 32099  	63.0	10	57	0.11	64	SSW 11	62	91	60
Sat Jan 30 17:17:40 2010	Columbus, OH 43085  	17.8	10	14	N/A	18	ESE 18	6	N/A	--
Sat Jan 30 17:17:41 2010	Houston, TX 77001  	33.1	5	31	0.00	36	NW 21	28	81	28
Sat Jan 30 17:17:41 2010	Dallas, TX 75201  	27.0	6	26	0.00	31	NW 24	20	88	24
Sat Jan 30 17:17:42 2010	Milwaukee, WI 53201  	15.6	4	11	0.00	17	N 12	10	98	15
Sat Jan 30 17:17:42 2010	Seattle, WA 98101  	44.3	3	43	0.11	47	SSW 9	43	93	42
Sat Jan 30 17:17:43 2010	Detroit, MI 48201  	14.9	0	11	0.00	16	ENE 12	15	77	9
Sat Jan 30 17:17:44 2010	Philadelphia, PA 19019  	16.3	6	16	0.00	20	NNW 18	7	46	-1
Sat Jan 30 18:00:51 2010	San Jose, CA 95101  	46.0	5	41	0.00	50	SE 6	44	99	46
Sat Jan 30 18:00:52 2010	Charlotte, NC 28201  	23.2	4	23	0.00	30	NNE 20	18	100	23
Sat Jan 30 18:00:54 2010	San Diego, CA 92101  	56.2	2	48	0.00	57	NNE 7	56	88	53
Sat Jan 30 18:00:55 2010	Denver, CO 80214  	37.0	4	20	0.00	37	SSE 6	34	41	15
Sat Jan 30 18:00:56 2010	Memphis, TN 37501  	25.0	12	24	0.00	28	NNE 22	14	85	21
Sat Jan 30 18:00:58 2010	Los Angeles, CA 90001  	54.8	0	48	0.00	55	NNE 4	55	79	49
Sat Jan 30 18:01:00 2010	El Paso, TX 79901  	43.9	4	32	0.00	44	SSE 7	42	59	31
Sat Jan 30 18:01:03 2010	New York, NY 10001  	16.3	0	12	0.00	17	NNW 18	16	44	-2
Sat Jan 30 18:01:04 2010	Baltimore, MD 21201  	16.5	5	15	0.00	20	ENE 17	8	86	13
Sat Jan 30 18:01:06 2010	Las Vegas, NV 89101  	45.9	0	36	0.00	46	ESE 4	46	65	35
Sat Jan 30 18:01:07 2010	Washington, DC 20001  	16.7	8	16	0.00	21	N 18	6	100	17
Sat Jan 30 18:01:10 2010	Austin, TX 73301  	37.0	14	30	0.00	37	NNE 22	28	60	25
Sat Jan 30 18:01:11 2010	San Francisco, CA 94101  	50.0	2	48	0.01	51	SW 6	50	N/A	--
Sat Jan 30 18:01:13 2010	Oklahoma City, OK 73101  	19.9	10	19	0.00	21	NNE 15	9	83	16
Sat Jan 30 18:01:15 2010	Nashville, TN 37201  	25.3	11	23	0.00	27	NNE 17	15	86	22
Sat Jan 30 18:01:17 2010	Fort Worth, TX 76101  	27.2	5	25	0.00	29	SW 30	21	89	24
Sat Jan 30 18:01:19 2010	Phoenix, AZ 85001  	58.6	1	50	0.00	59	E 11	59	44	37
Sat Jan 30 18:01:20 2010	Portland, OR 97201  	41.9	0	42	0.06	45	SSE 9	42	89	39
Sat Jan 30 18:01:24 2010	Chicago, IL 60601  	20.5	7	18	0.00	21	NE 13	12	64	10
Sat Jan 30 18:01:25 2010	San Antonio, TX 78201  	36.6	7	28	0.00	37	NW 19	31	62	25
Sat Jan 30 18:01:26 2010	Indianapolis, IN 46201  	22.9	5	15	0.00	24	ENE 20	17	61	11
Sat Jan 30 18:01:28 2010	Boston, MA 02101  	14.3	10	3	0.00	15	NNW 26	2	47	-3
Sat Jan 30 18:01:29 2010	Jacksonville, FL 32099  	63.0	10	57	0.16	64	S 14	62	98	62
Sat Jan 30 18:01:32 2010	Columbus, OH 43085  	22.7	4	14	N/A	23	ESE 18	18	N/A	--
Sat Jan 30 18:01:33 2010	Dallas, TX 75201  	27.5	14	26	0.00	31	NW 24	16	86	24
Sat Jan 30 18:01:35 2010	Houston, TX 77001  	33.8	6	31	0.00	36	NW 21	28	78	28
Sat Jan 30 18:01:36 2010	Seattle, WA 98101  	43.7	2	43	0.12	47	SSW 9	44	95	42
Sat Jan 30 18:01:38 2010	Milwaukee, WI 53201  	17.4	4	11	0.00	18	N 12	11	100	17
Sat Jan 30 18:01:40 2010	Detroit, MI 48201  	19.7	0	11	0.00	20	ENE 12	20	65	10
Sat Jan 30 18:01:42 2010	Philadelphia, PA 19019  	17.3	5	16	0.00	20	NNW 18	10	47	0
Sat Jan 30 18:44:36 2010	Charlotte, NC 28201  	23.2	4	23	0.00	30	NNE 20	18	100	23
Sat Jan 30 18:44:36 2010	San Jose, CA 95101  	46.0	5	41	0.00	50	SE 6	44	99	46
Sat Jan 30 18:44:37 2010	San Diego, CA 92101  	56.2	2	48	0.00	57	NNE 7	56	88	53
Sat Jan 30 18:44:38 2010	Memphis, TN 37501  	25.0	12	24	0.00	28	NNE 22	14	85	21
Sat Jan 30 18:44:38 2010	Denver, CO 80214  	37.0	4	20	0.00	37	SSE 6	34	41	15
Sat Jan 30 18:44:39 2010	Los Angeles, CA 90001  	54.8	0	48	0.00	55	NNE 4	55	79	49
Sat Jan 30 18:44:40 2010	New York, NY 10001  	16.3	0	12	0.00	17	NNW 18	16	44	-2
Sat Jan 30 18:44:40 2010	El Paso, TX 79901  	43.9	4	32	0.00	44	SSE 7	42	59	31
Sat Jan 30 18:44:41 2010	Baltimore, MD 21201  	16.5	5	15	0.00	20	ENE 17	8	86	13
Sat Jan 30 18:44:41 2010	Las Vegas, NV 89101  	45.9	0	36	0.00	46	ESE 4	46	65	35
Sat Jan 30 18:44:43 2010	Washington, DC 20001  	17.6	6	16	0.00	21	N 18	9	100	18
Sat Jan 30 18:44:44 2010	Austin, TX 73301  	37.0	14	30	0.00	37	NNE 22	28	60	25
Sat Jan 30 18:44:44 2010	San Francisco, CA 94101  	50.0	2	48	0.01	51	SW 6	50	N/A	--
Sat Jan 30 18:44:45 2010	Oklahoma City, OK 73101  	19.9	10	19	0.00	21	NNE 15	9	83	16
Sat Jan 30 18:44:45 2010	Nashville, TN 37201  	25.3	11	23	0.00	27	NNE 17	15	86	22
Sat Jan 30 18:44:46 2010	Fort Worth, TX 76101  	27.2	5	25	0.00	29	SW 30	21	89	24
Sat Jan 30 18:44:47 2010	Phoenix, AZ 85001  	58.6	1	50	0.00	59	E 11	59	44	37
Sat Jan 30 18:44:47 2010	Portland, OR 97201  	41.9	0	42	0.06	45	SSE 9	42	89	39
Sat Jan 30 18:44:48 2010	Chicago, IL 60601  	20.5	7	18	0.00	21	NE 13	12	64	10
Sat Jan 30 18:44:48 2010	San Antonio, TX 78201  	36.6	7	28	0.00	37	NW 19	31	62	25
Sat Jan 30 18:44:49 2010	Indianapolis, IN 46201  	22.9	5	15	0.00	24	ENE 20	17	61	11
Sat Jan 30 18:44:50 2010	Boston, MA 02101  	14.3	10	3	0.00	15	NNW 26	2	47	-3
Sat Jan 30 18:44:50 2010	Jacksonville, FL 32099  	63.0	10	57	0.16	64	S 14	62	98	62
Sat Jan 30 18:44:51 2010	Columbus, OH 43085  	22.7	4	14	N/A	23	ESE 18	18	N/A	--
Sat Jan 30 18:44:52 2010	Houston, TX 77001  	33.8	6	31	0.00	36	NW 21	28	78	28
Sat Jan 30 18:44:52 2010	Dallas, TX 75201  	27.5	14	26	0.00	31	NW 24	16	86	24
Sat Jan 30 18:44:53 2010	Milwaukee, WI 53201  	17.4	4	11	0.00	18	N 12	11	100	17
Sat Jan 30 18:44:53 2010	Seattle, WA 98101  	43.7	2	43	0.12	47	SSW 9	44	95	42
Sat Jan 30 18:44:54 2010	Detroit, MI 48201  	19.7	0	11	0.00	20	ENE 12	20	65	10
Sat Jan 30 18:44:55 2010	Philadelphia, PA 19019  	17.3	5	16	0.00	20	NNW 18	10	47	0
Sat Jan 30 19:28:15 2010	San Jose, CA 95101  	48.9	0	41	0.00	50	SE 6	49	99	49
Sat Jan 30 19:28:16 2010	Charlotte, NC 28201  	22.0	6	22	0.00	30	ENE 20	15	98	22
Sat Jan 30 19:28:17 2010	San Diego, CA 92101  	62.9	2	48	0.00	63	NNE 7	63	60	49
Sat Jan 30 19:28:20 2010	Denver, CO 80214  	44.6	3	20	0.00	45	SE 7	43	27	13
Sat Jan 30 19:28:22 2010	Memphis, TN 37501  	25.0	9	24	0.00	28	NNE 22	15	85	21
Sat Jan 30 19:28:23 2010	Los Angeles, CA 90001  	58.9	3	48	0.00	60	WNW 7	59	72	50
Sat Jan 30 19:28:25 2010	El Paso, TX 79901  	47.9	9	32	0.00	48	SE 10	44	53	32
Sat Jan 30 19:28:28 2010	New York, NY 10001  	18.7	0	12	0.00	19	NNW 18	19	44	0
Sat Jan 30 19:28:29 2010	Baltimore, MD 21201  	14.4	5	14	0.00	20	ENE 17	7	89	12
Sat Jan 30 19:28:30 2010	Las Vegas, NV 89101  	51.8	0	36	0.00	52	E 6	52	50	34
Sat Jan 30 19:28:31 2010	Washington, DC 20001  	17.6	6	16	0.00	21	N 18	9	100	18
Sat Jan 30 19:28:33 2010	Austin, TX 73301  	39.9	15	30	0.00	40	NNE 22	32	61	28
Sat Jan 30 19:28:34 2010	San Francisco, CA 94101  	52.0	1	48	0.00	56	ESE 9	52	N/A	--
Sat Jan 30 19:28:36 2010	Oklahoma City, OK 73101  	21.9	7	19	0.00	23	NNE 15	14	84	18
Sat Jan 30 19:28:38 2010	Nashville, TN 37201  	26.4	8	23	0.00	27	N 18	18	82	22
Sat Jan 30 19:28:39 2010	Fort Worth, TX 76101  	28.4	4	25	0.00	29	SW 30	24	88	25
Sat Jan 30 19:28:41 2010	Phoenix, AZ 85001  	60.2	4	50	0.00	60	E 13	60	40	36
Sat Jan 30 19:28:42 2010	Portland, OR 97201  	42.7	0	42	0.07	45	SSE 9	43	87	39
Sat Jan 30 19:28:44 2010	Chicago, IL 60601  	20.8	2	18	0.00	21	NE 13	21	65	11
Sat Jan 30 19:28:46 2010	San Antonio, TX 78201  	41.2	12	28	0.00	41	NW 19	34	57	27
Sat Jan 30 19:28:48 2010	Indianapolis, IN 46201  	23.6	10	15	0.00	25	ENE 20	13	60	12
Sat Jan 30 19:28:49 2010	Boston, MA 02101  	18.2	5	3	0.00	20	NNW 26	11	42	-2
Sat Jan 30 19:28:52 2010	Jacksonville, FL 32099  	66.0	12	57	0.16	66	S 14	65	89	63
Sat Jan 30 19:28:53 2010	Columbus, OH 43085  	23.7	2	14	N/A	25	ESE 18	24	N/A	--
Sat Jan 30 19:28:54 2010	Dallas, TX 75201  	28.8	7	26	0.00	31	NW 24	22	85	25
Sat Jan 30 19:28:56 2010	Houston, TX 77001  	36.6	4	31	0.00	37	NW 21	34	72	28
Sat Jan 30 19:28:57 2010	Seattle, WA 98101  	44.7	3	43	0.13	47	SSW 9	44	92	43
Sat Jan 30 19:29:00 2010	Milwaukee, WI 53201  	20.5	3	11	0.00	20	N 12	16	99	20
Sat Jan 30 19:29:01 2010	Detroit, MI 48201  	19.5	1	11	0.00	21	ENE 15	20	59	7
Sat Jan 30 19:29:03 2010	Philadelphia, PA 19019  	17.6	5	16	0.00	20	NNW 18	10	45	0
Sat Jan 30 20:11:57 2010	San Jose, CA 95101  	48.9	0	41	0.00	50	SE 6	49	99	49
Sat Jan 30 20:11:58 2010	Charlotte, NC 28201  	22.0	6	22	0.00	30	ENE 20	15	98	22
Sat Jan 30 20:11:59 2010	San Diego, CA 92101  	62.9	2	48	0.00	63	NNE 7	63	60	49
Sat Jan 30 20:11:59 2010	Denver, CO 80214  	44.6	3	20	0.00	45	SE 7	43	27	13
Sat Jan 30 20:12:00 2010	Memphis, TN 37501  	25.0	9	24	0.00	28	NNE 22	15	85	21
Sat Jan 30 20:12:01 2010	Los Angeles, CA 90001  	58.9	3	48	0.00	60	WNW 7	59	72	50
Sat Jan 30 20:12:02 2010	New York, NY 10001  	18.7	0	12	0.00	19	NNW 18	19	44	0
Sat Jan 30 20:12:02 2010	El Paso, TX 79901  	47.9	9	32	0.00	48	SE 10	44	53	32
Sat Jan 30 20:12:03 2010	Baltimore, MD 21201  	14.4	5	14	0.00	20	ENE 17	7	89	12
Sat Jan 30 20:12:04 2010	Las Vegas, NV 89101  	51.8	0	36	0.00	52	E 6	52	50	34
Sat Jan 30 20:12:05 2010	Washington, DC 20001  	16.7	11	16	0.00	21	N 18	4	100	17
Sat Jan 30 20:12:07 2010	San Francisco, CA 94101  	52.0	1	48	0.00	56	ESE 9	52	N/A	--
Sat Jan 30 20:12:07 2010	Austin, TX 73301  	39.9	15	30	0.00	40	NNE 22	32	61	28
Sat Jan 30 20:12:08 2010	Oklahoma City, OK 73101  	21.9	7	19	0.00	23	NNE 15	14	84	18
Sat Jan 30 20:12:09 2010	Nashville, TN 37201  	26.4	8	23	0.00	27	N 18	18	82	22
Sat Jan 30 20:12:11 2010	Phoenix, AZ 85001  	60.2	4	50	0.00	60	E 13	60	40	36
Sat Jan 30 20:12:11 2010	Fort Worth, TX 76101  	28.4	4	25	0.00	29	SW 30	24	88	25
Sat Jan 30 20:12:13 2010	Chicago, IL 60601  	20.8	2	18	0.00	21	NE 13	21	65	11
Sat Jan 30 20:12:13 2010	Portland, OR 97201  	42.7	0	42	0.07	45	SSE 9	43	87	39
Sat Jan 30 20:12:15 2010	San Antonio, TX 78201  	41.2	12	28	0.00	41	NW 19	34	57	27
Sat Jan 30 20:12:16 2010	Indianapolis, IN 46201  	23.6	10	15	0.00	25	ENE 20	13	60	12
Sat Jan 30 20:12:16 2010	Boston, MA 02101  	18.2	5	3	0.00	20	NNW 26	11	42	-2
Sat Jan 30 20:12:17 2010	Columbus, OH 43085  	23.7	2	14	N/A	25	ESE 18	24	N/A	--
Sat Jan 30 20:12:17 2010	Jacksonville, FL 32099  	66.0	12	57	0.16	66	S 14	65	89	63
Sat Jan 30 20:12:18 2010	Dallas, TX 75201  	28.8	7	26	0.00	31	NW 24	22	85	25
Sat Jan 30 20:12:19 2010	Houston, TX 77001  	36.6	4	31	0.00	37	NW 21	34	72	28
Sat Jan 30 20:12:19 2010	Seattle, WA 98101  	44.7	3	43	0.13	47	SSW 9	44	92	43
Sat Jan 30 20:12:20 2010	Milwaukee, WI 53201  	20.5	3	11	0.00	20	N 12	16	99	20
Sat Jan 30 20:12:21 2010	Detroit, MI 48201  	19.5	1	11	0.00	21	ENE 15	20	59	7
Sat Jan 30 20:12:21 2010	Philadelphia, PA 19019  	17.6	5	16	0.00	20	NNW 18	10	45	0
Sat Jan 30 20:55:21 2010	San Jose, CA 95101  	54.0	0	41	0.00	54	SE 6	54	78	47
Sat Jan 30 20:55:23 2010	Charlotte, NC 28201  	21.5	9	21	0.00	30	ENE 20	12	96	20
Sat Jan 30 20:55:25 2010	San Diego, CA 92101  	60.9	7	48	0.00	64	WNW 13	60	72	52
Sat Jan 30 20:55:29 2010	Denver, CO 80214  	49.1	4	20	0.00	49	ESE 10	48	23	12
Sat Jan 30 20:55:30 2010	Memphis, TN 37501  	25.0	11	24	0.00	28	NNE 22	14	85	21
Sat Jan 30 20:55:31 2010	Los Angeles, CA 90001  	60.9	2	48	0.00	62	WSW 9	61	64	49
Sat Jan 30 20:55:34 2010	El Paso, TX 79901  	53.4	3	32	0.00	54	SE 10	53	41	30
Sat Jan 30 20:55:37 2010	New York, NY 10001  	19.6	1	12	0.00	20	NNW 18	20	44	1
Sat Jan 30 20:55:40 2010	Baltimore, MD 21201  	14.6	6	14	0.00	20	ENE 17	6	91	12
Sat Jan 30 20:55:42 2010	Las Vegas, NV 89101  	54.2	0	36	0.00	55	ESE 7	54	46	34
Sat Jan 30 20:55:45 2010	Washington, DC 20001  	16.8	6	16	0.00	21	N 18	8	100	17
Sat Jan 30 20:55:48 2010	Austin, TX 73301  	41.0	17	30	0.00	41	NNE 22	33	60	28
Sat Jan 30 20:55:51 2010	San Francisco, CA 94101  	54.4	1	48	0.00	56	ESE 9	54	N/A	--
Sat Jan 30 20:55:52 2010	Oklahoma City, OK 73101  	27.0	0	25	0.00	27	NNE 0	27	5	-37
Sat Jan 30 20:55:55 2010	Nashville, TN 37201  	26.7	1	23	0.00	28	NNW 18	27	81	22
Sat Jan 30 20:55:57 2010	Fort Worth, TX 76101  	29.7	10	25	0.00	30	SW 30	21	90	27
Sat Jan 30 20:55:58 2010	Phoenix, AZ 85001  	62.8	3	50	0.00	63	E 13	63	36	36
Sat Jan 30 20:56:00 2010	Portland, OR 97201  	44.1	0	42	0.07	45	SSE 9	44	86	40
Sat Jan 30 20:56:01 2010	Chicago, IL 60601  	20.7	4	18	0.00	21	NE 13	15	66	11
Sat Jan 30 20:56:05 2010	San Antonio, TX 78201  	46.0	12	28	0.00	46	NW 19	40	53	30
Sat Jan 30 20:56:08 2010	Indianapolis, IN 46201  	26.0	13	15	0.00	27	ENE 20	15	57	13
Sat Jan 30 20:56:09 2010	Boston, MA 02101  	20.5	1	3	0.00	22	NNW 26	20	42	0
Sat Jan 30 20:56:12 2010	Jacksonville, FL 32099  	68.0	16	57	0.16	68	SSW 23	68	87	64
Sat Jan 30 20:56:15 2010	Columbus, OH 43085  	25.4	7	14	N/A	27	ESE 18	17	N/A	--
Sat Jan 30 20:56:17 2010	Dallas, TX 75201  	29.1	6	26	0.00	31	NW 24	23	85	25
Sat Jan 30 20:56:19 2010	Houston, TX 77001  	36.7	8	31	0.00	37	NW 21	31	70	28
Sat Jan 30 20:56:20 2010	Seattle, WA 98101  	45.0	3	43	0.13	47	SSW 9	44	93	43
Sat Jan 30 20:56:22 2010	Milwaukee, WI 53201  	22.4	3	11	0.00	23	N 12	22	89	20
Sat Jan 30 20:56:25 2010	Detroit, MI 48201  	18.3	0	11	0.00	21	ENE 15	18	63	8
Sat Jan 30 20:56:26 2010	Philadelphia, PA 19019  	17.7	4	16	0.00	20	NNW 18	11	54	3
Sat Jan 30 21:38:59 2010	Charlotte, NC 28201  	21.5	9	21	0.00	30	ENE 20	12	96	20
Sat Jan 30 21:38:59 2010	San Jose, CA 95101  	54.0	0	41	0.00	54	SE 6	54	78	47
Sat Jan 30 21:39:00 2010	San Diego, CA 92101  	60.9	7	48	0.00	64	WNW 13	60	72	52
Sat Jan 30 21:39:01 2010	Denver, CO 80214  	49.1	4	20	0.00	49	ESE 10	48	23	12
Sat Jan 30 21:39:01 2010	Memphis, TN 37501  	25.0	11	24	0.00	28	NNE 22	14	85	21
Sat Jan 30 21:39:02 2010	Los Angeles, CA 90001  	60.9	2	48	0.00	62	WSW 9	61	64	49
Sat Jan 30 21:39:03 2010	New York, NY 10001  	19.6	1	12	0.00	20	NNW 18	20	44	1
Sat Jan 30 21:39:03 2010	El Paso, TX 79901  	53.4	3	32	0.00	54	SE 10	53	41	30
Sat Jan 30 21:39:04 2010	Baltimore, MD 21201  	14.6	6	14	0.00	20	ENE 17	6	91	12
Sat Jan 30 21:39:04 2010	Las Vegas, NV 89101  	54.2	0	36	0.00	55	ESE 7	54	46	34
Sat Jan 30 21:39:06 2010	Washington, DC 20001  	15.7	9	16	0.00	21	N 18	5	100	16
Sat Jan 30 21:39:06 2010	Austin, TX 73301  	41.0	17	30	0.00	41	NNE 22	33	60	28
Sat Jan 30 21:39:07 2010	San Francisco, CA 94101  	54.4	1	48	0.00	56	ESE 9	54	N/A	--
Sat Jan 30 21:39:07 2010	Oklahoma City, OK 73101  	27.0	0	25	0.00	27	NNE 0	27	5	-37
Sat Jan 30 21:39:08 2010	Nashville, TN 37201  	26.7	1	23	0.00	28	NNW 18	27	81	22
Sat Jan 30 21:39:09 2010	Phoenix, AZ 85001  	62.8	3	50	0.00	63	E 13	63	36	36
Sat Jan 30 21:39:09 2010	Fort Worth, TX 76101  	29.7	10	25	0.00	30	SW 30	21	90	27
Sat Jan 30 21:39:10 2010	Portland, OR 97201  	44.1	0	42	0.07	45	SSE 9	44	86	40
Sat Jan 30 21:39:11 2010	Chicago, IL 60601  	20.7	4	18	0.00	21	NE 13	15	66	11
Sat Jan 30 21:39:11 2010	San Antonio, TX 78201  	46.0	12	28	0.00	46	NW 19	40	53	30
Sat Jan 30 21:39:12 2010	Indianapolis, IN 46201  	26.0	13	15	0.00	27	ENE 20	15	57	13
Sat Jan 30 21:39:12 2010	Boston, MA 02101  	20.5	1	3	0.00	22	NNW 26	20	42	0
Sat Jan 30 21:39:13 2010	Jacksonville, FL 32099  	68.0	16	57	0.16	68	SSW 23	68	87	64
Sat Jan 30 21:39:14 2010	Columbus, OH 43085  	25.4	7	14	N/A	27	ESE 18	17	N/A	--
Sat Jan 30 21:39:14 2010	Dallas, TX 75201  	29.1	6	26	0.00	31	NW 24	23	85	25
Sat Jan 30 21:39:15 2010	Houston, TX 77001  	36.7	8	31	0.00	37	NW 21	31	70	28
Sat Jan 30 21:39:15 2010	Seattle, WA 98101  	45.0	3	43	0.13	47	SSW 9	44	93	43
Sat Jan 30 21:39:16 2010	Milwaukee, WI 53201  	22.4	3	11	0.00	23	N 12	22	89	20
Sat Jan 30 21:39:17 2010	Detroit, MI 48201  	18.3	0	11	0.00	21	ENE 15	18	63	8
Sat Jan 30 21:39:17 2010	Philadelphia, PA 19019  	17.7	4	16	0.00	20	NNW 18	11	54	3
Sat Jan 30 22:22:49 2010	San Jose, CA 95101  	57.0	7	41	0.00	57	NW 7	56	66	46
Sat Jan 30 22:22:50 2010	Charlotte, NC 28201  	21.8	7	21	0.00	30	ENE 20	14	95	21
Sat Jan 30 22:22:52 2010	San Diego, CA 92101  	59.7	12	48	0.00	64	WNW 16	58	77	53
Sat Jan 30 22:22:58 2010	Denver, CO 80214  	51.0	1	20	0.00	52	ESE 10	51	22	14
Sat Jan 30 22:23:00 2010	Memphis, TN 37501  	27.0	11	24	0.00	28	NNE 22	17	82	22
Sat Jan 30 22:23:03 2010	Los Angeles, CA 90001  	62.1	0	48	0.00	63	WSW 12	62	59	48
Sat Jan 30 22:23:05 2010	El Paso, TX 79901  	53.7	2	32	0.00	55	SE 10	54	41	30
Sat Jan 30 22:23:07 2010	New York, NY 10001  	19.6	5	12	0.00	20	NNW 18	13	44	1
Sat Jan 30 22:23:09 2010	Baltimore, MD 21201  	14.5	4	13	0.00	20	NE 19	9	93	13
Sat Jan 30 22:23:11 2010	Las Vegas, NV 89101  	54.8	0	36	0.00	56	ENE 8	55	47	35
Sat Jan 30 22:23:12 2010	Washington, DC 20001  	15.7	9	16	0.00	21	N 18	5	100	16
Sat Jan 30 22:23:14 2010	Austin, TX 73301  	45.0	10	30	0.00	45	NNE 22	40	56	30
Sat Jan 30 22:23:16 2010	San Francisco, CA 94101  	54.9	4	48	0.00	57	ESE 9	55	N/A	--
Sat Jan 30 22:23:17 2010	Oklahoma City, OK 73101  	29.1	0	25	0.00	30	NNE 0	29	43	9
Sat Jan 30 22:23:18 2010	Nashville, TN 37201  	26.6	8	23	0.00	28	NW 20	18	83	22
Sat Jan 30 22:23:27 2010	Fort Worth, TX 76101  	30.1	1	25	0.00	31	SW 30	30	90	28
Sat Jan 30 22:23:32 2010	Phoenix, AZ 85001  	65.5	6	50	0.00	66	E 13	66	33	36
Sat Jan 30 22:23:35 2010	Portland, OR 97201  	45.0	0	42	0.07	45	SSE 9	45	85	41
Sat Jan 30 22:23:38 2010	Chicago, IL 60601  	21.3	2	18	0.00	22	NE 13	21	70	13
Sat Jan 30 22:23:39 2010	San Antonio, TX 78201  	48.9	7	28	0.00	49	NW 19	46	51	32
Sat Jan 30 22:23:41 2010	Indianapolis, IN 46201  	26.3	5	15	0.00	28	ENE 20	20	58	13
Sat Jan 30 22:23:48 2010	Boston, MA 02101  	20.6	5	3	0.00	22	NNW 26	14	43	1
Sat Jan 30 22:23:51 2010	Jacksonville, FL 32099  	70.0	17	57	0.16	70	SW 36		84	65
Sat Jan 30 22:23:53 2010	Columbus, OH 43085  	23.4	3	14	N/A	27	ESE 18	19	N/A	--
Sat Jan 30 22:23:54 2010	Dallas, TX 75201  	31.4	6	26	0.00	32	NW 24	26	81	26
Sat Jan 30 22:23:56 2010	Houston, TX 77001  	35.6	7	31	0.00	37	NW 21	30	73	28
Sat Jan 30 22:23:58 2010	Seattle, WA 98101  	46.7	0	43	0.13	47	SSW 9	47	91	44
Sat Jan 30 22:24:00 2010	Milwaukee, WI 53201  	21.8	4	11	0.00	23	N 12	17	84	18
Sat Jan 30 22:24:01 2010	Detroit, MI 48201  	20.4	0	11	0.00	21	ENE 15	20	58	8
Sat Jan 30 22:24:04 2010	Philadelphia, PA 19019  	17.0	3	16	0.00	20	NNW 18	12	72	9
Sat Jan 30 23:08:16 2010	San Jose, CA 95101  	57.0	7	41	0.00	57	NW 7	56	66	46
Sat Jan 30 23:08:18 2010	Charlotte, NC 28201  	21.8	7	21	0.00	30	ENE 20	14	95	21
Sat Jan 30 23:08:21 2010	San Diego, CA 92101  	59.7	12	48	0.00	64	WNW 16	58	77	53
Sat Jan 30 23:08:23 2010	Denver, CO 80214  	51.0	1	20	0.00	52	ESE 10	51	22	14
Sat Jan 30 23:08:25 2010	Memphis, TN 37501  	27.0	11	24	0.00	28	NNE 22	17	82	22
Sat Jan 30 23:08:27 2010	Los Angeles, CA 90001  	62.1	0	48	0.00	63	WSW 12	62	59	48
Sat Jan 30 23:08:29 2010	El Paso, TX 79901  	53.7	2	32	0.00	55	SE 10	54	41	30
Sat Jan 30 23:08:30 2010	New York, NY 10001  	19.6	5	12	0.00	20	NNW 18	13	44	1
Sat Jan 30 23:08:35 2010	Baltimore, MD 21201  	14.5	4	13	0.00	20	NE 19	9	93	13
Sat Jan 30 23:08:40 2010	Las Vegas, NV 89101  	54.8	0	36	0.00	56	ENE 8	55	47	35
Sat Jan 30 23:08:45 2010	Washington, DC 20001  	16.4	3	15	0.00	21	NNE 19	16	100	16
Sat Jan 30 23:08:52 2010	Austin, TX 73301  	45.0	10	30	0.00	45	NNE 22	40	56	30
Sat Jan 30 23:08:54 2010	San Francisco, CA 94101  	54.9	4	48	0.00	57	ESE 9	55	N/A	--
Sat Jan 30 23:08:56 2010	Oklahoma City, OK 73101  	29.1	0	25	0.00	30	NNE 0	29	43	9
Sat Jan 30 23:09:10 2010	Nashville, TN 37201  	26.6	8	23	0.00	28	NW 20	18	83	22
Sat Jan 30 23:09:12 2010	Fort Worth, TX 76101  	30.1	1	25	0.00	31	SW 30	30	90	28
Sat Jan 30 23:09:14 2010	Phoenix, AZ 85001  	65.5	6	50	0.00	66	E 13	66	33	36
Sat Jan 30 23:09:17 2010	Portland, OR 97201  	45.0	0	42	0.07	45	SSE 9	45	85	41
Sat Jan 30 23:09:20 2010	Chicago, IL 60601  	21.3	2	18	0.00	22	NE 13	21	70	13
Sat Jan 30 23:09:21 2010	San Antonio, TX 78201  	48.9	7	28	0.00	49	NW 19	46	51	32
Sat Jan 30 23:09:24 2010	Indianapolis, IN 46201  	26.3	5	15	0.00	28	ENE 20	20	58	13
Sat Jan 30 23:09:26 2010	Boston, MA 02101  	20.6	5	3	0.00	22	NNW 26	14	43	1
Sat Jan 30 23:09:27 2010	Jacksonville, FL 32099  	70.0	17	57	0.16	70	SW 36		84	65
Sat Jan 30 23:09:29 2010	Columbus, OH 43085  	23.4	3	14	N/A	27	ESE 18	19	N/A	--
Sat Jan 30 23:09:31 2010	Dallas, TX 75201  	31.4	6	26	0.00	32	NW 24	26	81	26
Sat Jan 30 23:09:33 2010	Houston, TX 77001  	35.6	7	31	0.00	37	NW 21	30	73	28
Sat Jan 30 23:09:34 2010	Seattle, WA 98101  	46.7	0	43	0.13	47	SSW 9	47	91	44
Sat Jan 30 23:09:36 2010	Milwaukee, WI 53201  	21.8	4	11	0.00	23	N 12	17	84	18
Sat Jan 30 23:09:38 2010	Detroit, MI 48201  	20.4	0	11	0.00	21	ENE 15	20	58	8
Sat Jan 30 23:09:40 2010	Philadelphia, PA 19019  	17.0	3	16	0.00	20	NNW 18	12	72	9
Sat Jan 30 23:52:59 2010	San Jose, CA 95101  	60.1	6	41	0.00	60	SE 6	60	56	44
Sat Jan 30 23:53:00 2010	Charlotte, NC 28201  	22.1	8	21	0.00	30	ENE 20	13	96	21
Sat Jan 30 23:53:07 2010	San Diego, CA 92101  	57.9	7	48	0.00	64	WNW 19	57	81	52
Sat Jan 30 23:53:09 2010	Denver, CO 80214  	50.8	4	20	0.00	52	ESE 10	50	23	14
Sat Jan 30 23:53:10 2010	Memphis, TN 37501  	28.0	9	24	0.00	28	NNE 22	19	80	23
Sat Jan 30 23:53:12 2010	Los Angeles, CA 90001  	61.4	0	48	0.00	63	WSW 15	61	62	48
Sat Jan 30 23:53:13 2010	El Paso, TX 79901  	54.1	3	32	0.00	57	SE 11	54	39	30
Sat Jan 30 23:53:14 2010	New York, NY 10001  	18.8	0	12	0.00	20	NNW 18	19	47	1
Sat Jan 30 23:53:17 2010	Baltimore, MD 21201  	14.4	4	13	0.00	20	NE 19	8	94	13
Sat Jan 30 23:53:20 2010	Washington, DC 20001  	16.4	3	15	0.00	21	NNE 19	16	100	16
Sat Jan 30 23:53:20 2010	Las Vegas, NV 89101  	57.6	4	36	0.00	58	SE 9	58	42	35
Sat Jan 30 23:53:23 2010	Austin, TX 73301  	46.0	16	30	0.00	46	NNE 22	39	52	30
Sat Jan 30 23:53:25 2010	San Francisco, CA 94101  	58.1	4	48	0.00	60	WSW 11	58	N/A	--
Sat Jan 30 23:53:27 2010	Oklahoma City, OK 73101  	27.1	0	25	0.00	30	NNE 0	27	5	-37
Sat Jan 30 23:53:30 2010	Nashville, TN 37201  	26.8	6	23	0.00	28	NW 20	20	83	22
Sat Jan 30 23:53:31 2010	Fort Worth, TX 76101  	30.1	11	25	0.00	31	SW 30	21	91	28
Sat Jan 30 23:53:33 2010	Phoenix, AZ 85001  	65.1	7	50	0.00	66	E 14	65	33	35
Sat Jan 30 23:53:35 2010	Portland, OR 97201  	45.9	1	42	0.07	46	SSE 9	46	85	42
Sat Jan 30 23:53:37 2010	Chicago, IL 60601  	21.1	2	18	0.00	22	NE 13	21	69	12
Sat Jan 30 23:53:39 2010	San Antonio, TX 78201  	49.0	5	28	0.00	50	NW 19	47	52	32
Sat Jan 30 23:53:41 2010	Indianapolis, IN 46201  	23.7	1	15	0.00	28	ENE 20	24	69	15
Sat Jan 30 23:53:42 2010	Boston, MA 02101  	21.1	4	3	0.00	22	NNW 26	15	43	2
Sat Jan 30 23:53:44 2010	Jacksonville, FL 32099  	69.8	11	57	0.16	70	SW 36		88	66
Sat Jan 30 23:53:46 2010	Columbus, OH 43085  	20.7	8	14	N/A	27	ESE 18	11	N/A	--
Sat Jan 30 23:53:48 2010	Dallas, TX 75201  	30.6	8	26	0.00	32	NW 24	23	87	27
Sat Jan 30 23:53:51 2010	Houston, TX 77001  	34.6	12	31	0.00	37	NW 21	26	75	27
Sat Jan 30 23:53:53 2010	Seattle, WA 98101  	46.3	0	43	0.14	47	SSW 9	46	95	45
Sat Jan 30 23:53:54 2010	Milwaukee, WI 53201  	22.0	1	11	0.00	23	N 12	22	77	16
Sat Jan 30 23:53:57 2010	Detroit, MI 48201  	18.1	0	11	0.00	21	ENE 15	18	63	7
Sat Jan 30 23:53:58 2010	Philadelphia, PA 19019  	15.7	7	16	0.00	20	NNW 18	6	91	14
Sun Jan 31 00:43:16 2010	San Jose, CA 95101  	60.1	6	41	0.00	60	SE 6	60	56	44
Sun Jan 31 00:43:17 2010	Charlotte, NC 28201  	22.1	8	21	0.00	30	ENE 20	13	96	21
Sun Jan 31 00:43:19 2010	San Diego, CA 92101  	57.9	7	48	0.00	64	WNW 19	57	81	52
Sun Jan 31 00:43:21 2010	Denver, CO 80214  	50.8	4	20	0.00	52	ESE 10	50	23	14
Sun Jan 31 00:43:24 2010	Memphis, TN 37501  	28.0	9	24	0.00	28	NNE 22	19	80	23
Sun Jan 31 00:43:26 2010	Los Angeles, CA 90001  	61.4	0	48	0.00	63	WSW 15	61	62	48
Sun Jan 31 00:43:27 2010	El Paso, TX 79901  	54.1	3	32	0.00	57	SE 11	54	39	30
Sun Jan 31 00:43:29 2010	New York, NY 10001  	18.8	0	12	0.00	20	NNW 18	19	47	1
Sun Jan 31 00:43:31 2010	Baltimore, MD 21201  	14.4	4	13	0.00	20	NE 19	8	94	13
Sun Jan 31 00:43:32 2010	Las Vegas, NV 89101  	57.6	4	36	0.00	58	SE 9	58	42	35
Sun Jan 31 00:43:34 2010	Washington, DC 20001  	16.4	3	15	0.00	21	NNE 19	16	98	16
Sun Jan 31 00:43:36 2010	Austin, TX 73301  	46.0	16	30	0.00	46	NNE 22	39	52	30
Sun Jan 31 00:43:38 2010	San Francisco, CA 94101  	58.1	4	48	0.00	60	WSW 11	58	N/A	--
Sun Jan 31 00:43:40 2010	Oklahoma City, OK 73101  	27.1	0	25	0.00	30	NNE 0	27	5	-37
Sun Jan 31 00:43:42 2010	Nashville, TN 37201  	26.8	6	23	0.00	28	NW 20	20	83	22
Sun Jan 31 00:43:43 2010	Fort Worth, TX 76101  	30.1	11	25	0.00	31	SW 30	21	91	28
Sun Jan 31 00:43:56 2010	Phoenix, AZ 85001  	65.1	7	50	0.00	66	E 14	65	33	35
Sun Jan 31 00:43:58 2010	Portland, OR 97201  	45.9	1	42	0.07	46	SSE 9	46	85	42
Sun Jan 31 00:44:00 2010	Chicago, IL 60601  	21.1	2	18	0.00	22	NE 13	21	69	12
Sun Jan 31 00:44:02 2010	San Antonio, TX 78201  	49.0	5	28	0.00	50	NW 19	47	52	32
Sun Jan 31 00:44:04 2010	Indianapolis, IN 46201  	23.7	1	15	0.00	28	ENE 20	24	69	15
Sun Jan 31 00:44:06 2010	Boston, MA 02101  	21.1	4	3	0.00	22	NNW 26	15	43	2
Sun Jan 31 00:44:08 2010	Jacksonville, FL 32099  	69.8	11	57	0.16	70	SW 36		88	66
Sun Jan 31 00:44:10 2010	Columbus, OH 43085  	20.7	8	14	N/A	27	ESE 18	11	N/A	--
Sun Jan 31 00:44:11 2010	Dallas, TX 75201  	30.6	8	26	0.00	32	NW 24	23	87	27
Sun Jan 31 00:44:13 2010	Houston, TX 77001  	34.6	12	31	0.00	37	NW 21	26	75	27
Sun Jan 31 00:44:14 2010	Seattle, WA 98101  	46.3	0	43	0.14	47	SSW 9	46	95	45
Sun Jan 31 00:44:16 2010	Milwaukee, WI 53201  	22.0	1	11	0.00	23	N 12	22	77	16
Sun Jan 31 00:44:17 2010	Detroit, MI 48201  	18.1	0	11	0.00	21	ENE 15	18	63	7
Sun Jan 31 00:44:19 2010	Philadelphia, PA 19019  	15.7	7	16	0.00	20	NNW 18	6	91	14
Sun Jan 31 01:27:31 2010	San Jose, CA 95101  	57.9	9	41	0.00	60	NW 9	56	61	45
Sun Jan 31 01:27:33 2010	Charlotte, NC 28201  	22.0	1	21	0.00	30	ENE 20	22	98	22
Sun Jan 31 01:27:34 2010	San Diego, CA 92101  	57.3	5	48	0.00	64	WNW 19	57	85	53
Sun Jan 31 01:27:36 2010	Denver, CO 80214  	43.4	4	20	0.00	52	ESE 10	42	38	19
Sun Jan 31 01:27:38 2010	Memphis, TN 37501  	26.1	7	24	0.00	28	NNE 22	18	79	20
Sun Jan 31 01:27:39 2010	Los Angeles, CA 90001  	57.9	0	48	0.00	63	W 18	58	71	49
Sun Jan 31 01:27:41 2010	El Paso, TX 79901  	50.8	4	32	0.00	57	SSE 13	50	47	31
Sun Jan 31 01:27:42 2010	New York, NY 10001  	18.8	1	12	0.00	20	NNW 18	19	50	3
Sun Jan 31 01:27:43 2010	Baltimore, MD 21201  	14.6	11	13	0.00	20	NE 19	1	90	12
Sun Jan 31 01:27:45 2010	Washington, DC 20001  	16.4	3	15	0.00	21	NNE 19	16	98	16
Sun Jan 31 01:27:45 2010	Las Vegas, NV 89101  	55.6	1	36	0.00	58	SE 9	56	45	35
Sun Jan 31 01:27:48 2010	Austin, TX 73301  	41.0	12	30	0.00	46	NNE 22	34	67	31
Sun Jan 31 01:27:49 2010	San Francisco, CA 94101  	56.0	3	48	0.00	60	W 12	56	N/A	--
Sun Jan 31 01:27:51 2010	Oklahoma City, OK 73101  	27.0	0	25	0.00	30	NNE 0	27	5	-37
Sun Jan 31 01:27:55 2010	Nashville, TN 37201  	27.2	7	23	0.00	28	NW 20	20	82	22
Sun Jan 31 01:27:56 2010	Fort Worth, TX 76101  	30.1	2	25	0.00	31	SW 30	30	92	28
Sun Jan 31 01:27:58 2010	Phoenix, AZ 85001  	65.2	2	50	0.00	66	E 14	65	32	35
Sun Jan 31 01:27:59 2010	Portland, OR 97201  	45.2	1	42	0.07	46	SSE 9	45	85	41
Sun Jan 31 01:28:00 2010	Chicago, IL 60601  	21.3	1	18	0.00	22	NE 13	21	71	13
Sun Jan 31 01:28:02 2010	San Antonio, TX 78201  	45.4	3	28	0.00	50	NW 19	45	61	33
Sun Jan 31 01:28:03 2010	Indianapolis, IN 46201  	20.7	4	15	0.00	28	ENE 20	15	76	14
Sun Jan 31 01:28:05 2010	Boston, MA 02101  	18.3	6	3	0.00	22	NNW 26	10	46	1
Sun Jan 31 01:28:07 2010	Jacksonville, FL 32099  	68.0	12	57	0.16	70	SW 36	68	78	61
Sun Jan 31 01:28:08 2010	Columbus, OH 43085  	18.4	7	14	N/A	27	ESE 18	9	N/A	--
Sun Jan 31 01:28:10 2010	Dallas, TX 75201  	31.3	5	26	0.00	32	NW 24	26	88	28
Sun Jan 31 01:28:11 2010	Houston, TX 77001  	33.6	4	31	0.00	37	NW 21	29	77	27
Sun Jan 31 01:28:12 2010	Seattle, WA 98101  	45.7	3	43	0.15	47	SSW 9	46	94	44
Sun Jan 31 01:28:14 2010	Milwaukee, WI 53201  	20.5	5	11	0.00	23	N 12	13	85	17
Sun Jan 31 01:28:17 2010	Detroit, MI 48201  	16.5	2	11	0.00	21	ENE 15	17	68	8
Sun Jan 31 01:28:22 2010	Philadelphia, PA 19019  	16.4	7	15	0.00	20	NNW 18	7	91	14
Sun Jan 31 02:11:42 2010	San Jose, CA 95101  	57.9	9	41	0.00	60	NW 9	56	61	45
Sun Jan 31 02:11:43 2010	Charlotte, NC 28201  	22.0	1	21	0.00	30	ENE 20	22	98	22
Sun Jan 31 02:11:43 2010	San Diego, CA 92101  	57.3	5	48	0.00	64	WNW 19	57	85	53
Sun Jan 31 02:11:45 2010	Denver, CO 80214  	43.4	4	20	0.00	52	ESE 10	42	38	19
Sun Jan 31 02:11:45 2010	Memphis, TN 37501  	26.1	7	24	0.00	28	NNE 22	18	79	20
Sun Jan 31 02:11:46 2010	Los Angeles, CA 90001  	57.9	0	48	0.00	63	W 18	58	71	49
Sun Jan 31 02:11:47 2010	New York, NY 10001  	18.8	1	12	0.00	20	NNW 18	19	50	3
Sun Jan 31 02:11:47 2010	El Paso, TX 79901  	50.8	4	32	0.00	57	SSE 13	50	47	31
Sun Jan 31 02:11:48 2010	Baltimore, MD 21201  	14.6	11	13	0.00	20	NE 19	1	90	12
Sun Jan 31 02:11:48 2010	Las Vegas, NV 89101  	55.6	1	36	0.00	58	SE 9	56	45	35
Sun Jan 31 02:11:50 2010	Washington, DC 20001  	16.1	9	15	0.00	21	NNE 19	5	97	16
Sun Jan 31 02:11:50 2010	Austin, TX 73301  	41.0	12	30	0.00	46	NNE 22	34	67	31
Sun Jan 31 02:11:51 2010	Oklahoma City, OK 73101  	27.0	0	25	0.00	30	NNE 0	27	5	-37
Sun Jan 31 02:11:51 2010	San Francisco, CA 94101  	56.0	3	48	0.00	60	W 12	56	N/A	--
Sun Jan 31 02:11:52 2010	Nashville, TN 37201  	27.2	7	23	0.00	28	NW 20	20	82	22
Sun Jan 31 02:11:53 2010	Phoenix, AZ 85001  	65.2	2	50	0.00	66	E 14	65	32	35
Sun Jan 31 02:11:53 2010	Fort Worth, TX 76101  	30.1	2	25	0.00	31	SW 30	30	92	28
Sun Jan 31 02:11:54 2010	Chicago, IL 60601  	21.3	1	18	0.00	22	NE 13	21	71	13
Sun Jan 31 02:11:54 2010	Portland, OR 97201  	45.2	1	42	0.07	46	SSE 9	45	85	41
Sun Jan 31 02:11:55 2010	San Antonio, TX 78201  	45.4	3	28	0.00	50	NW 19	45	61	33
Sun Jan 31 02:11:56 2010	Indianapolis, IN 46201  	20.7	4	15	0.00	28	ENE 20	15	76	14
Sun Jan 31 02:11:56 2010	Boston, MA 02101  	18.3	6	3	0.00	22	NNW 26	10	46	1
Sun Jan 31 02:11:57 2010	Columbus, OH 43085  	18.4	7	14	N/A	27	ESE 18	9	N/A	--
Sun Jan 31 02:11:57 2010	Jacksonville, FL 32099  	68.0	12	57	0.16	70	SW 36	68	78	61
Sun Jan 31 02:11:58 2010	Dallas, TX 75201  	31.3	5	26	0.00	32	NW 24	26	88	28
Sun Jan 31 02:11:59 2010	Houston, TX 77001  	33.6	4	31	0.00	37	NW 21	29	77	27
Sun Jan 31 02:11:59 2010	Seattle, WA 98101  	45.7	3	43	0.15	47	SSW 9	46	94	44
Sun Jan 31 02:12:00 2010	Detroit, MI 48201  	16.5	2	11	0.00	21	ENE 15	17	68	8
Sun Jan 31 02:12:00 2010	Milwaukee, WI 53201  	20.5	5	11	0.00	23	N 12	13	85	17
Sun Jan 31 02:12:01 2010	Philadelphia, PA 19019  	16.4	7	15	0.00	20	NNW 18	7	91	14
Sun Jan 31 02:54:52 2010	San Jose, CA 95101  	55.9	10	41	0.00	60	NW 10	53	68	45
Sun Jan 31 02:54:54 2010	Charlotte, NC 28201  	22.1	2	21	0.00	30	ENE 20	22	93	20
Sun Jan 31 02:54:56 2010	San Diego, CA 92101  	56.2	2	48	0.00	64	WNW 19	56	86	52
Sun Jan 31 02:55:01 2010	Denver, CO 80214  	37.5	5	20	0.00	52	NW 16	33	52	21
Sun Jan 31 02:55:04 2010	Memphis, TN 37501  	26.1	3	24	0.00	28	NNE 22	22	76	19
Sun Jan 31 02:55:07 2010	Los Angeles, CA 90001  	55.6	5	48	0.00	63	W 18	55	78	49
Sun Jan 31 02:55:11 2010	El Paso, TX 79901  	50.1	5	32	0.00	57	SSE 13	48	47	31
Sun Jan 31 02:55:13 2010	New York, NY 10001  	18.7	1	12	0.00	20	NNW 18	19	51	3
Sun Jan 31 02:55:16 2010	Baltimore, MD 21201  	16.0	7	13	0.00	20	NE 19	6	88	13
Sun Jan 31 02:55:18 2010	Las Vegas, NV 89101  	52.0	0	36	0.00	58	SE 9	52	54	36
Sun Jan 31 02:55:21 2010	Washington, DC 20001  	16.1	9	15	0.00	21	NNE 19	5	97	16
Sun Jan 31 02:55:23 2010	Austin, TX 73301  	37.9	8	30	0.00	46	NNE 22	32	74	30
Sun Jan 31 02:55:26 2010	San Francisco, CA 94101  	53.1	6	48	0.00	60	W 12	51	N/A	--
Sun Jan 31 02:55:27 2010	Oklahoma City, OK 73101  	27.0	0	25	0.00	30	NNE 0	27	5	-37
Sun Jan 31 02:55:29 2010	Nashville, TN 37201  	27.2	0	23	0.00	28	NW 20	27	80	22
Sun Jan 31 02:55:32 2010	Fort Worth, TX 76101  	29.9	1	25	0.00	31	SW 30	30	93	28
Sun Jan 31 02:55:34 2010	Phoenix, AZ 85001  	62.2	2	50	0.00	66	E 14	62	37	36
Sun Jan 31 02:55:37 2010	Portland, OR 97201  	45.0	2	42	0.07	46	SSE 9	45	86	41
Sun Jan 31 02:55:39 2010	Chicago, IL 60601  	21.4	2	18	0.00	22	NE 13	21	72	14
Sun Jan 31 02:55:42 2010	San Antonio, TX 78201  	41.1	0	28	0.00	50	NW 19	41	69	32
Sun Jan 31 02:55:45 2010	Indianapolis, IN 46201  	19.4	2	15	0.00	28	ENE 20	19	78	14
Sun Jan 31 02:55:50 2010	Boston, MA 02101  	17.1	6	3	0.00	22	NNW 26	8	47	0
Sun Jan 31 02:55:54 2010	Jacksonville, FL 32099  	66.0	10	57	0.16	70	SW 36	66	77	59
Sun Jan 31 02:55:56 2010	Columbus, OH 43085  	16.5	5	14	N/A	27	ESE 18	9	N/A	--
Sun Jan 31 02:55:58 2010	Dallas, TX 75201  	31.7	4	26	0.00	32	NW 24	28	89	29
Sun Jan 31 02:55:59 2010	Houston, TX 77001  	33.6	5	31	0.00	37	NW 21	28	79	28
Sun Jan 31 02:56:00 2010	Seattle, WA 98101  	45.2	3	43	0.15	47	SSW 9	44	96	44
Sun Jan 31 02:56:02 2010	Milwaukee, WI 53201  	20.5	3	11	0.00	23	N 12	16	82	16
Sun Jan 31 02:56:03 2010	Detroit, MI 48201  	14.9	4	11	0.00	21	ENE 15	8	73	8
Sun Jan 31 02:56:05 2010	Philadelphia, PA 19019  	18.7	8	15	0.00	20	NNW 18	9	57	6
Sun Jan 31 03:38:22 2010	San Jose, CA 95101  	55.9	10	41	0.00	60	NW 10	53	68	45
Sun Jan 31 03:38:23 2010	Charlotte, NC 28201  	22.1	2	21	0.00	30	ENE 20	22	93	20
Sun Jan 31 03:38:24 2010	Denver, CO 80214  	37.5	5	20	0.00	52	NW 16	33	52	21
Sun Jan 31 03:38:24 2010	San Diego, CA 92101  	56.2	2	48	0.00	64	WNW 19	56	86	52
Sun Jan 31 03:38:25 2010	Memphis, TN 37501  	26.1	3	24	0.00	28	NNE 22	22	76	19
Sun Jan 31 03:38:26 2010	El Paso, TX 79901  	50.1	5	32	0.00	57	SSE 13	48	47	31
Sun Jan 31 03:38:26 2010	Los Angeles, CA 90001  	55.6	5	48	0.00	63	W 18	55	78	49
Sun Jan 31 03:38:27 2010	Baltimore, MD 21201  	16.0	7	13	0.00	20	NE 19	6	88	13
Sun Jan 31 03:38:27 2010	New York, NY 10001  	18.7	1	12	0.00	20	NNW 18	19	51	3
Sun Jan 31 03:38:28 2010	Las Vegas, NV 89101  	52.0	0	36	0.00	58	SE 9	52	54	36
Sun Jan 31 03:38:30 2010	Washington, DC 20001  	16.1	7	15	0.00	21	NNE 21	6	94	15
Sun Jan 31 03:38:31 2010	Austin, TX 73301  	37.9	8	30	0.00	46	NNE 22	32	74	30
Sun Jan 31 03:38:31 2010	San Francisco, CA 94101  	53.1	6	48	0.00	60	W 12	51	N/A	--
Sun Jan 31 03:38:32 2010	Oklahoma City, OK 73101  	27.0	0	25	0.00	30	NNE 0	27	5	-37
Sun Jan 31 03:38:33 2010	Nashville, TN 37201  	27.2	0	23	0.00	28	NW 20	27	80	22
Sun Jan 31 03:38:33 2010	Fort Worth, TX 76101  	29.9	1	25	0.00	31	SW 30	30	93	28
Sun Jan 31 03:38:34 2010	Phoenix, AZ 85001  	62.2	2	50	0.00	66	E 14	62	37	36
Sun Jan 31 03:38:35 2010	Chicago, IL 60601  	21.4	2	18	0.00	22	NE 13	21	72	14
Sun Jan 31 03:38:35 2010	Portland, OR 97201  	45.0	2	42	0.07	46	SSE 9	45	86	41
Sun Jan 31 03:38:36 2010	Indianapolis, IN 46201  	19.4	2	15	0.00	28	ENE 20	19	78	14
Sun Jan 31 03:38:36 2010	San Antonio, TX 78201  	41.1	0	28	0.00	50	NW 19	41	69	32
Sun Jan 31 03:38:37 2010	Boston, MA 02101  	17.1	6	3	0.00	22	NNW 26	8	47	0
Sun Jan 31 03:38:38 2010	Columbus, OH 43085  	16.5	5	14	N/A	27	ESE 18	9	N/A	--
Sun Jan 31 03:38:38 2010	Jacksonville, FL 32099  	66.0	10	57	0.16	70	SW 36	66	77	59
Sun Jan 31 03:38:40 2010	Dallas, TX 75201  	31.7	4	26	0.00	32	NW 24	28	89	29
Sun Jan 31 03:38:41 2010	Houston, TX 77001  	33.6	5	31	0.00	37	NW 21	28	79	28
Sun Jan 31 03:38:42 2010	Milwaukee, WI 53201  	20.5	3	11	0.00	23	N 12	16	82	16
Sun Jan 31 03:38:42 2010	Seattle, WA 98101  	45.2	3	43	0.15	47	SSW 9	44	96	44
Sun Jan 31 03:38:43 2010	Detroit, MI 48201  	14.9	4	11	0.00	21	ENE 15	8	73	8
Sun Jan 31 03:38:44 2010	Philadelphia, PA 19019  	18.7	8	15	0.00	20	NNW 18	9	57	6
Sun Jan 31 04:22:39 2010	San Jose, CA 95101  	50.0	8	41	0.00	60	NW 10	47	89	47
Sun Jan 31 04:22:41 2010	Charlotte, NC 28201  	21.1	7	21	0.00	30	ENE 20	13	89	18
Sun Jan 31 04:22:42 2010	San Diego, CA 92101  	54.9	1	48	0.00	64	WNW 19	55	92	53
Sun Jan 31 04:22:44 2010	Denver, CO 80214  	36.3	4	20	0.00	52	NW 16	34	49	19
Sun Jan 31 04:22:47 2010	Memphis, TN 37501  	24.1	5	24	0.00	28	NNE 22	18	75	17
Sun Jan 31 04:22:50 2010	Los Angeles, CA 90001  	54.8	0	48	0.00	63	W 18	55	81	49
Sun Jan 31 04:22:52 2010	El Paso, TX 79901  	47.6	0	32	0.00	57	SSE 13	48	55	32
Sun Jan 31 04:22:53 2010	New York, NY 10001  	18.3	2	12	0.00	20	NNW 18	18	52	3
Sun Jan 31 04:22:56 2010	Baltimore, MD 21201  	17.0	5	13	0.00	20	NE 19	9	67	8
Sun Jan 31 04:22:59 2010	Las Vegas, NV 89101  	49.7	2	36	0.00	58	SE 9	50	61	37
Sun Jan 31 04:23:01 2010	Washington, DC 20001  	16.1	7	15	0.00	21	NNE 21	6	94	15
Sun Jan 31 04:23:03 2010	Austin, TX 73301  	34.0	9	30	0.00	46	NNE 22	27	82	29
Sun Jan 31 04:23:06 2010	San Francisco, CA 94101  	52.2	5	48	0.00	60	W 12	51	N/A	--
Sun Jan 31 04:23:08 2010	Oklahoma City, OK 73101  	21.9	7	19	0.00	25	NNE 15	14	91	20
Sun Jan 31 04:23:11 2010	Nashville, TN 37201  	25.5	2	23	0.00	28	NW 20	26	81	20
Sun Jan 31 04:23:14 2010	Fort Worth, TX 76101  	29.9	5	25	0.00	31	SW 30	25	94	28
Sun Jan 31 04:23:17 2010	Phoenix, AZ 85001  	60.2	0	50	0.00	66	E 14	60	41	36
Sun Jan 31 04:23:19 2010	Portland, OR 97201  	44.0	0	42	0.07	46	SSE 9	44	97	43
Sun Jan 31 04:23:21 2010	Chicago, IL 60601  	21.7	1	18	0.00	22	NE 13	22	71	14
Sun Jan 31 04:23:23 2010	San Antonio, TX 78201  	38.6	2	28	0.00	50	NW 19	39	75	31
Sun Jan 31 04:23:28 2010	Indianapolis, IN 46201  	18.8	4	15	0.00	28	ENE 20	13	82	14
Sun Jan 31 04:23:29 2010	Boston, MA 02101  	16.0	5	3	0.00	22	NNW 26	8	50	0
Sun Jan 31 04:23:33 2010	Jacksonville, FL 32099  	55.0	22	55	0.16	70	SW 36	50	88	52
Sun Jan 31 04:23:35 2010	Columbus, OH 43085  	14.4	5	14	N/A	27	ESE 18	7	N/A	--
Sun Jan 31 04:23:37 2010	Dallas, TX 75201  	31.4	7	26	0.00	32	NW 24	25	89	28
Sun Jan 31 04:23:38 2010	Houston, TX 77001  	33.8	8	31	0.00	37	NW 21	27	80	28
Sun Jan 31 04:23:40 2010	Seattle, WA 98101  	45.0	2	43	0.16	47	SSW 9	45	97	44
Sun Jan 31 04:23:43 2010	Milwaukee, WI 53201  	18.6	2	11	0.00	23	N 12	19	83	14
Sun Jan 31 04:23:47 2010	Detroit, MI 48201  	14.6	3	11	0.00	21	ENE 15	15	73	7
Sun Jan 31 04:23:50 2010	Philadelphia, PA 19019  	18.9	7	15	0.00	20	NNW 18	10	55	5
Sun Jan 31 05:06:33 2010	San Jose, CA 95101  	50.0	8	41	0.00	60	NW 10	47	89	47
Sun Jan 31 05:06:34 2010	Charlotte, NC 28201  	21.1	7	21	0.00	30	ENE 20	13	89	18
Sun Jan 31 05:06:35 2010	San Diego, CA 92101  	54.9	1	48	0.00	64	WNW 19	55	92	53
Sun Jan 31 05:06:36 2010	Denver, CO 80214  	36.3	4	20	0.00	52	NW 16	34	49	19
Sun Jan 31 05:06:37 2010	Memphis, TN 37501  	24.1	5	24	0.00	28	NNE 22	18	75	17
Sun Jan 31 05:06:37 2010	Los Angeles, CA 90001  	54.8	0	48	0.00	63	W 18	55	81	49
Sun Jan 31 05:06:38 2010	El Paso, TX 79901  	47.6	0	32	0.00	57	SSE 13	48	55	32
Sun Jan 31 05:06:39 2010	New York, NY 10001  	18.3	2	12	0.00	20	NNW 18	18	52	3
Sun Jan 31 05:06:40 2010	Baltimore, MD 21201  	17.0	5	13	0.00	20	NE 19	9	67	8
Sun Jan 31 05:06:40 2010	Las Vegas, NV 89101  	49.7	2	36	0.00	58	SE 9	50	61	37
Sun Jan 31 05:06:43 2010	Washington, DC 20001  	15.9	5	15	0.00	21	NNE 21	8	93	14
Sun Jan 31 05:06:44 2010	Austin, TX 73301  	34.0	9	30	0.00	46	NNE 22	27	82	29
Sun Jan 31 05:06:44 2010	San Francisco, CA 94101  	52.2	5	48	0.00	60	W 12	51	N/A	--
Sun Jan 31 05:06:45 2010	Oklahoma City, OK 73101  	21.9	7	19	0.00	25	NNE 15	14	91	20
Sun Jan 31 05:06:46 2010	Nashville, TN 37201  	25.5	2	23	0.00	28	NW 20	26	81	20
Sun Jan 31 05:06:46 2010	Fort Worth, TX 76101  	29.9	5	25	0.00	31	SW 30	25	94	28
Sun Jan 31 05:06:48 2010	Phoenix, AZ 85001  	60.2	0	50	0.00	66	E 14	60	41	36
Sun Jan 31 05:06:48 2010	Portland, OR 97201  	44.0	0	42	0.07	46	SSE 9	44	97	43
Sun Jan 31 05:06:49 2010	Chicago, IL 60601  	21.7	1	18	0.00	22	NE 13	22	71	14
Sun Jan 31 05:06:49 2010	San Antonio, TX 78201  	38.6	2	28	0.00	50	NW 19	39	75	31
Sun Jan 31 05:06:50 2010	Indianapolis, IN 46201  	18.8	4	15	0.00	28	ENE 20	13	82	14
Sun Jan 31 05:06:51 2010	Boston, MA 02101  	16.0	5	3	0.00	22	NNW 26	8	50	0
Sun Jan 31 05:06:52 2010	Columbus, OH 43085  	14.4	5	14	N/A	27	ESE 18	7	N/A	--
Sun Jan 31 05:06:52 2010	Jacksonville, FL 32099  	55.0	22	55	0.16	70	SW 36	50	88	52
Sun Jan 31 05:06:54 2010	Houston, TX 77001  	33.8	8	31	0.00	37	NW 21	27	80	28
Sun Jan 31 05:06:54 2010	Dallas, TX 75201  	31.4	7	26	0.00	32	NW 24	25	89	28
Sun Jan 31 05:06:55 2010	Milwaukee, WI 53201  	18.6	2	11	0.00	23	N 12	19	83	14
Sun Jan 31 05:06:55 2010	Seattle, WA 98101  	45.0	2	43	0.16	47	SSW 9	45	97	44
Sun Jan 31 05:06:56 2010	Detroit, MI 48201  	14.6	3	11	0.00	21	ENE 15	15	73	7
Sun Jan 31 05:06:57 2010	Philadelphia, PA 19019  	18.9	7	15	0.00	20	NNW 18	10	55	5
Sun Jan 31 05:53:18 2010	San Jose, CA 95101  	50.0	6	41	0.00	60	NW 10	48	89	47
Sun Jan 31 05:53:20 2010	Charlotte, NC 28201  	21.8	4	21	0.00	30	ENE 20	17	86	18
Sun Jan 31 05:53:23 2010	San Diego, CA 92101  	53.4	0	48	0.00	64	WNW 19	53	96	52
Sun Jan 31 05:53:27 2010	Denver, CO 80214  	35.9	1	20	0.00	52	NW 16	36	48	18
Sun Jan 31 05:53:31 2010	Memphis, TN 37501  	24.1	0	24	0.00	28	NNE 22	24	75	17
Sun Jan 31 05:53:35 2010	Los Angeles, CA 90001  	54.0	0	48	0.00	63	W 18	54	86	50
Sun Jan 31 05:53:38 2010	El Paso, TX 79901  	46.3	4	32	0.00	57	SSE 13	44	55	31
Sun Jan 31 05:53:40 2010	New York, NY 10001  	17.6	1	12	0.00	20	NNW 18	18	52	3
Sun Jan 31 05:53:43 2010	Baltimore, MD 21201  	18.2	2	13	0.00	20	NE 19	18	57	5
Sun Jan 31 05:53:46 2010	Las Vegas, NV 89101  	46.8	1	36	0.00	58	SE 9	47	66	36
Sun Jan 31 05:53:48 2010	Washington, DC 20001  	15.9	5	15	0.00	21	NNE 21	8	93	14
Sun Jan 31 05:53:51 2010	Austin, TX 73301  	32.0	7	30	0.00	46	NNE 22	26	85	28
Sun Jan 31 05:53:53 2010	San Francisco, CA 94101  	51.7	2	48	0.00	60	W 12	52	N/A	--
Sun Jan 31 05:53:56 2010	Oklahoma City, OK 73101  	21.2	7	19	0.00	25	NNE 15	13	93	19
Sun Jan 31 05:53:59 2010	Nashville, TN 37201  	24.5	3	23	0.00	28	NW 20	25	82	20
Sun Jan 31 05:54:02 2010	Fort Worth, TX 76101  	30.1	3	25	0.00	31	SW 30	30	96	29
Sun Jan 31 05:54:07 2010	Phoenix, AZ 85001  	57.9	2	50	0.00	66	E 14	58	46	38
Sun Jan 31 05:54:10 2010	Portland, OR 97201  	44.2	0	42	0.08	46	SSE 9	44	97	44
Sun Jan 31 05:54:14 2010	Chicago, IL 60601  	20.4	8	18	0.00	22	NE 13	11	74	13
Sun Jan 31 05:54:16 2010	San Antonio, TX 78201  	35.1	6	28	0.00	50	NW 19	30	82	30
Sun Jan 31 05:54:19 2010	Indianapolis, IN 46201  	18.6	0	15	0.00	28	ENE 20	19	83	14
Sun Jan 31 05:54:24 2010	Boston, MA 02101  	14.9	7	3	0.00	22	NNW 26	4	53	0
Sun Jan 31 05:54:29 2010	Jacksonville, FL 32099  	51.8	17	52	0.16	70	SW 36	46	76	45
Sun Jan 31 05:54:34 2010	Columbus, OH 43085  	12.6	1	13	N/A	27	ESE 18	13	N/A	--
Sun Jan 31 05:54:49 2010	Dallas, TX 75201  	31.8	2	26	0.00	32	NW 24	32	88	29
Sun Jan 31 05:54:53 2010	Houston, TX 77001  	34.0	6	31	0.00	37	NW 21	28	81	29
Sun Jan 31 05:54:56 2010	Seattle, WA 98101  	45.3	1	43	0.17	47	SSW 9	45	97	45
Sun Jan 31 05:54:59 2010	Milwaukee, WI 53201  	17.3	4	11	0.00	23	N 12	12	86	14
Sun Jan 31 05:55:02 2010	Detroit, MI 48201  	14.0	5	11	0.00	21	ENE 15	6	76	8
Sun Jan 31 05:55:06 2010	Philadelphia, PA 19019  	19.0	8	15	0.00	20	NNW 18	9	55	5
Sun Jan 31 06:37:47 2010	San Jose, CA 95101  	50.0	6	41	0.00	60	NW 10	48	89	47
Sun Jan 31 06:37:48 2010	Charlotte, NC 28201  	21.8	4	21	0.00	30	ENE 20	17	86	18
Sun Jan 31 06:37:48 2010	San Diego, CA 92101  	53.4	0	48	0.00	64	WNW 19	53	96	52
Sun Jan 31 06:37:49 2010	Denver, CO 80214  	35.9	1	20	0.00	52	NW 16	36	48	18
Sun Jan 31 06:37:50 2010	Memphis, TN 37501  	24.1	0	24	0.00	28	NNE 22	24	75	17
Sun Jan 31 06:37:50 2010	Los Angeles, CA 90001  	54.0	0	48	0.00	63	W 18	54	86	50
Sun Jan 31 06:37:51 2010	El Paso, TX 79901  	46.3	4	32	0.00	57	SSE 13	44	55	31
Sun Jan 31 06:37:52 2010	Baltimore, MD 21201  	18.2	2	13	0.00	20	NE 19	18	57	5
Sun Jan 31 06:37:52 2010	New York, NY 10001  	17.6	1	12	0.00	20	NNW 18	18	52	3
Sun Jan 31 06:37:53 2010	Las Vegas, NV 89101  	46.8	1	36	0.00	58	SE 9	47	66	36
Sun Jan 31 06:37:54 2010	Washington, DC 20001  	17.2	5	16	0.00	18	N 15	10	80	12
Sun Jan 31 06:37:55 2010	Austin, TX 73301  	32.0	7	30	0.00	46	NNE 22	26	85	28
Sun Jan 31 06:37:55 2010	San Francisco, CA 94101  	51.7	2	48	0.00	60	W 12	52	N/A	--
Sun Jan 31 06:37:56 2010	Oklahoma City, OK 73101  	21.2	7	19	0.00	25	NNE 15	13	93	19
Sun Jan 31 06:37:57 2010	Nashville, TN 37201  	24.5	3	23	0.00	28	NW 20	25	82	20
Sun Jan 31 06:37:57 2010	Fort Worth, TX 76101  	30.1	3	25	0.00	31	SW 30	30	96	29
Sun Jan 31 06:37:58 2010	Phoenix, AZ 85001  	57.9	2	50	0.00	66	E 14	58	46	38
Sun Jan 31 06:37:59 2010	Portland, OR 97201  	44.2	0	42	0.08	46	SSE 9	44	97	44
Sun Jan 31 06:38:00 2010	Chicago, IL 60601  	20.4	8	18	0.00	22	NE 13	11	74	13
Sun Jan 31 06:38:01 2010	Indianapolis, IN 46201  	18.6	0	15	0.00	28	ENE 20	19	83	14
Sun Jan 31 06:38:01 2010	San Antonio, TX 78201  	35.1	6	28	0.00	50	NW 19	30	82	30
Sun Jan 31 06:38:02 2010	Boston, MA 02101  	14.9	7	3	0.00	22	NNW 26	4	53	0
Sun Jan 31 06:38:03 2010	Columbus, OH 43085  	12.6	1	13	N/A	27	ESE 18	13	N/A	--
Sun Jan 31 06:38:03 2010	Jacksonville, FL 32099  	51.8	17	52	0.16	70	SW 36	46	76	45
Sun Jan 31 06:38:04 2010	Dallas, TX 75201  	31.8	2	26	0.00	32	NW 24	32	88	29
Sun Jan 31 06:38:05 2010	Houston, TX 77001  	34.0	6	31	0.00	37	NW 21	28	81	29
Sun Jan 31 06:38:06 2010	Milwaukee, WI 53201  	17.3	4	11	0.00	23	N 12	12	86	14
Sun Jan 31 06:38:06 2010	Seattle, WA 98101  	45.3	1	43	0.17	47	SSW 9	45	97	45
Sun Jan 31 06:38:07 2010	Detroit, MI 48201  	14.0	5	11	0.00	21	ENE 15	6	76	8
Sun Jan 31 06:38:08 2010	Philadelphia, PA 19019  	19.0	8	15	0.00	20	NNW 18	9	55	5
Sun Jan 31 07:20:46 2010	San Jose, CA 95101  	48.2	0	41	0.00	60	NW 10	48	93	46
Sun Jan 31 07:20:49 2010	Charlotte, NC 28201  	21.8	1	22	0.00	22	N 11	22	88	19
Sun Jan 31 07:20:50 2010	San Diego, CA 92101  	52.7	0	51	0.00	69	SE 15	53	91	50
Sun Jan 31 07:20:51 2010	Denver, CO 80214  	32.4	0	20	0.00	52	NW 16	32	54	17
Sun Jan 31 07:20:52 2010	Memphis, TN 37501  	22.1	0	22	0.00	23	NE 0	22	89	19
Sun Jan 31 07:20:54 2010	Los Angeles, CA 90001  	51.9	0	48	0.00	63	W 18	52	88	48
Sun Jan 31 07:20:56 2010	El Paso, TX 79901  	46.2	0	32	0.00	57	SSE 13	46	56	31
Sun Jan 31 07:20:58 2010	New York, NY 10001  	17.0	4	16	0.00	18	NW 14	11	51	2
Sun Jan 31 07:21:00 2010	Baltimore, MD 21201  	17.8	2	17	0.00	18	WNW 10	18	56	4
Sun Jan 31 07:21:02 2010	Washington, DC 20001  	17.2	5	16	0.00	18	N 15	10	80	12
Sun Jan 31 07:21:02 2010	Las Vegas, NV 89101  	44.5	1	36	0.00	58	SE 9	44	69	35
Sun Jan 31 07:21:05 2010	Austin, TX 73301  	30.9	9	30	0.00	46	NNE 22	23	92	29
Sun Jan 31 07:21:06 2010	San Francisco, CA 94101  	50.6	3	48	0.00	60	W 12	51	N/A	--
Sun Jan 31 07:21:08 2010	Oklahoma City, OK 73101  	23.0	0	23	0.00	23	NNE 6	23	93	21
Sun Jan 31 07:21:10 2010	Nashville, TN 37201  	23.1	1	23	0.00	23	NW 5	23	84	19
Sun Jan 31 07:21:11 2010	Fort Worth, TX 76101  	28.7	1	28	0.00	29	NE 12	29	100	29
Sun Jan 31 07:21:12 2010	Phoenix, AZ 85001  	56.0	4	50	0.00	66	E 14	56	50	38
Sun Jan 31 07:21:15 2010	Portland, OR 97201  	43.1	3	42	0.10	46	SSE 9	43	100	43
Sun Jan 31 07:21:25 2010	Chicago, IL 60601  	20.7	1	20	0.00	21	W 11	21	72	13
Sun Jan 31 07:21:28 2010	San Antonio, TX 78201  	32.6	1	33	0.00	33	NE 7	33	90	30
Sun Jan 31 07:21:30 2010	Indianapolis, IN 46201  	15.7	0	16	0.00	18	ENE 5	16	86	12
Sun Jan 31 07:21:33 2010	Boston, MA 02101  	13.3	6	13	0.00	14	NNW 15	4	55	0
Sun Jan 31 07:21:35 2010	Jacksonville, FL 32099  	48.0	20	48	0.00	48	NNE 25	41	76	41
Sun Jan 31 07:21:36 2010	Columbus, OH 43085  	12.5	0	13	N/A	13	ENE 4	13	N/A	--
Sun Jan 31 07:21:38 2010	Dallas, TX 75201  	32.0	0	32	0.00	32	E 7	32	89	29
Sun Jan 31 07:21:39 2010	Houston, TX 77001  	32.6	8	32	0.00	33	NE 15	26	83	28
Sun Jan 31 07:21:43 2010	Seattle, WA 98101  	45.4	1	43	0.17	47	SSW 9	45	98	45
Sun Jan 31 07:21:44 2010	Milwaukee, WI 53201  	16.6	2	17	0.00	17	SW 6	17	88	14
Sun Jan 31 07:21:47 2010	Detroit, MI 48201  	13.3	3	13	0.00	14	WSW 9	13	82	9
Sun Jan 31 07:21:48 2010	Philadelphia, PA 19019  	18.1	5	18	0.00	19	N 17	10	55	4
Sun Jan 31 08:07:53 2010	San Jose, CA 95101  	48.2	0	41	0.00	60	NW 10	48	93	46
Sun Jan 31 08:07:54 2010	Charlotte, NC 28201  	21.8	1	22	0.00	22	N 11	22	88	19
Sun Jan 31 08:07:58 2010	San Diego, CA 92101  	52.7	0	51	0.00	69	SE 15	53	91	50
Sun Jan 31 08:08:01 2010	Denver, CO 80214  	32.4	0	20	0.00	52	NW 16	32	54	17
Sun Jan 31 08:08:03 2010	Memphis, TN 37501  	22.1	0	22	0.00	23	NE 0	22	89	19
Sun Jan 31 08:08:09 2010	Los Angeles, CA 90001  	51.9	0	48	0.00	63	W 18	52	88	48
Sun Jan 31 08:08:14 2010	El Paso, TX 79901  	46.2	0	32	0.00	57	SSE 13	46	56	31
Sun Jan 31 08:08:15 2010	New York, NY 10001  	17.0	4	16	0.00	18	NW 14	11	51	2
Sun Jan 31 08:08:17 2010	Baltimore, MD 21201  	17.8	2	17	0.00	18	WNW 10	18	56	4
Sun Jan 31 08:08:19 2010	Las Vegas, NV 89101  	44.5	1	36	0.00	58	SE 9	44	69	35
Sun Jan 31 08:08:23 2010	Washington, DC 20001  	17.8	4	16	0.00	18	NNW 17	11	66	8
Sun Jan 31 08:08:26 2010	Austin, TX 73301  	30.9	9	30	0.00	46	NNE 22	23	92	29
Sun Jan 31 08:08:27 2010	San Francisco, CA 94101  	50.6	3	48	0.00	60	W 12	51	N/A	--
Sun Jan 31 08:08:30 2010	Oklahoma City, OK 73101  	23.0	0	23	0.00	23	NNE 6	23	93	21
Sun Jan 31 08:08:32 2010	Nashville, TN 37201  	23.1	1	23	0.00	23	NW 5	23	84	19
Sun Jan 31 08:08:33 2010	Fort Worth, TX 76101  	28.7	1	28	0.00	29	NE 12	29	100	29
Sun Jan 31 08:08:35 2010	Phoenix, AZ 85001  	56.0	4	50	0.00	66	E 14	56	50	38
Sun Jan 31 08:08:47 2010	Portland, OR 97201  	43.1	3	42	0.10	46	SSE 9	43	100	43
Sun Jan 31 08:08:48 2010	Chicago, IL 60601  	20.7	1	20	0.00	21	W 11	21	72	13
Sun Jan 31 08:08:57 2010	San Antonio, TX 78201  	32.6	1	33	0.00	33	NE 7	33	90	30
Sun Jan 31 08:09:00 2010	Indianapolis, IN 46201  	15.7	0	16	0.00	18	ENE 5	16	86	12
Sun Jan 31 08:09:01 2010	Boston, MA 02101  	13.3	6	13	0.00	14	NNW 15	4	55	0
Sun Jan 31 08:09:03 2010	Jacksonville, FL 32099  	48.0	20	48	0.00	48	NNE 25	41	76	41
Sun Jan 31 08:09:05 2010	Columbus, OH 43085  	12.5	0	13	N/A	13	ENE 4	13	N/A	--
Sun Jan 31 08:09:07 2010	Dallas, TX 75201  	32.0	0	32	0.00	32	E 7	32	89	29
Sun Jan 31 08:09:09 2010	Houston, TX 77001  	32.6	8	32	0.00	33	NE 15	26	83	28
Sun Jan 31 08:09:10 2010	Seattle, WA 98101  	45.4	1	43	0.17	47	SSW 9	45	98	45
Sun Jan 31 08:09:12 2010	Milwaukee, WI 53201  	16.6	2	17	0.00	17	SW 6	17	88	14
Sun Jan 31 08:09:13 2010	Detroit, MI 48201  	13.3	3	13	0.00	14	WSW 9	13	82	9
Sun Jan 31 08:09:15 2010	Philadelphia, PA 19019  	18.1	5	18	0.00	19	N 17	10	55	4
Sun Jan 31 08:51:55 2010	San Jose, CA 95101  	50.0	0	41	0.00	60	NW 10	50	89	47
Sun Jan 31 08:51:56 2010	Charlotte, NC 28201  	21.0	0	21	0.00	22	N 11	21	91	19
Sun Jan 31 08:51:58 2010	San Diego, CA 92101  	50.9	1	48	0.00	64	WNW 19	51	100	51
Sun Jan 31 08:52:00 2010	Denver, CO 80214  	31.4	0	31	0.00	32	WNW 0	31	55	17
Sun Jan 31 08:52:02 2010	Memphis, TN 37501  	21.9	7	22	0.00	22	NNE 7	14	80	17
Sun Jan 31 08:52:03 2010	Los Angeles, CA 90001  	50.7	0	48	0.00	63	W 18	51	92	48
Sun Jan 31 08:52:09 2010	El Paso, TX 79901  	45.4	4	45	0.00	46	ESE 7	43	61	33
Sun Jan 31 08:52:10 2010	New York, NY 10001  	16.7	1	16	0.00	18	NW 18	17	51	1
Sun Jan 31 08:52:11 2010	Baltimore, MD 21201  	16.8	5	17	0.00	18	NNW 11	9	57	4
Sun Jan 31 08:52:14 2010	Las Vegas, NV 89101  	42.6	1	36	0.00	58	SE 9	43	74	35
Sun Jan 31 08:52:15 2010	Washington, DC 20001  	17.8	4	16	0.00	18	NNW 17	11	66	8
Sun Jan 31 08:52:17 2010	Austin, TX 73301  	32.0	12	30	0.00	32	NNE 12	23	85	28
Sun Jan 31 08:52:18 2010	San Francisco, CA 94101  	50.6	0	48	0.00	60	W 12	51	N/A	--
Sun Jan 31 08:52:20 2010	Oklahoma City, OK 73101  	23.0	5	23	0.00	23	NNE 6	17	93	21
Sun Jan 31 08:52:22 2010	Nashville, TN 37201  	22.1	3	22	0.00	23	WSW 7	18	87	19
Sun Jan 31 08:52:23 2010	Fort Worth, TX 76101  	28.8	2	28	0.00	29	NE 12	29	100	29
Sun Jan 31 08:52:25 2010	Phoenix, AZ 85001  	54.4	1	54	0.00	55	E 5	54	55	39
Sun Jan 31 08:52:26 2010	Portland, OR 97201  	44.5	0	42	0.10	46	SSE 9	44	100	44
Sun Jan 31 08:52:28 2010	Chicago, IL 60601  	19.7	3	19	0.00	21	W 13	15	76	13
Sun Jan 31 08:52:31 2010	San Antonio, TX 78201  	30.0	3	30	0.00	33	NE 8	30	96	29
Sun Jan 31 08:52:32 2010	Indianapolis, IN 46201  	12.4	0	12	0.00	18	ENE 5	12	91	10
Sun Jan 31 08:52:34 2010	Boston, MA 02101  	13.1	5	13	0.00	14	NW 16	5	56	0
Sun Jan 31 08:52:36 2010	Jacksonville, FL 32099  	48.0	11	48	0.00	50	N 18	43	73	40
Sun Jan 31 08:52:38 2010	Columbus, OH 43085  	12.1	1	12	N/A	13	ENE 4	12	N/A	--
Sun Jan 31 08:52:40 2010	Dallas, TX 75201  	32.0	0	32	0.00	33	NNE 9	32	90	29
Sun Jan 31 08:52:41 2010	Houston, TX 77001  	32.1	9	32	0.00	33	NE 15	25	84	28
Sun Jan 31 08:52:43 2010	Seattle, WA 98101  	44.9	4	43	0.17	47	SSW 9	43	98	44
Sun Jan 31 08:52:45 2010	Milwaukee, WI 53201  	15.1	5	15	0.00	17	WSW 10	8	89	12
Sun Jan 31 08:52:47 2010	Detroit, MI 48201  	13.6	4	13	0.00	14	SW 10	7	81	9
Sun Jan 31 08:52:48 2010	Philadelphia, PA 19019  	18.2	4	18	0.00	19	N 17	13	56	5
Sun Jan 31 09:35:32 2010	Charlotte, NC 28201  	21.0	0	21	0.00	22	N 11	21	91	19
Sun Jan 31 09:35:32 2010	San Jose, CA 95101  	50.0	0	41	0.00	60	NW 10	50	89	47
Sun Jan 31 09:35:33 2010	Denver, CO 80214  	31.4	0	31	0.00	32	WNW 0	31	55	17
Sun Jan 31 09:35:33 2010	San Diego, CA 92101  	50.9	1	48	0.00	64	WNW 19	51	100	51
Sun Jan 31 09:35:34 2010	Memphis, TN 37501  	21.9	7	22	0.00	22	NNE 7	14	80	17
Sun Jan 31 09:35:35 2010	El Paso, TX 79901  	45.4	4	45	0.00	46	ESE 7	43	61	33
Sun Jan 31 09:35:35 2010	Los Angeles, CA 90001  	50.7	0	48	0.00	63	W 18	51	92	48
Sun Jan 31 09:35:36 2010	Baltimore, MD 21201  	16.8	5	17	0.00	18	NNW 11	9	57	4
Sun Jan 31 09:35:36 2010	New York, NY 10001  	16.7	1	16	0.00	18	NW 18	17	51	1
Sun Jan 31 09:35:37 2010	Las Vegas, NV 89101  	42.6	1	36	0.00	58	SE 9	43	74	35
Sun Jan 31 09:35:39 2010	Austin, TX 73301  	32.0	12	30	0.00	32	NNE 12	23	85	28
Sun Jan 31 09:35:39 2010	Washington, DC 20001  	17.5	3	16	0.00	18	NNW 22	13	64	7
Sun Jan 31 09:35:40 2010	San Francisco, CA 94101  	50.6	0	48	0.00	60	W 12	51	N/A	--
Sun Jan 31 09:35:41 2010	Oklahoma City, OK 73101  	23.0	5	23	0.00	23	NNE 6	17	93	21
Sun Jan 31 09:35:41 2010	Nashville, TN 37201  	22.1	3	22	0.00	23	WSW 7	18	87	19
Sun Jan 31 09:35:42 2010	Phoenix, AZ 85001  	54.4	1	54	0.00	55	E 5	54	55	39
Sun Jan 31 09:35:42 2010	Fort Worth, TX 76101  	28.8	2	28	0.00	29	NE 12	29	100	29
Sun Jan 31 09:35:43 2010	Portland, OR 97201  	44.5	0	42	0.10	46	SSE 9	44	100	44
Sun Jan 31 09:35:44 2010	San Antonio, TX 78201  	30.0	3	30	0.00	33	NE 8	30	96	29
Sun Jan 31 09:35:44 2010	Chicago, IL 60601  	19.7	3	19	0.00	21	W 13	15	76	13
Sun Jan 31 09:35:45 2010	Indianapolis, IN 46201  	12.4	0	12	0.00	18	ENE 5	12	91	10
Sun Jan 31 09:35:45 2010	Boston, MA 02101  	13.1	5	13	0.00	14	NW 16	5	56	0
Sun Jan 31 09:35:46 2010	Jacksonville, FL 32099  	48.0	11	48	0.00	50	N 18	43	73	40
Sun Jan 31 09:35:47 2010	Columbus, OH 43085  	12.1	1	12	N/A	13	ENE 4	12	N/A	--
Sun Jan 31 09:35:47 2010	Dallas, TX 75201  	32.0	0	32	0.00	33	NNE 9	32	90	29
Sun Jan 31 09:35:48 2010	Houston, TX 77001  	32.1	9	32	0.00	33	NE 15	25	84	28
Sun Jan 31 09:35:49 2010	Seattle, WA 98101  	44.9	4	43	0.17	47	SSW 9	43	98	44
Sun Jan 31 09:35:49 2010	Milwaukee, WI 53201  	15.1	5	15	0.00	17	WSW 10	8	89	12
Sun Jan 31 09:35:50 2010	Philadelphia, PA 19019  	18.2	4	18	0.00	19	N 17	13	56	5
Sun Jan 31 09:35:50 2010	Detroit, MI 48201  	13.6	4	13	0.00	14	SW 10	7	81	9
Sun Jan 31 10:18:51 2010	San Jose, CA 95101  	50.0	0	50	0.00	50	NNE 0	50	86	46
Sun Jan 31 10:18:53 2010	Charlotte, NC 28201  	20.1	0	20	0.00	22	N 11	20	95	19
Sun Jan 31 10:18:55 2010	San Diego, CA 92101  	50.3	2	50	0.00	51	NNE 4	50	100	50
Sun Jan 31 10:18:56 2010	Denver, CO 80214  	30.9	2	31	0.00	33	NNE 4	31	59	18
Sun Jan 31 10:18:57 2010	Memphis, TN 37501  	19.9	0	20	0.00	22	NNE 7	20	83	16
Sun Jan 31 10:18:59 2010	Los Angeles, CA 90001  	49.7	1	50	0.00	51	E 3	50	93	48
Sun Jan 31 10:19:02 2010	El Paso, TX 79901  	42.6	5	42	0.00	46	ESE 9	40	71	34
Sun Jan 31 10:19:04 2010	New York, NY 10001  	15.9	4	16	0.00	18	NW 18	10	51	1
Sun Jan 31 10:19:05 2010	Baltimore, MD 21201  	15.3	5	15	0.00	18	NNW 13	8	59	3
Sun Jan 31 10:19:06 2010	Las Vegas, NV 89101  	42.1	0	42	0.00	44	NW 4	42	72	34
Sun Jan 31 10:19:07 2010	Washington, DC 20001  	17.5	3	16	0.00	18	NNW 22	13	64	7
Sun Jan 31 10:19:09 2010	Austin, TX 73301  	32.0	9	30	0.00	32	NNE 12	24	88	29
Sun Jan 31 10:19:10 2010	San Francisco, CA 94101  	50.1	1	50	0.00	51	ESE 2	50	N/A	--
Sun Jan 31 10:19:11 2010	Oklahoma City, OK 73101  	23.0	6	23	0.00	23	S 7	16	93	21
Sun Jan 31 10:19:13 2010	Nashville, TN 37201  	21.4	0	21	0.00	23	WSW 7	21	89	19
Sun Jan 31 10:19:15 2010	Fort Worth, TX 76101  	30.0	1	28	0.00	30	NE 12	30	99	30
Sun Jan 31 10:19:16 2010	Phoenix, AZ 85001  	52.1	1	52	0.00	55	SE 6	52	61	39
Sun Jan 31 10:19:17 2010	Portland, OR 97201  	44.4	0	44	0.01	45	WSW 4	44	100	44
Sun Jan 31 10:19:21 2010	Chicago, IL 60601  	19.5	2	19	0.00	21	W 13	19	75	13
Sun Jan 31 10:19:25 2010	San Antonio, TX 78201  	28.7	4	29	0.00	33	NE 9	25	100	29
Sun Jan 31 10:19:27 2010	Indianapolis, IN 46201  	11.0	0	11	0.00	18	ENE 5	11	97	10
Sun Jan 31 10:19:28 2010	Boston, MA 02101  	12.6	8	12	0.00	14	NW 16	1	52	-2
Sun Jan 31 10:19:30 2010	Jacksonville, FL 32099  	46.0	14	46	0.00	50	NNW 21	40	72	38
Sun Jan 31 10:19:32 2010	Columbus, OH 43085  	9.8	0	10	N/A	13	ENE 4	10	N/A	--
Sun Jan 31 10:19:35 2010	Dallas, TX 75201  	33.2	0	32	0.00	33	NNE 9	33	88	30
Sun Jan 31 10:19:36 2010	Houston, TX 77001  	31.4	5	31	0.00	33	NNE 16	27	86	28
Sun Jan 31 10:19:38 2010	Seattle, WA 98101  	45.6	2	45	0.00	46	SW 6	46	97	45
Sun Jan 31 10:19:40 2010	Milwaukee, WI 53201  	14.1	3	14	0.00	17	WSW 11	14	84	10
Sun Jan 31 10:19:42 2010	Detroit, MI 48201  	12.5	4	12	0.00	14	SW 11	5	82	8
Sun Jan 31 10:19:43 2010	Philadelphia, PA 19019  	17.1	4	17	0.00	19	N 17	11	57	4
Sun Jan 31 11:02:35 2010	San Jose, CA 95101  	50.0	0	50	0.00	50	NNE 0	50	86	46
Sun Jan 31 11:02:36 2010	Charlotte, NC 28201  	20.1	0	20	0.00	22	N 11	20	95	19
Sun Jan 31 11:02:36 2010	San Diego, CA 92101  	50.3	2	50	0.00	51	NNE 4	50	100	50
Sun Jan 31 11:02:37 2010	Denver, CO 80214  	30.9	2	31	0.00	33	NNE 4	31	59	18
Sun Jan 31 11:02:38 2010	Memphis, TN 37501  	19.9	0	20	0.00	22	NNE 7	20	83	16
Sun Jan 31 11:02:39 2010	Los Angeles, CA 90001  	49.7	1	50	0.00	51	E 3	50	93	48
Sun Jan 31 11:02:39 2010	El Paso, TX 79901  	42.6	5	42	0.00	46	ESE 9	40	71	34
Sun Jan 31 11:02:41 2010	Baltimore, MD 21201  	15.3	5	15	0.00	18	NNW 13	8	59	3
Sun Jan 31 11:02:41 2010	New York, NY 10001  	15.9	4	16	0.00	18	NW 18	10	51	1
Sun Jan 31 11:02:42 2010	Las Vegas, NV 89101  	42.1	0	42	0.00	44	NW 4	42	72	34
Sun Jan 31 11:02:43 2010	Washington, DC 20001  	17.5	3	16	0.00	18	NNW 22	13	64	7
Sun Jan 31 11:02:44 2010	San Francisco, CA 94101  	50.1	1	50	0.00	51	ESE 2	50	N/A	--
Sun Jan 31 11:02:44 2010	Austin, TX 73301  	32.0	9	30	0.00	32	NNE 12	24	88	29
Sun Jan 31 11:02:45 2010	Oklahoma City, OK 73101  	23.0	6	23	0.00	23	S 7	16	93	21
Sun Jan 31 11:02:46 2010	Fort Worth, TX 76101  	30.0	1	28	0.00	30	NE 12	30	99	30
Sun Jan 31 11:02:46 2010	Nashville, TN 37201  	21.4	0	21	0.00	23	WSW 7	21	89	19
Sun Jan 31 11:02:47 2010	Phoenix, AZ 85001  	52.1	1	52	0.00	55	SE 6	52	61	39
Sun Jan 31 11:02:47 2010	Portland, OR 97201  	44.4	0	44	0.01	45	WSW 4	44	100	44
Sun Jan 31 11:02:48 2010	Chicago, IL 60601  	19.5	2	19	0.00	21	W 13	19	75	13
Sun Jan 31 11:02:49 2010	Indianapolis, IN 46201  	11.0	0	11	0.00	18	ENE 5	11	97	10
Sun Jan 31 11:02:49 2010	San Antonio, TX 78201  	28.7	4	29	0.00	33	NE 9	25	100	29
Sun Jan 31 11:02:50 2010	Boston, MA 02101  	12.6	8	12	0.00	14	NW 16	1	52	-2
Sun Jan 31 11:02:51 2010	Jacksonville, FL 32099  	46.0	14	46	0.00	50	NNW 21	40	72	38
Sun Jan 31 11:02:52 2010	Columbus, OH 43085  	9.8	0	10	N/A	13	ENE 4	10	N/A	--
Sun Jan 31 11:02:52 2010	Dallas, TX 75201  	33.2	0	32	0.00	33	NNE 9	33	88	30
Sun Jan 31 11:02:53 2010	Houston, TX 77001  	31.4	5	31	0.00	33	NNE 16	27	86	28
Sun Jan 31 11:02:54 2010	Seattle, WA 98101  	45.6	2	45	0.00	46	SW 6	46	97	45
Sun Jan 31 11:02:55 2010	Milwaukee, WI 53201  	14.1	3	14	0.00	17	WSW 11	14	84	10
Sun Jan 31 11:02:56 2010	Philadelphia, PA 19019  	17.1	4	17	0.00	19	N 17	11	57	4
Sun Jan 31 11:02:56 2010	Detroit, MI 48201  	12.5	4	12	0.00	14	SW 11	5	82	8
Sun Jan 31 11:46:03 2010	San Jose, CA 95101  	50.0	3	50	0.00	50	S 3	49	86	46
Sun Jan 31 11:46:05 2010	Charlotte, NC 28201  	18.0	0	18	0.00	22	N 11	18	100	18
Sun Jan 31 11:46:06 2010	San Diego, CA 92101  	51.0	4	50	0.00	51	ENE 7	50	99	51
Sun Jan 31 11:46:08 2010	Denver, CO 80214  	30.0	2	30	0.00	33	NW 6	30	61	18
Sun Jan 31 11:46:10 2010	Memphis, TN 37501  	21.0	0	20	0.00	22	NNE 7	21	80	16
Sun Jan 31 11:46:12 2010	Los Angeles, CA 90001  	51.4	0	49	0.00	51	E 4	51	92	49
Sun Jan 31 11:46:13 2010	El Paso, TX 79901  	42.8	2	42	0.00	46	ESE 9	43	70	33
Sun Jan 31 11:46:15 2010	New York, NY 10001  	14.8	3	15	0.00	18	NW 18	9	53	0
Sun Jan 31 11:46:17 2010	Baltimore, MD 21201  	14.5	3	14	0.00	18	NNW 13	14	57	2
Sun Jan 31 11:46:19 2010	Washington, DC 20001  	17.5	3	16	0.00	18	NNW 22	13	64	7
Sun Jan 31 11:46:19 2010	Las Vegas, NV 89101  	38.4	0	38	0.00	44	NW 4	38	82	33
Sun Jan 31 11:46:21 2010	Austin, TX 73301  	32.0	8	30	0.00	32	NNE 12	25	88	29
Sun Jan 31 11:46:22 2010	San Francisco, CA 94101  	49.0	2	49	0.00	51	ESE 4	49	N/A	--
Sun Jan 31 11:46:23 2010	Oklahoma City, OK 73101  	21.9	3	21	0.00	23	S 7	17	95	21
Sun Jan 31 11:46:25 2010	Nashville, TN 37201  	20.2	0	20	0.00	23	WSW 7	20	93	19
Sun Jan 31 11:46:27 2010	Fort Worth, TX 76101  	29.8	3	28	0.00	30	NE 12	30	100	30
Sun Jan 31 11:46:28 2010	Phoenix, AZ 85001  	50.1	0	50	0.00	55	SE 6	50	65	39
Sun Jan 31 11:46:30 2010	Portland, OR 97201  	44.1	0	44	0.02	45	WSW 4	44	100	44
Sun Jan 31 11:46:31 2010	Chicago, IL 60601  	18.0	9	18	0.00	21	W 13	7	78	12
Sun Jan 31 11:46:33 2010	San Antonio, TX 78201  	28.2	4	28	0.00	33	NE 10	24	100	28
Sun Jan 31 11:46:35 2010	Indianapolis, IN 46201  	11.3	0	10	0.00	18	ENE 5	11	98	11
Sun Jan 31 11:46:36 2010	Boston, MA 02101  	11.7	9	12	0.00	14	NW 16	-1	45	-6
Sun Jan 31 11:46:37 2010	Jacksonville, FL 32099  	44.1	16	44	0.00	50	NNW 21	37	71	35
Sun Jan 31 11:46:39 2010	Columbus, OH 43085  	8.6	0	9	N/A	13	ENE 4	9	N/A	--
Sun Jan 31 11:46:41 2010	Dallas, TX 75201  	32.2	2	32	0.00	33	NNE 9	32	91	30
Sun Jan 31 11:46:43 2010	Houston, TX 77001  	31.6	6	31	0.00	33	NNE 16	26	86	28
Sun Jan 31 11:46:45 2010	Seattle, WA 98101  	44.8	3	45	0.03	46	SSW 6	44	99	45
Sun Jan 31 11:46:46 2010	Milwaukee, WI 53201  	13.1	5	13	0.00	17	WNW 12	4	82	9
Sun Jan 31 11:46:48 2010	Detroit, MI 48201  	12.2	2	12	0.00	14	SW 11	12	82	8
Sun Jan 31 11:46:49 2010	Philadelphia, PA 19019  	16.1	7	16	0.00	19	N 17	6	55	3
Sun Jan 31 12:29:18 2010	San Jose, CA 95101  	50.0	3	50	0.00	50	S 3	49	86	46
Sun Jan 31 12:29:19 2010	Charlotte, NC 28201  	18.0	0	18	0.00	22	N 11	18	100	18
Sun Jan 31 12:29:20 2010	San Diego, CA 92101  	51.0	4	50	0.00	51	ENE 7	50	99	51
Sun Jan 31 12:29:20 2010	Denver, CO 80214  	30.0	2	30	0.00	33	NW 6	30	61	18
Sun Jan 31 12:29:21 2010	Memphis, TN 37501  	21.0	0	20	0.00	22	NNE 7	21	80	16
Sun Jan 31 12:29:22 2010	Los Angeles, CA 90001  	51.4	0	49	0.00	51	E 4	51	92	49
Sun Jan 31 12:29:22 2010	El Paso, TX 79901  	42.8	2	42	0.00	46	ESE 9	43	70	33
Sun Jan 31 12:29:23 2010	Baltimore, MD 21201  	14.5	3	14	0.00	18	NNW 13	14	57	2
Sun Jan 31 12:29:23 2010	New York, NY 10001  	14.8	3	15	0.00	18	NW 18	9	53	0
Sun Jan 31 12:29:24 2010	Las Vegas, NV 89101  	38.4	0	38	0.00	44	NW 4	38	82	33
Sun Jan 31 12:29:26 2010	Washington, DC 20001  	17.5	7	18	0.00	20	NNW 17	8	57	5
Sun Jan 31 12:29:27 2010	San Francisco, CA 94101  	49.0	2	49	0.00	51	ESE 4	49	N/A	--
Sun Jan 31 12:29:27 2010	Austin, TX 73301  	32.0	8	30	0.00	32	NNE 12	25	88	29
Sun Jan 31 12:29:28 2010	Oklahoma City, OK 73101  	21.9	3	21	0.00	23	S 7	17	95	21
Sun Jan 31 12:29:28 2010	Nashville, TN 37201  	20.2	0	20	0.00	23	WSW 7	20	93	19
Sun Jan 31 12:29:29 2010	Fort Worth, TX 76101  	29.8	3	28	0.00	30	NE 12	30	100	30
Sun Jan 31 12:29:30 2010	Phoenix, AZ 85001  	50.1	0	50	0.00	55	SE 6	50	65	39
Sun Jan 31 12:29:30 2010	Portland, OR 97201  	44.1	0	44	0.02	45	WSW 4	44	100	44
Sun Jan 31 12:29:31 2010	San Antonio, TX 78201  	28.2	4	28	0.00	33	NE 10	24	100	28
Sun Jan 31 12:29:31 2010	Chicago, IL 60601  	18.0	9	18	0.00	21	W 13	7	78	12
Sun Jan 31 12:29:32 2010	Indianapolis, IN 46201  	11.3	0	10	0.00	18	ENE 5	11	98	11
Sun Jan 31 12:29:33 2010	Jacksonville, FL 32099  	44.1	16	44	0.00	50	NNW 21	37	71	35
Sun Jan 31 12:29:33 2010	Boston, MA 02101  	11.7	9	12	0.00	14	NW 16	-1	45	-6
Sun Jan 31 12:29:34 2010	Columbus, OH 43085  	8.6	0	9	N/A	13	ENE 4	9	N/A	--
Sun Jan 31 12:29:35 2010	Houston, TX 77001  	31.6	6	31	0.00	33	NNE 16	26	86	28
Sun Jan 31 12:29:35 2010	Dallas, TX 75201  	32.2	2	32	0.00	33	NNE 9	32	91	30
Sun Jan 31 12:29:37 2010	Seattle, WA 98101  	44.8	3	45	0.03	46	SSW 6	44	99	45
Sun Jan 31 12:29:37 2010	Milwaukee, WI 53201  	13.1	5	13	0.00	17	WNW 12	4	82	9
Sun Jan 31 12:29:38 2010	Detroit, MI 48201  	12.2	2	12	0.00	14	SW 11	12	82	8
Sun Jan 31 12:29:39 2010	Philadelphia, PA 19019  	16.1	7	16	0.00	19	N 17	6	55	3
Sun Jan 31 13:12:49 2010	San Jose, CA 95101  	50.0	3	50	0.00	50	S 3	49	83	45
Sun Jan 31 13:12:53 2010	Charlotte, NC 28201  	17.9	0	18	0.00	22	N 11	18	100	18
Sun Jan 31 13:12:58 2010	San Diego, CA 92101  	51.6	0	50	0.00	52	ENE 7	52	96	50
Sun Jan 31 13:13:06 2010	Denver, CO 80214  	27.8	0	28	0.00	33	NW 6	28	68	18
Sun Jan 31 13:13:10 2010	Memphis, TN 37501  	19.9	0	20	0.00	22	NNE 7	20	83	16
Sun Jan 31 13:13:14 2010	Los Angeles, CA 90001  	50.7	0	49	0.00	52	NE 5	51	95	50
Sun Jan 31 13:13:17 2010	El Paso, TX 79901  	43.2	5	42	0.00	46	SE 9	40	70	34
Sun Jan 31 13:13:20 2010	New York, NY 10001  	13.7	2	14	0.00	18	NW 18	14	54	0
Sun Jan 31 13:13:22 2010	Baltimore, MD 21201  	14.3	4	14	0.00	18	NNW 13	7	56	1
Sun Jan 31 13:13:23 2010	Las Vegas, NV 89101  	37.3	0	37	0.00	44	NW 4	37	86	33
Sun Jan 31 13:13:24 2010	Washington, DC 20001  	17.5	7	18	0.00	20	NNW 17	8	57	5
Sun Jan 31 13:13:25 2010	Austin, TX 73301  	30.9	11	30	0.00	32	NNE 12	22	92	29
Sun Jan 31 13:13:27 2010	San Francisco, CA 94101  	49.9	0	49	0.00	51	ESE 5	50	N/A	--
Sun Jan 31 13:13:28 2010	Oklahoma City, OK 73101  	19.4	7	19	0.00	23	S 7	10	93	18
Sun Jan 31 13:13:30 2010	Nashville, TN 37201  	18.8	0	19	0.00	23	WSW 7	19	94	17
Sun Jan 31 13:13:31 2010	Fort Worth, TX 76101  	29.6	1	28	0.00	30	NE 12	30	100	30
Sun Jan 31 13:13:32 2010	Phoenix, AZ 85001  	50.1	1	50	0.00	55	SE 6	50	65	39
Sun Jan 31 13:13:34 2010	Portland, OR 97201  	43.1	1	43	0.02	45	WNW 5	43	100	43
Sun Jan 31 13:13:35 2010	Chicago, IL 60601  	16.8	5	17	0.00	21	W 18	9	76	10
Sun Jan 31 13:13:36 2010	San Antonio, TX 78201  	28.7	3	28	0.00	33	NE 11	25	100	29
Sun Jan 31 13:13:38 2010	Indianapolis, IN 46201  	10.6	0	10	0.00	18	ENE 5	11	99	10
Sun Jan 31 13:13:41 2010	Boston, MA 02101  	11.0	5	11	0.00	14	NW 16	3	49	-5
Sun Jan 31 13:13:42 2010	Jacksonville, FL 32099  	42.1	17	42	0.00	50	NNW 21	34	71	33
Sun Jan 31 13:13:44 2010	Columbus, OH 43085  	7.5	0	7	N/A	13	ENE 4	8	N/A	--
Sun Jan 31 13:13:46 2010	Dallas, TX 75201  	31.8	2	31	0.00	33	NNE 9	32	92	30
Sun Jan 31 13:13:48 2010	Houston, TX 77001  	32.1	6	31	0.00	33	NNE 16	26	86	28
Sun Jan 31 13:13:50 2010	Seattle, WA 98101  	45.2	3	44	0.05	46	SSW 6	45	99	45
Sun Jan 31 13:13:51 2010	Milwaukee, WI 53201  	12.1	7	12	0.00	17	W 13	1	80	7
Sun Jan 31 13:13:53 2010	Detroit, MI 48201  	12.3	2	12	0.00	14	SW 11	12	83	8
Sun Jan 31 13:13:55 2010	Philadelphia, PA 19019  	15.1	5	15	0.00	19	N 17	7	59	3
Sun Jan 31 13:56:17 2010	Charlotte, NC 28201  	17.9	0	18	0.00	22	N 11	18	100	18
Sun Jan 31 13:56:17 2010	San Jose, CA 95101  	50.0	3	50	0.00	50	S 3	49	83	45
Sun Jan 31 13:56:19 2010	San Diego, CA 92101  	51.6	0	50	0.00	52	ENE 7	52	96	50
Sun Jan 31 13:56:19 2010	Denver, CO 80214  	27.8	0	28	0.00	33	NW 6	28	68	18
Sun Jan 31 13:56:20 2010	Memphis, TN 37501  	19.9	0	20	0.00	22	NNE 7	20	83	16
Sun Jan 31 13:56:21 2010	Los Angeles, CA 90001  	50.7	0	49	0.00	52	NE 5	51	95	50
Sun Jan 31 13:56:21 2010	El Paso, TX 79901  	43.2	5	42	0.00	46	SE 9	40	70	34
Sun Jan 31 13:56:22 2010	New York, NY 10001  	13.7	2	14	0.00	18	NW 18	14	54	0
Sun Jan 31 13:56:23 2010	Baltimore, MD 21201  	14.3	4	14	0.00	18	NNW 13	7	56	1
Sun Jan 31 13:56:23 2010	Las Vegas, NV 89101  	37.3	0	37	0.00	44	NW 4	37	86	33
Sun Jan 31 13:56:27 2010	Washington, DC 20001  	16.4	1	16	0.00	19	NNW 20	16	61	5
Sun Jan 31 13:56:28 2010	San Francisco, CA 94101  	49.9	0	49	0.00	51	ESE 5	50	N/A	--
Sun Jan 31 13:56:28 2010	Austin, TX 73301  	30.9	11	30	0.00	32	NNE 12	22	92	29
Sun Jan 31 13:56:29 2010	Oklahoma City, OK 73101  	19.4	7	19	0.00	23	S 7	10	93	18
Sun Jan 31 13:56:30 2010	Fort Worth, TX 76101  	29.6	1	28	0.00	30	NE 12	30	100	30
Sun Jan 31 13:56:30 2010	Nashville, TN 37201  	18.8	0	19	0.00	23	WSW 7	19	94	17
Sun Jan 31 13:56:31 2010	Phoenix, AZ 85001  	50.1	1	50	0.00	55	SE 6	50	65	39
Sun Jan 31 13:56:32 2010	Chicago, IL 60601  	16.8	5	17	0.00	21	W 18	9	76	10
Sun Jan 31 13:56:32 2010	Portland, OR 97201  	43.1	1	43	0.02	45	WNW 5	43	100	43
Sun Jan 31 13:56:33 2010	San Antonio, TX 78201  	28.7	3	28	0.00	33	NE 11	25	100	29
Sun Jan 31 13:56:34 2010	Indianapolis, IN 46201  	10.6	0	10	0.00	18	ENE 5	11	99	10
Sun Jan 31 13:56:35 2010	Boston, MA 02101  	11.0	5	11	0.00	14	NW 16	3	49	-5
Sun Jan 31 13:56:36 2010	Columbus, OH 43085  	7.5	0	7	N/A	13	ENE 4	8	N/A	--
Sun Jan 31 13:56:36 2010	Jacksonville, FL 32099  	42.1	17	42	0.00	50	NNW 21	34	71	33
Sun Jan 31 13:56:37 2010	Dallas, TX 75201  	31.8	2	31	0.00	33	NNE 9	32	92	30
Sun Jan 31 13:56:38 2010	Houston, TX 77001  	32.1	6	31	0.00	33	NNE 16	26	86	28
Sun Jan 31 13:56:39 2010	Seattle, WA 98101  	45.2	3	44	0.05	46	SSW 6	45	99	45
Sun Jan 31 13:56:39 2010	Milwaukee, WI 53201  	12.1	7	12	0.00	17	W 13	1	80	7
Sun Jan 31 13:56:40 2010	Detroit, MI 48201  	12.3	2	12	0.00	14	SW 11	12	83	8
Sun Jan 31 13:56:41 2010	Philadelphia, PA 19019  	15.1	5	15	0.00	19	N 17	7	59	3
Sun Jan 31 14:39:20 2010	San Jose, CA 95101  	50.0	0	50	0.00	50	S 3	50	83	45
Sun Jan 31 14:39:22 2010	Charlotte, NC 28201  	20.7	0	18	0.00	22	N 11	21	100	21
Sun Jan 31 14:39:23 2010	San Diego, CA 92101  	49.0	7	49	0.00	52	ENE 7	46	100	49
Sun Jan 31 14:39:25 2010	Denver, CO 80214  	26.4	0	26	0.00	33	NW 6	26	71	18
Sun Jan 31 14:39:27 2010	Memphis, TN 37501  	19.9	0	20	0.00	22	NNE 7	20	83	16
Sun Jan 31 14:39:28 2010	Los Angeles, CA 90001  	49.4	0	49	0.00	52	NE 5	49	96	48
Sun Jan 31 14:39:30 2010	El Paso, TX 79901  	43.1	3	42	0.00	46	ESE 10	42	71	34
Sun Jan 31 14:39:31 2010	New York, NY 10001  	14.3	5	13	0.00	18	NW 18	6	57	2
Sun Jan 31 14:39:34 2010	Baltimore, MD 21201  	15.4	7	14	0.00	18	NNW 13	6	48	-1
Sun Jan 31 14:39:35 2010	Las Vegas, NV 89101  	36.6	1	36	0.00	44	NW 4	37	86	33
Sun Jan 31 14:39:37 2010	Washington, DC 20001  	15.9	11	14	0.00	17	NW 20	3	57	3
Sun Jan 31 14:39:39 2010	Austin, TX 73301  	30.9	6	30	0.00	32	NNE 12	25	92	29
Sun Jan 31 14:39:43 2010	San Francisco, CA 94101  	49.9	4	49	0.00	51	E 6	49	N/A	--
Sun Jan 31 14:39:46 2010	Oklahoma City, OK 73101  	21.2	10	19	0.00	23	S 11	10	93	19
Sun Jan 31 14:39:49 2010	Nashville, TN 37201  	19.1	0	18	0.00	23	WSW 7	19	96	18
Sun Jan 31 14:39:52 2010	Fort Worth, TX 76101  	29.5	4	28	0.00	30	NE 12	26	100	30
Sun Jan 31 14:39:55 2010	Phoenix, AZ 85001  	46.6	1	47	0.00	55	SE 6	47	75	39
Sun Jan 31 14:39:59 2010	Portland, OR 97201  	43.9	0	43	0.02	45	WNW 5	44	100	44
Sun Jan 31 14:40:02 2010	Chicago, IL 60601  	15.4	9	15	0.00	21	W 18	4	77	10
Sun Jan 31 14:40:05 2010	San Antonio, TX 78201  	27.8	8	28	0.00	33	NE 13	20	100	28
Sun Jan 31 14:40:07 2010	Indianapolis, IN 46201  	12.3	0	10	0.00	18	ENE 5	12	99	12
Sun Jan 31 14:40:10 2010	Boston, MA 02101  	12.1	4	11	0.00	14	NW 16	5	46	-5
Sun Jan 31 14:40:14 2010	Jacksonville, FL 32099  	41.0	17	41	0.00	50	NNW 21	33	73	33
Sun Jan 31 14:40:16 2010	Columbus, OH 43085  	13.0	0	7	N/A	13	ENE 4	13	N/A	--
Sun Jan 31 14:40:18 2010	Dallas, TX 75201  	32.0	1	31	0.00	33	SE 10	32	92	30
Sun Jan 31 14:40:21 2010	Houston, TX 77001  	32.8	4	31	0.00	33	NNE 16	29	85	29
Sun Jan 31 14:40:22 2010	Seattle, WA 98101  	45.2	1	44	0.06	46	SSW 6	45	99	45
Sun Jan 31 14:40:25 2010	Milwaukee, WI 53201  	11.6	8	11	0.00	17	W 13	0	79	6
Sun Jan 31 14:40:26 2010	Detroit, MI 48201  	14.3	4	12	0.00	14	SSW 12	8	76	8
Sun Jan 31 14:40:28 2010	Philadelphia, PA 19019  	15.9	3	15	0.00	19	N 17	16	52	1
Sun Jan 31 15:23:48 2010	San Jose, CA 95101  	50.0	0	50	0.00	50	S 3	50	83	45
Sun Jan 31 15:23:49 2010	San Diego, CA 92101  	49.0	7	49	0.00	52	ENE 7	46	100	49
Sun Jan 31 15:23:49 2010	Charlotte, NC 28201  	20.7	0	18	0.00	22	N 11	21	100	21
Sun Jan 31 15:23:50 2010	Denver, CO 80214  	26.4	0	26	0.00	33	NW 6	26	71	18
Sun Jan 31 15:23:51 2010	Los Angeles, CA 90001  	49.4	0	49	0.00	52	NE 5	49	96	48
Sun Jan 31 15:23:51 2010	Memphis, TN 37501  	19.9	0	20	0.00	22	NNE 7	20	83	16
Sun Jan 31 15:23:52 2010	El Paso, TX 79901  	43.1	3	42	0.00	46	ESE 10	42	71	34
Sun Jan 31 15:23:53 2010	Baltimore, MD 21201  	15.4	7	14	0.00	18	NNW 13	6	48	-1
Sun Jan 31 15:23:53 2010	New York, NY 10001  	14.3	5	13	0.00	18	NW 18	6	57	2
Sun Jan 31 15:23:54 2010	Washington, DC 20001  	15.9	11	14	0.00	17	NW 20	3	57	3
Sun Jan 31 15:23:54 2010	Las Vegas, NV 89101  	36.6	1	36	0.00	44	NW 4	37	86	33
Sun Jan 31 15:23:55 2010	Austin, TX 73301  	30.9	6	30	0.00	32	NNE 12	25	92	29
Sun Jan 31 15:23:56 2010	San Francisco, CA 94101  	49.9	4	49	0.00	51	E 6	49	N/A	--
Sun Jan 31 15:23:57 2010	Oklahoma City, OK 73101  	21.2	10	19	0.00	23	S 11	10	93	19
Sun Jan 31 15:23:57 2010	Nashville, TN 37201  	19.1	0	18	0.00	23	WSW 7	19	96	18
Sun Jan 31 15:23:58 2010	Fort Worth, TX 76101  	29.5	4	28	0.00	30	NE 12	26	100	30
Sun Jan 31 15:23:59 2010	Phoenix, AZ 85001  	46.6	1	47	0.00	55	SE 6	47	75	39
Sun Jan 31 15:24:00 2010	Chicago, IL 60601  	15.4	9	15	0.00	21	W 18	4	77	10
Sun Jan 31 15:24:00 2010	Portland, OR 97201  	43.9	0	43	0.02	45	WNW 5	44	100	44
Sun Jan 31 15:24:01 2010	San Antonio, TX 78201  	27.8	8	28	0.00	33	NE 13	20	100	28
Sun Jan 31 15:24:02 2010	Indianapolis, IN 46201  	12.3	0	10	0.00	18	ENE 5	12	99	12
Sun Jan 31 15:24:02 2010	Boston, MA 02101  	12.1	4	11	0.00	14	NW 16	5	46	-5
Sun Jan 31 15:24:03 2010	Columbus, OH 43085  	13.0	0	7	N/A	13	ENE 4	13	N/A	--
Sun Jan 31 15:24:03 2010	Jacksonville, FL 32099  	41.0	17	41	0.00	50	NNW 21	33	73	33
Sun Jan 31 15:24:04 2010	Dallas, TX 75201  	32.0	1	31	0.00	33	SE 10	32	92	30
Sun Jan 31 15:24:05 2010	Houston, TX 77001  	32.8	4	31	0.00	33	NNE 16	29	85	29
Sun Jan 31 15:24:05 2010	Seattle, WA 98101  	45.2	1	44	0.06	46	SSW 6	45	99	45
Sun Jan 31 15:24:06 2010	Detroit, MI 48201  	14.3	4	12	0.00	14	SSW 12	8	76	8
Sun Jan 31 15:24:06 2010	Milwaukee, WI 53201  	11.6	8	11	0.00	17	W 13	0	79	6
Sun Jan 31 15:24:07 2010	Philadelphia, PA 19019  	15.9	3	15	0.00	19	N 17	16	52	1
Sun Jan 31 16:11:01 2010	San Jose, CA 95101  	50.0	3	49	0.00	50	S 3	49	80	44
Sun Jan 31 16:11:05 2010	Charlotte, NC 28201  	29.9	3	18	0.00	30	N 11	30	76	23
Sun Jan 31 16:11:11 2010	San Diego, CA 92101  	49.4	2	49	0.00	52	NE 9	49	99	49
Sun Jan 31 16:11:15 2010	Denver, CO 80214  	27.7	0	26	0.00	33	NW 6	28	68	19
Sun Jan 31 16:11:20 2010	Memphis, TN 37501  	25.0	0	20	0.00	25	NNE 7	25	85	21
Sun Jan 31 16:11:24 2010	Los Angeles, CA 90001  	48.3	0	48	0.00	52	NE 5	48	100	48
Sun Jan 31 16:11:29 2010	El Paso, TX 79901  	42.8	3	42	0.00	46	ESE 10	41	73	35
Sun Jan 31 16:11:36 2010	New York, NY 10001  	19.3	2	13	0.00	19	NW 18	19	48	2
Sun Jan 31 16:11:43 2010	Baltimore, MD 21201  	19.6	0	14	0.00	20	NW 13	20	36	-3
Sun Jan 31 16:11:49 2010	Las Vegas, NV 89101  	37.3	0	36	0.00	44	NW 4	37	85	33
Sun Jan 31 16:11:53 2010	Washington, DC 20001  	20.9	4	14	0.00	21	NW 20	15	43	2
Sun Jan 31 16:11:56 2010	Austin, TX 73301  	30.9	8	30	0.00	32	NNE 12	24	92	29
Sun Jan 31 16:12:01 2010	San Francisco, CA 94101  	49.3	2	49	0.00	51	E 6	49	N/A	--
Sun Jan 31 16:12:16 2010	Oklahoma City, OK 73101  	21.0	7	19	0.00	23	S 11	12	95	20
Sun Jan 31 16:12:22 2010	Nashville, TN 37201  	31.7	1	18	0.00	32	WSW 7	32	68	22
Sun Jan 31 16:12:25 2010	Fort Worth, TX 76101  	30.4	4	28	0.00	31	NE 12	26	100	30
Sun Jan 31 16:12:31 2010	Phoenix, AZ 85001  	49.6	0	46	0.00	55	SE 6	50	67	39
Sun Jan 31 16:12:37 2010	Portland, OR 97201  	45.0	0	43	0.02	45	WNW 5	45	100	45
Sun Jan 31 16:12:43 2010	Chicago, IL 60601  	17.6	0	15	0.00	21	W 20	18	66	8
Sun Jan 31 16:12:50 2010	San Antonio, TX 78201  	28.0	3	28	0.00	33	NE 13	25	100	28
Sun Jan 31 16:12:56 2010	Indianapolis, IN 46201  	22.1	2	10	0.00	22	WSW 8	22	86	18
Sun Jan 31 16:13:06 2010	Boston, MA 02101  	16.4	8	11	0.00	17	NW 16	6	46	-1
Sun Jan 31 16:13:09 2010	Jacksonville, FL 32099  	42.1	14	41	0.00	50	NNW 21	35	65	31
Sun Jan 31 16:13:12 2010	Columbus, OH 43085  	19.0	3	7	N/A	19	NW 11	15	N/A	--
Sun Jan 31 16:13:18 2010	Dallas, TX 75201  	33.2	0	31	0.00	33	SE 10	33	91	31
Sun Jan 31 16:13:21 2010	Houston, TX 77001  	33.2	6	31	0.00	33	NNE 16	28	85	29
Sun Jan 31 16:13:24 2010	Seattle, WA 98101  	44.7	3	44	0.06	46	SW 10	43	97	44
Sun Jan 31 16:13:26 2010	Milwaukee, WI 53201  	13.5	7	11	0.00	17	WSW 16	3	74	6
Sun Jan 31 16:13:30 2010	Detroit, MI 48201  	16.9	0	12	0.00	17	S 14	17	69	9
Sun Jan 31 16:13:47 2010	Philadelphia, PA 19019  	19.1	4	15	0.00	19	N 17	13	43	0
Sun Jan 31 16:56:51 2010	San Jose, CA 95101  	50.0	3	49	0.00	50	S 3	49	80	44
Sun Jan 31 16:56:53 2010	Charlotte, NC 28201  	29.9	3	18	0.00	30	N 11	30	76	23
Sun Jan 31 16:56:54 2010	San Diego, CA 92101  	49.4	2	49	0.00	52	NE 9	49	99	49
Sun Jan 31 16:56:56 2010	Denver, CO 80214  	27.7	0	26	0.00	33	NW 6	28	68	19
Sun Jan 31 16:56:58 2010	Memphis, TN 37501  	25.0	0	20	0.00	25	NNE 7	25	85	21
Sun Jan 31 16:57:00 2010	Los Angeles, CA 90001  	48.3	0	48	0.00	52	NE 5	48	100	48
Sun Jan 31 16:57:02 2010	El Paso, TX 79901  	42.8	3	42	0.00	46	ESE 10	41	73	35
Sun Jan 31 16:57:04 2010	New York, NY 10001  	19.3	2	13	0.00	19	NW 18	19	48	2
Sun Jan 31 16:57:09 2010	Baltimore, MD 21201  	19.6	0	14	0.00	20	NW 13	20	36	-3
Sun Jan 31 16:57:12 2010	Las Vegas, NV 89101  	37.3	0	36	0.00	44	NW 4	37	85	33
Sun Jan 31 16:57:13 2010	Washington, DC 20001  	20.9	4	14	0.00	21	NW 20	15	43	2
Sun Jan 31 16:57:15 2010	Austin, TX 73301  	30.9	8	30	0.00	32	NNE 12	24	92	29
Sun Jan 31 16:57:17 2010	San Francisco, CA 94101  	49.3	2	49	0.00	51	E 6	49	N/A	--
Sun Jan 31 16:57:20 2010	Oklahoma City, OK 73101  	21.0	7	19	0.00	23	S 11	12	95	20
Sun Jan 31 16:57:23 2010	Nashville, TN 37201  	31.7	1	18	0.00	32	WSW 7	32	68	22
Sun Jan 31 16:57:26 2010	Fort Worth, TX 76101  	30.4	4	28	0.00	31	NE 12	26	100	30
Sun Jan 31 16:57:30 2010	Phoenix, AZ 85001  	49.6	0	46	0.00	55	SE 6	50	67	39
Sun Jan 31 16:57:31 2010	Chicago, IL 60601  	17.6	0	15	0.00	21	W 20	18	66	8
Sun Jan 31 16:57:31 2010	Portland, OR 97201  	45.0	0	43	0.02	45	WNW 5	45	100	45
Sun Jan 31 16:57:32 2010	San Antonio, TX 78201  	28.0	3	28	0.00	33	NE 13	25	100	28
Sun Jan 31 16:57:33 2010	Boston, MA 02101  	16.4	8	11	0.00	17	NW 16	6	46	-1
Sun Jan 31 16:57:33 2010	Indianapolis, IN 46201  	22.1	2	10	0.00	22	WSW 8	22	86	18
Sun Jan 31 16:57:34 2010	Jacksonville, FL 32099  	42.1	14	41	0.00	50	NNW 21	35	65	31
Sun Jan 31 16:57:35 2010	Columbus, OH 43085  	19.0	3	7	N/A	19	NW 11	15	N/A	--
Sun Jan 31 16:57:35 2010	Dallas, TX 75201  	33.2	0	31	0.00	33	SE 10	33	91	31
Sun Jan 31 16:57:36 2010	Houston, TX 77001  	33.2	6	31	0.00	33	NNE 16	28	85	29
Sun Jan 31 16:57:36 2010	Seattle, WA 98101  	44.7	3	44	0.06	46	SW 10	43	97	44
Sun Jan 31 16:57:37 2010	Milwaukee, WI 53201  	13.5	7	11	0.00	17	WSW 16	3	74	6
Sun Jan 31 16:57:38 2010	Philadelphia, PA 19019  	19.1	4	15	0.00	19	N 17	13	43	0
Sun Jan 31 16:57:38 2010	Detroit, MI 48201  	16.9	0	12	0.00	17	S 14	17	69	9
Sun Jan 31 17:40:54 2010	San Jose, CA 95101  	48.9	0	49	0.00	50	S 3	49	82	44
Sun Jan 31 17:40:56 2010	Charlotte, NC 28201  	32.8	4	18	0.00	33	N 11	29	61	21
Sun Jan 31 17:40:58 2010	San Diego, CA 92101  	55.6	1	49	0.00	56	NE 9	56	85	51
Sun Jan 31 17:41:00 2010	Denver, CO 80214  	32.3	2	26	0.00	33	NW 6	32	57	19
Sun Jan 31 17:41:03 2010	Memphis, TN 37501  	28.9	3	20	0.00	29	NNE 7	25	80	23
Sun Jan 31 17:41:05 2010	Los Angeles, CA 90001  	50.1	0	48	0.00	52	NE 5	50	98	50
Sun Jan 31 17:41:07 2010	El Paso, TX 79901  	46.6	1	42	0.00	47	SE 11	47	63	35
Sun Jan 31 17:41:09 2010	New York, NY 10001  	23.6	0	13	0.00	24	NW 18	24	39	2
Sun Jan 31 17:41:11 2010	Baltimore, MD 21201  	22.1	6	14	0.00	23	NW 13	14	34	-3
Sun Jan 31 17:41:14 2010	Las Vegas, NV 89101  	45.6	0	36	0.00	46	NW 4	46	64	34
Sun Jan 31 17:41:18 2010	Washington, DC 20001  	23.3	4	14	0.00	24	NW 20	18	39	2
Sun Jan 31 17:41:21 2010	Austin, TX 73301  	32.0	11	30	0.00	32	NNE 12	23	88	29
Sun Jan 31 17:41:22 2010	San Francisco, CA 94101  	49.4	2	49	0.00	51	E 6	49	N/A	--
Sun Jan 31 17:41:24 2010	Oklahoma City, OK 73101  	23.0	7	19	0.00	23	S 11	15	92	21
Sun Jan 31 17:41:26 2010	Nashville, TN 37201  	42.2	0	18	0.00	42	WSW 7	42	46	23
Sun Jan 31 17:41:29 2010	Fort Worth, TX 76101  	30.5	1	28	0.00	31	NE 12	30	100	30
Sun Jan 31 17:41:32 2010	Phoenix, AZ 85001  	55.5	0	46	0.00	56	SE 6	56	53	39
Sun Jan 31 17:41:34 2010	Portland, OR 97201  	46.3	0	43	0.02	46	WNW 5	46	99	46
Sun Jan 31 17:41:37 2010	Chicago, IL 60601  	21.3	9	15	0.00	21	W 22	11	42	2
Sun Jan 31 17:41:39 2010	San Antonio, TX 78201  	29.1	3	28	0.00	33	NE 13	26	99	29
Sun Jan 31 17:41:42 2010	Indianapolis, IN 46201  	25.8	5	10	0.00	26	WNW 11	19	68	17
Sun Jan 31 17:41:43 2010	Boston, MA 02101  	20.9	5	11	0.00	21	NNW 18	14	43	2
Sun Jan 31 17:41:46 2010	Jacksonville, FL 32099  	43.0	11	41	0.00	49	NNW 21	37	68	33
Sun Jan 31 17:41:47 2010	Columbus, OH 43085  	23.1	7	7	N/A	23	NW 16	15	N/A	--
Sun Jan 31 17:41:49 2010	Dallas, TX 75201  	33.7	1	31	0.00	34	SE 10	34	90	31
Sun Jan 31 17:41:51 2010	Houston, TX 77001  	34.3	4	31	0.00	35	NNE 16	31	83	30
Sun Jan 31 17:41:55 2010	Seattle, WA 98101  	43.9	6	44	0.06	46	WSW 12	40	96	43
Sun Jan 31 17:42:05 2010	Milwaukee, WI 53201  	16.7	10	11	0.00	17	W 18	5	64	6
Sun Jan 31 17:42:07 2010	Detroit, MI 48201  	19.0	4	12	0.00	19	S 15	13	76	12
Sun Jan 31 17:42:10 2010	Philadelphia, PA 19019  	23.9	7	15	0.00	24	N 17	16	36	0
Sun Jan 31 18:25:44 2010	San Jose, CA 95101  	48.9	0	49	0.00	50	S 3	49	82	44
Sun Jan 31 18:25:45 2010	Charlotte, NC 28201  	32.8	4	18	0.00	33	N 11	29	61	21
Sun Jan 31 18:25:46 2010	San Diego, CA 92101  	55.6	1	49	0.00	56	NE 9	56	85	51
Sun Jan 31 18:25:46 2010	Denver, CO 80214  	32.3	2	26	0.00	33	NW 6	32	57	19
Sun Jan 31 18:25:47 2010	Memphis, TN 37501  	28.9	3	20	0.00	29	NNE 7	25	80	23
Sun Jan 31 18:25:48 2010	Los Angeles, CA 90001  	50.1	0	48	0.00	52	NE 5	50	98	50
Sun Jan 31 18:25:48 2010	El Paso, TX 79901  	46.6	1	42	0.00	47	SE 11	47	63	35
Sun Jan 31 18:25:49 2010	New York, NY 10001  	23.6	0	13	0.00	24	NW 18	24	39	2
Sun Jan 31 18:25:50 2010	Baltimore, MD 21201  	22.1	6	14	0.00	23	NW 13	14	34	-3
Sun Jan 31 18:25:50 2010	Las Vegas, NV 89101  	45.6	0	36	0.00	46	NW 4	46	64	34
Sun Jan 31 18:25:57 2010	Austin, TX 73301  	32.0	11	30	0.00	32	NNE 12	23	88	29
Sun Jan 31 18:25:57 2010	Washington, DC 20001  	24.9	2	15	0.00	26	NNW 22	25	47	7
Sun Jan 31 18:25:58 2010	San Francisco, CA 94101  	49.4	2	49	0.00	51	E 6	49	N/A	--
Sun Jan 31 18:25:59 2010	Oklahoma City, OK 73101  	23.0	7	19	0.00	23	S 11	15	92	21
Sun Jan 31 18:25:59 2010	Nashville, TN 37201  	42.2	0	18	0.00	42	WSW 7	42	46	23
Sun Jan 31 18:26:00 2010	Fort Worth, TX 76101  	30.5	1	28	0.00	31	NE 12	30	100	30
Sun Jan 31 18:26:01 2010	Phoenix, AZ 85001  	55.5	0	46	0.00	56	SE 6	56	53	39
Sun Jan 31 18:26:01 2010	Portland, OR 97201  	46.3	0	43	0.02	46	WNW 5	46	99	46
Sun Jan 31 18:26:02 2010	Chicago, IL 60601  	21.3	9	15	0.00	21	W 22	11	42	2
Sun Jan 31 18:26:03 2010	San Antonio, TX 78201  	29.1	3	28	0.00	33	NE 13	26	99	29
Sun Jan 31 18:26:03 2010	Indianapolis, IN 46201  	25.8	5	10	0.00	26	WNW 11	19	68	17
Sun Jan 31 18:26:04 2010	Boston, MA 02101  	20.9	5	11	0.00	21	NNW 18	14	43	2
Sun Jan 31 18:26:04 2010	Jacksonville, FL 32099  	43.0	11	41	0.00	49	NNW 21	37	68	33
Sun Jan 31 18:26:05 2010	Columbus, OH 43085  	23.1	7	7	N/A	23	NW 16	15	N/A	--
Sun Jan 31 18:26:06 2010	Houston, TX 77001  	34.3	4	31	0.00	35	NNE 16	31	83	30
Sun Jan 31 18:26:06 2010	Dallas, TX 75201  	33.7	1	31	0.00	34	SE 10	34	90	31
Sun Jan 31 18:26:07 2010	Seattle, WA 98101  	43.9	6	44	0.06	46	WSW 12	40	96	43
Sun Jan 31 18:26:08 2010	Detroit, MI 48201  	19.0	4	12	0.00	19	S 15	13	76	12
Sun Jan 31 18:26:08 2010	Milwaukee, WI 53201  	16.7	10	11	0.00	17	W 18	5	64	6
Sun Jan 31 18:26:09 2010	Philadelphia, PA 19019  	23.9	7	15	0.00	24	N 17	16	36	0
Sun Jan 31 19:09:34 2010	San Jose, CA 95101  	52.0	0	48	0.00	52	S 3	52	77	45
Sun Jan 31 19:09:39 2010	Charlotte, NC 28201  	35.1	3	18	0.00	36	N 11	33	51	19
Sun Jan 31 19:09:49 2010	San Diego, CA 92101  	56.9	4	49	0.00	58	WNW 10	57	82	51
Sun Jan 31 19:09:51 2010	Denver, CO 80214  	35.6	5	26	0.00	36	NNW 8	31	50	18
Sun Jan 31 19:09:55 2010	Memphis, TN 37501  	32.0	6	20	0.00	32	NNE 7	26	72	24
Sun Jan 31 19:10:05 2010	Los Angeles, CA 90001  	53.8	0	48	0.00	54	NE 5	54	86	50
Sun Jan 31 19:10:10 2010	El Paso, TX 79901  	50.3	7	42	0.00	52	SE 11	48	53	34
Sun Jan 31 19:10:29 2010	New York, NY 10001  	26.6	1	13	0.00	27	NW 18	27	36	3
Sun Jan 31 19:10:32 2010	Baltimore, MD 21201  	24.8	6	14	0.00	25	NW 16	18	34	0
Sun Jan 31 19:10:34 2010	Las Vegas, NV 89101  	50.7	2	36	0.00	51	ENE 5	51	50	33
Sun Jan 31 19:10:36 2010	Washington, DC 20001  	28.1	6	15	0.00	28	NNW 22	22	42	8
Sun Jan 31 19:10:40 2010	Austin, TX 73301  	33.1	0	30	0.00	33	NNE 12	33	82	28
Sun Jan 31 19:10:42 2010	San Francisco, CA 94101  	52.3	0	49	0.00	52	E 6	52	N/A	--
Sun Jan 31 19:10:43 2010	Oklahoma City, OK 73101  	25.0	7	19	0.00	25	S 11	17	93	23
Sun Jan 31 19:10:45 2010	Nashville, TN 37201  	42.8	2	18	0.00	44	WSW 7	43	41	21
Sun Jan 31 19:10:48 2010	Fort Worth, TX 76101  	30.9	5	28	0.00	32	NE 12	26	99	31
Sun Jan 31 19:10:51 2010	Phoenix, AZ 85001  	60.2	0	46	0.00	60	ENE 11	60	45	39
Sun Jan 31 19:10:56 2010	Portland, OR 97201  	47.9	0	43	0.02	48	SSE 9	48	90	45
Sun Jan 31 19:11:01 2010	Chicago, IL 60601  	24.7	15	15	0.00	25	W 22	12	36	1
Sun Jan 31 19:11:05 2010	San Antonio, TX 78201  	30.3	0	28	0.00	33	NE 13	30	94	29
Sun Jan 31 19:11:09 2010	Indianapolis, IN 46201  	27.5	7	10	0.00	28	W 13	20	59	15
Sun Jan 31 19:11:14 2010	Boston, MA 02101  	23.7	13	11	0.00	24	NNW 18	12	41	3
Sun Jan 31 19:11:17 2010	Jacksonville, FL 32099  	45.0	18	41	0.00	50	NNW 21	37	66	34
Sun Jan 31 19:11:21 2010	Columbus, OH 43085  	26.9	5	7	N/A	27	NW 16	21	N/A	--
Sun Jan 31 19:11:24 2010	Dallas, TX 75201  	35.1	0	31	0.00	35	SE 10	35	85	31
Sun Jan 31 19:11:29 2010	Houston, TX 77001  	36.0	7	31	0.00	36	NNE 16	30	80	30
Sun Jan 31 19:11:34 2010	Seattle, WA 98101  	44.7	6	44	0.06	46	WSW 12	41	96	44
Sun Jan 31 19:11:38 2010	Milwaukee, WI 53201  	20.0	2	11	0.00	20	W 18	20	57	7
Sun Jan 31 19:11:43 2010	Detroit, MI 48201  	20.2	7	12	0.00	21	S 21	12	75	13
Sun Jan 31 19:11:48 2010	Philadelphia, PA 19019  	27.9	9	15	0.00	28	N 17	20	33	2
Sun Jan 31 19:54:31 2010	San Jose, CA 95101  	52.0	0	48	0.00	52	S 3	52	77	45
Sun Jan 31 19:54:32 2010	Charlotte, NC 28201  	35.1	3	18	0.00	36	N 11	33	51	19
Sun Jan 31 19:54:32 2010	San Diego, CA 92101  	56.9	4	49	0.00	58	WNW 10	57	82	51
Sun Jan 31 19:54:33 2010	Denver, CO 80214  	35.6	5	26	0.00	36	NNW 8	31	50	18
Sun Jan 31 19:54:34 2010	Los Angeles, CA 90001  	53.8	0	48	0.00	54	NE 5	54	86	50
Sun Jan 31 19:54:34 2010	Memphis, TN 37501  	32.0	6	20	0.00	32	NNE 7	26	72	24
Sun Jan 31 19:54:35 2010	New York, NY 10001  	26.6	1	13	0.00	27	NW 18	27	36	3
Sun Jan 31 19:54:35 2010	El Paso, TX 79901  	50.3	7	42	0.00	52	SE 11	48	53	34
Sun Jan 31 19:54:36 2010	Baltimore, MD 21201  	24.8	6	14	0.00	25	NW 16	18	34	0
Sun Jan 31 19:54:37 2010	Las Vegas, NV 89101  	50.7	2	36	0.00	51	ENE 5	51	50	33
Sun Jan 31 19:54:37 2010	Washington, DC 20001  	28.1	6	15	0.00	28	NNW 22	22	42	8
Sun Jan 31 19:54:38 2010	San Francisco, CA 94101  	52.3	0	49	0.00	52	E 6	52	N/A	--
Sun Jan 31 19:54:38 2010	Austin, TX 73301  	33.1	0	30	0.00	33	NNE 12	33	82	28
Sun Jan 31 19:54:39 2010	Oklahoma City, OK 73101  	25.0	7	19	0.00	25	S 11	17	93	23
Sun Jan 31 19:54:40 2010	Fort Worth, TX 76101  	30.9	5	28	0.00	32	NE 12	26	99	31
Sun Jan 31 19:54:40 2010	Nashville, TN 37201  	42.8	2	18	0.00	44	WSW 7	43	41	21
Sun Jan 31 19:54:41 2010	Phoenix, AZ 85001  	60.2	0	46	0.00	60	ENE 11	60	45	39
Sun Jan 31 19:54:41 2010	Portland, OR 97201  	47.9	0	43	0.02	48	SSE 9	48	90	45
Sun Jan 31 19:54:42 2010	Chicago, IL 60601  	24.7	15	15	0.00	25	W 22	12	36	1
Sun Jan 31 19:54:43 2010	San Antonio, TX 78201  	30.3	0	28	0.00	33	NE 13	30	94	29
Sun Jan 31 19:54:43 2010	Indianapolis, IN 46201  	27.5	7	10	0.00	28	W 13	20	59	15
Sun Jan 31 19:54:44 2010	Boston, MA 02101  	23.7	13	11	0.00	24	NNW 18	12	41	3
Sun Jan 31 19:54:45 2010	Jacksonville, FL 32099  	45.0	18	41	0.00	50	NNW 21	37	66	34
Sun Jan 31 19:54:45 2010	Columbus, OH 43085  	26.9	5	7	N/A	27	NW 16	21	N/A	--
Sun Jan 31 19:54:46 2010	Houston, TX 77001  	36.0	7	31	0.00	36	NNE 16	30	80	30
Sun Jan 31 19:54:46 2010	Dallas, TX 75201  	35.1	0	31	0.00	35	SE 10	35	85	31
Sun Jan 31 19:54:47 2010	Seattle, WA 98101  	44.7	6	44	0.06	46	WSW 12	41	96	44
Sun Jan 31 19:54:48 2010	Detroit, MI 48201  	20.2	7	12	0.00	21	S 21	12	75	13
Sun Jan 31 19:54:48 2010	Milwaukee, WI 53201  	20.0	2	11	0.00	20	W 18	20	57	7
Sun Jan 31 19:54:49 2010	Philadelphia, PA 19019  	27.9	9	15	0.00	28	N 17	20	33	2
Sun Jan 31 20:37:20 2010	San Jose, CA 95101  	53.1	0	48	0.00	53	S 3	53	75	46
Sun Jan 31 20:37:23 2010	Charlotte, NC 28201  	39.1	0	18	0.20	39	N 11	39	46	20
Sun Jan 31 20:37:28 2010	San Diego, CA 92101  	57.5	4	49	0.00	59	WNW 14	57	81	52
Sun Jan 31 20:37:35 2010	Denver, CO 80214  	38.9	4	26	0.00	39	NE 9	36	43	18
Sun Jan 31 20:37:43 2010	Memphis, TN 37501  	34.0	0	20	0.00	34	NNE 7	34	67	24
Sun Jan 31 20:37:46 2010	Los Angeles, CA 90001  	63.4	1	48	0.00	63	ESE 5	63	55	47
Sun Jan 31 20:37:50 2010	El Paso, TX 79901  	55.6	2	42	0.00	57	SE 11	56	43	33
Sun Jan 31 20:37:54 2010	New York, NY 10001  	28.8	4	13	0.00	30	NW 18	25	33	3
Sun Jan 31 20:37:58 2010	Baltimore, MD 21201  	27.9	2	14	0.00	28	NW 16	28	34	3
Sun Jan 31 20:38:02 2010	Las Vegas, NV 89101  	53.4	5	36	0.00	55	NE 11	52	45	33
Sun Jan 31 20:38:07 2010	Washington, DC 20001  	29.9	5	15	0.00	31	NNW 22	24	42	9
Sun Jan 31 20:38:11 2010	Austin, TX 73301  	33.1	0	30	0.00	33	NNE 12	33	82	28
Sun Jan 31 20:38:14 2010	San Francisco, CA 94101  	53.3	3	49	0.00	54	E 6	53	N/A	--
Sun Jan 31 20:38:16 2010	Oklahoma City, OK 73101  	26.6	10	19	0.00	27	S 11	17	86	23
Sun Jan 31 20:38:18 2010	Nashville, TN 37201  	43.3	0	18	0.06	45	WSW 7	43	40	21
Sun Jan 31 20:38:20 2010	Fort Worth, TX 76101  	32.3	3	28	0.00	32	NE 12	32	97	32
Sun Jan 31 20:38:21 2010	Phoenix, AZ 85001  	63.8	6	46	0.00	65	ENE 11	64	38	38
Sun Jan 31 20:38:24 2010	Portland, OR 97201  	50.5	3	43	0.02	51	SSE 9	50	84	46
Sun Jan 31 20:38:27 2010	Chicago, IL 60601  	27.9	3	15	0.00	28	W 25	24	31	0
Sun Jan 31 20:38:28 2010	San Antonio, TX 78201  	31.4	2	28	0.00	33	NE 13	31	92	29
Sun Jan 31 20:38:31 2010	Indianapolis, IN 46201  	29.3	4	10	0.00	30	NW 13	26	57	16
Sun Jan 31 20:38:35 2010	Boston, MA 02101  	25.6	1	11	0.00	26	NNW 18	26	38	3
Sun Jan 31 20:38:37 2010	Jacksonville, FL 32099  	44.1	16	41	0.00	50	NNW 21	37	66	33
Sun Jan 31 20:38:39 2010	Columbus, OH 43085  	28.8	6	7	N/A	29	WSW 17	23	N/A	--
Sun Jan 31 20:38:40 2010	Dallas, TX 75201  	37.2	0	31	0.00	37	SE 10	37	80	31
Sun Jan 31 20:38:42 2010	Houston, TX 77001  	37.8	2	31	0.00	39	NNE 16	38	77	31
Sun Jan 31 20:38:44 2010	Seattle, WA 98101  	45.0	7	44	0.06	46	WSW 12	41	92	43
Sun Jan 31 20:38:45 2010	Milwaukee, WI 53201  	21.0	5	11	0.00	22	W 19	14	54	7
Sun Jan 31 20:38:47 2010	Detroit, MI 48201  	22.7	5	12	0.00	23	S 21	16	68	14
Sun Jan 31 20:38:49 2010	Philadelphia, PA 19019  	29.3	6	15	0.00	30	N 17	23	32	2
Sun Jan 31 21:21:53 2010	San Jose, CA 95101  	53.1	0	48	0.00	53	S 3	53	75	46
Sun Jan 31 21:21:54 2010	Charlotte, NC 28201  	39.1	0	18	0.20	39	N 11	39	46	20
Sun Jan 31 21:21:55 2010	Denver, CO 80214  	38.9	4	26	0.00	39	NE 9	36	43	18
Sun Jan 31 21:21:55 2010	San Diego, CA 92101  	57.5	4	49	0.00	59	WNW 14	57	81	52
Sun Jan 31 21:21:56 2010	Memphis, TN 37501  	34.0	0	20	0.00	34	NNE 7	34	67	24
Sun Jan 31 21:21:57 2010	Los Angeles, CA 90001  	63.4	1	48	0.00	63	ESE 5	63	55	47
Sun Jan 31 21:21:57 2010	El Paso, TX 79901  	55.6	2	42	0.00	57	SE 11	56	43	33
Sun Jan 31 21:21:58 2010	New York, NY 10001  	28.8	4	13	0.00	30	NW 18	25	33	3
Sun Jan 31 21:21:59 2010	Baltimore, MD 21201  	27.9	2	14	0.00	28	NW 16	28	34	3
Sun Jan 31 21:22:00 2010	Las Vegas, NV 89101  	53.4	5	36	0.00	55	NE 11	52	45	33
Sun Jan 31 21:22:02 2010	Washington, DC 20001  	31.2	5	15	0.00	32	NNW 22	26	43	11
Sun Jan 31 21:22:03 2010	Austin, TX 73301  	33.1	0	30	0.00	33	NNE 12	33	82	28
Sun Jan 31 21:22:04 2010	San Francisco, CA 94101  	53.3	3	49	0.00	54	E 6	53	N/A	--
Sun Jan 31 21:22:04 2010	Oklahoma City, OK 73101  	26.6	10	19	0.00	27	S 11	17	86	23
Sun Jan 31 21:22:05 2010	Nashville, TN 37201  	43.3	0	18	0.06	45	WSW 7	43	40	21
Sun Jan 31 21:22:06 2010	Phoenix, AZ 85001  	63.8	6	46	0.00	65	ENE 11	64	38	38
Sun Jan 31 21:22:06 2010	Fort Worth, TX 76101  	32.3	3	28	0.00	32	NE 12	32	97	32
Sun Jan 31 21:22:07 2010	Portland, OR 97201  	50.5	3	43	0.02	51	SSE 9	50	84	46
Sun Jan 31 21:22:07 2010	Chicago, IL 60601  	27.9	3	15	0.00	28	W 25	24	31	0
Sun Jan 31 21:22:08 2010	San Antonio, TX 78201  	31.4	2	28	0.00	33	NE 13	31	92	29
Sun Jan 31 21:22:09 2010	Indianapolis, IN 46201  	29.3	4	10	0.00	30	NW 13	26	57	16
Sun Jan 31 21:22:10 2010	Boston, MA 02101  	25.6	1	11	0.00	26	NNW 18	26	38	3
Sun Jan 31 21:22:11 2010	Jacksonville, FL 32099  	44.1	16	41	0.00	50	NNW 21	37	66	33
Sun Jan 31 21:22:11 2010	Columbus, OH 43085  	28.8	6	7	N/A	29	WSW 17	23	N/A	--
Sun Jan 31 21:22:12 2010	Dallas, TX 75201  	37.2	0	31	0.00	37	SE 10	37	80	31
Sun Jan 31 21:22:13 2010	Houston, TX 77001  	37.8	2	31	0.00	39	NNE 16	38	77	31
Sun Jan 31 21:22:14 2010	Milwaukee, WI 53201  	21.0	5	11	0.00	22	W 19	14	54	7
Sun Jan 31 21:22:14 2010	Seattle, WA 98101  	45.0	7	44	0.06	46	WSW 12	41	92	43
Sun Jan 31 21:22:15 2010	Detroit, MI 48201  	22.7	5	12	0.00	23	S 21	16	68	14
Sun Jan 31 21:22:16 2010	Philadelphia, PA 19019  	29.3	6	15	0.00	30	N 17	23	32	2
Sun Jan 31 22:05:21 2010	San Jose, CA 95101  	57.0	0	48	0.00	57	S 3	57	63	45
Sun Jan 31 22:05:24 2010	Charlotte, NC 28201  	41.0	2	18	0.31	42	N 11	41	38	17
Sun Jan 31 22:05:28 2010	San Diego, CA 92101  	60.0	7	49	0.00	60	WNW 14	59	73	51
Sun Jan 31 22:05:37 2010	Denver, CO 80214  	38.2	9	26	0.00	42	NE 12	32	46	19
Sun Jan 31 22:05:42 2010	Memphis, TN 37501  	36.0	0	20	0.00	36	NNE 7	36	68	26
Sun Jan 31 22:05:44 2010	Los Angeles, CA 90001  	65.5	2	48	0.00	67	SW 9	66	44	43
Sun Jan 31 22:05:45 2010	El Paso, TX 79901  	59.9	0	42	0.00	62	SE 11	60	38	34
Sun Jan 31 22:05:51 2010	New York, NY 10001  	29.3	1	13	0.00	31	NW 18	29	33	4
Sun Jan 31 22:05:57 2010	Baltimore, MD 21201  	27.2	2	14	0.00	29	NW 16	27	36	4
Sun Jan 31 22:06:03 2010	Las Vegas, NV 89101  	57.2	2	36	0.00	58	NE 11	57	36	31
Sun Jan 31 22:06:06 2010	Washington, DC 20001  	33.0	0	15	0.00	33	NNW 22	33	43	13
Sun Jan 31 22:06:12 2010	Austin, TX 73301  	35.1	0	30	0.00	35	NNE 12	35	80	29
Sun Jan 31 22:06:16 2010	San Francisco, CA 94101  	54.6	2	49	0.00	55	E 6	55	N/A	--
Sun Jan 31 22:06:20 2010	Oklahoma City, OK 73101  	26.1	10	19	0.00	27	S 11	16	90	24
Sun Jan 31 22:06:22 2010	Nashville, TN 37201  	45.2	0	18	0.13	47	WSW 7	45	34	18
Sun Jan 31 22:06:25 2010	Fort Worth, TX 76101  	34.1	3	28	0.00	34	NE 12	31	92	32
Sun Jan 31 22:06:27 2010	Phoenix, AZ 85001  	64.9	3	46	0.00	67	ENE 11	65	37	38
Sun Jan 31 22:06:29 2010	Portland, OR 97201  	51.4	1	43	0.02	52	SSE 9	51	79	45
Sun Jan 31 22:06:31 2010	Chicago, IL 60601  	28.0	5	15	0.00	29	W 25	23	42	8
Sun Jan 31 22:06:32 2010	San Antonio, TX 78201  	32.5	6	28	0.00	33	NE 13	27	89	30
Sun Jan 31 22:06:34 2010	Indianapolis, IN 46201  	30.6	8	10	0.00	31	WNW 15	23	55	16
Sun Jan 31 22:06:35 2010	Boston, MA 02101  	25.9	13	11	0.00	28	NNW 18	15	38	3
Sun Jan 31 22:06:38 2010	Jacksonville, FL 32099  	45.0	16	41	0.00	50	NNW 21	38	64	33
Sun Jan 31 22:06:39 2010	Columbus, OH 43085  	29.6	7	7	N/A	31	WSW 17	23	N/A	--
Sun Jan 31 22:06:40 2010	Dallas, TX 75201  	39.4	0	31	0.00	39	SE 10	39	76	33
Sun Jan 31 22:06:47 2010	Houston, TX 77001  	39.3	3	31	0.00	40	NNE 16	39	72	31
Sun Jan 31 22:06:49 2010	Seattle, WA 98101  	46.2	4	44	0.06	46	WSW 12	44	89	43
Sun Jan 31 22:06:50 2010	Milwaukee, WI 53201  	21.4	7	11	0.00	23	WSW 20	13	54	7
Sun Jan 31 22:06:54 2010	Detroit, MI 48201  	25.7	2	12	0.00	26	S 21	26	62	14
Sun Jan 31 22:07:01 2010	Philadelphia, PA 19019  	30.3	2	15	0.00	30	N 17	30	30	2
Sun Jan 31 22:49:32 2010	San Jose, CA 95101  	57.0	0	48	0.00	57	S 3	57	63	45
Sun Jan 31 22:49:33 2010	Charlotte, NC 28201  	41.0	2	18	0.31	42	N 11	41	38	17
Sun Jan 31 22:49:33 2010	San Diego, CA 92101  	60.0	7	49	0.00	60	WNW 14	59	73	51
Sun Jan 31 22:49:34 2010	Denver, CO 80214  	38.2	9	26	0.00	42	NE 12	32	46	19
Sun Jan 31 22:49:35 2010	Memphis, TN 37501  	36.0	0	20	0.00	36	NNE 7	36	68	26
Sun Jan 31 22:49:35 2010	Los Angeles, CA 90001  	65.5	2	48	0.00	67	SW 9	66	44	43
Sun Jan 31 22:49:36 2010	El Paso, TX 79901  	59.9	0	42	0.00	62	SE 11	60	38	34
Sun Jan 31 22:49:37 2010	New York, NY 10001  	29.3	1	13	0.00	31	NW 18	29	33	4
Sun Jan 31 22:49:38 2010	Las Vegas, NV 89101  	57.2	2	36	0.00	58	NE 11	57	36	31
Sun Jan 31 22:49:38 2010	Baltimore, MD 21201  	27.2	2	14	0.00	29	NW 16	27	36	4
Sun Jan 31 22:49:41 2010	Austin, TX 73301  	35.1	0	30	0.00	35	NNE 12	35	80	29
Sun Jan 31 22:49:41 2010	Washington, DC 20001  	32.4	2	15	0.00	34	NNW 22	32	42	12
Sun Jan 31 22:49:42 2010	San Francisco, CA 94101  	54.6	2	49	0.00	55	E 6	55	N/A	--
Sun Jan 31 22:49:44 2010	Oklahoma City, OK 73101  	26.6	9	19	0.00	27	S 11	17	93	25
Sun Jan 31 22:49:45 2010	Nashville, TN 37201  	45.2	0	18	0.13	47	WSW 7	45	34	18
Sun Jan 31 22:49:46 2010	Phoenix, AZ 85001  	64.9	3	46	0.00	67	ENE 11	65	37	38
Sun Jan 31 22:49:46 2010	Fort Worth, TX 76101  	34.1	3	28	0.00	34	NE 12	31	92	32
Sun Jan 31 22:49:47 2010	Portland, OR 97201  	51.4	1	43	0.02	52	SSE 9	51	79	45
Sun Jan 31 22:49:48 2010	San Antonio, TX 78201  	32.5	6	28	0.00	33	NE 13	27	89	30
Sun Jan 31 22:49:48 2010	Chicago, IL 60601  	28.0	5	15	0.00	29	W 25	23	42	8
Sun Jan 31 22:49:50 2010	Boston, MA 02101  	25.9	13	11	0.00	28	NNW 18	15	38	3
Sun Jan 31 22:49:50 2010	Indianapolis, IN 46201  	30.6	8	10	0.00	31	WNW 15	23	55	16
Sun Jan 31 22:49:51 2010	Jacksonville, FL 32099  	45.0	16	41	0.00	50	NNW 21	38	64	33
Sun Jan 31 22:49:51 2010	Columbus, OH 43085  	29.6	7	7	N/A	31	WSW 17	23	N/A	--
Sun Jan 31 22:49:52 2010	Dallas, TX 75201  	39.4	0	31	0.00	39	SE 10	39	76	33
Sun Jan 31 22:49:53 2010	Houston, TX 77001  	39.3	3	31	0.00	40	NNE 16	39	72	31
Sun Jan 31 22:49:53 2010	Seattle, WA 98101  	46.2	4	44	0.06	46	WSW 12	44	89	43
Sun Jan 31 22:49:54 2010	Detroit, MI 48201  	25.7	2	12	0.00	26	S 21	26	62	14
Sun Jan 31 22:49:54 2010	Milwaukee, WI 53201  	21.4	7	11	0.00	23	WSW 20	13	54	7
Sun Jan 31 22:49:56 2010	Philadelphia, PA 19019  	30.3	2	15	0.00	30	N 17	30	30	2
Sun Jan 31 23:33:05 2010	San Jose, CA 95101  	60.1	5	48	0.00	60	NNW 5	60	58	45
Sun Jan 31 23:33:07 2010	Charlotte, NC 28201  	38.1	0	18	0.33	42	N 11	38	44	18
Sun Jan 31 23:33:09 2010	San Diego, CA 92101  	59.1	2	49	0.00	60	WNW 15	59	75	51
Sun Jan 31 23:33:11 2010	Denver, CO 80214  	37.5	3	26	0.00	42	NE 15	35	50	20
Sun Jan 31 23:33:14 2010	Memphis, TN 37501  	37.0	3	20	0.00	37	NNE 7	35	63	26
Sun Jan 31 23:33:15 2010	Los Angeles, CA 90001  	62.9	0	48	0.00	68	W 19	63	57	48
Sun Jan 31 23:33:17 2010	El Paso, TX 79901  	60.1	2	42	0.00	62	SE 11	60	39	35
Sun Jan 31 23:33:20 2010	New York, NY 10001  	28.5	5	13	0.00	31	NW 18	23	36	4
Sun Jan 31 23:33:22 2010	Baltimore, MD 21201  	27.3	5	14	0.00	29	NW 16	21	38	4
Sun Jan 31 23:33:24 2010	Las Vegas, NV 89101  	58.4	5	36	0.00	59	NE 11	58	29	26
Sun Jan 31 23:33:25 2010	Washington, DC 20001  	31.8	0	15	0.00	34	NNW 22	32	44	12
Sun Jan 31 23:33:27 2010	Austin, TX 73301  	35.1	0	30	0.00	35	NNE 12	35	80	29
Sun Jan 31 23:33:28 2010	San Francisco, CA 94101  	57.8	1	49	0.00	58	E 6	58	N/A	--
Sun Jan 31 23:33:30 2010	Oklahoma City, OK 73101  	27.0	11	19	0.00	27	S 11	17	90	24
Sun Jan 31 23:33:32 2010	Nashville, TN 37201  	40.4	2	18	0.16	47	WSW 7	40	40	18
Sun Jan 31 23:33:36 2010	Fort Worth, TX 76101  	34.5	0	28	0.00	35	NE 12	34	91	32
Sun Jan 31 23:33:38 2010	Phoenix, AZ 85001  	68.3	2	46	0.00	69	ENE 11	68	33	38
Sun Jan 31 23:33:40 2010	Portland, OR 97201  	48.9	3	43	0.02	52	SSE 9	48	89	46
Sun Jan 31 23:33:41 2010	Chicago, IL 60601  	27.0	1	15	0.00	29	W 25	27	47	9
Sun Jan 31 23:33:44 2010	San Antonio, TX 78201  	33.4	4	28	0.00	34	NE 13	29	87	30
Sun Jan 31 23:33:45 2010	Indianapolis, IN 46201  	30.1	3	10	0.00	31	WNW 15	27	56	16
Sun Jan 31 23:33:48 2010	Boston, MA 02101  	26.0	3	11	0.00	28	NNW 18	26	41	5
Sun Jan 31 23:33:50 2010	Jacksonville, FL 32099  	44.1	15	41	0.00	50	NNW 21	37	69	34
Sun Jan 31 23:33:53 2010	Columbus, OH 43085  	28.6	7	7	N/A	31	WSW 17	21	N/A	--
Sun Jan 31 23:33:55 2010	Dallas, TX 75201  	41.3	3	31	0.00	41	SE 10	40	74	34
Sun Jan 31 23:33:57 2010	Houston, TX 77001  	39.3	4	31	0.00	41	NNE 16	37	74	32
Sun Jan 31 23:33:59 2010	Seattle, WA 98101  	47.8	2	44	0.06	48	WSW 12	48	84	43
Sun Jan 31 23:34:00 2010	Milwaukee, WI 53201  	20.1	1	11	0.00	23	WSW 20	20	57	7
Sun Jan 31 23:34:02 2010	Detroit, MI 48201  	25.5	10	12	0.00	26	S 21	16	59	13
Sun Jan 31 23:34:04 2010	Philadelphia, PA 19019  	29.0	4	15	0.00	31	N 17	24	35	4
Thu Feb  4 00:18:48 2010	San Jose, CA 95101  	62.1	5	44	0.00	62	WNW 6	62	50	44
Thu Feb  4 00:18:48 2010	Charlotte, NC 28201  	48.3	0	34	0.00	51	WNW 8	48	56	33
Thu Feb  4 00:18:49 2010	San Diego, CA 92101  	63.1	0	53	0.00	63	WNW 15	63	69	53
Thu Feb  4 00:18:50 2010	Memphis, TN 37501  	46.9	10	28	0.00	48	ENE 11	42	50	29
Thu Feb  4 00:18:50 2010	Denver, CO 80214  	47.5	2	25	0.00	49	SE 12	48	23	11
Thu Feb  4 00:18:51 2010	Los Angeles, CA 90001  	67.3	6	48	0.00	69	SSW 14	67	42	44
Thu Feb  4 00:18:52 2010	El Paso, TX 79901  	47.2	9	42	0.56	48	ESE 23	43	85	43
Thu Feb  4 00:18:53 2010	New York, NY 10001  	36.7	2	29	0.08	39	NNW 17	37	58	23
Thu Feb  4 00:18:53 2010	Baltimore, MD 21201  	37.0	7	29	0.19	40	WNW 24	32	62	25
Thu Feb  4 00:18:54 2010	Las Vegas, NV 89101  	59.8	4	38	0.00	61	ENE 10	60	33	31
Thu Feb  4 00:18:55 2010	Washington, DC 20001  	39.2	10	31	0.23	41	NW 21	33	79	33
Thu Feb  4 00:18:55 2010	Austin, TX 73301  	44.2	6	42	0.67	46	SE 20	41	99	44
Thu Feb  4 00:18:56 2010	San Francisco, CA 94101  	60.1	0	50	0.00	61	E 10	60	N/A	--
Thu Feb  4 00:18:56 2010	Oklahoma City, OK 73101  	38.2	0	27	0.34	40	SE 9	38	89	35
Thu Feb  4 00:18:57 2010	Nashville, TN 37201  	45.7	6	37	0.00	50	NW 13	42	54	30
Thu Feb  4 00:18:58 2010	Fort Worth, TX 76101  	42.8	7	37	0.15	46	NE 18	39	100	43
Thu Feb  4 00:18:59 2010	Portland, OR 97201  	47.6	6	43	0.12	48	SSE 10	45	87	44
Thu Feb  4 00:18:59 2010	Phoenix, AZ 85001  	66.9	3	53	0.00	69	SW 11	67	33	37
Thu Feb  4 00:19:00 2010	Chicago, IL 60601  	28.8	3	23	0.00	30	W 21	29	71	20
Thu Feb  4 00:19:01 2010	San Antonio, TX 78201  	45.7	13	44	2.31	47	NE 25	40	100	46
Thu Feb  4 00:19:02 2010	Boston, MA 02101  	29.9	6	24	0.01	31	NNW 12	24	66	20
Thu Feb  4 00:19:02 2010	Indianapolis, IN 46201  	30.5	2	24	0.00	33	NW 14	31	80	25
Thu Feb  4 00:19:03 2010	Jacksonville, FL 32099  	54.0	6	47	0.00	54	NNE 22	53	67	43
Thu Feb  4 00:19:04 2010	Dallas, TX 75201  	45.4	0	40	0.07	47	E 19	45	88	42
Thu Feb  4 00:19:04 2010	Columbus, OH 43085  	33.1	6	31	N/A	36	NNW 17	27	N/A	--
Thu Feb  4 00:19:05 2010	Houston, TX 77001  	48.9	11	45	0.02	52	ENE 28	44	85	45
Thu Feb  4 00:19:06 2010	Seattle, WA 98101  	44.5	4	43	0.16	46	NE 9	43	96	44
Thu Feb  4 00:19:06 2010	Milwaukee, WI 53201  	25.3	4	22	0.00	28	NNW 15	20	75	19
Thu Feb  4 00:19:07 2010	Detroit, MI 48201  	31.0	3	26	0.01	32	WNW 18	28	70	22
Thu Feb  4 00:19:08 2010	Philadelphia, PA 19019  	37.8	4	30	0.04	39	NNE 19	35	69	29
Thu Feb  4 01:02:04 2010	San Jose, CA 95101  	57.9	11	44	0.00	63	NW 11	56	66	47
Thu Feb  4 01:02:05 2010	Charlotte, NC 28201  	41.1	0	34	0.00	51	WNW 8	41	76	34
Thu Feb  4 01:02:06 2010	San Diego, CA 92101  	60.0	4	53	0.00	64	WNW 15	60	81	54
Thu Feb  4 01:02:07 2010	Denver, CO 80214  	46.4	2	25	0.00	49	SE 12	46	26	13
Thu Feb  4 01:02:09 2010	Memphis, TN 37501  	43.0	10	28	0.00	48	NE 20	37	56	28
Thu Feb  4 01:02:10 2010	Los Angeles, CA 90001  	63.8	0	48	0.00	69	SSW 14	64	58	49
Thu Feb  4 01:02:11 2010	El Paso, TX 79901  	46.8	9	42	0.56	48	ESE 23	42	82	42
Thu Feb  4 01:02:12 2010	New York, NY 10001  	35.4	5	29	0.08	39	NW 19	31	60	23
Thu Feb  4 01:02:13 2010	Baltimore, MD 21201  	36.5	2	29	0.19	40	WNW 24	36	63	25
Thu Feb  4 01:02:14 2010	Las Vegas, NV 89101  	61.3	2	38	0.00	62	NE 10	61	32	31
Thu Feb  4 01:02:16 2010	Washington, DC 20001  	39.0	3	31	0.23	41	NW 21	39	77	32
Thu Feb  4 01:02:17 2010	Austin, TX 73301  	48.0	15	46	0.72	49	E 16	42	95	47
Thu Feb  4 01:02:19 2010	San Francisco, CA 94101  	56.7	5	50	0.00	61	WNW 14	56	N/A	--
Thu Feb  4 01:02:20 2010	Oklahoma City, OK 73101  	36.2	0	27	0.39	40	SE 9	36	94	35
Thu Feb  4 01:02:21 2010	Nashville, TN 37201  	42.2	3	37	0.00	50	NW 13	41	63	30
Thu Feb  4 01:02:22 2010	Fort Worth, TX 76101  	42.4	4	37	0.17	46	NE 18	40	100	42
Thu Feb  4 01:02:23 2010	Phoenix, AZ 85001  	68.1	1	53	0.00	69	SW 11	68	33	39
Thu Feb  4 01:02:24 2010	Portland, OR 97201  	46.7	3	43	0.12	48	SSE 10	47	91	44
Thu Feb  4 01:02:26 2010	Chicago, IL 60601  	28.7	2	23	0.00	30	W 21	29	70	20
Thu Feb  4 01:02:27 2010	San Antonio, TX 78201  	46.0	12	44	2.33	47	NE 25	40	100	46
Thu Feb  4 01:02:28 2010	Indianapolis, IN 46201  	28.6	0	24	0.00	33	NW 14	29	85	25
Thu Feb  4 01:02:29 2010	Boston, MA 02101  	30.3	5	24	0.01	31	NNW 12	25	64	20
Thu Feb  4 01:02:30 2010	Jacksonville, FL 32099  	51.1	6	47	0.00	54	NNE 22	49	75	43
Thu Feb  4 01:02:32 2010	Columbus, OH 43085  	32.7	3	31	N/A	36	NNW 17	33	N/A	--
Thu Feb  4 01:02:33 2010	Dallas, TX 75201  	45.5	3	40	0.07	47	E 19	45	85	41
Thu Feb  4 01:02:34 2010	Houston, TX 77001  	48.1	6	45	0.02	52	ESE 32	45	89	45
Thu Feb  4 01:02:35 2010	Seattle, WA 98101  	48.2	2	43	0.16	49	E 12	48	80	42
Thu Feb  4 01:02:36 2010	Milwaukee, WI 53201  	23.9	0	22	0.00	28	NNW 15	24	80	19
Thu Feb  4 01:02:37 2010	Detroit, MI 48201  	29.9	7	26	0.01	32	WNW 18	23	73	22
Thu Feb  4 01:02:38 2010	Philadelphia, PA 19019  	37.0	1	30	0.04	39	NNE 19	37	71	28
Thu Feb  4 01:49:13 2010	San Jose, CA 95101  	57.9	11	44	0.00	63	NW 11	56	66	47
Thu Feb  4 01:49:15 2010	Charlotte, NC 28201  	41.1	0	34	0.00	51	WNW 8	41	76	34
Thu Feb  4 01:49:16 2010	San Diego, CA 92101  	60.0	4	53	0.00	64	WNW 15	60	81	54
Thu Feb  4 01:49:18 2010	Denver, CO 80214  	46.4	2	25	0.00	49	SE 12	46	26	13
Thu Feb  4 01:49:19 2010	Memphis, TN 37501  	43.0	10	28	0.00	48	NE 20	37	56	28
Thu Feb  4 01:49:21 2010	Los Angeles, CA 90001  	63.8	0	48	0.00	69	SSW 14	64	58	49
Thu Feb  4 01:49:22 2010	El Paso, TX 79901  	46.8	9	42	0.56	48	ESE 23	42	82	42
Thu Feb  4 01:49:24 2010	New York, NY 10001  	35.4	5	29	0.08	39	NW 19	31	60	23
Thu Feb  4 01:49:25 2010	Baltimore, MD 21201  	36.5	2	29	0.19	40	WNW 24	36	63	25
Thu Feb  4 01:49:27 2010	Las Vegas, NV 89101  	61.3	2	38	0.00	62	NE 10	61	32	31
Thu Feb  4 01:49:29 2010	Washington, DC 20001  	38.8	10	31	0.23	41	NW 21	32	76	32
Thu Feb  4 01:49:31 2010	Austin, TX 73301  	44.0	4	42	0.73	46	SE 20	42	100	44
Thu Feb  4 01:49:32 2010	San Francisco, CA 94101  	56.7	5	50	0.00	61	WNW 14	56	N/A	--
Thu Feb  4 01:49:34 2010	Oklahoma City, OK 73101  	36.2	0	27	0.39	40	SE 9	36	94	35
Thu Feb  4 01:49:35 2010	Nashville, TN 37201  	42.2	3	37	0.00	50	NW 13	41	63	30
Thu Feb  4 01:49:37 2010	Fort Worth, TX 76101  	42.4	4	37	0.17	46	NE 18	40	100	42
Thu Feb  4 01:49:38 2010	Phoenix, AZ 85001  	68.1	1	53	0.00	69	SW 11	68	33	39
Thu Feb  4 01:49:41 2010	Portland, OR 97201  	46.7	3	43	0.12	48	SSE 10	47	91	44
Thu Feb  4 01:49:43 2010	Chicago, IL 60601  	28.7	2	23	0.00	30	W 21	29	70	20
Thu Feb  4 01:49:44 2010	San Antonio, TX 78201  	46.0	12	44	2.33	47	NE 25	40	100	46
Thu Feb  4 01:49:46 2010	Indianapolis, IN 46201  	28.6	0	24	0.00	33	NW 14	29	85	25
Thu Feb  4 01:49:47 2010	Boston, MA 02101  	30.3	5	24	0.01	31	NNW 12	25	64	20
Thu Feb  4 01:49:52 2010	Jacksonville, FL 32099  	51.1	6	47	0.00	54	NNE 22	49	75	43
Thu Feb  4 01:49:54 2010	Columbus, OH 43085  	32.7	3	31	N/A	36	NNW 17	33	N/A	--
Thu Feb  4 01:49:56 2010	Dallas, TX 75201  	45.5	3	40	0.07	47	E 19	45	85	41
Thu Feb  4 01:49:57 2010	Houston, TX 77001  	48.1	6	45	0.02	52	ESE 32	45	89	45
Thu Feb  4 01:49:58 2010	Seattle, WA 98101  	48.2	2	43	0.16	49	E 12	48	80	42
Thu Feb  4 01:50:00 2010	Milwaukee, WI 53201  	23.9	0	22	0.00	28	NNW 15	24	80	19
Thu Feb  4 01:50:02 2010	Detroit, MI 48201  	29.9	7	26	0.01	32	WNW 18	23	73	22
Thu Feb  4 01:50:03 2010	Philadelphia, PA 19019  	37.0	1	30	0.04	39	NNE 19	37	71	28
Thu Feb  4 02:33:26 2010	San Jose, CA 95101  	57.9	12	44	0.00	63	NW 12	55	74	50
Thu Feb  4 02:33:27 2010	Charlotte, NC 28201  	36.6	0	34	0.00	51	WNW 8	37	90	34
Thu Feb  4 02:33:28 2010	San Diego, CA 92101  	57.5	1	53	0.00	64	WNW 15	58	88	54
Thu Feb  4 02:33:29 2010	Denver, CO 80214  	40.2	3	25	0.00	49	SE 12	40	40	18
Thu Feb  4 02:33:31 2010	Memphis, TN 37501  	42.1	12	28	0.00	48	NE 20	35	56	27
Thu Feb  4 02:33:32 2010	Los Angeles, CA 90001  	60.7	0	48	0.00	69	SSW 14	61	67	50
Thu Feb  4 02:33:33 2010	El Paso, TX 79901  	46.6	5	42	0.61	48	ESE 23	44	83	42
Thu Feb  4 02:33:34 2010	New York, NY 10001  	34.3	5	29	0.08	39	NW 19	30	60	22
Thu Feb  4 02:33:35 2010	Baltimore, MD 21201  	34.5	7	29	0.19	40	WNW 24	29	73	27
Thu Feb  4 02:33:37 2010	Las Vegas, NV 89101  	56.6	1	38	0.00	62	NE 10	57	39	32
Thu Feb  4 02:33:37 2010	Washington, DC 20001  	38.8	10	31	0.23	41	NW 21	32	76	32
Thu Feb  4 02:33:38 2010	Austin, TX 73301  	44.0	4	42	0.73	46	SE 20	42	100	44
Thu Feb  4 02:33:39 2010	San Francisco, CA 94101  	55.8	2	50	0.00	61	WNW 14	56	N/A	--
Thu Feb  4 02:33:40 2010	Oklahoma City, OK 73101  	35.3	0	27	0.43	40	SE 9	35	97	34
Thu Feb  4 02:33:41 2010	Nashville, TN 37201  	40.5	3	37	0.00	50	NW 13	39	69	31
Thu Feb  4 02:33:43 2010	Fort Worth, TX 76101  	42.0	12	37	0.18	46	NE 18	36	100	42
Thu Feb  4 02:33:44 2010	Phoenix, AZ 85001  	66.2	4	53	0.00	69	SW 11	66	37	40
Thu Feb  4 02:33:45 2010	Portland, OR 97201  	46.2	0	43	0.12	48	SSE 10	46	95	45
Thu Feb  4 02:33:46 2010	Chicago, IL 60601  	28.4	3	23	0.00	30	W 21	25	71	20
Thu Feb  4 02:33:47 2010	San Antonio, TX 78201  	46.0	8	44	2.33	47	NE 25	42	100	46
Thu Feb  4 02:33:48 2010	Indianapolis, IN 46201  	26.3	0	24	0.00	33	NW 14	26	90	24
Thu Feb  4 02:33:50 2010	Boston, MA 02101  	31.1	3	24	0.01	31	NNW 12	31	64	20
Thu Feb  4 02:33:51 2010	Jacksonville, FL 32099  	51.1	7	47	0.00	54	NNE 22	49	77	44
Thu Feb  4 02:33:52 2010	Columbus, OH 43085  	31.7	5	31	N/A	36	NNW 17	26	N/A	--
Thu Feb  4 02:33:53 2010	Dallas, TX 75201  	45.6	4	40	0.07	47	E 19	44	81	40
Thu Feb  4 02:33:54 2010	Houston, TX 77001  	47.5	6	45	0.09	52	ESE 32	44	94	46
Thu Feb  4 02:33:55 2010	Seattle, WA 98101  	46.3	7	43	0.16	49	E 12	43	89	43
Thu Feb  4 02:33:56 2010	Milwaukee, WI 53201  	23.8	3	22	0.00	28	NNW 15	24	84	20
Thu Feb  4 02:33:58 2010	Detroit, MI 48201  	29.1	2	26	0.01	32	WNW 18	29	71	21
Thu Feb  4 02:33:59 2010	Philadelphia, PA 19019  	36.2	0	30	0.04	39	NNE 19	36	74	29
Thu Feb  4 03:18:06 2010	San Jose, CA 95101  	57.9	12	44	0.00	63	NW 12	55	74	50
Thu Feb  4 03:18:07 2010	San Diego, CA 92101  	57.5	1	53	0.00	64	WNW 15	58	88	54
Thu Feb  4 03:18:07 2010	Charlotte, NC 28201  	36.6	0	34	0.00	51	WNW 8	37	90	34
Thu Feb  4 03:18:08 2010	Denver, CO 80214  	40.2	3	25	0.00	49	SE 12	40	40	18
Thu Feb  4 03:18:09 2010	Memphis, TN 37501  	42.1	12	28	0.00	48	NE 20	35	56	27
Thu Feb  4 03:18:10 2010	Los Angeles, CA 90001  	60.7	0	48	0.00	69	SSW 14	61	67	50
Thu Feb  4 03:18:11 2010	El Paso, TX 79901  	46.6	5	42	0.61	48	ESE 23	44	83	42
Thu Feb  4 03:18:11 2010	New York, NY 10001  	34.3	5	29	0.08	39	NW 19	30	60	22
Thu Feb  4 03:18:12 2010	Las Vegas, NV 89101  	56.6	1	38	0.00	62	NE 10	57	39	32
Thu Feb  4 03:18:12 2010	Baltimore, MD 21201  	34.5	7	29	0.19	40	WNW 24	29	73	27
Thu Feb  4 03:18:14 2010	Washington, DC 20001  	37.2	6	31	0.23	41	NW 21	32	77	31
Thu Feb  4 03:18:15 2010	Austin, TX 73301  	44.6	7	42	0.73	46	SE 20	41	99	44
Thu Feb  4 03:18:16 2010	San Francisco, CA 94101  	55.8	2	50	0.00	61	WNW 14	56	N/A	--
Thu Feb  4 03:18:17 2010	Nashville, TN 37201  	40.5	3	37	0.00	50	NW 13	39	69	31
Thu Feb  4 03:18:17 2010	Oklahoma City, OK 73101  	35.3	0	27	0.43	40	SE 9	35	97	34
Thu Feb  4 03:18:18 2010	Fort Worth, TX 76101  	42.0	12	37	0.18	46	NE 18	36	100	42
Thu Feb  4 03:18:19 2010	Phoenix, AZ 85001  	66.2	4	53	0.00	69	SW 11	66	37	40
Thu Feb  4 03:18:20 2010	Portland, OR 97201  	46.2	0	43	0.12	48	SSE 10	46	95	45
Thu Feb  4 03:18:21 2010	San Antonio, TX 78201  	46.0	8	44	2.33	47	NE 25	42	100	46
Thu Feb  4 03:18:21 2010	Chicago, IL 60601  	28.4	3	23	0.00	30	W 21	25	71	20
Thu Feb  4 03:18:22 2010	Indianapolis, IN 46201  	26.3	0	24	0.00	33	NW 14	26	90	24
Thu Feb  4 03:18:23 2010	Boston, MA 02101  	31.1	3	24	0.01	31	NNW 12	31	64	20
Thu Feb  4 03:18:24 2010	Jacksonville, FL 32099  	51.1	7	47	0.00	54	NNE 22	49	77	44
Thu Feb  4 03:18:24 2010	Columbus, OH 43085  	31.7	5	31	N/A	36	NNW 17	26	N/A	--
Thu Feb  4 03:18:25 2010	Dallas, TX 75201  	45.6	4	40	0.07	47	E 19	44	81	40
Thu Feb  4 03:18:26 2010	Houston, TX 77001  	47.5	6	45	0.09	52	ESE 32	44	94	46
Thu Feb  4 03:18:27 2010	Seattle, WA 98101  	46.3	7	43	0.16	49	E 12	43	89	43
Thu Feb  4 03:18:27 2010	Milwaukee, WI 53201  	23.8	3	22	0.00	28	NNW 15	24	84	20
Thu Feb  4 03:18:28 2010	Philadelphia, PA 19019  	36.2	0	30	0.04	39	NNE 19	36	74	29
Thu Feb  4 03:18:28 2010	Detroit, MI 48201  	29.1	2	26	0.01	32	WNW 18	29	71	21
Thu Feb  4 04:01:04 2010	San Jose, CA 95101  	55.9	9	44	0.00	63	NW 12	54	82	51
Thu Feb  4 04:01:05 2010	Charlotte, NC 28201  	34.6	3	33	0.00	51	NE 10	32	98	34
Thu Feb  4 04:01:06 2010	San Diego, CA 92101  	57.8	5	53	0.00	64	WNW 15	57	88	54
Thu Feb  4 04:01:08 2010	Denver, CO 80214  	39.5	3	25	0.00	49	SE 12	38	40	17
Thu Feb  4 04:01:09 2010	Memphis, TN 37501  	39.9	5	28	0.00	48	NE 20	37	69	31
Thu Feb  4 04:01:10 2010	Los Angeles, CA 90001  	57.9	0	48	0.00	69	SSW 14	58	80	52
Thu Feb  4 04:01:11 2010	El Paso, TX 79901  	45.1	2	42	0.61	48	ESE 23	45	88	42
Thu Feb  4 04:01:12 2010	New York, NY 10001  	33.3	1	29	0.08	39	NW 19	33	61	21
Thu Feb  4 04:01:14 2010	Baltimore, MD 21201  	33.4	7	29	0.19	40	WNW 24	27	75	26
Thu Feb  4 04:01:15 2010	Las Vegas, NV 89101  	53.4	2	38	0.00	62	NE 10	53	44	32
Thu Feb  4 04:01:16 2010	Washington, DC 20001  	37.2	1	31	0.23	41	NW 21	37	78	31
Thu Feb  4 04:01:17 2010	Austin, TX 73301  	48.9	10	46	0.82	49	E 16	45	95	48
Thu Feb  4 04:01:18 2010	San Francisco, CA 94101  	55.5	1	50	0.00	61	WNW 14	56	N/A	--
Thu Feb  4 04:01:20 2010	Oklahoma City, OK 73101  	35.3	0	27	0.48	40	SE 9	35	99	35
Thu Feb  4 04:01:21 2010	Nashville, TN 37201  	38.9	7	37	0.00	50	NW 13	34	72	30
Thu Feb  4 04:01:22 2010	Fort Worth, TX 76101  	42.3	10	37	0.18	46	E 18	37	97	41
Thu Feb  4 04:01:23 2010	Phoenix, AZ 85001  	62.2	5	53	0.00	69	NNW 17	62	50	43
Thu Feb  4 04:01:24 2010	Portland, OR 97201  	45.1	3	43	0.12	48	SSE 10	45	99	45
Thu Feb  4 04:01:25 2010	Chicago, IL 60601  	29.7	2	23	0.00	30	W 21	30	71	21
Thu Feb  4 04:01:27 2010	San Antonio, TX 78201  	46.5	6	44	2.39	47	NE 25	44	100	47
Thu Feb  4 04:01:28 2010	Indianapolis, IN 46201  	27.5	1	24	0.00	33	NW 14	27	91	25
Thu Feb  4 04:01:29 2010	Boston, MA 02101  	28.8	9	24	0.01	31	NNW 13	21	64	18
Thu Feb  4 04:01:31 2010	Jacksonville, FL 32099  	51.1	8	47	0.00	54	NNE 22	48	77	44
Thu Feb  4 04:01:32 2010	Columbus, OH 43085  	31.1	2	31	N/A	36	NNW 17	31	N/A	--
Thu Feb  4 04:01:33 2010	Dallas, TX 75201  	44.6	0	40	0.07	47	E 19	45	85	40
Thu Feb  4 04:01:34 2010	Houston, TX 77001  	46.7	12	45	0.31	52	ESE 32	41	98	46
Thu Feb  4 04:01:35 2010	Seattle, WA 98101  	44.8	2	43	0.17	49	E 12	45	98	44
Thu Feb  4 04:01:36 2010	Milwaukee, WI 53201  	23.0	3	22	0.00	28	NNW 15	23	89	20
Thu Feb  4 04:01:38 2010	Detroit, MI 48201  	28.6	3	26	0.01	32	WNW 18	25	75	22
Thu Feb  4 04:01:39 2010	Philadelphia, PA 19019  	34.9	0	30	0.04	39	NNE 19	35	71	26
Thu Feb  4 04:44:16 2010	San Jose, CA 95101  	55.9	9	44	0.00	63	NW 12	54	82	51
Thu Feb  4 04:44:17 2010	Charlotte, NC 28201  	34.6	3	33	0.00	51	NE 10	32	98	34
Thu Feb  4 04:44:17 2010	San Diego, CA 92101  	57.8	5	53	0.00	64	WNW 15	57	88	54
Thu Feb  4 04:44:18 2010	Memphis, TN 37501  	39.9	5	28	0.00	48	NE 20	37	69	31
Thu Feb  4 04:44:18 2010	Denver, CO 80214  	39.5	3	25	0.00	49	SE 12	38	40	17
Thu Feb  4 04:44:19 2010	Los Angeles, CA 90001  	57.9	0	48	0.00	69	SSW 14	58	80	52
Thu Feb  4 04:44:20 2010	El Paso, TX 79901  	45.1	2	42	0.61	48	ESE 23	45	88	42
Thu Feb  4 04:44:20 2010	New York, NY 10001  	33.3	1	29	0.08	39	NW 19	33	61	21
Thu Feb  4 04:44:21 2010	Baltimore, MD 21201  	33.4	7	29	0.19	40	WNW 24	27	75	26
Thu Feb  4 04:44:22 2010	Las Vegas, NV 89101  	53.4	2	38	0.00	62	NE 10	53	44	32
Thu Feb  4 04:44:23 2010	Washington, DC 20001  	37.3	6	31	0.23	41	NW 21	33	78	31
Thu Feb  4 04:44:24 2010	Austin, TX 73301  	44.1	5	42	0.76	46	SE 20	41	100	44
Thu Feb  4 04:44:24 2010	San Francisco, CA 94101  	55.5	1	50	0.00	61	WNW 14	56	N/A	--
Thu Feb  4 04:44:25 2010	Oklahoma City, OK 73101  	35.3	0	27	0.48	40	SE 9	35	99	35
Thu Feb  4 04:44:26 2010	Fort Worth, TX 76101  	42.3	10	37	0.18	46	E 18	37	97	41
Thu Feb  4 04:44:26 2010	Nashville, TN 37201  	38.9	7	37	0.00	50	NW 13	34	72	30
Thu Feb  4 04:44:27 2010	Phoenix, AZ 85001  	62.2	5	53	0.00	69	NNW 17	62	50	43
Thu Feb  4 04:44:28 2010	Portland, OR 97201  	45.1	3	43	0.12	48	SSE 10	45	99	45
Thu Feb  4 04:44:28 2010	Chicago, IL 60601  	29.7	2	23	0.00	30	W 21	30	71	21
Thu Feb  4 04:44:29 2010	San Antonio, TX 78201  	46.5	6	44	2.39	47	NE 25	44	100	47
Thu Feb  4 04:44:29 2010	Indianapolis, IN 46201  	27.5	1	24	0.00	33	NW 14	27	91	25
Thu Feb  4 04:44:30 2010	Boston, MA 02101  	28.8	9	24	0.01	31	NNW 13	21	64	18
Thu Feb  4 04:44:31 2010	Jacksonville, FL 32099  	51.1	8	47	0.00	54	NNE 22	48	77	44
Thu Feb  4 04:44:31 2010	Columbus, OH 43085  	31.1	2	31	N/A	36	NNW 17	31	N/A	--
Thu Feb  4 04:44:32 2010	Dallas, TX 75201  	44.6	0	40	0.07	47	E 19	45	85	40
Thu Feb  4 04:44:32 2010	Houston, TX 77001  	46.7	12	45	0.31	52	ESE 32	41	98	46
Thu Feb  4 04:44:33 2010	Seattle, WA 98101  	44.8	2	43	0.17	49	E 12	45	98	44
Thu Feb  4 04:44:34 2010	Milwaukee, WI 53201  	23.0	3	22	0.00	28	NNW 15	23	89	20
Thu Feb  4 04:44:34 2010	Detroit, MI 48201  	28.6	3	26	0.01	32	WNW 18	25	75	22
Thu Feb  4 04:44:35 2010	Philadelphia, PA 19019  	34.9	0	30	0.04	39	NNE 19	35	71	26
Thu Feb  4 05:27:25 2010	San Jose, CA 95101  	55.0	6	44	0.00	63	NW 12	54	79	49
Thu Feb  4 05:27:26 2010	Charlotte, NC 28201  	35.8	3	33	0.00	51	NE 13	36	78	30
Thu Feb  4 05:27:28 2010	San Diego, CA 92101  	57.4	0	53	0.00	64	WNW 15	57	89	54
Thu Feb  4 05:27:29 2010	Denver, CO 80214  	40.3	2	25	0.00	49	SE 12	40	38	16
Thu Feb  4 05:27:31 2010	Memphis, TN 37501  	39.9	11	28	0.00	48	NE 20	33	64	29
Thu Feb  4 05:27:32 2010	Los Angeles, CA 90001  	57.0	0	48	0.00	69	SSW 14	57	83	52
Thu Feb  4 05:27:36 2010	El Paso, TX 79901  	44.7	3	42	0.61	48	ESE 23	43	89	42
Thu Feb  4 05:27:37 2010	New York, NY 10001  	32.2	0	29	0.08	39	NW 19	32	61	20
Thu Feb  4 05:27:39 2010	Baltimore, MD 21201  	33.2	4	29	0.19	40	WNW 24	30	72	25
Thu Feb  4 05:27:40 2010	Las Vegas, NV 89101  	50.3	1	38	0.00	62	NE 10	50	51	33
Thu Feb  4 05:27:41 2010	Washington, DC 20001  	37.3	6	31	0.23	41	NW 21	33	78	31
Thu Feb  4 05:27:42 2010	Austin, TX 73301  	44.1	5	42	0.76	46	SE 20	41	100	44
Thu Feb  4 05:27:43 2010	San Francisco, CA 94101  	55.4	0	50	0.00	61	WNW 14	55	N/A	--
Thu Feb  4 05:27:45 2010	Oklahoma City, OK 73101  	34.8	0	27	0.52	40	SE 9	35	100	35
Thu Feb  4 05:27:46 2010	Nashville, TN 37201  	36.4	10	36	0.00	50	NNE 14	29	74	29
Thu Feb  4 05:27:48 2010	Fort Worth, TX 76101  	41.3	11	37	0.19	46	E 20	35	100	41
Thu Feb  4 05:27:50 2010	Phoenix, AZ 85001  	61.3	1	53	0.00	69	NNW 17	61	53	44
Thu Feb  4 05:27:51 2010	Portland, OR 97201  	47.5	4	43	0.12	48	SSE 10	46	94	46
Thu Feb  4 05:27:52 2010	Chicago, IL 60601  	30.4	1	23	0.00	31	W 21	30	67	21
Thu Feb  4 05:27:53 2010	San Antonio, TX 78201  	46.1	4	44	2.48	47	NE 25	44	100	46
Thu Feb  4 05:27:55 2010	Indianapolis, IN 46201  	27.5	4	24	0.00	33	NW 14	23	92	25
Thu Feb  4 05:27:57 2010	Boston, MA 02101  	27.8	4	24	0.01	31	NNW 14	23	69	19
Thu Feb  4 05:27:58 2010	Jacksonville, FL 32099  	50.0	11	47	0.00	54	NNE 22	46	80	44
Thu Feb  4 05:28:00 2010	Columbus, OH 43085  	27.3	0	27	N/A	36	NNW 17	27	N/A	--
Thu Feb  4 05:28:01 2010	Dallas, TX 75201  	44.1	3	40	0.07	47	E 19	44	89	41
Thu Feb  4 05:28:03 2010	Houston, TX 77001  	46.3	6	45	0.60	52	ESE 32	43	99	46
Thu Feb  4 05:28:05 2010	Seattle, WA 98101  	45.8	4	43	0.26	49	E 12	44	93	44
Thu Feb  4 05:28:06 2010	Milwaukee, WI 53201  	21.9	3	22	0.00	28	NNW 15	17	92	20
Thu Feb  4 05:28:07 2010	Detroit, MI 48201  	27.5	3	26	0.01	32	WNW 18	27	71	19
Thu Feb  4 05:28:09 2010	Philadelphia, PA 19019  	33.9	1	30	0.04	39	NNE 19	34	76	27
Thu Feb  4 06:10:48 2010	San Jose, CA 95101  	55.0	6	44	0.00	63	NW 12	54	79	49
Thu Feb  4 06:10:49 2010	Charlotte, NC 28201  	35.8	3	33	0.00	51	NE 13	36	78	30
Thu Feb  4 06:10:50 2010	San Diego, CA 92101  	57.4	0	53	0.00	64	WNW 15	57	89	54
Thu Feb  4 06:10:51 2010	Memphis, TN 37501  	39.9	11	28	0.00	48	NE 20	33	64	29
Thu Feb  4 06:10:51 2010	Denver, CO 80214  	40.3	2	25	0.00	49	SE 12	40	38	16
Thu Feb  4 06:10:52 2010	Los Angeles, CA 90001  	57.0	0	48	0.00	69	SSW 14	57	83	52
Thu Feb  4 06:10:53 2010	El Paso, TX 79901  	44.7	3	42	0.61	48	ESE 23	43	89	42
Thu Feb  4 06:10:54 2010	New York, NY 10001  	32.2	0	29	0.08	39	NW 19	32	61	20
Thu Feb  4 06:10:54 2010	Baltimore, MD 21201  	33.2	4	29	0.19	40	WNW 24	30	72	25
Thu Feb  4 06:10:55 2010	Las Vegas, NV 89101  	50.3	1	38	0.00	62	NE 10	50	51	33
Thu Feb  4 06:10:56 2010	Washington, DC 20001  	36.0	4	36	0.00	37	NNW 17	33	74	28
Thu Feb  4 06:10:58 2010	Austin, TX 73301  	48.0	9	46	0.90	49	E 16	44	95	47
Thu Feb  4 06:10:59 2010	Oklahoma City, OK 73101  	34.8	0	27	0.52	40	SE 9	35	100	35
Thu Feb  4 06:10:59 2010	San Francisco, CA 94101  	55.4	0	50	0.00	61	WNW 14	55	N/A	--
Thu Feb  4 06:11:00 2010	Fort Worth, TX 76101  	41.3	11	37	0.19	46	E 20	35	100	41
Thu Feb  4 06:11:00 2010	Nashville, TN 37201  	36.4	10	36	0.00	50	NNE 14	29	74	29
Thu Feb  4 06:11:01 2010	Phoenix, AZ 85001  	61.3	1	53	0.00	69	NNW 17	61	53	44
Thu Feb  4 06:11:02 2010	Portland, OR 97201  	47.5	4	43	0.12	48	SSE 10	46	94	46
Thu Feb  4 06:11:03 2010	San Antonio, TX 78201  	46.1	4	44	2.48	47	NE 25	44	100	46
Thu Feb  4 06:11:03 2010	Chicago, IL 60601  	30.4	1	23	0.00	31	W 21	30	67	21
Thu Feb  4 06:11:04 2010	Indianapolis, IN 46201  	27.5	4	24	0.00	33	NW 14	23	92	25
Thu Feb  4 06:11:05 2010	Jacksonville, FL 32099  	50.0	11	47	0.00	54	NNE 22	46	80	44
Thu Feb  4 06:11:05 2010	Boston, MA 02101  	27.8	4	24	0.01	31	NNW 14	23	69	19
Thu Feb  4 06:11:06 2010	Dallas, TX 75201  	44.1	3	40	0.07	47	E 19	44	89	41
Thu Feb  4 06:11:06 2010	Columbus, OH 43085  	27.3	0	27	N/A	36	NNW 17	27	N/A	--
Thu Feb  4 06:11:07 2010	Houston, TX 77001  	46.3	6	45	0.60	52	ESE 32	43	99	46
Thu Feb  4 06:11:08 2010	Seattle, WA 98101  	45.8	4	43	0.26	49	E 12	44	93	44
Thu Feb  4 06:11:08 2010	Milwaukee, WI 53201  	21.9	3	22	0.00	28	NNW 15	17	92	20
Thu Feb  4 06:11:09 2010	Detroit, MI 48201  	27.5	3	26	0.01	32	WNW 18	27	71	19
Thu Feb  4 06:11:10 2010	Philadelphia, PA 19019  	33.9	1	30	0.04	39	NNE 19	34	76	27
Thu Feb  4 06:53:36 2010	San Jose, CA 95101  	54.0	3	44	0.00	63	NW 12	54	84	49
Thu Feb  4 06:53:37 2010	Charlotte, NC 28201  	34.9	6	35	0.00	36	NE 11	30	75	28
Thu Feb  4 06:53:39 2010	San Diego, CA 92101  	55.5	1	53	0.00	64	WNW 15	56	94	54
Thu Feb  4 06:53:40 2010	Denver, CO 80214  	39.2	5	25	0.00	49	SE 12	36	46	20
Thu Feb  4 06:53:41 2010	Memphis, TN 37501  	39.0	10	28	0.00	48	NE 20	32	64	28
Thu Feb  4 06:53:43 2010	Los Angeles, CA 90001  	55.3	0	48	0.00	69	SSW 14	55	89	52
Thu Feb  4 06:53:44 2010	El Paso, TX 79901  	44.1	0	42	0.61	48	ESE 23	44	87	40
Thu Feb  4 06:53:45 2010	New York, NY 10001  	31.7	5	31	0.00	32	NNW 14	27	64	21
Thu Feb  4 06:53:47 2010	Baltimore, MD 21201  	32.8	5	33	0.00	33	NW 12	28	62	21
Thu Feb  4 06:53:48 2010	Las Vegas, NV 89101  	46.7	0	38	0.00	62	NE 10	47	59	33
Thu Feb  4 06:53:49 2010	Washington, DC 20001  	36.0	4	36	0.00	37	NNW 17	33	74	28
Thu Feb  4 06:53:50 2010	Austin, TX 73301  	48.0	9	46	0.90	49	E 16	44	95	47
Thu Feb  4 06:53:53 2010	San Francisco, CA 94101  	53.8	1	50	0.00	61	WNW 14	54	N/A	--
Thu Feb  4 06:53:54 2010	Oklahoma City, OK 73101  	35.0	0	27	0.55	40	SE 9	35	100	35
Thu Feb  4 06:54:01 2010	Nashville, TN 37201  	35.9	4	36	0.00	50	NNE 14	33	75	29
Thu Feb  4 06:54:03 2010	Fort Worth, TX 76101  	40.9	8	37	0.20	46	ESE 21	36	100	41
Thu Feb  4 06:54:04 2010	Phoenix, AZ 85001  	57.4	0	53	0.00	69	NNW 17	57	67	47
Thu Feb  4 06:54:06 2010	Portland, OR 97201  	47.1	4	43	0.12	48	SSE 10	45	95	46
Thu Feb  4 06:54:07 2010	Chicago, IL 60601  	29.5	2	23	0.00	31	W 21	29	70	21
Thu Feb  4 06:54:14 2010	San Antonio, TX 78201  	45.3	6	44	2.51	47	NE 25	42	100	45
Thu Feb  4 06:54:21 2010	Indianapolis, IN 46201  	26.3	3	26	0.00	27	E 5	23	94	25
Thu Feb  4 06:54:23 2010	Boston, MA 02101  	26.7	4	26	0.00	27	NW 13	22	71	18
Thu Feb  4 06:54:25 2010	Jacksonville, FL 32099  	48.0	8	47	0.00	54	NNE 22	44	85	44
Thu Feb  4 06:54:26 2010	Columbus, OH 43085  	24.8	0	25	N/A	25	NNE 0	25	N/A	--
Thu Feb  4 06:54:28 2010	Dallas, TX 75201  	43.2	7	40	0.07	47	E 19	39	93	41
Thu Feb  4 06:54:29 2010	Houston, TX 77001  	45.9	14	45	0.75	52	ESE 32	40	99	46
Thu Feb  4 06:54:31 2010	Seattle, WA 98101  	46.3	3	43	0.26	49	E 12	45	92	44
Thu Feb  4 06:54:33 2010	Milwaukee, WI 53201  	19.9	2	20	0.00	28	NNW 15	20	99	20
Thu Feb  4 06:54:34 2010	Detroit, MI 48201  	26.9	3	27	0.00	28	WNW 6	27	73	19
Thu Feb  4 06:54:36 2010	Philadelphia, PA 19019  	32.8	0	33	0.00	34	NW 7	33	79	27
Thu Feb  4 07:36:58 2010	Charlotte, NC 28201  	34.9	6	35	0.00	36	NE 11	30	75	28
Thu Feb  4 07:36:58 2010	San Jose, CA 95101  	54.0	3	44	0.00	63	NW 12	54	84	49
Thu Feb  4 07:36:59 2010	San Diego, CA 92101  	55.5	1	53	0.00	64	WNW 15	56	94	54
Thu Feb  4 07:37:00 2010	Memphis, TN 37501  	39.0	10	28	0.00	48	NE 20	32	64	28
Thu Feb  4 07:37:00 2010	Denver, CO 80214  	39.2	5	25	0.00	49	SE 12	36	46	20
Thu Feb  4 07:37:01 2010	Los Angeles, CA 90001  	55.3	0	48	0.00	69	SSW 14	55	89	52
Thu Feb  4 07:37:02 2010	El Paso, TX 79901  	44.1	0	42	0.61	48	ESE 23	44	87	40
Thu Feb  4 07:37:02 2010	New York, NY 10001  	31.7	5	31	0.00	32	NNW 14	27	64	21
Thu Feb  4 07:37:03 2010	Las Vegas, NV 89101  	46.7	0	38	0.00	62	NE 10	47	59	33
Thu Feb  4 07:37:03 2010	Baltimore, MD 21201  	32.8	5	33	0.00	33	NW 12	28	62	21
Thu Feb  4 07:37:05 2010	Washington, DC 20001  	35.3	4	35	0.00	37	NW 18	31	69	26
Thu Feb  4 07:37:06 2010	Austin, TX 73301  	48.0	9	46	0.91	49	E 16	44	95	47
Thu Feb  4 07:37:07 2010	Oklahoma City, OK 73101  	35.0	0	27	0.55	40	SE 9	35	100	35
Thu Feb  4 07:37:07 2010	San Francisco, CA 94101  	53.8	1	50	0.00	61	WNW 14	54	N/A	--
Thu Feb  4 07:37:08 2010	Fort Worth, TX 76101  	40.9	8	37	0.20	46	ESE 21	36	100	41
Thu Feb  4 07:37:08 2010	Nashville, TN 37201  	35.9	4	36	0.00	50	NNE 14	33	75	29
Thu Feb  4 07:37:09 2010	Phoenix, AZ 85001  	57.4	0	53	0.00	69	NNW 17	57	67	47
Thu Feb  4 07:37:10 2010	Portland, OR 97201  	47.1	4	43	0.12	48	SSE 10	45	95	46
Thu Feb  4 07:37:10 2010	Chicago, IL 60601  	29.5	2	23	0.00	31	W 21	29	70	21
Thu Feb  4 07:37:11 2010	San Antonio, TX 78201  	45.3	6	44	2.51	47	NE 25	42	100	45
Thu Feb  4 07:37:12 2010	Indianapolis, IN 46201  	26.3	3	26	0.00	27	E 5	23	94	25
Thu Feb  4 07:37:12 2010	Boston, MA 02101  	26.7	4	26	0.00	27	NW 13	22	71	18
Thu Feb  4 07:37:13 2010	Columbus, OH 43085  	24.8	0	25	N/A	25	NNE 0	25	N/A	--
Thu Feb  4 07:37:13 2010	Jacksonville, FL 32099  	48.0	8	47	0.00	54	NNE 22	44	85	44
Thu Feb  4 07:37:14 2010	Dallas, TX 75201  	43.2	7	40	0.07	47	E 19	39	93	41
Thu Feb  4 07:37:15 2010	Seattle, WA 98101  	46.3	3	43	0.26	49	E 12	45	92	44
Thu Feb  4 07:37:15 2010	Houston, TX 77001  	45.9	14	45	0.75	52	ESE 32	40	99	46
Thu Feb  4 07:37:16 2010	Milwaukee, WI 53201  	19.9	2	20	0.00	28	NNW 15	20	99	20
Thu Feb  4 07:37:17 2010	Detroit, MI 48201  	26.9	3	27	0.00	28	WNW 6	27	73	19
Thu Feb  4 07:37:18 2010	Philadelphia, PA 19019  	32.8	0	33	0.00	34	NW 7	33	79	27
Thu Feb  4 08:19:35 2010	San Jose, CA 95101  	51.1	0	44	0.00	63	NW 12	51	87	47
Thu Feb  4 08:19:36 2010	Charlotte, NC 28201  	33.9	5	34	0.00	36	ENE 13	30	76	27
Thu Feb  4 08:19:37 2010	San Diego, CA 92101  	54.2	0	53	0.00	64	WNW 15	54	96	53
Thu Feb  4 08:19:39 2010	Denver, CO 80214  	38.9	2	39	0.00	39	SSE 2	39	46	20
Thu Feb  4 08:19:41 2010	Memphis, TN 37501  	39.9	9	40	0.00	40	NNE 9	34	64	29
Thu Feb  4 08:19:42 2010	Los Angeles, CA 90001  	54.6	0	48	0.00	69	SSW 14	55	90	52
Thu Feb  4 08:19:44 2010	El Paso, TX 79901  	44.3	0	44	0.00	44	SW 2	44	86	40
Thu Feb  4 08:19:45 2010	New York, NY 10001  	31.8	1	31	0.00	32	NNW 14	32	63	21
Thu Feb  4 08:19:47 2010	Baltimore, MD 21201  	31.6	7	32	0.00	33	NW 13	25	59	19
Thu Feb  4 08:19:48 2010	Las Vegas, NV 89101  	44.8	0	38	0.00	62	NE 10	45	60	32
Thu Feb  4 08:19:49 2010	Washington, DC 20001  	35.3	4	35	0.00	37	NW 18	31	69	26
Thu Feb  4 08:19:50 2010	Austin, TX 73301  	48.0	9	46	0.91	49	E 16	44	95	47
Thu Feb  4 08:19:51 2010	San Francisco, CA 94101  	54.0	3	50	0.00	61	WNW 14	54	N/A	--
Thu Feb  4 08:19:52 2010	Oklahoma City, OK 73101  	34.4	1	34	0.04	35	NE 5	34	100	34
Thu Feb  4 08:19:54 2010	Nashville, TN 37201  	35.9	3	36	0.00	36	NNE 9	33	76	29
Thu Feb  4 08:19:55 2010	Fort Worth, TX 76101  	41.1	6	41	0.01	41	E 19	37	100	41
Thu Feb  4 08:19:56 2010	Phoenix, AZ 85001  	55.7	2	56	0.00	56	ENE 7	56	69	46
Thu Feb  4 08:19:59 2010	Portland, OR 97201  	45.4	4	43	0.12	48	SSE 10	44	99	45
Thu Feb  4 08:20:00 2010	Chicago, IL 60601  	28.7	0	29	0.00	30	SSW 6	29	71	20
Thu Feb  4 08:20:02 2010	San Antonio, TX 78201  	45.3	4	45	0.01	45	NE 15	43	100	45
Thu Feb  4 08:20:04 2010	Indianapolis, IN 46201  	26.2	1	26	0.00	27	ENE 6	26	94	25
Thu Feb  4 08:20:05 2010	Boston, MA 02101  	24.7	4	25	0.00	27	NW 13	20	75	18
Thu Feb  4 08:20:07 2010	Jacksonville, FL 32099  	48.9	7	48	0.00	49	NNE 9	46	92	47
Thu Feb  4 08:20:08 2010	Columbus, OH 43085  	22.4	0	22	N/A	25	NNE 0	22	N/A	--
Thu Feb  4 08:20:10 2010	Dallas, TX 75201  	42.5	0	42	0.03	44	ESE 16	42	99	42
Thu Feb  4 08:20:11 2010	Houston, TX 77001  	46.0	9	46	0.16	46	ENE 20	41	99	46
Thu Feb  4 08:20:12 2010	Seattle, WA 98101  	46.2	3	43	0.29	49	E 12	45	79	40
Thu Feb  4 08:20:14 2010	Milwaukee, WI 53201  	19.5	0	19	0.00	20	SW 2	20	100	19
Thu Feb  4 08:20:15 2010	Detroit, MI 48201  	25.6	4	25	0.00	28	WNW 10	21	75	19
Thu Feb  4 08:20:16 2010	Philadelphia, PA 19019  	32.8	5	32	0.00	34	NW 14	28	61	21
Thu Feb  4 09:03:39 2010	San Jose, CA 95101  	51.1	0	44	0.00	63	NW 12	51	87	47
Thu Feb  4 09:03:40 2010	Charlotte, NC 28201  	33.9	5	34	0.00	36	ENE 13	30	76	27
Thu Feb  4 09:03:41 2010	Denver, CO 80214  	38.9	2	39	0.00	39	SSE 2	39	46	20
Thu Feb  4 09:03:41 2010	San Diego, CA 92101  	54.2	0	53	0.00	64	WNW 15	54	96	53
Thu Feb  4 09:03:42 2010	Memphis, TN 37501  	39.9	9	40	0.00	40	NNE 9	34	64	29
Thu Feb  4 09:03:43 2010	Los Angeles, CA 90001  	54.6	0	48	0.00	69	SSW 14	55	90	52
Thu Feb  4 09:03:44 2010	El Paso, TX 79901  	44.3	0	44	0.00	44	SW 2	44	86	40
Thu Feb  4 09:03:45 2010	New York, NY 10001  	31.8	1	31	0.00	32	NNW 14	32	63	21
Thu Feb  4 09:03:46 2010	Las Vegas, NV 89101  	44.8	0	38	0.00	62	NE 10	45	60	32
Thu Feb  4 09:03:46 2010	Baltimore, MD 21201  	31.6	7	32	0.00	33	NW 13	25	59	19
Thu Feb  4 09:03:48 2010	Washington, DC 20001  	33.8	10	34	0.00	37	NW 18	26	69	25
Thu Feb  4 09:03:52 2010	Austin, TX 73301  	48.0	7	48	0.07	48	NNE 11	45	95	47
Thu Feb  4 09:03:53 2010	San Francisco, CA 94101  	54.0	3	50	0.00	61	WNW 14	54	N/A	--
Thu Feb  4 09:03:54 2010	Oklahoma City, OK 73101  	34.4	1	34	0.04	35	NE 5	34	100	34
Thu Feb  4 09:03:54 2010	Nashville, TN 37201  	35.9	3	36	0.00	36	NNE 9	33	76	29
Thu Feb  4 09:03:55 2010	Fort Worth, TX 76101  	41.1	6	41	0.01	41	E 19	37	100	41
Thu Feb  4 09:03:56 2010	Phoenix, AZ 85001  	55.7	2	56	0.00	56	ENE 7	56	69	46
Thu Feb  4 09:03:57 2010	Portland, OR 97201  	45.4	4	43	0.12	48	SSE 10	44	99	45
Thu Feb  4 09:03:57 2010	Chicago, IL 60601  	28.7	0	29	0.00	30	SSW 6	29	71	20
Thu Feb  4 09:04:40 2010	San Antonio, TX 78201  	45.3	4	45	0.01	45	NE 15	43	100	45
Thu Feb  4 09:04:41 2010	Indianapolis, IN 46201  	26.2	1	26	0.00	27	ENE 6	26	94	25
Thu Feb  4 09:04:42 2010	Boston, MA 02101  	24.7	4	25	0.00	27	NW 13	20	75	18
Thu Feb  4 09:04:43 2010	Jacksonville, FL 32099  	48.9	7	48	0.00	49	NNE 9	46	92	47
Thu Feb  4 09:04:44 2010	Columbus, OH 43085  	22.4	0	22	N/A	25	NNE 0	22	N/A	--
Thu Feb  4 09:04:45 2010	Houston, TX 77001  	46.0	9	46	0.16	46	ENE 20	41	99	46
Thu Feb  4 09:04:45 2010	Dallas, TX 75201  	42.5	0	42	0.03	44	ESE 16	42	99	42
Thu Feb  4 09:04:46 2010	Seattle, WA 98101  	46.2	3	43	0.29	49	E 12	45	79	40
Thu Feb  4 09:04:47 2010	Milwaukee, WI 53201  	19.5	0	19	0.00	20	SW 2	20	100	19
Thu Feb  4 09:04:48 2010	Philadelphia, PA 19019  	32.8	5	32	0.00	34	NW 14	28	61	21
Thu Feb  4 09:04:48 2010	Detroit, MI 48201  	25.6	4	25	0.00	28	WNW 10	21	75	19
Thu Feb  4 09:47:07 2010	San Jose, CA 95101  	50.0	0	50	0.00	50	NNE 0	50	93	48
Thu Feb  4 09:47:08 2010	Charlotte, NC 28201  	32.9	1	33	0.00	36	ENE 13	33	78	27
Thu Feb  4 09:47:13 2010	San Diego, CA 92101  	52.2	0	52	0.00	53	E 5	52	96	51
Thu Feb  4 09:47:15 2010	Denver, CO 80214  	37.7	0	38	0.00	39	WSW 4	38	54	22
Thu Feb  4 09:47:16 2010	Memphis, TN 37501  	39.0	7	39	0.00	40	NNE 9	34	64	28
Thu Feb  4 09:47:18 2010	Los Angeles, CA 90001  	54.4	0	54	0.00	55	E 2	54	89	51
Thu Feb  4 09:47:19 2010	El Paso, TX 79901  	43.6	5	44	0.03	44	NNW 9	40	93	42
Thu Feb  4 09:47:22 2010	New York, NY 10001  	31.7	1	31	0.00	32	NNW 16	32	59	19
Thu Feb  4 09:47:23 2010	Baltimore, MD 21201  	30.7	4	31	0.00	33	NNW 14	26	56	17
Thu Feb  4 09:47:24 2010	Las Vegas, NV 89101  	42.1	0	42	0.00	44	NW 1	42	66	32
Thu Feb  4 09:47:26 2010	Washington, DC 20001  	32.6	9	33	0.00	37	NW 18	25	66	22
Thu Feb  4 09:47:29 2010	Austin, TX 73301  	43.2	1	43	0.10	44	NE 12	43	100	43
Thu Feb  4 09:47:31 2010	San Francisco, CA 94101  	53.5	0	53	0.00	54	SW 4	53	N/A	--
Thu Feb  4 09:47:34 2010	Oklahoma City, OK 73101  	34.4	0	34	0.08	35	NE 5	34	100	34
Thu Feb  4 09:47:35 2010	Nashville, TN 37201  	35.7	2	36	0.00	36	NNE 9	36	80	30
Thu Feb  4 09:47:37 2010	Fort Worth, TX 76101  	40.8	7	41	0.03	41	E 19	36	100	41
Thu Feb  4 09:47:38 2010	Phoenix, AZ 85001  	54.0	3	54	0.00	56	ENE 8	54	75	46
Thu Feb  4 09:47:40 2010	Portland, OR 97201  	45.0	1	44	0.00	46	E 9	45	96	44
Thu Feb  4 09:47:41 2010	Chicago, IL 60601  	28.3	0	28	0.00	30	WSW 7	28	72	20
Thu Feb  4 09:47:44 2010	San Antonio, TX 78201  	45.3	5	45	0.08	46	NNE 16	43	100	45
Thu Feb  4 09:47:46 2010	Indianapolis, IN 46201  	26.0	0	26	0.00	27	ENE 6	26	95	25
Thu Feb  4 09:47:47 2010	Boston, MA 02101  	24.1	4	24	0.00	27	NW 13	19	74	17
Thu Feb  4 09:47:49 2010	Jacksonville, FL 32099  	50.0	6	48	0.00	50	NNE 9	48	89	47
Thu Feb  4 09:47:51 2010	Columbus, OH 43085  	21.4	0	21	N/A	25	NNE 1	21	N/A	--
Thu Feb  4 09:47:53 2010	Dallas, TX 75201  	42.2	3	42	0.07	44	SE 19	42	99	42
Thu Feb  4 09:47:57 2010	Houston, TX 77001  	46.1	16	46	0.35	46	ENE 22	39	100	46
Thu Feb  4 09:48:01 2010	Seattle, WA 98101  	45.5	4	45	0.00	46	SW 6	44	80	40
Thu Feb  4 09:48:03 2010	Milwaukee, WI 53201  	19.8	0	19	0.00	21	SW 2	20	100	20
Thu Feb  4 09:48:05 2010	Detroit, MI 48201  	24.8	0	25	0.00	28	WNW 10	25	79	19
Thu Feb  4 09:48:06 2010	Philadelphia, PA 19019  	32.1	0	32	0.00	34	NW 15	32	63	21
Thu Feb  4 10:31:03 2010	Charlotte, NC 28201  	32.9	1	33	0.00	36	ENE 13	33	78	27
Thu Feb  4 10:31:03 2010	San Jose, CA 95101  	50.0	0	50	0.00	50	NNE 0	50	93	48
Thu Feb  4 10:31:04 2010	San Diego, CA 92101  	52.2	0	52	0.00	53	E 5	52	96	51
Thu Feb  4 10:31:05 2010	Memphis, TN 37501  	39.0	7	39	0.00	40	NNE 9	34	64	28
Thu Feb  4 10:31:05 2010	Denver, CO 80214  	37.7	0	38	0.00	39	WSW 4	38	54	22
Thu Feb  4 10:31:06 2010	Los Angeles, CA 90001  	54.4	0	54	0.00	55	E 2	54	89	51
Thu Feb  4 10:31:07 2010	El Paso, TX 79901  	43.6	5	44	0.03	44	NNW 9	40	93	42
Thu Feb  4 10:31:08 2010	Baltimore, MD 21201  	30.7	4	31	0.00	33	NNW 14	26	56	17
Thu Feb  4 10:31:08 2010	New York, NY 10001  	31.7	1	31	0.00	32	NNW 16	32	59	19
Thu Feb  4 10:31:09 2010	Las Vegas, NV 89101  	42.1	0	42	0.00	44	NW 1	42	66	32
Thu Feb  4 10:31:11 2010	Washington, DC 20001  	32.1	11	32	0.00	37	NW 18	23	65	22
Thu Feb  4 10:31:12 2010	Austin, TX 73301  	46.9	8	46	0.11	48	NNE 11	43	100	47
Thu Feb  4 10:31:12 2010	San Francisco, CA 94101  	53.5	0	53	0.00	54	SW 4	53	N/A	--
Thu Feb  4 10:31:13 2010	Oklahoma City, OK 73101  	34.4	0	34	0.08	35	NE 5	34	100	34
Thu Feb  4 10:31:14 2010	Nashville, TN 37201  	35.7	2	36	0.00	36	NNE 9	36	80	30
Thu Feb  4 10:31:15 2010	Fort Worth, TX 76101  	40.8	7	41	0.03	41	E 19	36	100	41
Thu Feb  4 10:31:15 2010	Phoenix, AZ 85001  	54.0	3	54	0.00	56	ENE 8	54	75	46
Thu Feb  4 10:31:16 2010	Portland, OR 97201  	45.0	1	44	0.00	46	E 9	45	96	44
Thu Feb  4 10:31:17 2010	San Antonio, TX 78201  	45.3	5	45	0.08	46	NNE 16	43	100	45
Thu Feb  4 10:31:17 2010	Chicago, IL 60601  	28.3	0	28	0.00	30	WSW 7	28	72	20
Thu Feb  4 10:31:18 2010	Indianapolis, IN 46201  	26.0	0	26	0.00	27	ENE 6	26	95	25
Thu Feb  4 10:31:19 2010	Jacksonville, FL 32099  	50.0	6	48	0.00	50	NNE 9	48	89	47
Thu Feb  4 10:31:19 2010	Boston, MA 02101  	24.1	4	24	0.00	27	NW 13	19	74	17
Thu Feb  4 10:31:20 2010	Columbus, OH 43085  	21.4	0	21	N/A	25	NNE 1	21	N/A	--
Thu Feb  4 10:31:20 2010	Dallas, TX 75201  	42.2	3	42	0.07	44	SE 19	42	99	42
Thu Feb  4 10:31:21 2010	Houston, TX 77001  	46.1	16	46	0.35	46	ENE 22	39	100	46
Thu Feb  4 10:31:22 2010	Milwaukee, WI 53201  	19.8	0	19	0.00	21	SW 2	20	100	20
Thu Feb  4 10:31:22 2010	Seattle, WA 98101  	45.5	4	45	0.00	46	SW 6	44	80	40
Thu Feb  4 10:31:23 2010	Detroit, MI 48201  	24.8	0	25	0.00	28	WNW 10	25	79	19
Thu Feb  4 10:31:24 2010	Philadelphia, PA 19019  	32.1	0	32	0.00	34	NW 15	32	63	21
Thu Feb  4 11:16:45 2010	San Jose, CA 95101  	50.0	3	50	0.00	51	S 3	49	89	47
Thu Feb  4 11:16:47 2010	Charlotte, NC 28201  	32.3	2	32	0.00	36	ENE 13	32	79	27
Thu Feb  4 11:16:49 2010	San Diego, CA 92101  	51.2	0	51	0.00	53	E 5	51	97	50
Thu Feb  4 11:16:51 2010	Denver, CO 80214  	36.2	0	36	0.00	39	WSW 4	36	63	25
Thu Feb  4 11:16:53 2010	Memphis, TN 37501  	39.9	8	39	0.00	40	NNE 9	35	66	30
Thu Feb  4 11:16:55 2010	Los Angeles, CA 90001  	55.6	2	54	0.00	56	SE 7	56	84	51
Thu Feb  4 11:16:57 2010	El Paso, TX 79901  	43.4	2	43	0.04	44	NNW 10	43	92	41
Thu Feb  4 11:16:59 2010	New York, NY 10001  	29.9	4	30	0.00	32	WSW 17	26	57	16
Thu Feb  4 11:17:02 2010	Baltimore, MD 21201  	29.6	3	30	0.00	33	NNW 14	30	59	17
Thu Feb  4 11:17:04 2010	Las Vegas, NV 89101  	40.8	0	40	0.00	44	WNW 4	41	67	31
Thu Feb  4 11:17:07 2010	Washington, DC 20001  	31.7	6	32	0.00	37	NW 18	26	66	21
Thu Feb  4 11:17:09 2010	Austin, TX 73301  	43.1	1	43	0.14	44	NE 12	43	100	43
Thu Feb  4 11:17:14 2010	San Francisco, CA 94101  	52.8	1	52	0.00	54	ESE 7	53	N/A	--
Thu Feb  4 11:17:16 2010	Oklahoma City, OK 73101  	34.1	0	34	0.12	35	ENE 7	34	100	34
Thu Feb  4 11:17:18 2010	Nashville, TN 37201  	35.8	3	36	0.00	36	NNE 9	36	81	31
Thu Feb  4 11:17:20 2010	Fort Worth, TX 76101  	41.1	7	41	0.06	41	E 19	36	100	41
Thu Feb  4 11:17:23 2010	Phoenix, AZ 85001  	53.0	1	53	0.00	56	E 8	53	76	46
Thu Feb  4 11:17:27 2010	Portland, OR 97201  	44.6	1	44	0.00	46	E 9	45	94	43
Thu Feb  4 11:17:30 2010	Chicago, IL 60601  	28.9	2	28	0.00	30	W 9	29	71	21
Thu Feb  4 11:17:32 2010	San Antonio, TX 78201  	45.5	5	45	0.08	46	NNE 16	43	100	46
Thu Feb  4 11:17:35 2010	Indianapolis, IN 46201  	26.3	1	26	0.00	27	ENE 6	26	95	25
Thu Feb  4 11:17:38 2010	Boston, MA 02101  	23.4	4	23	0.00	27	NW 14	19	76	17
Thu Feb  4 11:17:41 2010	Jacksonville, FL 32099  	54.0	16	48	0.00	54	NE 16	50	84	49
Thu Feb  4 11:17:43 2010	Columbus, OH 43085  	21.2	0	21	N/A	25	NNE 1	21	N/A	--
Thu Feb  4 11:17:45 2010	Dallas, TX 75201  	42.2	2	42	0.09	44	SE 19	42	100	42
Thu Feb  4 11:17:50 2010	Houston, TX 77001  	46.7	9	46	0.41	47	E 28	42	100	47
Thu Feb  4 11:17:53 2010	Seattle, WA 98101  	45.2	1	45	0.00	46	SW 9	45	82	40
Thu Feb  4 11:18:00 2010	Milwaukee, WI 53201  	21.8	4	19	0.00	22	SW 6	17	100	22
Thu Feb  4 11:18:04 2010	Detroit, MI 48201  	23.9	2	24	0.00	28	WNW 10	24	81	19
Thu Feb  4 11:18:06 2010	Philadelphia, PA 19019  	30.5	5	31	0.00	34	NW 15	25	65	20
Thu Feb  4 12:00:23 2010	San Jose, CA 95101  	50.0	3	50	0.00	51	S 3	49	89	47
Thu Feb  4 12:00:24 2010	San Diego, CA 92101  	51.2	0	51	0.00	53	E 5	51	97	50
Thu Feb  4 12:00:24 2010	Charlotte, NC 28201  	32.3	2	32	0.00	36	ENE 13	32	79	27
Thu Feb  4 12:00:25 2010	Denver, CO 80214  	36.2	0	36	0.00	39	WSW 4	36	63	25
Thu Feb  4 12:00:26 2010	Memphis, TN 37501  	39.9	8	39	0.00	40	NNE 9	35	66	30
Thu Feb  4 12:00:26 2010	Los Angeles, CA 90001  	55.6	2	54	0.00	56	SE 7	56	84	51
Thu Feb  4 12:00:27 2010	El Paso, TX 79901  	43.4	2	43	0.04	44	NNW 10	43	92	41
Thu Feb  4 12:00:28 2010	New York, NY 10001  	29.9	4	30	0.00	32	WSW 17	26	57	16
Thu Feb  4 12:00:29 2010	Baltimore, MD 21201  	29.6	3	30	0.00	33	NNW 14	30	59	17
Thu Feb  4 12:00:29 2010	Las Vegas, NV 89101  	40.8	0	40	0.00	44	WNW 4	41	67	31
Thu Feb  4 12:00:30 2010	Washington, DC 20001  	31.7	6	32	0.00	37	NW 18	26	66	21
Thu Feb  4 12:00:31 2010	Austin, TX 73301  	43.1	1	43	0.14	44	NE 12	43	100	43
Thu Feb  4 12:00:32 2010	Oklahoma City, OK 73101  	34.1	0	34	0.12	35	ENE 7	34	100	34
Thu Feb  4 12:00:32 2010	San Francisco, CA 94101  	52.8	1	52	0.00	54	ESE 7	53	N/A	--
Thu Feb  4 12:00:33 2010	Nashville, TN 37201  	35.8	3	36	0.00	36	NNE 9	36	81	31
Thu Feb  4 12:00:35 2010	Fort Worth, TX 76101  	41.1	7	41	0.06	41	E 19	36	100	41
Thu Feb  4 12:00:35 2010	Phoenix, AZ 85001  	53.0	1	53	0.00	56	E 8	53	76	46
Thu Feb  4 12:00:36 2010	Portland, OR 97201  	44.6	1	44	0.00	46	E 9	45	94	43
Thu Feb  4 12:00:37 2010	Chicago, IL 60601  	28.9	2	28	0.00	30	W 9	29	71	21
Thu Feb  4 12:00:38 2010	San Antonio, TX 78201  	45.5	5	45	0.08	46	NNE 16	43	100	46
Thu Feb  4 12:00:39 2010	Indianapolis, IN 46201  	26.3	1	26	0.00	27	ENE 6	26	95	25
Thu Feb  4 12:00:40 2010	Jacksonville, FL 32099  	54.0	16	48	0.00	54	NE 16	50	84	49
Thu Feb  4 12:00:40 2010	Boston, MA 02101  	23.4	4	23	0.00	27	NW 14	19	76	17
Thu Feb  4 12:00:41 2010	Columbus, OH 43085  	21.2	0	21	N/A	25	NNE 1	21	N/A	--
Thu Feb  4 12:00:42 2010	Dallas, TX 75201  	42.2	2	42	0.09	44	SE 19	42	100	42
Thu Feb  4 12:00:46 2010	Houston, TX 77001  	46.7	9	46	0.41	47	E 28	42	100	47
Thu Feb  4 12:00:48 2010	Seattle, WA 98101  	45.2	1	45	0.00	46	SW 9	45	82	40
Thu Feb  4 12:00:49 2010	Milwaukee, WI 53201  	21.8	4	19	0.00	22	SW 6	17	100	22
Thu Feb  4 12:00:50 2010	Detroit, MI 48201  	23.9	2	24	0.00	28	WNW 10	24	81	19
Thu Feb  4 12:00:51 2010	Philadelphia, PA 19019  	30.5	5	31	0.00	34	NW 15	25	65	20
Thu Feb  4 12:43:41 2010	San Jose, CA 95101  	51.1	6	50	0.00	51	SE 6	49	83	46
Thu Feb  4 12:43:43 2010	Charlotte, NC 28201  	32.2	2	32	0.00	36	ENE 13	32	79	27
Thu Feb  4 12:43:44 2010	San Diego, CA 92101  	52.2	2	51	0.00	53	ESE 5	52	93	50
Thu Feb  4 12:43:46 2010	Denver, CO 80214  	33.3	0	33	0.00	39	WSW 4	33	72	25
Thu Feb  4 12:43:47 2010	Memphis, TN 37501  	39.0	8	39	0.00	40	NNE 9	33	66	29
Thu Feb  4 12:43:49 2010	Los Angeles, CA 90001  	55.6	0	54	0.00	56	SE 7	56	82	50
Thu Feb  4 12:43:50 2010	El Paso, TX 79901  	43.1	2	43	0.04	44	NNW 11	43	94	42
Thu Feb  4 12:43:51 2010	New York, NY 10001  	28.6	2	28	0.00	32	WSW 17	29	56	15
Thu Feb  4 12:43:53 2010	Baltimore, MD 21201  	28.9	2	29	0.00	33	NNW 14	29	60	17
Thu Feb  4 12:43:54 2010	Las Vegas, NV 89101  	39.7	2	40	0.00	44	NNE 5	40	61	27
Thu Feb  4 12:43:55 2010	Washington, DC 20001  	31.5	7	31	0.00	37	NW 18	25	68	22
Thu Feb  4 12:43:57 2010	Austin, TX 73301  	42.7	5	43	0.16	44	NE 12	39	100	43
Thu Feb  4 12:43:58 2010	San Francisco, CA 94101  	52.3	0	52	0.00	54	ESE 7	52	N/A	--
Thu Feb  4 12:44:00 2010	Oklahoma City, OK 73101  	33.7	1	33	0.15	35	SE 11	34	100	34
Thu Feb  4 12:44:01 2010	Nashville, TN 37201  	35.7	4	36	0.00	36	NE 11	32	80	30
Thu Feb  4 12:44:03 2010	Fort Worth, TX 76101  	40.9	6	41	0.10	41	E 19	37	100	41
Thu Feb  4 12:44:05 2010	Phoenix, AZ 85001  	51.1	2	51	0.00	56	E 8	51	80	45
Thu Feb  4 12:44:06 2010	Portland, OR 97201  	44.1	1	44	0.00	46	E 9	44	92	42
Thu Feb  4 12:44:08 2010	Chicago, IL 60601  	28.4	2	28	0.00	30	W 11	28	71	20
Thu Feb  4 12:44:10 2010	San Antonio, TX 78201  	45.7	7	45	0.08	46	NNE 16	42	100	46
Thu Feb  4 12:44:13 2010	Indianapolis, IN 46201  	26.6	2	26	0.00	27	E 7	27	96	26
Thu Feb  4 12:44:15 2010	Boston, MA 02101  	23.5	2	23	0.00	27	NNE 15	23	72	16
Thu Feb  4 12:44:17 2010	Jacksonville, FL 32099  	55.0	12	48	0.00	55	NE 16	52	79	49
Thu Feb  4 12:44:19 2010	Columbus, OH 43085  	22.4	0	20	N/A	25	NNE 1	22	N/A	--
Thu Feb  4 12:44:20 2010	Dallas, TX 75201  	42.7	2	42	0.14	44	SE 19	43	99	42
Thu Feb  4 12:44:21 2010	Houston, TX 77001  	50.7	9	46	0.43	52	SE 45	47	89	47
Thu Feb  4 12:44:23 2010	Seattle, WA 98101  	43.7	2	44	0.00	46	SW 9	44	87	40
Thu Feb  4 12:44:24 2010	Milwaukee, WI 53201  	22.3	2	19	0.00	23	SSW 6	22	100	22
Thu Feb  4 12:44:26 2010	Detroit, MI 48201  	23.3	1	23	0.00	28	WNW 10	23	85	19
Thu Feb  4 12:44:27 2010	Philadelphia, PA 19019  	29.7	5	30	0.00	34	NW 15	25	60	17
Thu Feb  4 13:27:49 2010	San Jose, CA 95101  	51.1	6	50	0.00	51	SE 6	49	83	46
Thu Feb  4 13:27:50 2010	Charlotte, NC 28201  	32.2	2	32	0.00	36	ENE 13	32	79	27
Thu Feb  4 13:27:50 2010	San Diego, CA 92101  	52.2	2	51	0.00	53	ESE 5	52	93	50
Thu Feb  4 13:27:51 2010	Denver, CO 80214  	33.3	0	33	0.00	39	WSW 4	33	72	25
Thu Feb  4 13:27:52 2010	Memphis, TN 37501  	39.0	8	39	0.00	40	NNE 9	33	66	29
Thu Feb  4 13:27:53 2010	El Paso, TX 79901  	43.1	2	43	0.04	44	NNW 11	43	94	42
Thu Feb  4 13:27:53 2010	Los Angeles, CA 90001  	55.6	0	54	0.00	56	SE 7	56	82	50
Thu Feb  4 13:27:54 2010	New York, NY 10001  	28.6	2	28	0.00	32	WSW 17	29	56	15
Thu Feb  4 13:27:55 2010	Baltimore, MD 21201  	28.9	2	29	0.00	33	NNW 14	29	60	17
Thu Feb  4 13:27:56 2010	Las Vegas, NV 89101  	39.7	2	40	0.00	44	NNE 5	40	61	27
Thu Feb  4 13:27:57 2010	Washington, DC 20001  	30.9	11	31	0.00	37	NW 18	22	67	21
Thu Feb  4 13:27:58 2010	Austin, TX 73301  	46.9	7	46	0.19	48	NNE 11	44	100	47
Thu Feb  4 13:27:59 2010	San Francisco, CA 94101  	52.3	0	52	0.00	54	ESE 7	52	N/A	--
Thu Feb  4 13:28:00 2010	Oklahoma City, OK 73101  	33.7	1	33	0.15	35	SE 11	34	100	34
Thu Feb  4 13:28:01 2010	Nashville, TN 37201  	35.7	4	36	0.00	36	NE 11	32	80	30
Thu Feb  4 13:28:02 2010	Fort Worth, TX 76101  	40.9	6	41	0.10	41	E 19	37	100	41
Thu Feb  4 13:28:02 2010	Phoenix, AZ 85001  	51.1	2	51	0.00	56	E 8	51	80	45
Thu Feb  4 13:28:03 2010	Portland, OR 97201  	44.1	1	44	0.00	46	E 9	44	92	42
Thu Feb  4 13:28:04 2010	San Antonio, TX 78201  	45.7	7	45	0.08	46	NNE 16	42	100	46
Thu Feb  4 13:28:04 2010	Chicago, IL 60601  	28.4	2	28	0.00	30	W 11	28	71	20
Thu Feb  4 13:28:05 2010	Indianapolis, IN 46201  	26.6	2	26	0.00	27	E 7	27	96	26
Thu Feb  4 13:28:06 2010	Jacksonville, FL 32099  	55.0	12	48	0.00	55	NE 16	52	79	49
Thu Feb  4 13:28:06 2010	Boston, MA 02101  	23.5	2	23	0.00	27	NNE 15	23	72	16
Thu Feb  4 13:28:07 2010	Columbus, OH 43085  	22.4	0	20	N/A	25	NNE 1	22	N/A	--
Thu Feb  4 13:28:08 2010	Dallas, TX 75201  	42.7	2	42	0.14	44	SE 19	43	99	42
Thu Feb  4 13:28:08 2010	Houston, TX 77001  	50.7	9	46	0.43	52	SE 45	47	89	47
Thu Feb  4 13:28:09 2010	Seattle, WA 98101  	43.7	2	44	0.00	46	SW 9	44	87	40
Thu Feb  4 13:28:10 2010	Milwaukee, WI 53201  	22.3	2	19	0.00	23	SSW 6	22	100	22
Thu Feb  4 13:28:11 2010	Philadelphia, PA 19019  	29.7	5	30	0.00	34	NW 15	25	60	17
Thu Feb  4 13:28:11 2010	Detroit, MI 48201  	23.3	1	23	0.00	28	WNW 10	23	85	19
Thu Feb  4 14:19:39 2010	San Jose, CA 95101  	51.1	7	50	0.00	51	SE 7	49	87	47
Thu Feb  4 14:19:42 2010	Charlotte, NC 28201  	33.2	3	32	0.00	36	ENE 13	33	75	26
Thu Feb  4 14:19:44 2010	San Diego, CA 92101  	52.6	3	51	0.00	53	ESE 5	53	91	50
Thu Feb  4 14:19:47 2010	Denver, CO 80214  	31.7	3	32	0.00	39	NW 11	32	83	27
Thu Feb  4 14:19:50 2010	Memphis, TN 37501  	37.9	7	38	0.00	40	NNE 9	33	74	30
Thu Feb  4 14:19:53 2010	Los Angeles, CA 90001  	54.3	3	54	0.00	56	ESE 10	54	84	49
Thu Feb  4 14:19:55 2010	El Paso, TX 79901  	43.2	5	43	0.04	44	NNW 11	40	92	41
Thu Feb  4 14:19:58 2010	New York, NY 10001  	27.9	2	28	0.00	32	WSW 17	28	51	12
Thu Feb  4 14:20:02 2010	Baltimore, MD 21201  	30.3	0	28	0.00	33	NNW 14	30	55	16
Thu Feb  4 14:20:05 2010	Las Vegas, NV 89101  	37.7	1	38	0.00	44	NNE 5	38	66	27
Thu Feb  4 14:20:06 2010	Washington, DC 20001  	30.9	11	31	0.00	37	NW 18	22	67	21
Thu Feb  4 14:20:09 2010	Austin, TX 73301  	43.3	1	43	0.16	44	NE 12	43	100	43
Thu Feb  4 14:20:12 2010	San Francisco, CA 94101  	52.0	7	52	0.00	54	E 9	50	N/A	--
Thu Feb  4 14:20:14 2010	Oklahoma City, OK 73101  	34.0	1	33	0.20	35	SE 11	34	100	34
Thu Feb  4 14:20:17 2010	Nashville, TN 37201  	35.7	5	35	0.00	36	NE 11	32	78	30
Thu Feb  4 14:20:19 2010	Fort Worth, TX 76101  	40.9	6	40	0.10	41	E 19	37	100	41
Thu Feb  4 14:20:22 2010	Phoenix, AZ 85001  	49.8	3	50	0.00	56	E 8	50	81	44
Thu Feb  4 14:20:24 2010	Portland, OR 97201  	43.9	2	43	0.00	46	E 9	44	92	42
Thu Feb  4 14:20:26 2010	Chicago, IL 60601  	29.0	2	28	0.00	30	W 11	29	71	21
Thu Feb  4 14:20:28 2010	San Antonio, TX 78201  	45.9	5	45	0.08	46	NNE 16	44	100	46
Thu Feb  4 14:20:31 2010	Indianapolis, IN 46201  	26.8	3	26	0.00	27	E 7	27	96	26
Thu Feb  4 14:20:33 2010	Boston, MA 02101  	23.0	10	23	0.00	27	NNW 22	13	55	9
Thu Feb  4 14:20:35 2010	Jacksonville, FL 32099  	55.9	10	48	0.00	56	NE 16	53	82	51
Thu Feb  4 14:20:38 2010	Columbus, OH 43085  	23.4	0	20	N/A	25	NNE 2	23	N/A	--
Thu Feb  4 14:20:40 2010	Dallas, TX 75201  	42.1	7	42	0.23	44	SE 19	38	100	42
Thu Feb  4 14:20:43 2010	Houston, TX 77001  	47.1	20	46	0.45	52	SE 45	40	95	46
Thu Feb  4 14:20:45 2010	Seattle, WA 98101  	44.7	1	44	0.00	46	SW 9	45	83	40
Thu Feb  4 14:20:47 2010	Milwaukee, WI 53201  	22.9	3	19	0.00	23	SSW 10	23	98	22
Thu Feb  4 14:20:50 2010	Detroit, MI 48201  	24.9	1	23	0.00	28	WNW 10	25	80	20
Thu Feb  4 14:20:52 2010	Philadelphia, PA 19019  	30.1	5	29	0.00	34	NW 15	25	59	17
Thu Feb  4 15:05:25 2010	San Jose, CA 95101  	51.1	7	50	0.00	51	SE 7	49	87	47
Thu Feb  4 15:05:27 2010	Charlotte, NC 28201  	33.2	3	32	0.00	36	ENE 13	33	75	26
Thu Feb  4 15:05:29 2010	San Diego, CA 92101  	52.6	3	51	0.00	53	ESE 5	53	91	50
Thu Feb  4 15:05:31 2010	Denver, CO 80214  	31.7	3	32	0.00	39	NW 11	32	83	27
Thu Feb  4 15:05:32 2010	Memphis, TN 37501  	37.9	7	38	0.00	40	NNE 9	33	74	30
Thu Feb  4 15:05:34 2010	Los Angeles, CA 90001  	54.3	3	54	0.00	56	ESE 10	54	84	49
Thu Feb  4 15:05:36 2010	El Paso, TX 79901  	43.2	5	43	0.04	44	NNW 11	40	92	41
Thu Feb  4 15:05:38 2010	New York, NY 10001  	27.9	2	28	0.00	32	WSW 17	28	51	12
Thu Feb  4 15:05:39 2010	Baltimore, MD 21201  	30.3	0	28	0.00	33	NNW 14	30	55	16
Thu Feb  4 15:05:41 2010	Las Vegas, NV 89101  	37.7	1	38	0.00	44	NNE 5	38	66	27
Thu Feb  4 15:05:45 2010	Washington, DC 20001  	31.8	11	31	0.00	37	NNW 21	23	63	21
Thu Feb  4 15:05:48 2010	Austin, TX 73301  	46.9	9	46	0.21	48	NNE 11	43	100	47
Thu Feb  4 15:05:53 2010	San Francisco, CA 94101  	52.0	7	52	0.00	54	E 9	50	N/A	--
Thu Feb  4 15:05:55 2010	Oklahoma City, OK 73101  	34.0	1	33	0.20	35	SE 11	34	100	34
Thu Feb  4 15:05:57 2010	Nashville, TN 37201  	35.7	5	35	0.00	36	NE 11	32	78	30
Thu Feb  4 15:05:58 2010	Fort Worth, TX 76101  	40.9	6	40	0.10	41	E 19	37	100	41
Thu Feb  4 15:06:00 2010	Phoenix, AZ 85001  	49.8	3	50	0.00	56	E 8	50	81	44
Thu Feb  4 15:06:02 2010	Portland, OR 97201  	43.9	2	43	0.00	46	E 9	44	92	42
Thu Feb  4 15:06:04 2010	Chicago, IL 60601  	29.0	2	28	0.00	30	W 11	29	71	21
Thu Feb  4 15:06:06 2010	San Antonio, TX 78201  	45.9	5	45	0.08	46	NNE 16	44	100	46
Thu Feb  4 15:06:08 2010	Indianapolis, IN 46201  	26.8	3	26	0.00	27	E 7	27	96	26
Thu Feb  4 15:06:09 2010	Boston, MA 02101  	23.0	10	23	0.00	27	NNW 22	13	55	9
Thu Feb  4 15:06:11 2010	Jacksonville, FL 32099  	55.9	10	48	0.00	56	NE 16	53	82	51
Thu Feb  4 15:06:13 2010	Columbus, OH 43085  	23.4	0	20	N/A	25	NNE 2	23	N/A	--
Thu Feb  4 15:06:14 2010	Dallas, TX 75201  	42.1	7	42	0.23	44	SE 19	38	100	42
Thu Feb  4 15:06:17 2010	Houston, TX 77001  	47.1	20	46	0.45	52	SE 45	40	95	46
Thu Feb  4 15:06:19 2010	Seattle, WA 98101  	44.7	1	44	0.00	46	SW 9	45	83	40
Thu Feb  4 15:06:21 2010	Milwaukee, WI 53201  	22.9	3	19	0.00	23	SSW 10	23	98	22
Thu Feb  4 15:06:24 2010	Detroit, MI 48201  	24.9	1	23	0.00	28	WNW 10	25	80	20
Thu Feb  4 15:06:26 2010	Philadelphia, PA 19019  	30.1	5	29	0.00	34	NW 15	25	59	17
Thu Jan 28 15:45:39 2010	San Jose, CA 95101  	46.4	0	46	0.00	50	S 5	46	93	45
Thu Jan 28 15:45:39 2010	Charlotte, NC 28201  	35.8	2	29	0.00	36	W 6	36	78	30
Thu Jan 28 15:45:40 2010	San Diego, CA 92101  	50.5	2	49	0.00	53	NE 5	51	93	48
Thu Jan 28 15:45:41 2010	Denver, CO 80214  	27.6	5	27	0.00	29	NNW 9	22	99	27
Thu Jan 28 15:45:42 2010	Memphis, TN 37501  	46.9	10	47	0.00	53	NE 16	42	72	38
Thu Jan 28 15:45:43 2010	Los Angeles, CA 90001  	47.1	0	46	0.00	54	NE 7	47	86	43
Thu Jan 28 15:45:44 2010	El Paso, TX 79901  	46.2	3	45	0.05	49	NNW 15	46	91	44
Thu Jan 28 15:45:44 2010	New York, NY 10001  	31.5	2	31	0.00	34	W 13	32	93	30
Thu Jan 28 15:45:45 2010	Baltimore, MD 21201  	34.4	5	32	0.00	35	SW 9	30	65	24
Thu Jan 28 15:45:46 2010	Las Vegas, NV 89101  	43.8	9	40	0.00	45	NW 13	39	60	31
Thu Jan 28 15:45:47 2010	Washington, DC 20001  	38.1	6	36	0.00	38	S 15	33	69	29
Thu Jan 28 15:45:48 2010	Austin, TX 73301  	62.1	10	61	0.00	63	SE 14	61	88	58
Thu Jan 28 15:45:49 2010	San Francisco, CA 94101  	48.3	4	48	0.00	49	E 7	47	N/A	--
Thu Jan 28 15:45:50 2010	Nashville, TN 37201  	41.4	3	41	0.06	49	NNW 15	41	75	34
Thu Jan 28 15:45:50 2010	Oklahoma City, OK 73101  	28.5	1	28	0.00	41	NNW 18	29	47	10
Thu Jan 28 15:45:51 2010	Fort Worth, TX 76101  	55.6	8	55	0.00	57	SE 15	54	96	54
Thu Jan 28 15:45:52 2010	Phoenix, AZ 85001  	51.3	2	51	0.01	56	ENE 11	51	92	49
Thu Jan 28 15:45:53 2010	Portland, OR 97201  	45.4	2	45	0.00	47	ESE 16	45	70	36
Thu Jan 28 15:45:53 2010	Chicago, IL 60601  	6.7	11	7	0.00	17	N 33	-8	72	-1
Thu Jan 28 15:45:55 2010	San Antonio, TX 78201  	60.8	18	60	N/A	62	SE 24	58	100	61
Thu Jan 28 15:45:56 2010	Indianapolis, IN 46201  	15.2	11	15	0.00	32	NNW 25	2	87	12
Thu Jan 28 15:45:57 2010	Boston, MA 02101  	29.9	7	26	0.00	33	SSW 14	23	62	18
Thu Jan 28 15:45:58 2010	Columbus, OH 43085  	22.4	16	22	N/A	33	NW 29	9	N/A	--
Thu Jan 28 15:45:58 2010	Jacksonville, FL 32099  	41.0	3	41	0.00	46	NW 3	39	89	38
Thu Jan 28 15:45:59 2010	Dallas, TX 75201  	56.6	3	57	0.00	59	S 14	57	90	54
Thu Jan 28 15:46:00 2010	Seattle, WA 98101  	44.7	0	43	0.00	45	E 5	45	83	40
Thu Jan 28 15:46:00 2010	Houston, TX 77001  	56.6	5	56	0.00	57	SE 21	56	93	55
Thu Jan 28 15:46:01 2010	Milwaukee, WI 53201  	3.0	4	2	0.00	11	NW 27	-6	72	-4
Thu Jan 28 15:46:02 2010	Philadelphia, PA 19019  	35.2	2	31	0.00	36	W 10	35	73	27
Thu Jan 28 15:46:02 2010	Detroit, MI 48201  	13.9	7	14	0.00	25	W 36	3	59	2
Thu Jan 28 16:09:49 2010	San Jose, CA 95101  	44.6	3	45	0.00	50	S 5	43	100	45
Thu Jan 28 16:09:50 2010	Charlotte, NC 28201  	43.3	4	29	0.00	43	W 6	42	61	31
Thu Jan 28 16:09:52 2010	San Diego, CA 92101  	51.1	0	49	0.00	53	NE 5	51	89	48
Thu Jan 28 16:09:53 2010	Denver, CO 80214  	27.3	2	27	0.00	29	NNW 9	27	98	27
Thu Jan 28 16:09:56 2010	Memphis, TN 37501  	42.1	10	42	0.00	53	NE 16	36	71	33
Thu Jan 28 16:09:57 2010	Los Angeles, CA 90001  	49.0	0	46	0.00	54	NE 7	49	79	43
Thu Jan 28 16:09:59 2010	El Paso, TX 79901  	46.5	1	45	0.05	49	NNW 15	47	91	44
Thu Jan 28 16:10:00 2010	New York, NY 10001  	33.7	0	31	0.00	34	W 13	34	96	33
Thu Jan 28 16:10:03 2010	Baltimore, MD 21201  	36.3	3	32	0.00	36	WNW 11	36	61	24
Thu Jan 28 16:10:05 2010	Las Vegas, NV 89101  	43.3	4	40	0.00	45	NW 13	41	61	31
Thu Jan 28 16:10:06 2010	Washington, DC 20001  	40.5	7	36	0.00	41	S 15	36	62	28
Thu Jan 28 16:10:08 2010	Austin, TX 73301  	63.0	16	61	0.00	63	SSE 16	61	88	59
Thu Jan 28 16:10:09 2010	San Francisco, CA 94101  	48.0	4	48	0.00	49	E 7	46	N/A	--
Thu Jan 28 16:10:11 2010	Oklahoma City, OK 73101  	27.1	0	27	0.00	41	NNW 18	27	5	-37
Thu Jan 28 16:10:15 2010	Nashville, TN 37201  	39.1	3	39	0.06	49	NW 18	39	82	34
Thu Jan 28 16:10:29 2010	Fort Worth, TX 76101  	55.8	12	55	0.00	57	SE 18	53	96	55
Thu Jan 28 16:10:31 2010	Phoenix, AZ 85001  	52.4	2	51	0.01	56	ENE 11	52	88	49
Thu Jan 28 16:10:33 2010	Portland, OR 97201  	45.3	3	45	0.00	47	ESE 16	44	69	36
Thu Jan 28 16:10:34 2010	Chicago, IL 60601  	7.5	7	6	0.00	17	N 33	-4	67	-1
Thu Jan 28 16:10:36 2010	San Antonio, TX 78201  	60.5	18	60	N/A	62	ESE 25	58	100	60
Thu Jan 28 16:10:37 2010	Indianapolis, IN 46201  	16.2	10	15	0.00	32	NNW 25	4	78	10
Thu Jan 28 16:10:39 2010	Boston, MA 02101  	30.4	6	26	0.00	33	SSW 14	25	59	18
Thu Jan 28 16:10:41 2010	Jacksonville, FL 32099  	51.1	3	41	0.00	51	NW 3	51	69	41
Thu Jan 28 16:10:43 2010	Columbus, OH 43085  	21.0	6	21	N/A	33	NW 29	13	N/A	--
Thu Jan 28 16:10:50 2010	Dallas, TX 75201  	57.0	5	57	0.00	59	S 14	57	89	54
Thu Jan 28 16:10:51 2010	Houston, TX 77001  	56.8	5	56	0.00	57	SE 21	56	92	55
Thu Jan 28 16:10:53 2010	Seattle, WA 98101  	44.8	1	43	0.00	45	E 5	45	79	39
Thu Jan 28 16:10:56 2010	Milwaukee, WI 53201  	2.8	12	2	0.00	11	NW 27	-14	70	-5
Thu Jan 28 16:10:58 2010	Detroit, MI 48201  	11.9	17	12	0.00	25	W 36	-5	73	5
Thu Jan 28 16:11:00 2010	Philadelphia, PA 19019  	37.6	4	31	0.00	38	SSW 12	35	63	26
Thu Jan 28 16:58:45 2010	San Jose, CA 95101  	44.6	3	45	0.00	50	S 5	43	100	45
Thu Jan 28 16:58:47 2010	Charlotte, NC 28201  	43.3	4	29	0.00	43	W 6	42	61	31
Thu Jan 28 16:58:48 2010	San Diego, CA 92101  	51.1	0	49	0.00	53	NE 5	51	89	48
Thu Jan 28 16:58:50 2010	Denver, CO 80214  	27.3	2	27	0.00	29	NNW 9	27	98	27
Thu Jan 28 16:58:52 2010	Memphis, TN 37501  	42.1	10	42	0.00	53	NE 16	36	71	33
Thu Jan 28 16:58:53 2010	Los Angeles, CA 90001  	49.0	0	46	0.00	54	NE 7	49	79	43
Thu Jan 28 16:58:55 2010	El Paso, TX 79901  	46.5	1	45	0.05	49	NNW 15	47	91	44
Thu Jan 28 16:58:57 2010	New York, NY 10001  	33.7	0	31	0.00	34	W 13	34	96	33
Thu Jan 28 16:58:59 2010	Baltimore, MD 21201  	36.3	3	32	0.00	36	WNW 11	36	61	24
Thu Jan 28 16:59:00 2010	Las Vegas, NV 89101  	43.3	4	40	0.00	45	NW 13	41	61	31
Thu Jan 28 16:59:02 2010	Washington, DC 20001  	40.5	7	36	0.00	41	S 15	36	62	28
Thu Jan 28 16:59:05 2010	Austin, TX 73301  	63.0	16	61	0.00	63	SSE 16	61	88	59
Thu Jan 28 16:59:07 2010	San Francisco, CA 94101  	48.0	4	48	0.00	49	E 7	46	N/A	--
Thu Jan 28 16:59:08 2010	Oklahoma City, OK 73101  	27.1	0	27	0.00	41	NNW 18	27	5	-37
Thu Jan 28 16:59:10 2010	Nashville, TN 37201  	39.1	3	39	0.06	49	NW 18	39	82	34
Thu Jan 28 16:59:12 2010	Fort Worth, TX 76101  	55.8	12	55	0.00	57	SE 18	53	96	55
Thu Jan 28 16:59:13 2010	Phoenix, AZ 85001  	52.4	2	51	0.01	56	ENE 11	52	88	49
Thu Jan 28 16:59:15 2010	Portland, OR 97201  	45.3	3	45	0.00	47	ESE 16	44	69	36
Thu Jan 28 16:59:17 2010	Chicago, IL 60601  	7.5	7	6	0.00	17	N 33	-4	67	-1
Thu Jan 28 16:59:18 2010	San Antonio, TX 78201  	60.5	18	60	N/A	62	ESE 25	58	100	60
Thu Jan 28 16:59:20 2010	Indianapolis, IN 46201  	16.2	10	15	0.00	32	NNW 25	4	78	10
Thu Jan 28 16:59:22 2010	Boston, MA 02101  	30.4	6	26	0.00	33	SSW 14	25	59	18
Thu Jan 28 16:59:23 2010	Jacksonville, FL 32099  	51.1	3	41	0.00	51	NW 3	51	69	41
Thu Jan 28 16:59:25 2010	Columbus, OH 43085  	21.0	6	21	N/A	33	NW 29	13	N/A	--
Thu Jan 28 16:59:27 2010	Dallas, TX 75201  	57.0	5	57	0.00	59	S 14	57	89	54
Thu Jan 28 16:59:29 2010	Houston, TX 77001  	56.8	5	56	0.00	57	SE 21	56	92	55
Thu Jan 28 16:59:30 2010	Seattle, WA 98101  	44.8	1	43	0.00	45	E 5	45	79	39
Thu Jan 28 16:59:32 2010	Milwaukee, WI 53201  	2.8	12	2	0.00	11	NW 27	-14	70	-5
Thu Jan 28 16:59:34 2010	Detroit, MI 48201  	11.9	17	12	0.00	25	W 36	-5	73	5
Thu Jan 28 16:59:36 2010	Philadelphia, PA 19019  	37.6	4	31	0.00	38	SSW 12	35	63	26
Thu Jan 28 17:20:25 2010	San Jose, CA 95101  	45.0	5	45	0.00	50	S 5	43	94	43
Thu Jan 28 17:20:27 2010	Charlotte, NC 28201  	49.8	1	29	0.00	50	W 6	50	49	31
Thu Jan 28 17:20:28 2010	San Diego, CA 92101  	54.9	3	49	0.00	55	NE 5	55	78	48
Thu Jan 28 17:20:30 2010	Denver, CO 80214  	26.9	5	27	0.00	29	NNW 11	21	99	27
Thu Jan 28 17:20:32 2010	Memphis, TN 37501  	41.0	15	41	0.00	53	NE 16	33	70	32
Thu Jan 28 17:20:34 2010	Los Angeles, CA 90001  	55.4	0	46	0.00	55	NE 7	55	66	44
Thu Jan 28 17:20:35 2010	El Paso, TX 79901  	46.8	6	45	0.07	49	NNW 15	44	89	44
Thu Jan 28 17:20:37 2010	New York, NY 10001  	33.1	1	31	0.05	35	W 15	33	92	31
Thu Jan 28 17:20:39 2010	Baltimore, MD 21201  	37.9	5	32	0.00	38	WNW 11	34	58	24
Thu Jan 28 17:20:41 2010	Las Vegas, NV 89101  	45.9	11	40	0.00	46	NW 15	41	54	30
Thu Jan 28 17:20:47 2010	Washington, DC 20001  	40.5	7	36	0.00	41	S 15	36	62	28
Thu Jan 28 17:20:49 2010	Austin, TX 73301  	64.0	16	61	0.00	64	SSE 26	62	86	60
Thu Jan 28 17:20:55 2010	San Francisco, CA 94101  	49.1	1	48	0.00	49	E 7	49	N/A	--
Thu Jan 28 17:20:58 2010	Oklahoma City, OK 73101  	27.0	0	27	0.00	41	NNW 18	27	5	-37
Thu Jan 28 17:21:05 2010	Nashville, TN 37201  	40.1	2	38	0.06	49	NW 18	40	75	33
Thu Jan 28 17:21:07 2010	Fort Worth, TX 76101  	56.8	2	55	0.00	57	SE 18	57	93	55
Thu Jan 28 17:21:09 2010	Phoenix, AZ 85001  	53.4	3	51	0.01	56	ENE 11	53	87	50
Thu Jan 28 17:21:10 2010	Portland, OR 97201  	45.1	3	45	0.00	47	ESE 16	45	70	36
Thu Jan 28 17:21:12 2010	Chicago, IL 60601  	8.0	8	6	0.00	17	N 33	-5	58	-4
Thu Jan 28 17:21:13 2010	San Antonio, TX 78201  	61.1	13	60	N/A	62	SE 26	59	100	61
Thu Jan 28 17:21:15 2010	Indianapolis, IN 46201  	16.7	8	15	0.00	32	NNW 25	6	73	10
Thu Jan 28 17:21:17 2010	Boston, MA 02101  	33.4	2	26	0.00	33	SSW 17	33	57	20
Thu Jan 28 17:21:18 2010	Jacksonville, FL 32099  	55.0	0	41	0.00	55	NW 3	55	51	38
Thu Jan 28 17:21:20 2010	Columbus, OH 43085  	20.8	3	20	N/A	33	NW 29	21	N/A	--
Thu Jan 28 17:21:21 2010	Dallas, TX 75201  	57.5	1	57	0.00	59	S 14	58	87	54
Thu Jan 28 17:21:24 2010	Houston, TX 77001  	57.5	5	56	0.00	58	SE 21	57	91	55
Thu Jan 28 17:21:26 2010	Seattle, WA 98101  	45.0	4	43	0.00	46	E 5	43	78	39
Thu Jan 28 17:21:29 2010	Milwaukee, WI 53201  	4.3	14	2	0.00	11	NW 27	-14	64	-5
Thu Jan 28 17:21:31 2010	Detroit, MI 48201  	11.7	9	10	0.00	25	W 36	0	48	-5
Thu Jan 28 17:21:33 2010	Philadelphia, PA 19019  	40.7	1	31	0.00	41	WSW 13	41	61	28
Thu Jan 28 17:39:19 2010	San Jose, CA 95101  	45.0	5	45	0.00	50	S 5	43	94	43
Thu Jan 28 17:39:20 2010	San Diego, CA 92101  	54.9	3	49	0.00	55	NE 5	55	78	48
Thu Jan 28 17:39:20 2010	Charlotte, NC 28201  	49.8	1	29	0.00	50	W 6	50	49	31
Thu Jan 28 17:39:21 2010	Denver, CO 80214  	26.9	5	27	0.00	29	NNW 11	21	99	27
Thu Jan 28 17:39:22 2010	Memphis, TN 37501  	41.0	15	41	0.00	53	NE 16	33	70	32
Thu Jan 28 17:39:22 2010	Los Angeles, CA 90001  	55.4	0	46	0.00	55	NE 7	55	66	44
Thu Jan 28 17:39:23 2010	El Paso, TX 79901  	46.8	6	45	0.07	49	NNW 15	44	89	44
Thu Jan 28 17:39:24 2010	New York, NY 10001  	33.1	1	31	0.05	35	W 15	33	92	31
Thu Jan 28 17:39:25 2010	Las Vegas, NV 89101  	45.9	11	40	0.00	46	NW 15	41	54	30
Thu Jan 28 17:39:25 2010	Baltimore, MD 21201  	37.9	5	32	0.00	38	WNW 11	34	58	24
Thu Jan 28 17:39:26 2010	Washington, DC 20001  	40.5	7	36	0.00	41	S 15	36	62	28
Thu Jan 28 17:39:27 2010	San Francisco, CA 94101  	49.1	1	48	0.00	49	E 7	49	N/A	--
Thu Jan 28 17:39:27 2010	Austin, TX 73301  	64.0	16	61	0.00	64	SSE 26	62	86	60
Thu Jan 28 17:39:28 2010	Oklahoma City, OK 73101  	27.0	0	27	0.00	41	NNW 18	27	5	-37
Thu Jan 28 17:39:29 2010	Nashville, TN 37201  	40.1	2	38	0.06	49	NW 18	40	75	33
Thu Jan 28 17:39:30 2010	Fort Worth, TX 76101  	56.8	2	55	0.00	57	SE 18	57	93	55
Thu Jan 28 17:39:31 2010	Phoenix, AZ 85001  	53.4	3	51	0.01	56	ENE 11	53	87	50
Thu Jan 28 17:39:32 2010	Portland, OR 97201  	45.1	3	45	0.00	47	ESE 16	45	70	36
Thu Jan 28 17:39:33 2010	Chicago, IL 60601  	8.0	8	6	0.00	17	N 33	-5	58	-4
Thu Jan 28 17:39:34 2010	Indianapolis, IN 46201  	16.7	8	15	0.00	32	NNW 25	6	73	10
Thu Jan 28 17:39:34 2010	San Antonio, TX 78201  	61.1	13	60	N/A	62	SE 26	59	100	61
Thu Jan 28 17:39:35 2010	Boston, MA 02101  	33.4	2	26	0.00	33	SSW 17	33	57	20
Thu Jan 28 17:39:36 2010	Columbus, OH 43085  	20.8	3	20	N/A	33	NW 29	21	N/A	--
Thu Jan 28 17:39:36 2010	Jacksonville, FL 32099  	55.0	0	41	0.00	55	NW 3	55	51	38
Thu Jan 28 17:39:37 2010	Dallas, TX 75201  	57.5	1	57	0.00	59	S 14	58	87	54
Thu Jan 28 17:39:38 2010	Seattle, WA 98101  	45.0	4	43	0.00	46	E 5	43	78	39
Thu Jan 28 17:39:38 2010	Houston, TX 77001  	57.5	5	56	0.00	58	SE 21	57	91	55
Thu Jan 28 17:39:41 2010	Milwaukee, WI 53201  	4.3	14	2	0.00	11	NW 27	-14	64	-5
Thu Jan 28 17:39:42 2010	Detroit, MI 48201  	11.7	9	10	0.00	25	W 36	0	48	-5
Thu Jan 28 17:39:42 2010	Philadelphia, PA 19019  	40.7	1	31	0.00	41	WSW 13	41	61	28
Tue Feb  2 00:35:21 2010	San Jose, CA 95101  	63.0	6	43	0.00	63	SE 6	63	52	45
Tue Feb  2 00:35:23 2010	Charlotte, NC 28201  	39.8	0	22	0.03	50	S 8	40	56	25
Tue Feb  2 00:35:26 2010	San Diego, CA 92101  	63.2	1	51	0.00	64	W 12	63	71	54
Tue Feb  2 00:35:28 2010	Denver, CO 80214  	40.3	15	21	0.00	45	NW 27	32	26	8
Tue Feb  2 00:35:30 2010	Memphis, TN 37501  	44.1	3	25	0.00	47	NNE 7	43	58	30
Tue Feb  2 00:35:37 2010	Los Angeles, CA 90001  	64.5	0	48	0.00	70	WSW 13	65	62	51
Tue Feb  2 00:35:40 2010	El Paso, TX 79901  	59.9	4	44	0.00	64	NNW 17	60	36	33
Tue Feb  2 00:35:44 2010	New York, NY 10001  	33.3	4	25	0.00	36	WSW 17	30	41	12
Tue Feb  2 00:35:48 2010	Baltimore, MD 21201  	30.9	3	22	0.00	34	WNW 20	28	47	13
Tue Feb  2 00:35:50 2010	Las Vegas, NV 89101  	56.0	2	35	0.00	59	ENE 10	56	31	26
Tue Feb  2 00:35:54 2010	Washington, DC 20001  	35.7	6	25	0.00	38	NW 19	31	48	18
Tue Feb  2 00:35:56 2010	Austin, TX 73301  	45.0	0	35	0.01	45	NNE 5	45	87	41
Tue Feb  2 00:35:59 2010	San Francisco, CA 94101  	56.5	2	50	0.00	60	E 12	56	N/A	--
Tue Feb  2 00:36:02 2010	Oklahoma City, OK 73101  	32.0	6	28	0.00	32	S 17	26	93	30
Tue Feb  2 00:36:04 2010	Nashville, TN 37201  	39.5	0	23	0.18	50	NE 8	39	72	31
Tue Feb  2 00:36:07 2010	Fort Worth, TX 76101  	44.2	4	30	0.00	44	SSW 13	42	90	41
Tue Feb  2 00:36:09 2010	Phoenix, AZ 85001  	67.2	5	49	0.00	67	ENE 11	67	29	34
Tue Feb  2 00:36:13 2010	Portland, OR 97201  	44.7	2	39	0.09	46	SSW 13	45	92	42
Tue Feb  2 00:36:15 2010	Chicago, IL 60601  	28.7	3	19	0.00	30	SSE 7	29	66	18
Tue Feb  2 00:36:17 2010	San Antonio, TX 78201  	42.5	4	32	0.02	43	NNE 9	40	100	42
Tue Feb  2 00:36:20 2010	Indianapolis, IN 46201  	35.1	0	19	0.00	40	S 9	35	55	20
Tue Feb  2 00:36:22 2010	Boston, MA 02101  	28.0	5	20	0.00	33	SSW 21	22	37	5
Tue Feb  2 00:36:24 2010	Jacksonville, FL 32099  	57.0	10	47	0.00	59	ENE 24	55	82	52
Tue Feb  2 00:36:27 2010	Columbus, OH 43085  	29.9	0	14	N/A	37	W 9	30	N/A	--
Tue Feb  2 00:36:29 2010	Dallas, TX 75201  	46.7	1	35	0.00	50	S 12	47	77	40
Tue Feb  2 00:36:33 2010	Houston, TX 77001  	47.8	4	35	0.08	48	E 12	46	93	46
Tue Feb  2 00:36:36 2010	Seattle, WA 98101  	46.4	3	42	0.00	49	W 8	46	79	40
Tue Feb  2 00:36:38 2010	Milwaukee, WI 53201  	23.3	5	10	0.00	24	WNW 8	17	73	16
Tue Feb  2 00:36:40 2010	Detroit, MI 48201  	24.9	4	14	0.00	27	WSW 15	19	67	15
Tue Feb  2 00:36:43 2010	Philadelphia, PA 19019  	32.3	3	24	0.00	36	NNW 22	29	47	14
Tue Feb  2 01:20:01 2010	San Jose, CA 95101  	63.0	6	43	0.00	63	SE 6	63	52	45
Tue Feb  2 01:20:02 2010	Charlotte, NC 28201  	39.8	0	22	0.03	50	S 8	40	56	25
Tue Feb  2 01:20:02 2010	San Diego, CA 92101  	63.2	1	51	0.00	64	W 12	63	71	54
Tue Feb  2 01:20:03 2010	Denver, CO 80214  	40.3	15	21	0.00	45	NW 27	32	26	8
Tue Feb  2 01:20:04 2010	Memphis, TN 37501  	44.1	3	25	0.00	47	NNE 7	43	58	30
Tue Feb  2 01:20:04 2010	Los Angeles, CA 90001  	64.5	0	48	0.00	70	WSW 13	65	62	51
Tue Feb  2 01:20:05 2010	El Paso, TX 79901  	59.9	4	44	0.00	64	NNW 17	60	36	33
Tue Feb  2 01:20:05 2010	New York, NY 10001  	33.3	4	25	0.00	36	WSW 17	30	41	12
Tue Feb  2 01:20:06 2010	Baltimore, MD 21201  	30.9	3	22	0.00	34	WNW 20	28	47	13
Tue Feb  2 01:20:07 2010	Las Vegas, NV 89101  	56.0	2	35	0.00	59	ENE 10	56	31	26
Tue Feb  2 01:20:07 2010	Washington, DC 20001  	35.7	6	25	0.00	38	NW 19	31	48	18
Tue Feb  2 01:20:08 2010	San Francisco, CA 94101  	56.5	2	50	0.00	60	E 12	56	N/A	--
Tue Feb  2 01:20:08 2010	Austin, TX 73301  	45.0	0	35	0.01	45	NNE 5	45	87	41
Tue Feb  2 01:20:09 2010	Oklahoma City, OK 73101  	32.0	6	28	0.00	32	S 17	26	93	30
Tue Feb  2 01:20:10 2010	Nashville, TN 37201  	39.5	0	23	0.18	50	NE 8	39	72	31
Tue Feb  2 01:20:10 2010	Fort Worth, TX 76101  	44.2	4	30	0.00	44	SSW 13	42	90	41
Tue Feb  2 01:20:11 2010	Phoenix, AZ 85001  	67.2	5	49	0.00	67	ENE 11	67	29	34
Tue Feb  2 01:20:11 2010	Portland, OR 97201  	44.7	2	39	0.09	46	SSW 13	45	92	42
Tue Feb  2 01:20:12 2010	Chicago, IL 60601  	28.7	3	19	0.00	30	SSE 7	29	66	18
Tue Feb  2 01:20:13 2010	San Antonio, TX 78201  	42.5	4	32	0.02	43	NNE 9	40	100	42
Tue Feb  2 01:20:13 2010	Indianapolis, IN 46201  	35.1	0	19	0.00	40	S 9	35	55	20
Tue Feb  2 01:20:14 2010	Jacksonville, FL 32099  	57.0	10	47	0.00	59	ENE 24	55	82	52
Tue Feb  2 01:20:14 2010	Boston, MA 02101  	28.0	5	20	0.00	33	SSW 21	22	37	5
Tue Feb  2 01:20:15 2010	Columbus, OH 43085  	29.9	0	14	N/A	37	W 9	30	N/A	--
Tue Feb  2 01:20:16 2010	Houston, TX 77001  	47.8	4	35	0.08	48	E 12	46	93	46
Tue Feb  2 01:20:16 2010	Dallas, TX 75201  	46.7	1	35	0.00	50	S 12	47	77	40
Tue Feb  2 01:20:17 2010	Seattle, WA 98101  	46.4	3	42	0.00	49	W 8	46	79	40
Tue Feb  2 01:20:17 2010	Milwaukee, WI 53201  	23.3	5	10	0.00	24	WNW 8	17	73	16
Tue Feb  2 01:20:18 2010	Detroit, MI 48201  	24.9	4	14	0.00	27	WSW 15	19	67	15
Tue Feb  2 01:20:19 2010	Philadelphia, PA 19019  	32.3	3	24	0.00	36	NNW 22	29	47	14
Tue Feb  2 02:03:33 2010	San Jose, CA 95101  	59.0	8	43	0.00	63	NW 8	58	63	46
Tue Feb  2 02:03:34 2010	Charlotte, NC 28201  	34.1	0	22	0.03	50	S 8	34	76	27
Tue Feb  2 02:03:36 2010	San Diego, CA 92101  	59.2	2	51	0.00	64	W 12	59	82	54
Tue Feb  2 02:03:38 2010	Denver, CO 80214  	37.8	3	21	0.00	45	NW 27	36	31	10
Tue Feb  2 02:03:39 2010	Memphis, TN 37501  	44.1	3	25	0.00	47	NNE 7	43	58	30
Tue Feb  2 02:03:40 2010	Los Angeles, CA 90001  	60.4	6	48	0.00	70	WSW 13	60	71	51
Tue Feb  2 02:03:42 2010	El Paso, TX 79901  	57.9	1	44	0.00	64	NNW 17	58	39	33
Tue Feb  2 02:03:43 2010	New York, NY 10001  	32.5	5	25	0.00	36	WSW 17	28	44	13
Tue Feb  2 02:03:45 2010	Baltimore, MD 21201  	31.4	1	22	0.00	34	WNW 20	31	48	14
Tue Feb  2 02:03:47 2010	Las Vegas, NV 89101  	54.2	1	35	0.00	59	ENE 10	54	34	26
Tue Feb  2 02:03:50 2010	Washington, DC 20001  	35.1	2	25	0.00	38	NW 19	35	54	20
Tue Feb  2 02:03:51 2010	Austin, TX 73301  	44.6	3	35	0.01	45	NNE 5	43	93	43
Tue Feb  2 02:03:53 2010	San Francisco, CA 94101  	55.6	3	50	0.00	60	E 12	56	N/A	--
Tue Feb  2 02:03:54 2010	Oklahoma City, OK 73101  	32.0	5	28	0.00	32	S 17	27	92	30
Tue Feb  2 02:03:55 2010	Nashville, TN 37201  	38.8	0	23	0.19	50	NE 8	39	76	32
Tue Feb  2 02:03:57 2010	Fort Worth, TX 76101  	44.0	2	30	0.00	45	SSW 13	44	89	41
Tue Feb  2 02:03:58 2010	Phoenix, AZ 85001  	63.6	2	49	0.00	67	ENE 11	64	33	34
Tue Feb  2 02:03:59 2010	Portland, OR 97201  	43.3	6	39	0.12	46	SSW 13	40	97	43
Tue Feb  2 02:04:01 2010	Chicago, IL 60601  	30.1	0	19	0.00	30	SSE 7	30	68	21
Tue Feb  2 02:04:02 2010	San Antonio, TX 78201  	42.3	4	32	0.02	43	NNE 9	40	100	42
Tue Feb  2 02:04:03 2010	Indianapolis, IN 46201  	34.7	0	19	0.00	40	S 9	35	58	21
Tue Feb  2 02:04:07 2010	Boston, MA 02101  	26.7	2	20	0.00	33	SSW 21	27	42	6
Tue Feb  2 02:04:08 2010	Jacksonville, FL 32099  	57.0	10	47	0.00	59	ENE 24	55	82	52
Tue Feb  2 02:04:09 2010	Columbus, OH 43085  	26.7	0	14	N/A	37	W 9	27	N/A	--
Tue Feb  2 02:04:11 2010	Dallas, TX 75201  	45.7	0	35	0.00	50	S 12	46	86	42
Tue Feb  2 02:04:12 2010	Houston, TX 77001  	47.2	5	35	0.08	48	E 12	45	95	46
Tue Feb  2 02:04:16 2010	Seattle, WA 98101  	44.9	2	42	0.00	49	W 10	45	93	43
Tue Feb  2 02:04:17 2010	Milwaukee, WI 53201  	24.0	3	10	0.00	24	SE 8	24	86	20
Tue Feb  2 02:04:18 2010	Detroit, MI 48201  	24.6	0	14	0.00	27	WSW 15	25	72	17
Tue Feb  2 02:04:20 2010	Philadelphia, PA 19019  	31.6	1	24	0.00	36	NNW 22	32	51	16
Tue Feb  2 02:47:11 2010	San Jose, CA 95101  	59.0	8	43	0.00	63	NW 8	58	63	46
Tue Feb  2 02:47:12 2010	Charlotte, NC 28201  	34.1	0	22	0.03	50	S 8	34	76	27
Tue Feb  2 02:47:12 2010	San Diego, CA 92101  	59.2	2	51	0.00	64	W 12	59	82	54
Tue Feb  2 02:47:13 2010	Denver, CO 80214  	37.8	3	21	0.00	45	NW 27	36	31	10
Tue Feb  2 02:47:14 2010	Memphis, TN 37501  	44.1	3	25	0.00	47	NNE 7	43	58	30
Tue Feb  2 02:47:14 2010	Los Angeles, CA 90001  	60.4	6	48	0.00	70	WSW 13	60	71	51
Tue Feb  2 02:47:15 2010	El Paso, TX 79901  	57.9	1	44	0.00	64	NNW 17	58	39	33
Tue Feb  2 02:47:15 2010	New York, NY 10001  	32.5	5	25	0.00	36	WSW 17	28	44	13
Tue Feb  2 02:47:16 2010	Baltimore, MD 21201  	31.4	1	22	0.00	34	WNW 20	31	48	14
Tue Feb  2 02:47:17 2010	Las Vegas, NV 89101  	54.2	1	35	0.00	59	ENE 10	54	34	26
Tue Feb  2 02:47:17 2010	Washington, DC 20001  	35.1	2	25	0.00	38	NW 19	35	54	20
Tue Feb  2 02:47:18 2010	San Francisco, CA 94101  	55.6	3	50	0.00	60	E 12	56	N/A	--
Tue Feb  2 02:47:18 2010	Austin, TX 73301  	44.6	3	35	0.01	45	NNE 5	43	93	43
Tue Feb  2 02:47:19 2010	Oklahoma City, OK 73101  	32.0	5	28	0.00	32	S 17	27	92	30
Tue Feb  2 02:47:20 2010	Nashville, TN 37201  	38.8	0	23	0.19	50	NE 8	39	76	32
Tue Feb  2 02:47:20 2010	Fort Worth, TX 76101  	44.0	2	30	0.00	45	SSW 13	44	89	41
Tue Feb  2 02:47:21 2010	Phoenix, AZ 85001  	63.6	2	49	0.00	67	ENE 11	64	33	34
Tue Feb  2 02:47:22 2010	Chicago, IL 60601  	30.1	0	19	0.00	30	SSE 7	30	68	21
Tue Feb  2 02:47:22 2010	Portland, OR 97201  	43.3	6	39	0.12	46	SSW 13	40	97	43
Tue Feb  2 02:47:23 2010	San Antonio, TX 78201  	42.3	4	32	0.02	43	NNE 9	40	100	42
Tue Feb  2 02:47:23 2010	Indianapolis, IN 46201  	34.7	0	19	0.00	40	S 9	35	58	21
Tue Feb  2 02:47:24 2010	Boston, MA 02101  	26.7	2	20	0.00	33	SSW 21	27	42	6
Tue Feb  2 02:47:25 2010	Jacksonville, FL 32099  	57.0	10	47	0.00	59	ENE 24	55	82	52
Tue Feb  2 02:47:25 2010	Columbus, OH 43085  	26.7	0	14	N/A	37	W 9	27	N/A	--
Tue Feb  2 02:47:26 2010	Dallas, TX 75201  	45.7	0	35	0.00	50	S 12	46	86	42
Tue Feb  2 02:47:27 2010	Houston, TX 77001  	47.2	5	35	0.08	48	E 12	45	95	46
Tue Feb  2 02:47:27 2010	Seattle, WA 98101  	44.9	2	42	0.00	49	W 10	45	93	43
Tue Feb  2 02:47:28 2010	Milwaukee, WI 53201  	24.0	3	10	0.00	24	SE 8	24	86	20
Tue Feb  2 02:47:28 2010	Detroit, MI 48201  	24.6	0	14	0.00	27	WSW 15	25	72	17
Tue Feb  2 02:47:29 2010	Philadelphia, PA 19019  	31.6	1	24	0.00	36	NNW 22	32	51	16
Tue Feb  2 03:30:51 2010	San Jose, CA 95101  	54.0	9	43	0.00	63	NW 9	51	72	45
Tue Feb  2 03:30:52 2010	Charlotte, NC 28201  	33.0	0	22	0.03	50	S 8	33	79	27
Tue Feb  2 03:30:54 2010	San Diego, CA 92101  	57.1	2	51	0.00	64	W 12	57	90	54
Tue Feb  2 03:30:55 2010	Denver, CO 80214  	37.8	6	21	0.00	45	NW 27	33	33	11
Tue Feb  2 03:30:58 2010	Memphis, TN 37501  	39.9	0	25	0.00	47	NNE 7	40	75	33
Tue Feb  2 03:30:59 2010	Los Angeles, CA 90001  	57.6	2	48	0.00	70	WSW 13	58	78	51
Tue Feb  2 03:31:01 2010	El Paso, TX 79901  	55.1	1	44	0.00	64	NNW 17	55	45	34
Tue Feb  2 03:31:03 2010	New York, NY 10001  	31.5	5	25	0.00	36	WSW 17	27	48	14
Tue Feb  2 03:31:04 2010	Baltimore, MD 21201  	31.1	0	22	0.00	34	WNW 20	31	50	15
Tue Feb  2 03:31:06 2010	Las Vegas, NV 89101  	51.3	1	35	0.00	59	ENE 10	51	40	28
Tue Feb  2 03:31:07 2010	Washington, DC 20001  	35.3	3	25	0.00	38	NW 19	35	56	21
Tue Feb  2 03:31:09 2010	Austin, TX 73301  	45.0	0	35	0.01	45	NNE 5	45	91	42
Tue Feb  2 03:31:10 2010	San Francisco, CA 94101  	54.3	4	50	0.00	60	E 12	54	N/A	--
Tue Feb  2 03:31:12 2010	Oklahoma City, OK 73101  	32.0	3	28	0.00	32	S 17	29	92	30
Tue Feb  2 03:31:14 2010	Nashville, TN 37201  	38.8	1	23	0.19	50	NE 8	39	81	33
Tue Feb  2 03:31:16 2010	Fort Worth, TX 76101  	43.4	4	30	0.00	45	SSW 13	41	95	42
Tue Feb  2 03:31:17 2010	Phoenix, AZ 85001  	62.5	1	49	0.00	67	ENE 11	62	39	37
Tue Feb  2 03:31:19 2010	Portland, OR 97201  	44.1	1	39	0.21	46	SSW 13	44	100	44
Tue Feb  2 03:31:21 2010	Chicago, IL 60601  	29.7	3	19	0.00	30	S 9	30	71	21
Tue Feb  2 03:31:22 2010	San Antonio, TX 78201  	42.6	2	32	0.02	43	NNE 9	43	100	43
Tue Feb  2 03:31:24 2010	Indianapolis, IN 46201  	34.3	0	19	0.00	40	S 9	34	59	22
Tue Feb  2 03:31:25 2010	Boston, MA 02101  	25.4	1	20	0.00	33	SSW 21	25	48	8
Tue Feb  2 03:31:27 2010	Jacksonville, FL 32099  	57.0	7	47	0.00	59	ENE 24	56	86	53
Tue Feb  2 03:31:28 2010	Columbus, OH 43085  	25.9	0	14	N/A	37	W 9	26	N/A	--
Tue Feb  2 03:31:30 2010	Dallas, TX 75201  	45.6	1	35	0.00	50	S 12	46	88	42
Tue Feb  2 03:31:31 2010	Houston, TX 77001  	46.9	5	35	0.08	48	E 12	45	95	45
Tue Feb  2 03:31:32 2010	Seattle, WA 98101  	44.9	5	42	0.01	49	W 10	43	93	43
Tue Feb  2 03:31:34 2010	Milwaukee, WI 53201  	25.6	5	10	0.00	26	SE 8	20	94	24
Tue Feb  2 03:31:35 2010	Detroit, MI 48201  	24.2	1	14	0.00	27	WSW 15	24	72	16
Tue Feb  2 03:31:37 2010	Philadelphia, PA 19019  	30.8	1	24	0.00	36	NNW 22	31	56	17
Tue Feb  2 04:14:34 2010	San Jose, CA 95101  	54.0	9	43	0.00	63	NW 9	51	72	45
Tue Feb  2 04:14:35 2010	Charlotte, NC 28201  	33.0	0	22	0.03	50	S 8	33	79	27
Tue Feb  2 04:14:35 2010	San Diego, CA 92101  	57.1	2	51	0.00	64	W 12	57	90	54
Tue Feb  2 04:14:36 2010	Denver, CO 80214  	37.8	6	21	0.00	45	NW 27	33	33	11
Tue Feb  2 04:14:37 2010	Memphis, TN 37501  	39.9	0	25	0.00	47	NNE 7	40	75	33
Tue Feb  2 04:14:37 2010	Los Angeles, CA 90001  	57.6	2	48	0.00	70	WSW 13	58	78	51
Tue Feb  2 04:14:38 2010	El Paso, TX 79901  	55.1	1	44	0.00	64	NNW 17	55	45	34
Tue Feb  2 04:14:39 2010	New York, NY 10001  	31.5	5	25	0.00	36	WSW 17	27	48	14
Tue Feb  2 04:14:40 2010	Las Vegas, NV 89101  	51.3	1	35	0.00	59	ENE 10	51	40	28
Tue Feb  2 04:14:40 2010	Baltimore, MD 21201  	31.1	0	22	0.00	34	WNW 20	31	50	15
Tue Feb  2 04:14:41 2010	Washington, DC 20001  	34.2	2	25	0.00	38	NW 19	34	58	21
Tue Feb  2 04:14:42 2010	Austin, TX 73301  	45.0	0	35	0.01	45	NNE 5	45	91	42
Tue Feb  2 04:14:43 2010	San Francisco, CA 94101  	54.3	4	50	0.00	60	E 12	54	N/A	--
Tue Feb  2 04:14:43 2010	Oklahoma City, OK 73101  	32.0	3	28	0.00	32	S 17	29	92	30
Tue Feb  2 04:14:44 2010	Nashville, TN 37201  	38.8	1	23	0.19	50	NE 8	39	81	33
Tue Feb  2 04:14:44 2010	Fort Worth, TX 76101  	43.4	4	30	0.00	45	SSW 13	41	95	42
Tue Feb  2 04:14:45 2010	Phoenix, AZ 85001  	62.5	1	49	0.00	67	ENE 11	62	39	37
Tue Feb  2 04:14:46 2010	Chicago, IL 60601  	29.7	3	19	0.00	30	S 9	30	71	21
Tue Feb  2 04:14:46 2010	Portland, OR 97201  	44.1	1	39	0.21	46	SSW 13	44	100	44
Tue Feb  2 04:14:47 2010	San Antonio, TX 78201  	42.6	2	32	0.02	43	NNE 9	43	100	43
Tue Feb  2 04:14:48 2010	Indianapolis, IN 46201  	34.3	0	19	0.00	40	S 9	34	59	22
Tue Feb  2 04:14:49 2010	Jacksonville, FL 32099  	57.0	7	47	0.00	59	ENE 24	56	86	53
Tue Feb  2 04:14:49 2010	Boston, MA 02101  	25.4	1	20	0.00	33	SSW 21	25	48	8
Tue Feb  2 04:14:50 2010	Columbus, OH 43085  	25.9	0	14	N/A	37	W 9	26	N/A	--
Tue Feb  2 04:14:51 2010	Houston, TX 77001  	46.9	5	35	0.08	48	E 12	45	95	45
Tue Feb  2 04:14:51 2010	Dallas, TX 75201  	45.6	1	35	0.00	50	S 12	46	88	42
Tue Feb  2 04:14:52 2010	Milwaukee, WI 53201  	25.6	5	10	0.00	26	SE 8	20	94	24
Tue Feb  2 04:14:52 2010	Seattle, WA 98101  	44.9	5	42	0.01	49	W 10	43	93	43
Tue Feb  2 04:14:53 2010	Detroit, MI 48201  	24.2	1	14	0.00	27	WSW 15	24	72	16
Tue Feb  2 04:14:54 2010	Philadelphia, PA 19019  	30.8	1	24	0.00	36	NNW 22	31	56	17
Tue Feb  2 04:57:53 2010	San Jose, CA 95101  	53.1	5	43	0.00	63	NW 9	52	75	46
Tue Feb  2 04:57:54 2010	Charlotte, NC 28201  	32.2	0	22	0.03	50	S 8	32	84	28
Tue Feb  2 04:57:55 2010	San Diego, CA 92101  	56.8	2	51	0.00	64	W 12	57	90	54
Tue Feb  2 04:57:56 2010	Denver, CO 80214  	36.1	5	21	0.00	45	NW 27	32	35	11
Tue Feb  2 04:57:58 2010	Memphis, TN 37501  	39.9	0	25	0.00	47	NNE 7	40	75	33
Tue Feb  2 04:57:59 2010	Los Angeles, CA 90001  	56.6	0	48	0.00	70	WSW 13	57	80	51
Tue Feb  2 04:58:00 2010	El Paso, TX 79901  	52.3	4	44	0.00	64	NNW 17	51	51	35
Tue Feb  2 04:58:01 2010	New York, NY 10001  	30.8	4	25	0.00	36	WSW 17	27	48	13
Tue Feb  2 04:58:03 2010	Baltimore, MD 21201  	29.9	2	22	0.00	34	WNW 20	30	52	14
Tue Feb  2 04:58:05 2010	Las Vegas, NV 89101  	50.2	2	35	0.00	59	ENE 10	50	38	25
Tue Feb  2 04:58:06 2010	Washington, DC 20001  	34.2	2	25	0.00	38	NW 19	34	58	21
Tue Feb  2 04:58:08 2010	Austin, TX 73301  	44.6	0	35	0.01	45	NNE 5	45	93	43
Tue Feb  2 04:58:10 2010	San Francisco, CA 94101  	55.1	2	50	0.00	60	E 12	55	N/A	--
Tue Feb  2 04:58:11 2010	Oklahoma City, OK 73101  	32.0	3	28	0.00	32	S 17	29	96	31
Tue Feb  2 04:58:13 2010	Nashville, TN 37201  	38.9	0	23	0.20	50	NE 8	39	82	34
Tue Feb  2 04:58:15 2010	Fort Worth, TX 76101  	44.4	0	30	0.00	45	SSW 13	44	93	42
Tue Feb  2 04:58:16 2010	Phoenix, AZ 85001  	59.2	2	49	0.00	67	ENE 11	59	43	37
Tue Feb  2 04:58:17 2010	Portland, OR 97201  	43.5	1	39	0.24	46	SSW 13	44	100	44
Tue Feb  2 04:58:19 2010	Chicago, IL 60601  	30.3	0	19	0.00	31	S 9	30	64	20
Tue Feb  2 04:58:21 2010	San Antonio, TX 78201  	42.7	1	32	0.02	43	NNE 9	43	100	43
Tue Feb  2 04:58:25 2010	Indianapolis, IN 46201  	33.6	2	19	0.00	40	S 9	34	66	23
Tue Feb  2 04:58:27 2010	Boston, MA 02101  	24.7	0	20	0.00	33	SSW 21	25	50	9
Tue Feb  2 04:58:28 2010	Jacksonville, FL 32099  	55.9	7	47	0.00	59	ENE 24	54	95	54
Tue Feb  2 04:58:29 2010	Columbus, OH 43085  	25.2	0	14	N/A	37	W 9	25	N/A	--
Tue Feb  2 04:58:30 2010	Dallas, TX 75201  	45.6	0	35	0.00	50	S 12	46	90	43
Tue Feb  2 04:58:34 2010	Houston, TX 77001  	46.7	4	35	0.08	48	E 12	45	95	45
Tue Feb  2 04:58:37 2010	Seattle, WA 98101  	45.4	3	42	0.01	49	W 10	44	89	42
Tue Feb  2 04:58:38 2010	Milwaukee, WI 53201  	26.1	1	10	0.00	26	SE 8	26	100	26
Tue Feb  2 04:58:39 2010	Detroit, MI 48201  	23.6	2	14	0.00	27	WSW 15	24	75	17
Tue Feb  2 04:58:40 2010	Philadelphia, PA 19019  	30.0	4	24	0.00	36	NNW 22	26	63	19
Tue Feb  2 05:41:08 2010	San Jose, CA 95101  	53.1	5	43	0.00	63	NW 9	52	75	46
Tue Feb  2 05:41:08 2010	Charlotte, NC 28201  	32.2	0	22	0.03	50	S 8	32	84	28
Tue Feb  2 05:41:09 2010	Denver, CO 80214  	36.1	5	21	0.00	45	NW 27	32	35	11
Tue Feb  2 05:41:09 2010	San Diego, CA 92101  	56.8	2	51	0.00	64	W 12	57	90	54
Tue Feb  2 05:41:11 2010	Memphis, TN 37501  	39.9	0	25	0.00	47	NNE 7	40	75	33
Tue Feb  2 05:41:11 2010	Los Angeles, CA 90001  	56.6	0	48	0.00	70	WSW 13	57	80	51
Tue Feb  2 05:41:12 2010	El Paso, TX 79901  	52.3	4	44	0.00	64	NNW 17	51	51	35
Tue Feb  2 05:41:13 2010	Baltimore, MD 21201  	29.9	2	22	0.00	34	WNW 20	30	52	14
Tue Feb  2 05:41:13 2010	New York, NY 10001  	30.8	4	25	0.00	36	WSW 17	27	48	13
Tue Feb  2 05:41:14 2010	Las Vegas, NV 89101  	50.2	2	35	0.00	59	ENE 10	50	38	25
Tue Feb  2 05:41:16 2010	Washington, DC 20001  	33.7	2	25	0.00	38	NW 19	34	56	20
Tue Feb  2 05:41:17 2010	Austin, TX 73301  	44.6	0	35	0.01	45	NNE 5	45	93	43
Tue Feb  2 05:41:18 2010	San Francisco, CA 94101  	55.1	2	50	0.00	60	E 12	55	N/A	--
Tue Feb  2 05:41:18 2010	Oklahoma City, OK 73101  	32.0	3	28	0.00	32	S 17	29	96	31
Tue Feb  2 05:41:19 2010	Nashville, TN 37201  	38.9	0	23	0.20	50	NE 8	39	82	34
Tue Feb  2 05:41:20 2010	Fort Worth, TX 76101  	44.4	0	30	0.00	45	SSW 13	44	93	42
Tue Feb  2 05:41:21 2010	Phoenix, AZ 85001  	59.2	2	49	0.00	67	ENE 11	59	43	37
Tue Feb  2 05:41:21 2010	Portland, OR 97201  	43.5	1	39	0.24	46	SSW 13	44	100	44
Tue Feb  2 05:41:22 2010	Chicago, IL 60601  	30.3	0	19	0.00	31	S 9	30	64	20
Tue Feb  2 05:41:23 2010	San Antonio, TX 78201  	42.7	1	32	0.02	43	NNE 9	43	100	43
Tue Feb  2 05:41:24 2010	Indianapolis, IN 46201  	33.6	2	19	0.00	40	S 9	34	66	23
Tue Feb  2 05:41:24 2010	Boston, MA 02101  	24.7	0	20	0.00	33	SSW 21	25	50	9
Tue Feb  2 05:41:25 2010	Jacksonville, FL 32099  	55.9	7	47	0.00	59	ENE 24	54	95	54
Tue Feb  2 05:41:26 2010	Dallas, TX 75201  	45.6	0	35	0.00	50	S 12	46	90	43
Tue Feb  2 05:41:26 2010	Columbus, OH 43085  	25.2	0	14	N/A	37	W 9	25	N/A	--
Tue Feb  2 05:41:27 2010	Houston, TX 77001  	46.7	4	35	0.08	48	E 12	45	95	45
Tue Feb  2 05:41:28 2010	Milwaukee, WI 53201  	26.1	1	10	0.00	26	SE 8	26	100	26
Tue Feb  2 05:41:28 2010	Seattle, WA 98101  	45.4	3	42	0.01	49	W 10	44	89	42
Tue Feb  2 05:41:29 2010	Philadelphia, PA 19019  	30.0	4	24	0.00	36	NNW 22	26	63	19
Tue Feb  2 05:41:29 2010	Detroit, MI 48201  	23.6	2	14	0.00	27	WSW 15	24	75	17
Tue Feb  2 06:27:58 2010	San Jose, CA 95101  	53.1	3	43	0.00	63	NW 9	53	78	46
Tue Feb  2 06:28:00 2010	Charlotte, NC 28201  	32.2	0	32	0.00	32	S 2	32	87	29
Tue Feb  2 06:28:02 2010	San Diego, CA 92101  	55.6	0	51	0.00	64	W 12	56	93	54
Tue Feb  2 06:28:04 2010	Denver, CO 80214  	32.0	1	21	0.00	45	NW 27	32	42	11
Tue Feb  2 06:28:06 2010	Memphis, TN 37501  	41.0	6	25	0.00	47	NNE 7	37	76	34
Tue Feb  2 06:28:08 2010	Los Angeles, CA 90001  	56.4	0	48	0.00	70	WSW 13	56	83	51
Tue Feb  2 06:28:10 2010	El Paso, TX 79901  	49.8	1	44	0.00	64	NNW 17	50	56	35
Tue Feb  2 06:28:12 2010	New York, NY 10001  	30.6	1	30	0.00	31	W 11	31	50	14
Tue Feb  2 06:28:14 2010	Baltimore, MD 21201  	29.7	1	30	0.00	30	NW 3	30	51	14
Tue Feb  2 06:28:17 2010	Las Vegas, NV 89101  	49.1	0	35	0.00	59	ENE 10	49	41	26
Tue Feb  2 06:28:19 2010	Washington, DC 20001  	33.7	2	25	0.00	38	NW 19	34	56	20
Tue Feb  2 06:28:21 2010	Austin, TX 73301  	45.0	0	35	0.01	45	NNE 5	45	94	43
Tue Feb  2 06:28:23 2010	San Francisco, CA 94101  	54.0	2	50	0.00	60	E 12	54	N/A	--
Tue Feb  2 06:28:25 2010	Oklahoma City, OK 73101  	32.0	0	28	0.00	32	S 17	32	96	31
Tue Feb  2 06:28:28 2010	Nashville, TN 37201  	37.4	0	23	0.22	50	NE 8	37	87	34
Tue Feb  2 06:28:30 2010	Fort Worth, TX 76101  	44.3	3	30	0.00	45	SSW 13	44	94	43
Tue Feb  2 06:28:32 2010	Phoenix, AZ 85001  	57.9	4	49	0.00	67	ENE 11	58	45	37
Tue Feb  2 06:28:35 2010	Portland, OR 97201  	42.9	2	39	0.25	46	SSW 13	43	100	43
Tue Feb  2 06:28:37 2010	Chicago, IL 60601  	30.4	0	19	0.00	31	S 9	30	71	22
Tue Feb  2 06:28:40 2010	San Antonio, TX 78201  	42.9	1	32	0.02	43	NNE 9	43	100	43
Tue Feb  2 06:28:44 2010	Indianapolis, IN 46201  	33.6	0	33	0.00	34	ESE 3	34	69	24
Tue Feb  2 06:28:47 2010	Boston, MA 02101  	24.7	3	25	0.00	25	NNE 8	21	52	9
Tue Feb  2 06:28:50 2010	Jacksonville, FL 32099  	55.4	6	55	0.00	55	NNE 6	54	100	55
Tue Feb  2 06:28:52 2010	Columbus, OH 43085  	27.9	0	28	N/A	28	SSE 2	28	N/A	--
Tue Feb  2 06:28:55 2010	Dallas, TX 75201  	45.4	0	35	0.00	50	S 12	45	92	43
Tue Feb  2 06:28:57 2010	Houston, TX 77001  	46.3	3	35	0.08	48	E 12	45	94	45
Tue Feb  2 06:29:00 2010	Seattle, WA 98101  	44.9	3	42	0.01	49	W 10	45	93	43
Tue Feb  2 06:29:02 2010	Milwaukee, WI 53201  	24.2	3	10	0.00	27	SE 8	20	100	24
Tue Feb  2 06:29:06 2010	Detroit, MI 48201  	23.7	2	24	0.00	24	WNW 2	24	75	17
Tue Feb  2 06:29:08 2010	Philadelphia, PA 19019  	29.3	1	29	0.00	30	W 4	29	64	19
Tue Feb  2 07:11:46 2010	San Jose, CA 95101  	53.1	3	43	0.00	63	NW 9	53	78	46
Tue Feb  2 07:11:46 2010	Charlotte, NC 28201  	32.2	0	32	0.00	32	S 2	32	87	29
Tue Feb  2 07:11:47 2010	San Diego, CA 92101  	55.6	0	51	0.00	64	W 12	56	93	54
Tue Feb  2 07:11:48 2010	Memphis, TN 37501  	41.0	6	25	0.00	47	NNE 7	37	76	34
Tue Feb  2 07:11:48 2010	Denver, CO 80214  	32.0	1	21	0.00	45	NW 27	32	42	11
Tue Feb  2 07:11:49 2010	Los Angeles, CA 90001  	56.4	0	48	0.00	70	WSW 13	56	83	51
Tue Feb  2 07:11:50 2010	El Paso, TX 79901  	49.8	1	44	0.00	64	NNW 17	50	56	35
Tue Feb  2 07:11:51 2010	Baltimore, MD 21201  	29.7	1	30	0.00	30	NW 3	30	51	14
Tue Feb  2 07:11:51 2010	New York, NY 10001  	30.6	1	30	0.00	31	W 11	31	50	14
Tue Feb  2 07:11:52 2010	Las Vegas, NV 89101  	49.1	0	35	0.00	59	ENE 10	49	41	26
Tue Feb  2 07:11:53 2010	Washington, DC 20001  	31.4	3	31	0.00	33	ENE 4	31	64	21
Tue Feb  2 07:11:54 2010	San Francisco, CA 94101  	54.0	2	50	0.00	60	E 12	54	N/A	--
Tue Feb  2 07:11:54 2010	Austin, TX 73301  	45.0	0	35	0.01	45	NNE 5	45	94	43
Tue Feb  2 07:11:55 2010	Oklahoma City, OK 73101  	32.0	0	28	0.00	32	S 17	32	96	31
Tue Feb  2 07:11:56 2010	Nashville, TN 37201  	37.4	0	23	0.22	50	NE 8	37	87	34
Tue Feb  2 07:11:57 2010	Fort Worth, TX 76101  	44.3	3	30	0.00	45	SSW 13	44	94	43
Tue Feb  2 07:11:58 2010	Phoenix, AZ 85001  	57.9	4	49	0.00	67	ENE 11	58	45	37
Tue Feb  2 07:11:58 2010	Portland, OR 97201  	42.9	2	39	0.25	46	SSW 13	43	100	43
Tue Feb  2 07:11:59 2010	Chicago, IL 60601  	30.4	0	19	0.00	31	S 9	30	71	22
Tue Feb  2 07:12:00 2010	Indianapolis, IN 46201  	33.6	0	33	0.00	34	ESE 3	34	69	24
Tue Feb  2 07:12:00 2010	San Antonio, TX 78201  	42.9	1	32	0.02	43	NNE 9	43	100	43
Tue Feb  2 07:12:02 2010	Jacksonville, FL 32099  	55.4	6	55	0.00	55	NNE 6	54	100	55
Tue Feb  2 07:12:02 2010	Boston, MA 02101  	24.7	3	25	0.00	25	NNE 8	21	52	9
Tue Feb  2 07:12:03 2010	Columbus, OH 43085  	27.9	0	28	N/A	28	SSE 2	28	N/A	--
Tue Feb  2 07:12:04 2010	Houston, TX 77001  	46.3	3	35	0.08	48	E 12	45	94	45
Tue Feb  2 07:12:04 2010	Dallas, TX 75201  	45.4	0	35	0.00	50	S 12	45	92	43
Tue Feb  2 07:12:05 2010	Seattle, WA 98101  	44.9	3	42	0.01	49	W 10	45	93	43
Tue Feb  2 07:12:06 2010	Milwaukee, WI 53201  	24.2	3	10	0.00	27	SE 8	20	100	24
Tue Feb  2 07:12:07 2010	Detroit, MI 48201  	23.7	2	24	0.00	24	WNW 2	24	75	17
Tue Feb  2 07:12:08 2010	Philadelphia, PA 19019  	29.3	1	29	0.00	30	W 4	29	64	19
Tue Feb  2 07:54:39 2010	San Jose, CA 95101  	52.0	0	43	0.00	63	NW 9	52	77	45
Tue Feb  2 07:54:40 2010	Charlotte, NC 28201  	35.9	1	32	0.00	36	NW 4	36	72	28
Tue Feb  2 07:54:41 2010	San Diego, CA 92101  	55.2	0	51	0.00	64	W 12	55	95	54
Tue Feb  2 07:54:44 2010	Denver, CO 80214  	28.7	0	21	0.00	45	NW 27	29	46	10
Tue Feb  2 07:54:45 2010	Memphis, TN 37501  	41.9	0	42	0.02	42	SE 5	42	77	35
Tue Feb  2 07:54:46 2010	Los Angeles, CA 90001  	55.3	0	48	0.00	70	WSW 13	55	89	52
Tue Feb  2 07:54:48 2010	El Paso, TX 79901  	49.4	0	44	0.00	64	NNW 17	49	55	34
Tue Feb  2 07:54:49 2010	New York, NY 10001  	30.1	5	30	0.00	31	W 11	25	51	14
Tue Feb  2 07:54:50 2010	Baltimore, MD 21201  	28.8	1	28	0.00	30	NNE 4	29	63	18
Tue Feb  2 07:54:51 2010	Las Vegas, NV 89101  	47.1	0	35	0.00	59	ENE 10	47	49	29
Tue Feb  2 07:54:52 2010	Washington, DC 20001  	31.4	3	31	0.00	33	ENE 4	31	64	21
Tue Feb  2 07:54:53 2010	Austin, TX 73301  	42.5	0	42	0.00	43	SE 5	42	99	42
Tue Feb  2 07:54:55 2010	San Francisco, CA 94101  	53.1	2	50	0.00	60	E 12	53	N/A	--
Tue Feb  2 07:54:57 2010	Oklahoma City, OK 73101  	31.0	0	30	0.00	31	WSW 0	31	93	29
Tue Feb  2 07:54:58 2010	Nashville, TN 37201  	36.5	1	37	0.02	37	SE 1	37	96	35
Tue Feb  2 07:55:00 2010	Fort Worth, TX 76101  	41.4	4	41	0.00	43	NNE 7	39	99	41
Tue Feb  2 07:55:01 2010	Phoenix, AZ 85001  	57.2	0	49	0.00	67	ENE 11	57	48	38
Tue Feb  2 07:55:02 2010	Portland, OR 97201  	43.9	0	39	0.25	46	SSW 13	44	100	44
Tue Feb  2 07:55:03 2010	Chicago, IL 60601  	30.0	2	30	0.00	30	SSW 5	30	75	23
Tue Feb  2 07:55:05 2010	San Antonio, TX 78201  	43.9	2	44	0.00	44	NNW 4	44	100	44
Tue Feb  2 07:55:06 2010	Indianapolis, IN 46201  	33.5	3	33	0.00	34	SSE 5	31	68	24
Tue Feb  2 07:55:08 2010	Boston, MA 02101  	24.7	5	24	0.00	25	NW 11	19	53	10
Tue Feb  2 07:55:09 2010	Jacksonville, FL 32099  	57.2	7	55	0.07	57	ENE 9	56	100	57
Tue Feb  2 07:55:10 2010	Columbus, OH 43085  	28.7	0	28	N/A	29	SSE 2	29	N/A	--
Tue Feb  2 07:55:12 2010	Dallas, TX 75201  	44.6	3	45	0.00	46	NNW 7	43	89	42
Tue Feb  2 07:55:13 2010	Houston, TX 77001  	46.2	2	46	0.00	46	E 9	46	94	45
Tue Feb  2 07:55:14 2010	Seattle, WA 98101  	44.4	2	42	0.01	49	W 10	44	96	43
Tue Feb  2 07:55:16 2010	Milwaukee, WI 53201  	24.9	0	24	0.00	25	SSE 5	25	100	25
Tue Feb  2 07:55:17 2010	Detroit, MI 48201  	23.7	0	23	0.00	24	WNW 3	24	77	17
Tue Feb  2 07:55:18 2010	Philadelphia, PA 19019  	28.7	1	29	0.00	30	NW 7	29	66	19
Tue Feb  2 08:38:17 2010	San Jose, CA 95101  	52.0	0	43	0.00	63	NW 9	52	77	45
Tue Feb  2 08:38:18 2010	Charlotte, NC 28201  	35.9	1	32	0.00	36	NW 4	36	72	28
Tue Feb  2 08:38:18 2010	San Diego, CA 92101  	55.2	0	51	0.00	64	W 12	55	95	54
Tue Feb  2 08:38:19 2010	Denver, CO 80214  	28.7	0	21	0.00	45	NW 27	29	46	10
Tue Feb  2 08:38:20 2010	Memphis, TN 37501  	41.9	0	42	0.02	42	SE 5	42	77	35
Tue Feb  2 08:38:20 2010	Los Angeles, CA 90001  	55.3	0	48	0.00	70	WSW 13	55	89	52
Tue Feb  2 08:38:21 2010	El Paso, TX 79901  	49.4	0	44	0.00	64	NNW 17	49	55	34
Tue Feb  2 08:38:22 2010	Baltimore, MD 21201  	28.8	1	28	0.00	30	NNE 4	29	63	18
Tue Feb  2 08:38:22 2010	New York, NY 10001  	30.1	5	30	0.00	31	W 11	25	51	14
Tue Feb  2 08:38:23 2010	Las Vegas, NV 89101  	47.1	0	35	0.00	59	ENE 10	47	49	29
Tue Feb  2 08:38:24 2010	Washington, DC 20001  	29.2	2	29	0.00	33	ENE 4	29	71	21
Tue Feb  2 08:38:25 2010	Austin, TX 73301  	42.5	0	42	0.00	43	SE 5	42	99	42
Tue Feb  2 08:38:26 2010	San Francisco, CA 94101  	53.1	2	50	0.00	60	E 12	53	N/A	--
Tue Feb  2 08:38:27 2010	Nashville, TN 37201  	36.5	1	37	0.02	37	SE 1	37	96	35
Tue Feb  2 08:38:27 2010	Oklahoma City, OK 73101  	31.0	0	30	0.00	31	WSW 0	31	93	29
Tue Feb  2 08:38:28 2010	Fort Worth, TX 76101  	41.4	4	41	0.00	43	NNE 7	39	99	41
Tue Feb  2 08:38:29 2010	Phoenix, AZ 85001  	57.2	0	49	0.00	67	ENE 11	57	48	38
Tue Feb  2 08:38:29 2010	Portland, OR 97201  	43.9	0	39	0.25	46	SSW 13	44	100	44
Tue Feb  2 08:38:30 2010	Chicago, IL 60601  	30.0	2	30	0.00	30	SSW 5	30	75	23
Tue Feb  2 08:38:31 2010	San Antonio, TX 78201  	43.9	2	44	0.00	44	NNW 4	44	100	44
Tue Feb  2 08:38:31 2010	Indianapolis, IN 46201  	33.5	3	33	0.00	34	SSE 5	31	68	24
Tue Feb  2 08:38:32 2010	Boston, MA 02101  	24.7	5	24	0.00	25	NW 11	19	53	10
Tue Feb  2 08:38:33 2010	Jacksonville, FL 32099  	57.2	7	55	0.07	57	ENE 9	56	100	57
Tue Feb  2 08:38:33 2010	Columbus, OH 43085  	28.7	0	28	N/A	29	SSE 2	29	N/A	--
Tue Feb  2 08:38:34 2010	Dallas, TX 75201  	44.6	3	45	0.00	46	NNW 7	43	89	42
Tue Feb  2 08:38:35 2010	Houston, TX 77001  	46.2	2	46	0.00	46	E 9	46	94	45
Tue Feb  2 08:38:35 2010	Seattle, WA 98101  	44.4	2	42	0.01	49	W 10	44	96	43
Tue Feb  2 08:38:36 2010	Milwaukee, WI 53201  	24.9	0	24	0.00	25	SSE 5	25	100	25
Tue Feb  2 08:38:37 2010	Philadelphia, PA 19019  	28.7	1	29	0.00	30	NW 7	29	66	19
Tue Feb  2 08:38:37 2010	Detroit, MI 48201  	23.7	0	23	0.00	24	WNW 3	24	77	17
Tue Feb  2 09:21:18 2010	San Jose, CA 95101  	50.0	3	43	0.00	63	NW 9	49	80	44
Tue Feb  2 09:21:19 2010	Charlotte, NC 28201  	36.7	0	32	0.00	37	NW 4	37	68	27
Tue Feb  2 09:21:21 2010	San Diego, CA 92101  	53.8	0	53	0.00	54	N 1	54	100	54
Tue Feb  2 09:21:25 2010	Denver, CO 80214  	24.9	0	25	0.00	29	SSE 6	25	53	10
Tue Feb  2 09:21:28 2010	Memphis, TN 37501  	39.9	0	40	0.00	41	NNE 0	40	81	35
Tue Feb  2 09:21:29 2010	Los Angeles, CA 90001  	53.9	0	54	0.00	54	WSW 0	54	88	50
Tue Feb  2 09:21:31 2010	El Paso, TX 79901  	47.4	1	47	0.00	50	ESE 4	47	60	34
Tue Feb  2 09:21:33 2010	New York, NY 10001  	29.7	2	29	0.00	31	W 11	30	51	14
Tue Feb  2 09:21:35 2010	Baltimore, MD 21201  	27.6	1	27	0.00	30	NNE 4	28	65	17
Tue Feb  2 09:21:36 2010	Las Vegas, NV 89101  	45.0	0	45	0.00	45	ENE 2	45	57	31
Tue Feb  2 09:21:38 2010	Washington, DC 20001  	28.4	3	28	0.00	33	ENE 4	25	74	21
Tue Feb  2 09:21:41 2010	Austin, TX 73301  	45.0	5	45	0.00	45	NNE 6	43	98	44
Tue Feb  2 09:21:42 2010	San Francisco, CA 94101  	51.9	2	52	0.00	52	ESE 8	52	N/A	--
Tue Feb  2 09:21:43 2010	Oklahoma City, OK 73101  	31.1	0	30	0.00	32	WSW 0	31	89	28
Tue Feb  2 09:21:45 2010	Nashville, TN 37201  	36.7	0	36	0.06	37	E 3	37	99	36
Tue Feb  2 09:21:46 2010	Fort Worth, TX 76101  	40.0	3	40	0.00	43	NNE 9	38	100	40
Tue Feb  2 09:21:48 2010	Phoenix, AZ 85001  	55.5	2	55	0.00	57	SW 3	55	54	39
Tue Feb  2 09:21:50 2010	Portland, OR 97201  	43.9	0	44	0.00	44	SW 2	44	100	44
Tue Feb  2 09:21:51 2010	Chicago, IL 60601  	28.2	1	28	0.00	30	E 19	28	88	25
Tue Feb  2 09:21:53 2010	San Antonio, TX 78201  	44.0	3	43	0.00	44	N 7	44	100	44
Tue Feb  2 09:21:54 2010	Indianapolis, IN 46201  	33.1	2	33	0.00	34	SSW 7	33	73	25
Tue Feb  2 09:21:57 2010	Boston, MA 02101  	24.0	1	24	0.00	25	NW 11	24	57	11
Tue Feb  2 09:21:58 2010	Jacksonville, FL 32099  	61.0	5	55	0.09	61	ENE 9	61	97	60
Tue Feb  2 09:22:02 2010	Columbus, OH 43085  	29.6	0	28	N/A	30	SSE 2	30	N/A	--
Tue Feb  2 09:22:03 2010	Dallas, TX 75201  	42.5	4	42	0.00	46	NNE 10	40	91	40
Tue Feb  2 09:22:05 2010	Houston, TX 77001  	45.8	3	45	0.00	46	E 12	45	94	44
Tue Feb  2 09:22:07 2010	Seattle, WA 98101  	45.8	0	45	0.01	46	ESE 5	46	91	43
Tue Feb  2 09:22:09 2010	Milwaukee, WI 53201  	24.8	0	24	0.00	25	SSE 5	25	100	25
Tue Feb  2 09:22:11 2010	Detroit, MI 48201  	23.2	0	23	0.00	24	ENE 6	23	81	18
Tue Feb  2 09:22:13 2010	Philadelphia, PA 19019  	27.4	3	27	0.00	30	NW 7	27	69	19
Tue Feb  2 10:05:18 2010	San Jose, CA 95101  	50.0	3	43	0.00	63	NW 9	49	80	44
Tue Feb  2 10:05:19 2010	Charlotte, NC 28201  	36.7	0	32	0.00	37	NW 4	37	68	27
Tue Feb  2 10:05:21 2010	San Diego, CA 92101  	53.8	0	53	0.00	54	N 1	54	100	54
Tue Feb  2 10:05:21 2010	Denver, CO 80214  	24.9	0	25	0.00	29	SSE 6	25	53	10
Tue Feb  2 10:05:22 2010	Memphis, TN 37501  	39.9	0	40	0.00	41	NNE 0	40	81	35
Tue Feb  2 10:05:23 2010	El Paso, TX 79901  	47.4	1	47	0.00	50	ESE 4	47	60	34
Tue Feb  2 10:05:23 2010	Los Angeles, CA 90001  	53.9	0	54	0.00	54	WSW 0	54	88	50
Tue Feb  2 10:05:24 2010	New York, NY 10001  	29.7	2	29	0.00	31	W 11	30	51	14
Tue Feb  2 10:05:25 2010	Las Vegas, NV 89101  	45.0	0	45	0.00	45	ENE 2	45	57	31
Tue Feb  2 10:05:25 2010	Baltimore, MD 21201  	27.6	1	27	0.00	30	NNE 4	28	65	17
Tue Feb  2 10:05:27 2010	Washington, DC 20001  	27.7	2	28	0.00	33	ENE 6	28	77	21
Tue Feb  2 10:05:28 2010	San Francisco, CA 94101  	51.9	2	52	0.00	52	ESE 8	52	N/A	--
Tue Feb  2 10:05:28 2010	Austin, TX 73301  	45.0	5	45	0.00	45	NNE 6	43	98	44
Tue Feb  2 10:05:29 2010	Oklahoma City, OK 73101  	31.1	0	30	0.00	32	WSW 0	31	89	28
Tue Feb  2 10:05:30 2010	Nashville, TN 37201  	36.7	0	36	0.06	37	E 3	37	99	36
Tue Feb  2 10:05:31 2010	Fort Worth, TX 76101  	40.0	3	40	0.00	43	NNE 9	38	100	40
Tue Feb  2 10:05:32 2010	Phoenix, AZ 85001  	55.5	2	55	0.00	57	SW 3	55	54	39
Tue Feb  2 10:05:33 2010	Portland, OR 97201  	43.9	0	44	0.00	44	SW 2	44	100	44
Tue Feb  2 10:05:34 2010	Chicago, IL 60601  	28.2	1	28	0.00	30	E 19	28	88	25
Tue Feb  2 10:05:34 2010	San Antonio, TX 78201  	44.0	3	43	0.00	44	N 7	44	100	44
Tue Feb  2 10:05:35 2010	Indianapolis, IN 46201  	33.1	2	33	0.00	34	SSW 7	33	73	25
Tue Feb  2 10:05:36 2010	Boston, MA 02101  	24.0	1	24	0.00	25	NW 11	24	57	11
Tue Feb  2 10:05:37 2010	Jacksonville, FL 32099  	61.0	5	55	0.09	61	ENE 9	61	97	60
Tue Feb  2 10:05:38 2010	Dallas, TX 75201  	42.5	4	42	0.00	46	NNE 10	40	91	40
Tue Feb  2 10:05:38 2010	Columbus, OH 43085  	29.6	0	28	N/A	30	SSE 2	30	N/A	--
Tue Feb  2 10:05:39 2010	Houston, TX 77001  	45.8	3	45	0.00	46	E 12	45	94	44
Tue Feb  2 10:05:40 2010	Seattle, WA 98101  	45.8	0	45	0.01	46	ESE 5	46	91	43
Tue Feb  2 10:05:41 2010	Milwaukee, WI 53201  	24.8	0	24	0.00	25	SSE 5	25	100	25
Tue Feb  2 10:05:42 2010	Detroit, MI 48201  	23.2	0	23	0.00	24	ENE 6	23	81	18
Tue Feb  2 10:05:43 2010	Philadelphia, PA 19019  	27.4	3	27	0.00	30	NW 7	27	69	19
Tue Feb  2 10:49:03 2010	San Jose, CA 95101  	50.0	0	50	0.00	50	NNE 0	50	83	45
Tue Feb  2 10:49:05 2010	Charlotte, NC 28201  	36.9	3	32	0.00	38	ENE 7	37	65	26
Tue Feb  2 10:49:07 2010	San Diego, CA 92101  	56.1	0	53	0.00	56	NNE 3	56	91	53
Tue Feb  2 10:49:09 2010	Denver, CO 80214  	22.5	0	23	0.00	29	SSE 6	23	58	10
Tue Feb  2 10:49:10 2010	Memphis, TN 37501  	39.0	0	39	0.00	41	NNE 0	39	78	33
Tue Feb  2 10:49:13 2010	Los Angeles, CA 90001  	52.5	0	53	0.00	54	WSW 0	53	90	50
Tue Feb  2 10:49:15 2010	El Paso, TX 79901  	45.4	4	45	0.00	50	E 7	43	64	34
Tue Feb  2 10:49:17 2010	New York, NY 10001  	29.0	0	29	0.00	31	W 11	29	52	13
Tue Feb  2 10:49:18 2010	Baltimore, MD 21201  	27.5	0	27	0.00	30	NE 5	28	66	18
Tue Feb  2 10:49:20 2010	Las Vegas, NV 89101  	43.3	0	43	0.00	45	ENE 2	43	64	32
Tue Feb  2 10:49:22 2010	Washington, DC 20001  	27.7	2	28	0.00	33	ENE 6	28	77	21
Tue Feb  2 10:49:23 2010	Austin, TX 73301  	44.6	8	45	0.00	45	NNE 8	40	100	45
Tue Feb  2 10:49:25 2010	San Francisco, CA 94101  	51.2	7	51	0.00	52	ESE 11	49	N/A	--
Tue Feb  2 10:49:27 2010	Oklahoma City, OK 73101  	31.9	0	30	0.00	32	WSW 0	32	99	32
Tue Feb  2 10:49:28 2010	Nashville, TN 37201  	36.3	0	36	0.08	37	E 4	36	100	36
Tue Feb  2 10:49:30 2010	Fort Worth, TX 76101  	40.7	2	40	0.00	43	NNE 11	41	99	40
Tue Feb  2 10:49:32 2010	Phoenix, AZ 85001  	53.9	4	54	0.00	57	ESE 5	53	59	40
Tue Feb  2 10:49:35 2010	Portland, OR 97201  	43.7	0	44	0.00	44	E 3	44	100	44
Tue Feb  2 10:49:37 2010	Chicago, IL 60601  	28.2	2	28	0.00	30	E 19	28	89	25
Tue Feb  2 10:49:39 2010	San Antonio, TX 78201  	44.6	3	43	0.00	45	N 7	43	100	45
Tue Feb  2 10:49:40 2010	Indianapolis, IN 46201  	31.6	5	32	0.00	34	SSW 7	26	87	28
Tue Feb  2 10:49:42 2010	Boston, MA 02101  	22.8	1	23	0.00	25	NW 11	23	59	10
Tue Feb  2 10:49:43 2010	Jacksonville, FL 32099  	60.8	0	55	0.09	61	ENE 7	61	100	61
Tue Feb  2 10:49:45 2010	Columbus, OH 43085  	30.0	1	28	N/A	30	SSE 2	30	N/A	--
Tue Feb  2 10:49:47 2010	Dallas, TX 75201  	43.0	2	42	0.00	46	NNE 10	43	89	40
Tue Feb  2 10:49:48 2010	Houston, TX 77001  	46.0	3	45	0.00	46	E 12	45	96	45
Tue Feb  2 10:49:50 2010	Seattle, WA 98101  	44.9	1	44	0.01	46	SSE 9	45	92	43
Tue Feb  2 10:49:51 2010	Milwaukee, WI 53201  	25.3	0	24	0.00	25	SSE 5	25	100	25
Tue Feb  2 10:49:53 2010	Detroit, MI 48201  	22.8	0	23	0.00	24	ENE 6	23	83	19
Tue Feb  2 10:49:55 2010	Philadelphia, PA 19019  	27.4	2	27	0.00	30	NNW 7	27	61	16
Tue Feb  2 11:32:34 2010	San Jose, CA 95101  	50.0	0	50	0.00	50	NNE 0	50	83	45
Tue Feb  2 11:32:35 2010	Charlotte, NC 28201  	36.9	3	32	0.00	38	ENE 7	37	65	26
Tue Feb  2 11:32:36 2010	San Diego, CA 92101  	56.1	0	53	0.00	56	NNE 3	56	91	53
Tue Feb  2 11:32:37 2010	Denver, CO 80214  	22.5	0	23	0.00	29	SSE 6	23	58	10
Tue Feb  2 11:32:38 2010	Memphis, TN 37501  	39.0	0	39	0.00	41	NNE 0	39	78	33
Tue Feb  2 11:32:38 2010	Los Angeles, CA 90001  	52.5	0	53	0.00	54	WSW 0	53	90	50
Tue Feb  2 11:32:39 2010	El Paso, TX 79901  	45.4	4	45	0.00	50	E 7	43	64	34
Tue Feb  2 11:32:40 2010	Baltimore, MD 21201  	27.5	0	27	0.00	30	NE 5	28	66	18
Tue Feb  2 11:32:40 2010	New York, NY 10001  	29.0	0	29	0.00	31	W 11	29	52	13
Tue Feb  2 11:32:41 2010	Las Vegas, NV 89101  	43.3	0	43	0.00	45	ENE 2	43	64	32
Tue Feb  2 11:32:43 2010	Washington, DC 20001  	27.4	5	27	0.00	33	ENE 7	22	82	22
Tue Feb  2 11:32:43 2010	Austin, TX 73301  	44.6	8	45	0.00	45	NNE 8	40	100	45
Tue Feb  2 11:32:44 2010	San Francisco, CA 94101  	51.2	7	51	0.00	52	ESE 11	49	N/A	--
Tue Feb  2 11:32:45 2010	Nashville, TN 37201  	36.3	0	36	0.08	37	E 4	36	100	36
Tue Feb  2 11:32:45 2010	Oklahoma City, OK 73101  	31.9	0	30	0.00	32	WSW 0	32	99	32
Tue Feb  2 11:32:46 2010	Fort Worth, TX 76101  	40.7	2	40	0.00	43	NNE 11	41	99	40
Tue Feb  2 11:32:47 2010	Phoenix, AZ 85001  	53.9	4	54	0.00	57	ESE 5	53	59	40
Tue Feb  2 11:32:48 2010	Chicago, IL 60601  	28.2	2	28	0.00	30	E 19	28	89	25
Tue Feb  2 11:32:48 2010	Portland, OR 97201  	43.7	0	44	0.00	44	E 3	44	100	44
Tue Feb  2 11:32:49 2010	San Antonio, TX 78201  	44.6	3	43	0.00	45	N 7	43	100	45
Tue Feb  2 11:32:50 2010	Indianapolis, IN 46201  	31.6	5	32	0.00	34	SSW 7	26	87	28
Tue Feb  2 11:32:51 2010	Boston, MA 02101  	22.8	1	23	0.00	25	NW 11	23	59	10
Tue Feb  2 11:32:52 2010	Jacksonville, FL 32099  	60.8	0	55	0.09	61	ENE 7	61	100	61
Tue Feb  2 11:32:53 2010	Columbus, OH 43085  	30.0	1	28	N/A	30	SSE 2	30	N/A	--
Tue Feb  2 11:32:54 2010	Dallas, TX 75201  	43.0	2	42	0.00	46	NNE 10	43	89	40
Tue Feb  2 11:32:55 2010	Houston, TX 77001  	46.0	3	45	0.00	46	E 12	45	96	45
Tue Feb  2 11:32:55 2010	Seattle, WA 98101  	44.9	1	44	0.01	46	SSE 9	45	92	43
Tue Feb  2 11:32:56 2010	Milwaukee, WI 53201  	25.3	0	24	0.00	25	SSE 5	25	100	25
Tue Feb  2 11:32:57 2010	Detroit, MI 48201  	22.8	0	23	0.00	24	ENE 6	23	83	19
Tue Feb  2 11:32:57 2010	Philadelphia, PA 19019  	27.4	2	27	0.00	30	NNW 7	27	61	16
Tue Feb  2 12:16:59 2010	San Jose, CA 95101  	48.0	3	48	0.00	50	E 3	47	82	43
Tue Feb  2 12:17:01 2010	Charlotte, NC 28201  	35.9	2	32	0.00	38	ENE 7	36	71	28
Tue Feb  2 12:17:02 2010	San Diego, CA 92101  	55.1	1	53	0.00	56	NE 4	55	93	53
Tue Feb  2 12:17:04 2010	Denver, CO 80214  	21.6	0	21	0.00	29	SSE 6	22	61	10
Tue Feb  2 12:17:06 2010	Memphis, TN 37501  	36.0	5	36	0.00	41	WNW 5	32	87	32
Tue Feb  2 12:17:09 2010	Los Angeles, CA 90001  	52.4	0	52	0.00	54	ESE 2	52	92	50
Tue Feb  2 12:17:10 2010	El Paso, TX 79901  	44.1	0	44	0.00	50	E 7	44	67	34
Tue Feb  2 12:17:12 2010	New York, NY 10001  	28.1	0	28	0.00	31	ENE 11	28	46	10
Tue Feb  2 12:17:15 2010	Baltimore, MD 21201  	26.7	7	27	0.00	30	ENE 9	19	68	17
Tue Feb  2 12:17:16 2010	Las Vegas, NV 89101  	42.5	1	43	0.00	45	NW 4	43	65	32
Tue Feb  2 12:17:17 2010	Washington, DC 20001  	27.4	5	27	0.00	33	ENE 7	22	82	22
Tue Feb  2 12:17:19 2010	Austin, TX 73301  	45.0	7	45	0.00	45	NNE 9	41	98	44
Tue Feb  2 12:17:21 2010	San Francisco, CA 94101  	51.5	0	51	0.00	52	ESE 11	52	N/A	--
Tue Feb  2 12:17:23 2010	Oklahoma City, OK 73101  	31.5	0	30	0.00	32	WSW 0	32	96	31
Tue Feb  2 12:17:25 2010	Nashville, TN 37201  	36.8	0	36	0.09	37	E 4	37	100	37
Tue Feb  2 12:17:28 2010	Fort Worth, TX 76101  	42.2	0	40	0.00	43	NNE 11	42	98	42
Tue Feb  2 12:17:31 2010	Phoenix, AZ 85001  	52.7	2	53	0.00	57	E 5	53	61	40
Tue Feb  2 12:17:33 2010	Portland, OR 97201  	42.8	1	43	0.00	44	S 4	43	100	43
Tue Feb  2 12:17:34 2010	Chicago, IL 60601  	28.2	2	28	0.00	30	E 19	28	89	25
Tue Feb  2 12:17:36 2010	San Antonio, TX 78201  	44.5	5	43	0.00	45	N 10	42	100	44
Tue Feb  2 12:17:37 2010	Indianapolis, IN 46201  	32.0	2	31	0.00	34	SSW 7	32	88	29
Tue Feb  2 12:17:39 2010	Boston, MA 02101  	22.1	2	22	0.00	25	NW 11	22	62	11
Tue Feb  2 12:17:40 2010	Jacksonville, FL 32099  	60.8	10	55	0.29	61	WNW 10	59	100	61
Tue Feb  2 12:17:41 2010	Columbus, OH 43085  	28.5	0	28	N/A	30	S 4	28	N/A	--
Tue Feb  2 12:17:43 2010	Dallas, TX 75201  	44.2	5	42	0.00	46	NNE 10	41	86	40
Tue Feb  2 12:17:44 2010	Houston, TX 77001  	45.8	3	45	0.00	46	E 12	46	95	45
Tue Feb  2 12:17:46 2010	Seattle, WA 98101  	44.4	3	44	0.01	46	SSE 11	44	93	42
Tue Feb  2 12:17:49 2010	Milwaukee, WI 53201  	26.1	0	24	0.00	26	SSE 5	26	100	26
Tue Feb  2 12:17:51 2010	Detroit, MI 48201  	23.5	2	23	0.00	24	ENE 8	24	79	18
Tue Feb  2 12:17:53 2010	Philadelphia, PA 19019  	26.4	2	26	0.00	30	NNW 7	26	68	17
Tue Feb  2 13:00:40 2010	San Jose, CA 95101  	48.0	3	48	0.00	50	E 3	47	82	43
Tue Feb  2 13:00:41 2010	Charlotte, NC 28201  	35.9	2	32	0.00	38	ENE 7	36	71	28
Tue Feb  2 13:00:42 2010	San Diego, CA 92101  	55.1	1	53	0.00	56	NE 4	55	93	53
Tue Feb  2 13:00:43 2010	Denver, CO 80214  	21.6	0	21	0.00	29	SSE 6	22	61	10
Tue Feb  2 13:00:43 2010	Memphis, TN 37501  	36.0	5	36	0.00	41	WNW 5	32	87	32
Tue Feb  2 13:00:44 2010	Los Angeles, CA 90001  	52.4	0	52	0.00	54	ESE 2	52	92	50
Tue Feb  2 13:00:45 2010	El Paso, TX 79901  	44.1	0	44	0.00	50	E 7	44	67	34
Tue Feb  2 13:00:46 2010	New York, NY 10001  	28.1	0	28	0.00	31	ENE 11	28	46	10
Tue Feb  2 13:00:46 2010	Baltimore, MD 21201  	26.7	7	27	0.00	30	ENE 9	19	68	17
Tue Feb  2 13:00:47 2010	Las Vegas, NV 89101  	42.5	1	43	0.00	45	NW 4	43	65	32
Tue Feb  2 13:00:50 2010	Washington, DC 20001  	28.7	3	27	0.00	33	ENE 8	29	86	25
Tue Feb  2 13:00:51 2010	Austin, TX 73301  	45.0	7	45	0.00	45	NNE 9	41	98	44
Tue Feb  2 13:00:52 2010	San Francisco, CA 94101  	51.5	0	51	0.00	52	ESE 11	52	N/A	--
Tue Feb  2 13:00:52 2010	Oklahoma City, OK 73101  	31.5	0	30	0.00	32	WSW 0	32	96	31
Tue Feb  2 13:00:53 2010	Nashville, TN 37201  	36.8	0	36	0.09	37	E 4	37	100	37
Tue Feb  2 13:00:54 2010	Fort Worth, TX 76101  	42.2	0	40	0.00	43	NNE 11	42	98	42
Tue Feb  2 13:00:55 2010	Phoenix, AZ 85001  	52.7	2	53	0.00	57	E 5	53	61	40
Tue Feb  2 13:00:55 2010	Portland, OR 97201  	42.8	1	43	0.00	44	S 4	43	100	43
Tue Feb  2 13:00:56 2010	Chicago, IL 60601  	28.2	2	28	0.00	30	E 19	28	89	25
Tue Feb  2 13:00:57 2010	San Antonio, TX 78201  	44.5	5	43	0.00	45	N 10	42	100	44
Tue Feb  2 13:00:57 2010	Indianapolis, IN 46201  	32.0	2	31	0.00	34	SSW 7	32	88	29
Tue Feb  2 13:00:58 2010	Boston, MA 02101  	22.1	2	22	0.00	25	NW 11	22	62	11
Tue Feb  2 13:00:59 2010	Columbus, OH 43085  	28.5	0	28	N/A	30	S 4	28	N/A	--
Tue Feb  2 13:00:59 2010	Jacksonville, FL 32099  	60.8	10	55	0.29	61	WNW 10	59	100	61
Tue Feb  2 13:01:00 2010	Dallas, TX 75201  	44.2	5	42	0.00	46	NNE 10	41	86	40
Tue Feb  2 13:01:01 2010	Houston, TX 77001  	45.8	3	45	0.00	46	E 12	46	95	45
Tue Feb  2 13:01:02 2010	Seattle, WA 98101  	44.4	3	44	0.01	46	SSE 11	44	93	42
Tue Feb  2 13:01:02 2010	Milwaukee, WI 53201  	26.1	0	24	0.00	26	SSE 5	26	100	26
Tue Feb  2 13:01:03 2010	Detroit, MI 48201  	23.5	2	23	0.00	24	ENE 8	24	79	18
Tue Feb  2 13:01:04 2010	Philadelphia, PA 19019  	26.4	2	26	0.00	30	NNW 7	26	68	17
Tue Feb  2 13:43:47 2010	San Jose, CA 95101  	48.0	0	48	0.00	50	E 3	48	85	44
Tue Feb  2 13:43:58 2010	Charlotte, NC 28201  	33.6	2	32	0.03	38	ENE 7	34	94	32
Tue Feb  2 13:44:05 2010	San Diego, CA 92101  	52.1	1	52	0.00	56	NE 4	52	98	51
Tue Feb  2 13:44:06 2010	Denver, CO 80214  	21.5	1	20	0.00	29	SSE 6	21	53	7
Tue Feb  2 13:44:08 2010	Memphis, TN 37501  	36.0	0	36	0.00	41	WNW 5	36	90	33
Tue Feb  2 13:44:09 2010	Los Angeles, CA 90001  	52.6	3	52	0.00	54	ENE 4	53	94	51
Tue Feb  2 13:44:11 2010	El Paso, TX 79901  	43.2	1	43	0.00	50	E 7	43	72	35
Tue Feb  2 13:44:13 2010	New York, NY 10001  	28.5	0	28	0.00	31	ENE 11	29	49	12
Tue Feb  2 13:44:14 2010	Baltimore, MD 21201  	27.9	3	26	0.00	30	E 11	28	73	20
Tue Feb  2 13:44:16 2010	Las Vegas, NV 89101  	43.0	0	42	0.00	45	NW 4	43	62	31
Tue Feb  2 13:44:17 2010	Washington, DC 20001  	28.7	3	27	0.00	33	ENE 8	29	86	25
Tue Feb  2 13:44:19 2010	Austin, TX 73301  	45.0	8	45	0.00	45	NNE 9	41	98	44
Tue Feb  2 13:44:20 2010	San Francisco, CA 94101  	50.3	4	50	0.00	52	ESE 11	50	N/A	--
Tue Feb  2 13:44:22 2010	Oklahoma City, OK 73101  	31.7	0	30	0.00	32	WSW 0	32	91	29
Tue Feb  2 13:44:25 2010	Nashville, TN 37201  	37.5	0	36	0.10	38	E 4	38	100	38
Tue Feb  2 13:44:26 2010	Fort Worth, TX 76101  	41.8	4	40	0.00	43	NNE 11	39	97	41
Tue Feb  2 13:44:27 2010	Phoenix, AZ 85001  	52.8	0	53	0.00	57	E 5	53	60	39
Tue Feb  2 13:44:29 2010	Portland, OR 97201  	41.7	0	42	0.00	44	NE 6	42	95	40
Tue Feb  2 13:44:30 2010	Chicago, IL 60601  	28.5	0	28	0.00	30	SSW 24	29	89	26
Tue Feb  2 13:44:32 2010	San Antonio, TX 78201  	44.4	6	43	0.00	45	NNW 10	41	100	44
Tue Feb  2 13:44:33 2010	Indianapolis, IN 46201  	32.3	1	31	0.00	34	SSW 7	32	81	27
Tue Feb  2 13:44:36 2010	Boston, MA 02101  	22.7	1	22	0.00	25	NW 11	23	63	12
Tue Feb  2 13:44:37 2010	Jacksonville, FL 32099  	59.0	3	55	0.43	61	WNW 10	59	94	57
Tue Feb  2 13:44:38 2010	Columbus, OH 43085  	28.4	0	28	N/A	30	S 4	28	N/A	--
Tue Feb  2 13:44:40 2010	Dallas, TX 75201  	44.2	1	42	0.00	46	NNE 10	44	79	38
Tue Feb  2 13:44:41 2010	Houston, TX 77001  	45.6	6	45	0.01	46	E 12	42	96	44
Tue Feb  2 13:44:43 2010	Seattle, WA 98101  	43.5	2	43	0.01	46	SW 12	44	95	42
Tue Feb  2 13:44:44 2010	Milwaukee, WI 53201  	26.6	2	24	0.00	27	SE 7	27	100	27
Tue Feb  2 13:44:45 2010	Detroit, MI 48201  	22.6	1	22	0.00	24	NE 9	23	80	17
Tue Feb  2 13:44:47 2010	Philadelphia, PA 19019  	26.4	0	26	0.00	30	NNW 7	26	71	18
Tue Feb  2 14:28:33 2010	San Jose, CA 95101  	48.0	0	48	0.00	50	E 3	48	85	44
Tue Feb  2 14:28:34 2010	Charlotte, NC 28201  	33.6	2	32	0.03	38	ENE 7	34	94	32
Tue Feb  2 14:28:35 2010	San Diego, CA 92101  	52.1	1	52	0.00	56	NE 4	52	98	51
Tue Feb  2 14:28:35 2010	Denver, CO 80214  	21.5	1	20	0.00	29	SSE 6	21	53	7
Tue Feb  2 14:28:36 2010	Memphis, TN 37501  	36.0	0	36	0.00	41	WNW 5	36	90	33
Tue Feb  2 14:28:37 2010	El Paso, TX 79901  	43.2	1	43	0.00	50	E 7	43	72	35
Tue Feb  2 14:28:37 2010	Los Angeles, CA 90001  	52.6	3	52	0.00	54	ENE 4	53	94	51
Tue Feb  2 14:28:38 2010	New York, NY 10001  	28.5	0	28	0.00	31	ENE 11	29	49	12
Tue Feb  2 14:28:39 2010	Baltimore, MD 21201  	27.9	3	26	0.00	30	E 11	28	73	20
Tue Feb  2 14:28:40 2010	Las Vegas, NV 89101  	43.0	0	42	0.00	45	NW 4	43	62	31
Tue Feb  2 14:28:41 2010	Washington, DC 20001  	29.5	6	27	0.00	33	ENE 8	23	92	27
Tue Feb  2 14:28:42 2010	Austin, TX 73301  	45.0	8	45	0.00	45	NNE 9	41	98	44
Tue Feb  2 14:28:43 2010	San Francisco, CA 94101  	50.3	4	50	0.00	52	ESE 11	50	N/A	--
Tue Feb  2 14:28:44 2010	Nashville, TN 37201  	37.5	0	36	0.10	38	E 4	38	100	38
Tue Feb  2 14:28:44 2010	Oklahoma City, OK 73101  	31.7	0	30	0.00	32	WSW 0	32	91	29
Tue Feb  2 14:28:45 2010	Fort Worth, TX 76101  	41.8	4	40	0.00	43	NNE 11	39	97	41
Tue Feb  2 14:28:46 2010	Phoenix, AZ 85001  	52.8	0	53	0.00	57	E 5	53	60	39
Tue Feb  2 14:28:47 2010	Portland, OR 97201  	41.7	0	42	0.00	44	NE 6	42	95	40
Tue Feb  2 14:28:47 2010	Chicago, IL 60601  	28.5	0	28	0.00	30	SSW 24	29	89	26
Tue Feb  2 14:28:48 2010	San Antonio, TX 78201  	44.4	6	43	0.00	45	NNW 10	41	100	44
Tue Feb  2 14:28:49 2010	Boston, MA 02101  	22.7	1	22	0.00	25	NW 11	23	63	12
Tue Feb  2 14:28:49 2010	Indianapolis, IN 46201  	32.3	1	31	0.00	34	SSW 7	32	81	27
Tue Feb  2 14:28:50 2010	Jacksonville, FL 32099  	59.0	3	55	0.43	61	WNW 10	59	94	57
Tue Feb  2 14:28:51 2010	Columbus, OH 43085  	28.4	0	28	N/A	30	S 4	28	N/A	--
Tue Feb  2 14:28:52 2010	Dallas, TX 75201  	44.2	1	42	0.00	46	NNE 10	44	79	38
Tue Feb  2 14:28:53 2010	Houston, TX 77001  	45.6	6	45	0.01	46	E 12	42	96	44
Tue Feb  2 14:28:53 2010	Seattle, WA 98101  	43.5	2	43	0.01	46	SW 12	44	95	42
Tue Feb  2 14:28:54 2010	Milwaukee, WI 53201  	26.6	2	24	0.00	27	SE 7	27	100	27
Tue Feb  2 14:28:55 2010	Detroit, MI 48201  	22.6	1	22	0.00	24	NE 9	23	80	17
Tue Feb  2 14:28:56 2010	Philadelphia, PA 19019  	26.4	0	26	0.00	30	NNW 7	26	71	18
Tue Feb  2 15:13:24 2010	San Jose, CA 95101  	46.9	0	47	0.00	50	E 3	47	88	44
Tue Feb  2 15:13:25 2010	Charlotte, NC 28201  	33.5	0	32	0.18	38	NNE 10	34	100	34
Tue Feb  2 15:13:27 2010	San Diego, CA 92101  	52.1	2	52	0.00	56	WNW 6	52	98	52
Tue Feb  2 15:13:29 2010	Denver, CO 80214  	19.6	0	19	0.00	29	SSE 6	20	55	6
Tue Feb  2 15:13:31 2010	Memphis, TN 37501  	37.0	0	36	0.00	41	WNW 5	37	84	33
Tue Feb  2 15:13:32 2010	Los Angeles, CA 90001  	53.4	0	52	0.00	54	ENE 5	53	93	51
Tue Feb  2 15:13:34 2010	El Paso, TX 79901  	41.4	2	41	0.00	50	E 7	41	75	34
Tue Feb  2 15:13:36 2010	New York, NY 10001  	30.2	0	28	0.00	31	ENE 11	30	48	13
Tue Feb  2 15:13:37 2010	Baltimore, MD 21201  	29.6	5	26	0.00	30	E 11	24	68	20
Tue Feb  2 15:13:39 2010	Las Vegas, NV 89101  	41.5	2	41	0.00	45	NW 4	41	63	30
Tue Feb  2 15:13:41 2010	Washington, DC 20001  	29.5	6	27	0.00	33	ENE 8	23	92	27
Tue Feb  2 15:13:43 2010	Austin, TX 73301  	46.0	7	45	0.00	46	NNE 9	43	95	45
Tue Feb  2 15:13:45 2010	San Francisco, CA 94101  	50.2	4	50	0.00	52	ESE 11	49	N/A	--
Tue Feb  2 15:13:48 2010	Oklahoma City, OK 73101  	31.3	0	30	0.00	32	WSW 0	31	93	29
Tue Feb  2 15:13:50 2010	Nashville, TN 37201  	38.2	0	36	0.10	38	NNW 4	38	100	38
Tue Feb  2 15:13:52 2010	Fort Worth, TX 76101  	42.1	6	40	0.00	43	NNE 11	38	89	39
Tue Feb  2 15:13:55 2010	Phoenix, AZ 85001  	52.8	0	53	0.00	57	E 5	53	58	39
Tue Feb  2 15:13:58 2010	Portland, OR 97201  	40.9	2	41	0.00	44	NE 6	41	100	41
Tue Feb  2 15:14:00 2010	Chicago, IL 60601  	28.3	2	28	0.00	30	SSW 24	28	90	26
Tue Feb  2 15:14:03 2010	San Antonio, TX 78201  	44.0	5	43	0.00	45	NNE 12	41	100	44
Tue Feb  2 15:14:05 2010	Indianapolis, IN 46201  	33.1	5	31	0.00	34	SSW 7	29	76	26
Tue Feb  2 15:14:08 2010	Boston, MA 02101  	26.9	0	22	0.00	27	NW 11	27	55	13
Tue Feb  2 15:14:13 2010	Jacksonville, FL 32099  	57.2	0	55	0.43	61	WNW 10	57	100	57
Tue Feb  2 15:14:17 2010	Columbus, OH 43085  	31.7	0	28	N/A	32	S 4	32	N/A	--
Tue Feb  2 15:14:21 2010	Dallas, TX 75201  	43.2	7	42	0.00	46	NNW 13	39	80	38
Tue Feb  2 15:14:24 2010	Houston, TX 77001  	46.4	5	45	0.01	46	E 12	44	92	44
Tue Feb  2 15:14:27 2010	Seattle, WA 98101  	44.1	2	43	0.01	46	SW 12	44	93	42
Tue Feb  2 15:14:30 2010	Milwaukee, WI 53201  	27.5	4	24	0.00	28	SE 7	23	100	28
Tue Feb  2 15:14:33 2010	Detroit, MI 48201  	23.7	2	22	0.00	24	NE 9	24	85	20
Tue Feb  2 15:14:36 2010	Philadelphia, PA 19019  	28.6	1	26	0.00	30	E 11	29	58	15
Tue Feb  2 15:59:11 2010	San Jose, CA 95101  	46.9	0	47	0.00	50	E 3	47	88	44
Tue Feb  2 15:59:12 2010	Charlotte, NC 28201  	33.5	0	32	0.18	38	NNE 10	34	100	34
Tue Feb  2 15:59:14 2010	San Diego, CA 92101  	52.1	2	52	0.00	56	WNW 6	52	98	52
Tue Feb  2 15:59:16 2010	Denver, CO 80214  	19.6	0	19	0.00	29	SSE 6	20	55	6
Tue Feb  2 15:59:17 2010	Memphis, TN 37501  	37.0	0	36	0.00	41	WNW 5	37	84	33
Tue Feb  2 15:59:19 2010	Los Angeles, CA 90001  	53.4	0	52	0.00	54	ENE 5	53	93	51
Tue Feb  2 15:59:20 2010	El Paso, TX 79901  	41.4	2	41	0.00	50	E 7	41	75	34
Tue Feb  2 15:59:22 2010	New York, NY 10001  	30.2	0	28	0.00	31	ENE 11	30	48	13
Tue Feb  2 15:59:23 2010	Baltimore, MD 21201  	29.6	5	26	0.00	30	E 11	24	68	20
Tue Feb  2 15:59:25 2010	Las Vegas, NV 89101  	41.5	2	41	0.00	45	NW 4	41	63	30
Tue Feb  2 15:59:28 2010	Washington, DC 20001  	32.3	4	27	0.00	33	E 9	29	91	30
Tue Feb  2 15:59:29 2010	Austin, TX 73301  	46.0	7	45	0.00	46	NNE 9	43	95	45
Tue Feb  2 15:59:31 2010	San Francisco, CA 94101  	50.2	4	50	0.00	52	ESE 11	49	N/A	--
Tue Feb  2 15:59:32 2010	Oklahoma City, OK 73101  	31.3	0	30	0.00	32	WSW 0	31	93	29
Tue Feb  2 15:59:34 2010	Nashville, TN 37201  	38.2	0	36	0.10	38	NNW 4	38	100	38
Tue Feb  2 15:59:36 2010	Fort Worth, TX 76101  	42.1	6	40	0.00	43	NNE 11	38	89	39
Tue Feb  2 15:59:37 2010	Phoenix, AZ 85001  	52.8	0	53	0.00	57	E 5	53	58	39
Tue Feb  2 15:59:39 2010	Portland, OR 97201  	40.9	2	41	0.00	44	NE 6	41	100	41
Tue Feb  2 15:59:40 2010	Chicago, IL 60601  	28.3	2	28	0.00	30	SSW 24	28	90	26
Tue Feb  2 15:59:42 2010	San Antonio, TX 78201  	44.0	5	43	0.00	45	NNE 12	41	100	44
Tue Feb  2 15:59:43 2010	Indianapolis, IN 46201  	33.1	5	31	0.00	34	SSW 7	29	76	26
Tue Feb  2 15:59:46 2010	Boston, MA 02101  	26.9	0	22	0.00	27	NW 11	27	55	13
Tue Feb  2 15:59:47 2010	Jacksonville, FL 32099  	57.2	0	55	0.43	61	WNW 10	57	100	57
Tue Feb  2 15:59:49 2010	Columbus, OH 43085  	31.7	0	28	N/A	32	S 4	32	N/A	--
Tue Feb  2 15:59:50 2010	Dallas, TX 75201  	43.2	7	42	0.00	46	NNW 13	39	80	38
Tue Feb  2 15:59:52 2010	Houston, TX 77001  	46.4	5	45	0.01	46	E 12	44	92	44
Tue Feb  2 15:59:53 2010	Seattle, WA 98101  	44.1	2	43	0.01	46	SW 12	44	93	42
Tue Feb  2 15:59:55 2010	Milwaukee, WI 53201  	27.5	4	24	0.00	28	SE 7	23	100	28
Tue Feb  2 15:59:57 2010	Detroit, MI 48201  	23.7	2	22	0.00	24	NE 9	24	85	20
Tue Feb  2 15:59:59 2010	Philadelphia, PA 19019  	28.6	1	26	0.00	30	E 11	29	58	15
Tue Feb  2 16:51:41 2010	San Jose, CA 95101  	46.9	0	47	0.00	50	E 3	47	88	44
Tue Feb  2 16:51:45 2010	Charlotte, NC 28201  	33.2	5	32	0.29	38	NE 13	28	100	33
Tue Feb  2 16:51:48 2010	San Diego, CA 92101  	53.9	1	52	0.00	56	NNE 6	54	91	51
Tue Feb  2 16:51:52 2010	Denver, CO 80214  	30.8	1	19	0.00	31	SSE 6	31	35	6
Tue Feb  2 16:51:55 2010	Memphis, TN 37501  	39.0	5	36	0.00	41	WNW 5	36	81	34
Tue Feb  2 16:51:57 2010	Los Angeles, CA 90001  	54.7	0	52	0.00	55	ENE 5	55	86	51
Tue Feb  2 16:52:00 2010	El Paso, TX 79901  	50.6	3	41	0.00	51	E 14	50	44	29
Tue Feb  2 16:52:02 2010	New York, NY 10001  	31.3	3	28	0.00	32	ENE 11	31	46	12
Tue Feb  2 16:52:05 2010	Baltimore, MD 21201  	31.1	0	26	0.00	32	SE 16	31	62	19
Tue Feb  2 16:52:08 2010	Las Vegas, NV 89101  	42.5	2	41	0.00	45	NW 4	43	62	30
Tue Feb  2 16:52:10 2010	Washington, DC 20001  	32.3	4	27	0.00	33	E 9	29	91	30
Tue Feb  2 16:52:12 2010	Austin, TX 73301  	46.9	7	45	0.00	47	NNE 9	44	95	45
Tue Feb  2 16:52:15 2010	San Francisco, CA 94101  	50.9	1	50	0.00	52	ESE 11	51	N/A	--
Tue Feb  2 16:52:17 2010	Oklahoma City, OK 73101  	34.0	0	30	0.00	34	WSW 0	34	92	32
Tue Feb  2 16:52:21 2010	Nashville, TN 37201  	41.2	1	36	0.11	42	NNW 7	41	98	41
Tue Feb  2 16:52:29 2010	Fort Worth, TX 76101  	42.1	5	40	0.00	43	NNE 11	39	88	39
Tue Feb  2 16:52:32 2010	Phoenix, AZ 85001  	55.0	1	53	0.00	57	E 5	55	53	38
Tue Feb  2 16:52:34 2010	Portland, OR 97201  	40.1	5	40	0.00	44	WNW 7	37	100	40
Tue Feb  2 16:52:37 2010	Chicago, IL 60601  	29.6	3	28	0.00	30	SSW 24	30	89	27
Tue Feb  2 16:52:40 2010	San Antonio, TX 78201  	44.8	5	43	0.00	45	NNE 12	42	100	45
Tue Feb  2 16:52:42 2010	Indianapolis, IN 46201  	38.8	4	31	0.00	39	SSW 7	36	60	26
Tue Feb  2 16:52:45 2010	Boston, MA 02101  	27.3	5	22	0.00	28	NNW 15	21	47	9
Tue Feb  2 16:52:47 2010	Jacksonville, FL 32099  	59.0	3	55	0.46	61	WNW 10	59	96	58
Tue Feb  2 16:52:50 2010	Columbus, OH 43085  	34.0	4	28	N/A	34	S 6	30	N/A	--
Tue Feb  2 16:52:52 2010	Dallas, TX 75201  	43.6	4	42	0.00	46	NW 18	41	74	36
Tue Feb  2 16:52:55 2010	Houston, TX 77001  	48.2	9	45	0.01	48	NNE 15	44	86	44
Tue Feb  2 16:52:57 2010	Seattle, WA 98101  	43.1	6	43	0.01	46	SW 12	39	92	41
Tue Feb  2 16:53:00 2010	Milwaukee, WI 53201  	27.1	4	24	0.00	28	S 10	23	100	27
Tue Feb  2 16:53:03 2010	Detroit, MI 48201  	25.2	5	22	0.00	26	NE 12	19	84	21
Tue Feb  2 16:53:05 2010	Philadelphia, PA 19019  	31.4	3	26	0.00	31	E 11	28	47	13
Tue Feb  2 17:40:05 2010	San Jose, CA 95101  	46.9	0	47	0.00	50	E 3	47	88	44
Tue Feb  2 17:40:07 2010	Charlotte, NC 28201  	33.2	5	32	0.29	38	NE 13	28	100	33
Tue Feb  2 17:40:08 2010	San Diego, CA 92101  	53.9	1	52	0.00	56	NNE 6	54	91	51
Tue Feb  2 17:40:10 2010	Denver, CO 80214  	30.8	1	19	0.00	31	SSE 6	31	35	6
Tue Feb  2 17:40:12 2010	Memphis, TN 37501  	39.0	5	36	0.00	41	WNW 5	36	81	34
Tue Feb  2 17:40:13 2010	Los Angeles, CA 90001  	54.7	0	52	0.00	55	ENE 5	55	86	51
Tue Feb  2 17:40:15 2010	El Paso, TX 79901  	50.6	3	41	0.00	51	E 14	50	44	29
Tue Feb  2 17:40:17 2010	New York, NY 10001  	31.3	3	28	0.00	32	ENE 11	31	46	12
Tue Feb  2 17:40:19 2010	Baltimore, MD 21201  	31.1	0	26	0.00	32	SE 16	31	62	19
Tue Feb  2 17:40:20 2010	Las Vegas, NV 89101  	42.5	2	41	0.00	45	NW 4	43	62	30
Tue Feb  2 17:40:23 2010	Washington, DC 20001  	36.8	4	27	0.00	37	E 9	33	75	30
Tue Feb  2 17:40:26 2010	Austin, TX 73301  	45.8	3	41	0.00	46	NE 12	46	94	44
Tue Feb  2 17:40:28 2010	San Francisco, CA 94101  	50.9	1	50	0.00	52	ESE 11	51	N/A	--
Tue Feb  2 17:40:30 2010	Oklahoma City, OK 73101  	34.0	0	30	0.00	34	WSW 0	34	92	32
Tue Feb  2 17:40:32 2010	Nashville, TN 37201  	41.2	1	36	0.11	42	NNW 7	41	98	41
Tue Feb  2 17:40:34 2010	Fort Worth, TX 76101  	42.1	5	40	0.00	43	NNE 11	39	88	39
Tue Feb  2 17:40:36 2010	Phoenix, AZ 85001  	55.0	1	53	0.00	57	E 5	55	53	38
Tue Feb  2 17:40:38 2010	Portland, OR 97201  	40.1	5	40	0.00	44	WNW 7	37	100	40
Tue Feb  2 17:40:40 2010	Chicago, IL 60601  	29.6	3	28	0.00	30	SSW 24	30	89	27
Tue Feb  2 17:40:41 2010	San Antonio, TX 78201  	44.8	5	43	0.00	45	NNE 12	42	100	45
Tue Feb  2 17:40:43 2010	Indianapolis, IN 46201  	38.8	4	31	0.00	39	SSW 7	36	60	26
Tue Feb  2 17:40:45 2010	Boston, MA 02101  	27.3	5	22	0.00	28	NNW 15	21	47	9
Tue Feb  2 17:40:47 2010	Jacksonville, FL 32099  	59.0	3	55	0.46	61	WNW 10	59	96	58
Tue Feb  2 17:40:49 2010	Columbus, OH 43085  	34.0	4	28	N/A	34	S 6	30	N/A	--
Tue Feb  2 17:40:51 2010	Dallas, TX 75201  	43.6	4	42	0.00	46	NW 18	41	74	36
Tue Feb  2 17:40:53 2010	Houston, TX 77001  	48.2	9	45	0.01	48	NNE 15	44	86	44
Tue Feb  2 17:40:54 2010	Seattle, WA 98101  	43.1	6	43	0.01	46	SW 12	39	92	41
Tue Feb  2 17:40:57 2010	Milwaukee, WI 53201  	27.1	4	24	0.00	28	S 10	23	100	27
Tue Feb  2 17:40:58 2010	Detroit, MI 48201  	25.2	5	22	0.00	26	NE 12	19	84	21
Tue Feb  2 17:41:00 2010	Philadelphia, PA 19019  	31.4	3	26	0.00	31	E 11	28	47	13
Tue Feb  2 18:24:27 2010	San Jose, CA 95101  	48.9	0	47	0.00	50	E 3	49	88	46
Tue Feb  2 18:24:28 2010	Charlotte, NC 28201  	33.4	3	32	0.33	38	NE 13	33	100	33
Tue Feb  2 18:24:30 2010	San Diego, CA 92101  	58.5	3	52	0.00	60	NNE 6	59	77	51
Tue Feb  2 18:24:32 2010	Denver, CO 80214  	37.4	4	19	0.00	38	NNW 7	35	24	4
Tue Feb  2 18:24:34 2010	Memphis, TN 37501  	44.1	7	36	0.00	44	NW 7	40	69	34
Tue Feb  2 18:24:35 2010	Los Angeles, CA 90001  	58.1	0	52	0.00	58	E 5	58	77	51
Tue Feb  2 18:24:36 2010	El Paso, TX 79901  	54.0	7	41	0.00	55	E 17	52	42	31
Tue Feb  2 18:24:37 2010	New York, NY 10001  	33.6	0	28	0.00	34	ENE 11	34	42	13
Tue Feb  2 18:24:39 2010	Baltimore, MD 21201  	31.6	3	26	0.00	32	SE 16	32	69	23
Tue Feb  2 18:24:40 2010	Washington, DC 20001  	36.8	4	27	0.00	37	E 9	33	75	30
Tue Feb  2 18:24:40 2010	Las Vegas, NV 89101  	49.8	0	41	0.00	50	NW 4	50	46	30
Tue Feb  2 18:24:41 2010	Austin, TX 73301  	45.8	3	41	0.00	46	NE 12	46	94	44
Tue Feb  2 18:24:43 2010	San Francisco, CA 94101  	52.3	2	50	0.00	52	ESE 11	52	N/A	--
Tue Feb  2 18:24:45 2010	Oklahoma City, OK 73101  	37.2	0	30	0.00	38	WSW 0	37	82	32
Tue Feb  2 18:24:46 2010	Nashville, TN 37201  	44.9	2	36	0.11	45	NNW 7	45	87	41
Tue Feb  2 18:24:47 2010	Fort Worth, TX 76101  	43.3	3	40	0.00	43	NE 12	42	80	38
Tue Feb  2 18:24:49 2010	Phoenix, AZ 85001  	59.4	6	53	0.00	60	SE 9	59	41	36
Tue Feb  2 18:24:50 2010	Portland, OR 97201  	43.1	1	40	0.00	44	NW 8	43	90	40
Tue Feb  2 18:24:51 2010	Chicago, IL 60601  	32.1	2	28	0.00	32	SSW 24	32	82	27
Tue Feb  2 18:24:53 2010	San Antonio, TX 78201  	46.1	7	43	0.00	46	N 14	42	100	46
Tue Feb  2 18:24:54 2010	Indianapolis, IN 46201  	39.2	2	31	0.00	40	SSW 7	39	53	23
Tue Feb  2 18:24:56 2010	Boston, MA 02101  	27.8	1	22	0.00	29	NNW 15	28	46	10
Tue Feb  2 18:24:57 2010	Jacksonville, FL 32099  	60.1	10	55	0.47	61	WNW 10	58	90	57
Tue Feb  2 18:24:59 2010	Columbus, OH 43085  	38.5	5	28	N/A	39	SSE 10	34	N/A	--
Tue Feb  2 18:25:00 2010	Dallas, TX 75201  	44.4	5	42	0.00	46	NW 18	41	73	36
Tue Feb  2 18:25:01 2010	Houston, TX 77001  	50.3	5	45	0.01	50	NNE 15	48	80	44
Tue Feb  2 18:25:02 2010	Seattle, WA 98101  	45.6	3	43	0.01	46	SW 12	44	86	42
Tue Feb  2 18:25:05 2010	Milwaukee, WI 53201  	28.2	2	24	0.00	29	S 10	28	100	28
Tue Feb  2 18:25:07 2010	Detroit, MI 48201  	28.9	0	22	0.00	29	NE 12	29	81	24
Tue Feb  2 18:25:10 2010	Philadelphia, PA 19019  	32.8	5	26	0.00	33	SE 12	28	48	15
Tue Feb  2 19:12:42 2010	San Jose, CA 95101  	48.9	0	47	0.00	50	E 3	49	88	46
Tue Feb  2 19:12:44 2010	Charlotte, NC 28201  	33.4	3	32	0.33	38	NE 13	33	100	33
Tue Feb  2 19:12:45 2010	San Diego, CA 92101  	58.5	3	52	0.00	60	NNE 6	59	77	51
Tue Feb  2 19:12:47 2010	Denver, CO 80214  	37.4	4	19	0.00	38	NNW 7	35	24	4
Tue Feb  2 19:12:49 2010	Memphis, TN 37501  	44.1	7	36	0.00	44	NW 7	40	69	34
Tue Feb  2 19:12:50 2010	Los Angeles, CA 90001  	58.1	0	52	0.00	58	E 5	58	77	51
Tue Feb  2 19:12:52 2010	El Paso, TX 79901  	54.0	7	41	0.00	55	E 17	52	42	31
Tue Feb  2 19:12:53 2010	New York, NY 10001  	33.6	0	28	0.00	34	ENE 11	34	42	13
Tue Feb  2 19:12:55 2010	Baltimore, MD 21201  	31.6	3	26	0.00	32	SE 16	32	69	23
Tue Feb  2 19:12:56 2010	Las Vegas, NV 89101  	49.8	0	41	0.00	50	NW 4	50	46	30
Tue Feb  2 19:12:59 2010	Washington, DC 20001  	39.2	4	27	0.00	39	E 9	37	62	27
Tue Feb  2 19:13:01 2010	Austin, TX 73301  	45.3	4	41	0.00	46	NE 13	44	97	44
Tue Feb  2 19:13:03 2010	San Francisco, CA 94101  	52.3	2	50	0.00	52	ESE 11	52	N/A	--
Tue Feb  2 19:13:04 2010	Oklahoma City, OK 73101  	37.2	0	30	0.00	38	WSW 0	37	82	32
Tue Feb  2 19:13:06 2010	Nashville, TN 37201  	44.9	2	36	0.11	45	NNW 7	45	87	41
Tue Feb  2 19:13:07 2010	Fort Worth, TX 76101  	43.3	3	40	0.00	43	NE 12	42	80	38
Tue Feb  2 19:13:09 2010	Phoenix, AZ 85001  	59.4	6	53	0.00	60	SE 9	59	41	36
Tue Feb  2 19:13:11 2010	Portland, OR 97201  	43.1	1	40	0.00	44	NW 8	43	90	40
Tue Feb  2 19:13:12 2010	Chicago, IL 60601  	32.1	2	28	0.00	32	SSW 24	32	82	27
Tue Feb  2 19:13:14 2010	San Antonio, TX 78201  	46.1	7	43	0.00	46	N 14	42	100	46
Tue Feb  2 19:13:15 2010	Indianapolis, IN 46201  	39.2	2	31	0.00	40	SSW 7	39	53	23
Tue Feb  2 19:13:17 2010	Boston, MA 02101  	27.8	1	22	0.00	29	NNW 15	28	46	10
Tue Feb  2 19:13:19 2010	Jacksonville, FL 32099  	60.1	10	55	0.47	61	WNW 10	58	90	57
Tue Feb  2 19:13:21 2010	Columbus, OH 43085  	38.5	5	28	N/A	39	SSE 10	34	N/A	--
Tue Feb  2 19:13:23 2010	Dallas, TX 75201  	44.4	5	42	0.00	46	NW 18	41	73	36
Tue Feb  2 19:13:24 2010	Houston, TX 77001  	50.3	5	45	0.01	50	NNE 15	48	80	44
Tue Feb  2 19:13:26 2010	Seattle, WA 98101  	45.6	3	43	0.01	46	SW 12	44	86	42
Tue Feb  2 19:13:28 2010	Milwaukee, WI 53201  	28.2	2	24	0.00	29	S 10	28	100	28
Tue Feb  2 19:13:29 2010	Detroit, MI 48201  	28.9	0	22	0.00	29	NE 12	29	81	24
Tue Feb  2 19:13:31 2010	Philadelphia, PA 19019  	32.8	5	26	0.00	33	SE 12	28	48	15
Tue Feb  2 20:03:58 2010	San Jose, CA 95101  	51.1	0	47	0.00	51	E 3	51	80	45
Tue Feb  2 20:04:00 2010	Charlotte, NC 28201  	34.9	2	32	0.33	38	NE 13	35	100	35
Tue Feb  2 20:04:03 2010	San Diego, CA 92101  	59.6	10	52	0.00	60	WNW 12	58	70	50
Tue Feb  2 20:04:06 2010	Denver, CO 80214  	43.1	0	19	0.00	43	NNW 7	43	19	3
Tue Feb  2 20:04:09 2010	Memphis, TN 37501  	45.0	11	36	0.00	45	N 11	39	66	34
Tue Feb  2 20:04:11 2010	Los Angeles, CA 90001  	63.9	0	52	0.00	64	E 5	64	55	48
Tue Feb  2 20:04:14 2010	El Paso, TX 79901  	60.1	10	41	0.00	61	E 17	58	35	33
Tue Feb  2 20:04:16 2010	New York, NY 10001  	32.5	0	28	0.00	34	ENE 11	33	51	16
Tue Feb  2 20:04:19 2010	Baltimore, MD 21201  	32.2	9	26	0.00	33	SE 16	25	68	23
Tue Feb  2 20:04:21 2010	Las Vegas, NV 89101  	52.6	4	41	0.00	54	NNE 9	52	38	28
Tue Feb  2 20:04:22 2010	Washington, DC 20001  	39.2	4	27	0.00	39	E 9	37	62	27
Tue Feb  2 20:04:24 2010	Austin, TX 73301  	45.3	4	41	0.00	46	NE 13	44	97	44
Tue Feb  2 20:04:27 2010	San Francisco, CA 94101  	54.3	2	50	0.00	56	ESE 11	54	N/A	--
Tue Feb  2 20:04:29 2010	Oklahoma City, OK 73101  	40.7	2	30	0.00	41	NNW 5	41	74	33
Tue Feb  2 20:04:32 2010	Nashville, TN 37201  	47.7	2	36	0.11	50	SW 11	48	71	39
Tue Feb  2 20:04:34 2010	Fort Worth, TX 76101  	45.8	5	40	0.00	46	NE 12	43	74	38
Tue Feb  2 20:04:37 2010	Phoenix, AZ 85001  	66.0	1	53	0.00	66	ESE 10	66	32	35
Tue Feb  2 20:04:40 2010	Portland, OR 97201  	47.6	0	40	0.00	49	NW 8	48	79	42
Tue Feb  2 20:04:43 2010	Chicago, IL 60601  	33.0	1	28	0.00	33	SSW 24	33	71	24
Tue Feb  2 20:04:45 2010	San Antonio, TX 78201  	48.4	9	43	0.00	49	NE 15	45	96	47
Tue Feb  2 20:04:47 2010	Indianapolis, IN 46201  	38.9	3	31	0.00	41	WSW 12	37	57	25
Tue Feb  2 20:04:50 2010	Boston, MA 02101  	29.1	2	22	0.00	30	NNW 15	29	45	10
Tue Feb  2 20:04:53 2010	Jacksonville, FL 32099  	60.1	10	55	0.47	61	WNW 18	58	84	55
Tue Feb  2 20:04:55 2010	Columbus, OH 43085  	41.0	4	28	N/A	41	SSE 10	39	N/A	--
Tue Feb  2 20:04:58 2010	Dallas, TX 75201  	46.3	5	42	0.00	48	NW 18	44	67	36
Tue Feb  2 20:05:00 2010	Houston, TX 77001  	51.9	2	45	0.01	52	NNE 15	52	84	47
Tue Feb  2 20:05:03 2010	Seattle, WA 98101  	46.6	2	43	0.01	47	SW 12	47	83	42
Tue Feb  2 20:05:07 2010	Milwaukee, WI 53201  	30.5	3	24	0.00	31	S 10	27	100	30
Tue Feb  2 20:05:10 2010	Detroit, MI 48201  	29.0	5	22	0.00	29	NE 12	24	81	24
Tue Feb  2 20:05:14 2010	Philadelphia, PA 19019  	34.6	0	26	0.00	35	SE 12	35	50	18
Tue Feb  2 20:51:23 2010	San Jose, CA 95101  	51.1	0	47	0.00	51	E 3	51	80	45
Tue Feb  2 20:51:24 2010	Charlotte, NC 28201  	34.9	2	32	0.33	38	NE 13	35	100	35
Tue Feb  2 20:51:26 2010	San Diego, CA 92101  	59.6	10	52	0.00	60	WNW 12	58	70	50
Tue Feb  2 20:51:27 2010	Denver, CO 80214  	43.1	0	19	0.00	43	NNW 7	43	19	3
Tue Feb  2 20:51:29 2010	Memphis, TN 37501  	45.0	11	36	0.00	45	N 11	39	66	34
Tue Feb  2 20:51:31 2010	Los Angeles, CA 90001  	63.9	0	52	0.00	64	E 5	64	55	48
Tue Feb  2 20:51:32 2010	El Paso, TX 79901  	60.1	10	41	0.00	61	E 17	58	35	33
Tue Feb  2 20:51:34 2010	New York, NY 10001  	32.5	0	28	0.00	34	ENE 11	33	51	16
Tue Feb  2 20:51:35 2010	Baltimore, MD 21201  	32.2	9	26	0.00	33	SE 16	25	68	23
Tue Feb  2 20:51:37 2010	Las Vegas, NV 89101  	52.6	4	41	0.00	54	NNE 9	52	38	28
Tue Feb  2 20:51:40 2010	Washington, DC 20001  	40.0	3	27	0.00	40	E 9	38	58	27
Tue Feb  2 20:51:42 2010	Austin, TX 73301  	50.0	12	45	0.00	50	NE 15	45	87	46
Tue Feb  2 20:51:43 2010	San Francisco, CA 94101  	54.3	2	50	0.00	56	ESE 11	54	N/A	--
Tue Feb  2 20:51:45 2010	Oklahoma City, OK 73101  	40.7	2	30	0.00	41	NNW 5	41	74	33
Tue Feb  2 20:51:47 2010	Nashville, TN 37201  	47.7	2	36	0.11	50	SW 11	48	71	39
Tue Feb  2 20:51:49 2010	Fort Worth, TX 76101  	45.8	5	40	0.00	46	NE 12	43	74	38
Tue Feb  2 20:51:50 2010	Phoenix, AZ 85001  	66.0	1	53	0.00	66	ESE 10	66	32	35
Tue Feb  2 20:51:53 2010	Portland, OR 97201  	47.6	0	40	0.00	49	NW 8	48	79	42
Tue Feb  2 20:51:54 2010	Chicago, IL 60601  	33.0	1	28	0.00	33	SSW 24	33	71	24
Tue Feb  2 20:51:56 2010	San Antonio, TX 78201  	48.4	9	43	0.00	49	NE 15	45	96	47
Tue Feb  2 20:51:58 2010	Indianapolis, IN 46201  	38.9	3	31	0.00	41	WSW 12	37	57	25
Tue Feb  2 20:51:59 2010	Boston, MA 02101  	29.1	2	22	0.00	30	NNW 15	29	45	10
Tue Feb  2 20:52:01 2010	Jacksonville, FL 32099  	60.1	10	55	0.47	61	WNW 18	58	84	55
Tue Feb  2 20:52:03 2010	Columbus, OH 43085  	41.0	4	28	N/A	41	SSE 10	39	N/A	--
Tue Feb  2 20:52:04 2010	Dallas, TX 75201  	46.3	5	42	0.00	48	NW 18	44	67	36
Tue Feb  2 20:52:06 2010	Houston, TX 77001  	51.9	2	45	0.01	52	NNE 15	52	84	47
Tue Feb  2 20:52:08 2010	Seattle, WA 98101  	46.6	2	43	0.01	47	SW 12	47	83	42
Tue Feb  2 20:52:10 2010	Milwaukee, WI 53201  	30.5	3	24	0.00	31	S 10	27	100	30
Tue Feb  2 20:52:12 2010	Detroit, MI 48201  	29.0	5	22	0.00	29	NE 12	24	81	24
Tue Feb  2 20:52:13 2010	Philadelphia, PA 19019  	34.6	0	26	0.00	35	SE 12	35	50	18
Tue Feb  2 21:36:34 2010	San Jose, CA 95101  	55.0	0	47	0.00	55	E 3	55	70	46
Tue Feb  2 21:36:37 2010	Charlotte, NC 28201  	35.0	2	32	0.33	38	NE 13	35	100	35
Tue Feb  2 21:36:40 2010	San Diego, CA 92101  	61.9	7	52	0.00	62	W 13	62	71	52
Tue Feb  2 21:36:43 2010	Denver, CO 80214  	46.3	3	19	0.00	46	E 8	46	16	2
Tue Feb  2 21:36:45 2010	Memphis, TN 37501  	45.0	8	36	0.00	45	N 11	41	64	33
Tue Feb  2 21:36:53 2010	Los Angeles, CA 90001  	66.3	4	52	0.00	67	WNW 7	66	48	46
Tue Feb  2 21:37:00 2010	El Paso, TX 79901  	63.3	5	41	0.00	63	ENE 18	63	31	33
Tue Feb  2 21:37:04 2010	New York, NY 10001  	33.4	3	28	0.00	34	SSW 12	33	52	17
Tue Feb  2 21:37:14 2010	Baltimore, MD 21201  	34.3	4	26	0.00	35	SE 16	31	61	22
Tue Feb  2 21:37:20 2010	Las Vegas, NV 89101  	55.3	1	41	0.00	55	NE 16	55	34	27
Tue Feb  2 21:37:25 2010	Washington, DC 20001  	39.9	3	27	0.00	40	SE 10	40	58	26
Tue Feb  2 21:37:30 2010	Austin, TX 73301  	47.4	5	41	0.00	48	ENE 17	45	90	45
Tue Feb  2 21:37:35 2010	San Francisco, CA 94101  	55.1	3	50	0.00	56	ESE 11	55	N/A	--
Tue Feb  2 21:37:39 2010	Oklahoma City, OK 73101  	39.4	2	30	0.04	41	WSW 5	39	80	34
Tue Feb  2 21:37:44 2010	Nashville, TN 37201  	49.7	1	36	0.11	52	SW 11	50	58	35
Tue Feb  2 21:37:49 2010	Fort Worth, TX 76101  	48.5	4	40	0.00	49	NE 12	48	66	38
Tue Feb  2 21:37:53 2010	Phoenix, AZ 85001  	67.2	3	53	0.00	68	E 11	67	31	36
Tue Feb  2 21:37:57 2010	Portland, OR 97201  	47.5	4	40	0.00	49	WNW 9	46	82	42
Tue Feb  2 21:38:01 2010	Chicago, IL 60601  	32.1	2	28	0.00	34	SSW 24	32	72	24
Tue Feb  2 21:38:06 2010	San Antonio, TX 78201  	49.2	4	43	0.00	49	NE 15	48	95	48
Tue Feb  2 21:38:18 2010	Indianapolis, IN 46201  	38.7	3	31	0.00	41	WSW 12	37	60	26
Tue Feb  2 21:38:24 2010	Boston, MA 02101  	30.0	0	22	0.00	31	NNW 15	30	46	11
Tue Feb  2 21:38:33 2010	Jacksonville, FL 32099  	61.0	12	55	0.47	61	WNW 18	59	81	55
Tue Feb  2 21:38:41 2010	Columbus, OH 43085  	41.7	3	28	N/A	43	SSE 10	42	N/A	--
Tue Feb  2 21:38:47 2010	Dallas, TX 75201  	50.3	3	42	0.00	52	NW 18	50	58	36
Tue Feb  2 21:38:49 2010	Houston, TX 77001  	52.7	7	45	0.01	53	NNE 15	50	85	48
Tue Feb  2 21:38:52 2010	Seattle, WA 98101  	48.9	5	43	0.01	53	SW 12	47	80	43
Tue Feb  2 21:38:55 2010	Milwaukee, WI 53201  	31.1	2	24	0.00	31	S 10	31	95	30
Tue Feb  2 21:38:59 2010	Detroit, MI 48201  	28.6	1	22	0.00	30	NE 12	29	90	26
Tue Feb  2 21:39:05 2010	Philadelphia, PA 19019  	35.1	4	26	0.00	36	SE 12	32	53	20
Tue Feb  2 22:23:58 2010	San Jose, CA 95101  	55.0	0	47	0.00	55	E 3	55	70	46
Tue Feb  2 22:24:00 2010	Charlotte, NC 28201  	35.0	2	32	0.33	38	NE 13	35	100	35
Tue Feb  2 22:24:07 2010	San Diego, CA 92101  	61.9	7	52	0.00	62	W 13	62	71	52
Tue Feb  2 22:24:08 2010	Denver, CO 80214  	46.3	3	19	0.00	46	E 8	46	16	2
Tue Feb  2 22:24:10 2010	Memphis, TN 37501  	45.0	8	36	0.00	45	N 11	41	64	33
Tue Feb  2 22:24:11 2010	Los Angeles, CA 90001  	66.3	4	52	0.00	67	WNW 7	66	48	46
Tue Feb  2 22:24:14 2010	El Paso, TX 79901  	63.3	5	41	0.00	63	ENE 18	63	31	33
Tue Feb  2 22:24:17 2010	New York, NY 10001  	33.4	3	28	0.00	34	SSW 12	33	52	17
Tue Feb  2 22:24:18 2010	Baltimore, MD 21201  	34.3	4	26	0.00	35	SE 16	31	61	22
Tue Feb  2 22:24:20 2010	Las Vegas, NV 89101  	55.3	1	41	0.00	55	NE 16	55	34	27
Tue Feb  2 22:24:22 2010	Washington, DC 20001  	38.0	6	27	0.00	40	SE 11	33	69	29
Tue Feb  2 22:24:25 2010	Austin, TX 73301  	53.1	11	45	0.00	54	NE 15	49	78	46
Tue Feb  2 22:24:27 2010	San Francisco, CA 94101  	55.1	3	50	0.00	56	ESE 11	55	N/A	--
Tue Feb  2 22:24:28 2010	Oklahoma City, OK 73101  	39.4	2	30	0.04	41	WSW 5	39	80	34
Tue Feb  2 22:24:30 2010	Nashville, TN 37201  	49.7	1	36	0.11	52	SW 11	50	58	35
Tue Feb  2 22:24:31 2010	Fort Worth, TX 76101  	48.5	4	40	0.00	49	NE 12	48	66	38
Tue Feb  2 22:24:33 2010	Phoenix, AZ 85001  	67.2	3	53	0.00	68	E 11	67	31	36
Tue Feb  2 22:24:35 2010	Portland, OR 97201  	47.5	4	40	0.00	49	WNW 9	46	82	42
Tue Feb  2 22:24:36 2010	Chicago, IL 60601  	32.1	2	28	0.00	34	SSW 24	32	72	24
Tue Feb  2 22:24:38 2010	San Antonio, TX 78201  	49.2	4	43	0.00	49	NE 15	48	95	48
Tue Feb  2 22:24:39 2010	Indianapolis, IN 46201  	38.7	3	31	0.00	41	WSW 12	37	60	26
Tue Feb  2 22:24:41 2010	Boston, MA 02101  	30.0	0	22	0.00	31	NNW 15	30	46	11
Tue Feb  2 22:24:43 2010	Jacksonville, FL 32099  	61.0	12	55	0.47	61	WNW 18	59	81	55
Tue Feb  2 22:24:44 2010	Columbus, OH 43085  	41.7	3	28	N/A	43	SSE 10	42	N/A	--
Tue Feb  2 22:24:46 2010	Dallas, TX 75201  	50.3	3	42	0.00	52	NW 18	50	58	36
Tue Feb  2 22:24:48 2010	Houston, TX 77001  	52.7	7	45	0.01	53	NNE 15	50	85	48
Tue Feb  2 22:24:50 2010	Seattle, WA 98101  	48.9	5	43	0.01	53	SW 12	47	80	43
Tue Feb  2 22:24:51 2010	Milwaukee, WI 53201  	31.1	2	24	0.00	31	S 10	31	95	30
Tue Feb  2 22:24:53 2010	Detroit, MI 48201  	28.6	1	22	0.00	30	NE 12	29	90	26
Tue Feb  2 22:24:54 2010	Philadelphia, PA 19019  	35.1	4	26	0.00	36	SE 12	32	53	20
Tue Feb  2 23:08:04 2010	San Jose, CA 95101  	57.0	0	47	0.00	57	E 3	57	68	47
Tue Feb  2 23:08:07 2010	Charlotte, NC 28201  	35.2	5	32	0.35	38	NE 13	30	100	35
Tue Feb  2 23:08:10 2010	San Diego, CA 92101  	61.9	5	52	0.00	63	W 13	62	72	53
Tue Feb  2 23:08:13 2010	Denver, CO 80214  	46.7	3	19	0.00	48	ESE 11	47	22	9
Tue Feb  2 23:08:18 2010	Memphis, TN 37501  	44.1	10	36	0.00	45	N 11	39	64	33
Tue Feb  2 23:08:22 2010	Los Angeles, CA 90001  	61.9	10	52	0.00	68	WNW 17	61	63	49
Tue Feb  2 23:08:24 2010	El Paso, TX 79901  	63.8	4	41	0.00	65	ENE 18	64	33	34
Tue Feb  2 23:08:32 2010	New York, NY 10001  	33.1	0	28	0.00	34	SSW 12	33	60	21
Tue Feb  2 23:08:34 2010	Baltimore, MD 21201  	34.2	3	26	0.00	35	SE 16	31	58	21
Tue Feb  2 23:08:36 2010	Las Vegas, NV 89101  	55.5	3	41	0.00	56	NE 16	55	35	28
Tue Feb  2 23:08:36 2010	Washington, DC 20001  	38.0	6	27	0.00	40	SE 11	33	69	29
Tue Feb  2 23:08:37 2010	Austin, TX 73301  	53.1	11	45	0.00	54	NE 15	49	78	46
Tue Feb  2 23:08:39 2010	San Francisco, CA 94101  	56.6	3	50	0.00	57	ESE 11	57	N/A	--
Tue Feb  2 23:08:40 2010	Oklahoma City, OK 73101  	39.9	0	30	0.17	42	WSW 5	40	80	34
Tue Feb  2 23:08:41 2010	Nashville, TN 37201  	46.5	3	36	0.11	52	SW 11	46	63	34
Tue Feb  2 23:08:43 2010	Fort Worth, TX 76101  	51.4	6	40	0.00	52	NE 12	49	60	38
Tue Feb  2 23:08:46 2010	Phoenix, AZ 85001  	74.2	3	53	0.00	74	E 11		25	37
Tue Feb  2 23:08:48 2010	Portland, OR 97201  	51.2	0	40	0.00	52	WNW 9	51	73	43
Tue Feb  2 23:08:49 2010	Chicago, IL 60601  	30.8	2	28	0.00	34	SSW 24	31	80	25
Tue Feb  2 23:08:52 2010	San Antonio, TX 78201  	48.8	4	43	0.00	49	NE 15	47	95	47
Tue Feb  2 23:08:53 2010	Indianapolis, IN 46201  	37.4	8	31	0.00	41	WNW 14	32	66	27
Tue Feb  2 23:09:00 2010	Boston, MA 02101  	28.6	7	22	0.00	31	NNW 15	21	47	11
Tue Feb  2 23:09:02 2010	Jacksonville, FL 32099  	60.1	11	55	0.47	61	WNW 18	58	78	53
Tue Feb  2 23:09:23 2010	Columbus, OH 43085  	41.4	0	28	N/A	43	SSE 10	41	N/A	--
Tue Feb  2 23:09:25 2010	Dallas, TX 75201  	54.7	0	42	0.00	55	NW 18	55	51	37
Tue Feb  2 23:09:26 2010	Houston, TX 77001  	53.9	5	45	0.01	55	NNE 15	53	80	48
Tue Feb  2 23:09:42 2010	Seattle, WA 98101  	50.7	4	43	0.01	53	SW 12	49	73	43
Tue Feb  2 23:09:46 2010	Milwaukee, WI 53201  	30.9	0	24	0.00	31	S 10	31	95	30
Tue Feb  2 23:09:50 2010	Detroit, MI 48201  	27.2	7	22	0.00	30	NE 12	20	93	26
Tue Feb  2 23:09:56 2010	Philadelphia, PA 19019  	35.0	4	26	0.00	36	SE 12	32	57	21
Tue Feb  2 23:53:53 2010	San Jose, CA 95101  	57.0	0	47	0.00	57	E 3	57	68	47
Tue Feb  2 23:53:55 2010	Charlotte, NC 28201  	35.2	5	32	0.35	38	NE 13	30	100	35
Tue Feb  2 23:53:58 2010	San Diego, CA 92101  	61.9	5	52	0.00	63	W 13	62	72	53
Tue Feb  2 23:54:02 2010	Denver, CO 80214  	46.7	3	19	0.00	48	ESE 11	47	22	9
Tue Feb  2 23:54:03 2010	Memphis, TN 37501  	44.1	10	36	0.00	45	N 11	39	64	33
Tue Feb  2 23:54:05 2010	Los Angeles, CA 90001  	61.9	10	52	0.00	68	WNW 17	61	63	49
Tue Feb  2 23:54:08 2010	El Paso, TX 79901  	63.8	4	41	0.00	65	ENE 18	64	33	34
Tue Feb  2 23:54:11 2010	New York, NY 10001  	33.1	0	28	0.00	34	SSW 12	33	60	21
Tue Feb  2 23:54:13 2010	Baltimore, MD 21201  	34.2	3	26	0.00	35	SE 16	31	58	21
Tue Feb  2 23:54:15 2010	Las Vegas, NV 89101  	55.5	3	41	0.00	56	NE 16	55	35	28
Tue Feb  2 23:54:20 2010	Washington, DC 20001  	35.6	2	27	0.00	40	SE 11	36	77	29
Tue Feb  2 23:54:24 2010	Austin, TX 73301  	48.0	8	41	0.00	49	ENE 17	44	85	44
Tue Feb  2 23:54:26 2010	San Francisco, CA 94101  	56.6	3	50	0.00	57	ESE 11	57	N/A	--
Tue Feb  2 23:54:28 2010	Oklahoma City, OK 73101  	39.9	0	30	0.17	42	WSW 5	40	80	34
Tue Feb  2 23:54:30 2010	Nashville, TN 37201  	46.5	3	36	0.11	52	SW 11	46	63	34
Tue Feb  2 23:54:31 2010	Fort Worth, TX 76101  	51.4	6	40	0.00	52	NE 12	49	60	38
Tue Feb  2 23:54:33 2010	Phoenix, AZ 85001  	74.2	3	53	0.00	74	E 11		25	37
Tue Feb  2 23:54:35 2010	Portland, OR 97201  	51.2	0	40	0.00	52	WNW 9	51	73	43
Tue Feb  2 23:54:44 2010	Chicago, IL 60601  	30.8	2	28	0.00	34	SSW 24	31	80	25
Tue Feb  2 23:54:46 2010	San Antonio, TX 78201  	48.8	4	43	0.00	49	NE 15	47	95	47
Tue Feb  2 23:54:47 2010	Indianapolis, IN 46201  	37.4	8	31	0.00	41	WNW 14	32	66	27
Tue Feb  2 23:54:49 2010	Boston, MA 02101  	28.6	7	22	0.00	31	NNW 15	21	47	11
Tue Feb  2 23:54:52 2010	Jacksonville, FL 32099  	60.1	11	55	0.47	61	WNW 18	58	78	53
Tue Feb  2 23:54:54 2010	Columbus, OH 43085  	41.4	0	28	N/A	43	SSE 10	41	N/A	--
Tue Feb  2 23:54:56 2010	Dallas, TX 75201  	54.7	0	42	0.00	55	NW 18	55	51	37
Tue Feb  2 23:54:57 2010	Houston, TX 77001  	53.9	5	45	0.01	55	NNE 15	53	80	48
Tue Feb  2 23:55:00 2010	Seattle, WA 98101  	50.7	4	43	0.01	53	SW 12	49	73	43
Tue Feb  2 23:55:01 2010	Milwaukee, WI 53201  	30.9	0	24	0.00	31	S 10	31	95	30
Tue Feb  2 23:55:03 2010	Detroit, MI 48201  	27.2	7	22	0.00	30	NE 12	20	93	26
Tue Feb  2 23:55:06 2010	Philadelphia, PA 19019  	35.0	4	26	0.00	36	SE 12	32	57	21
Wed Feb  3 00:37:52 2010	San Jose, CA 95101  	59.0	5	47	0.00	59	NW 5	59	64	47
Wed Feb  3 00:37:55 2010	Charlotte, NC 28201  	35.5	2	32	0.38	38	NE 14	35	100	35
Wed Feb  3 00:37:57 2010	San Diego, CA 92101  	59.3	4	52	0.00	63	W 13	59	78	53
Wed Feb  3 00:37:59 2010	Denver, CO 80214  	44.5	3	19	0.00	48	ESE 11	43	26	12
Wed Feb  3 00:38:01 2010	Memphis, TN 37501  	41.0	8	36	0.00	45	N 11	36	70	32
Wed Feb  3 00:38:02 2010	Los Angeles, CA 90001  	62.5	5	52	0.00	68	WNW 17	63	66	51
Wed Feb  3 00:38:04 2010	El Paso, TX 79901  	63.6	5	41	0.00	66	ENE 18	64	33	34
Wed Feb  3 00:38:05 2010	New York, NY 10001  	32.5	2	28	0.00	34	SSW 12	33	64	21
Wed Feb  3 00:38:07 2010	Baltimore, MD 21201  	32.8	5	26	0.00	35	SE 16	28	67	23
Wed Feb  3 00:38:10 2010	Las Vegas, NV 89101  	56.6	5	41	0.00	59	NE 16	56	35	29
Wed Feb  3 00:38:10 2010	Washington, DC 20001  	35.6	2	27	0.00	40	SE 11	36	77	29
Wed Feb  3 00:38:11 2010	Austin, TX 73301  	48.0	8	41	0.00	49	ENE 17	44	85	44
Wed Feb  3 00:38:15 2010	San Francisco, CA 94101  	57.9	0	50	0.00	59	ESE 11	58	N/A	--
Wed Feb  3 00:38:18 2010	Oklahoma City, OK 73101  	34.8	2	30	0.22	42	WSW 7	35	93	33
Wed Feb  3 00:38:22 2010	Nashville, TN 37201  	44.6	1	36	0.11	52	SW 11	45	67	34
Wed Feb  3 00:38:26 2010	Fort Worth, TX 76101  	49.6	5	40	0.00	52	NE 12	48	64	38
Wed Feb  3 00:38:29 2010	Phoenix, AZ 85001  	70.7	1	53	0.00	74	E 11		29	37
Wed Feb  3 00:38:31 2010	Portland, OR 97201  	52.5	0	40	0.00	54	WNW 9	52	65	41
Wed Feb  3 00:38:34 2010	Chicago, IL 60601  	30.3	6	28	0.00	34	SSW 24	24	83	26
Wed Feb  3 00:38:36 2010	San Antonio, TX 78201  	47.2	5	43	0.00	49	NE 15	45	100	47
Wed Feb  3 00:38:37 2010	Indianapolis, IN 46201  	35.8	6	31	0.00	41	WNW 14	31	74	28
Wed Feb  3 00:38:38 2010	Boston, MA 02101  	27.6	5	22	0.00	31	NNW 15	22	49	11
Wed Feb  3 00:38:41 2010	Jacksonville, FL 32099  	57.9	14	55	0.47	61	WNW 18	55	82	53
Wed Feb  3 00:38:42 2010	Columbus, OH 43085  	38.1	0	28	N/A	43	SSE 10	38	N/A	--
Wed Feb  3 00:38:43 2010	Dallas, TX 75201  	51.4	2	42	0.00	55	NW 18	51	60	38
Wed Feb  3 00:38:45 2010	Houston, TX 77001  	54.0	3	45	0.01	55	NNE 15	54	80	48
Wed Feb  3 00:38:49 2010	Seattle, WA 98101  	53.7	1	43	0.01	54	SW 12	54	60	40
Wed Feb  3 00:38:50 2010	Milwaukee, WI 53201  	30.1	2	24	0.00	31	S 10	30	100	30
Wed Feb  3 00:38:51 2010	Detroit, MI 48201  	26.8	3	22	0.00	30	ENE 12	23	95	26
Wed Feb  3 00:38:54 2010	Philadelphia, PA 19019  	34.4	4	26	0.00	36	SE 12	31	66	24
Wed Feb  3 01:24:55 2010	San Jose, CA 95101  	59.0	5	47	0.00	59	NW 5	59	64	47
Wed Feb  3 01:24:57 2010	Charlotte, NC 28201  	35.5	2	32	0.38	38	NE 14	35	100	35
Wed Feb  3 01:24:59 2010	San Diego, CA 92101  	59.3	4	52	0.00	63	W 13	59	78	53
Wed Feb  3 01:25:01 2010	Denver, CO 80214  	44.5	3	19	0.00	48	ESE 11	43	26	12
Wed Feb  3 01:25:03 2010	Memphis, TN 37501  	41.0	8	36	0.00	45	N 11	36	70	32
Wed Feb  3 01:25:05 2010	Los Angeles, CA 90001  	62.5	5	52	0.00	68	WNW 17	63	66	51
Wed Feb  3 01:25:07 2010	El Paso, TX 79901  	63.6	5	41	0.00	66	ENE 18	64	33	34
Wed Feb  3 01:25:09 2010	New York, NY 10001  	32.5	2	28	0.00	34	SSW 12	33	64	21
Wed Feb  3 01:25:10 2010	Baltimore, MD 21201  	32.8	5	26	0.00	35	SE 16	28	67	23
Wed Feb  3 01:25:11 2010	Las Vegas, NV 89101  	56.6	5	41	0.00	59	NE 16	56	35	29
Wed Feb  3 01:25:14 2010	Washington, DC 20001  	32.0	4	27	0.00	40	SE 11	28	100	32
Wed Feb  3 01:25:18 2010	Austin, TX 73301  	48.3	5	41	0.00	49	ENE 17	46	85	44
Wed Feb  3 01:25:19 2010	San Francisco, CA 94101  	57.9	0	50	0.00	59	ESE 11	58	N/A	--
Wed Feb  3 01:25:21 2010	Oklahoma City, OK 73101  	34.8	2	30	0.22	42	WSW 7	35	93	33
Wed Feb  3 01:25:26 2010	Nashville, TN 37201  	44.6	1	36	0.11	52	SW 11	45	67	34
Wed Feb  3 01:25:29 2010	Fort Worth, TX 76101  	49.6	5	40	0.00	52	NE 12	48	64	38
Wed Feb  3 01:25:31 2010	Phoenix, AZ 85001  	70.7	1	53	0.00	74	E 11		29	37
Wed Feb  3 01:25:33 2010	Portland, OR 97201  	52.5	0	40	0.00	54	WNW 9	52	65	41
Wed Feb  3 01:25:34 2010	Chicago, IL 60601  	30.3	6	28	0.00	34	SSW 24	24	83	26
Wed Feb  3 01:25:36 2010	San Antonio, TX 78201  	47.2	5	43	0.00	49	NE 15	45	100	47
Wed Feb  3 01:25:38 2010	Indianapolis, IN 46201  	35.8	6	31	0.00	41	WNW 14	31	74	28
Wed Feb  3 01:25:40 2010	Boston, MA 02101  	27.6	5	22	0.00	31	NNW 15	22	49	11
Wed Feb  3 01:25:43 2010	Jacksonville, FL 32099  	57.9	14	55	0.47	61	WNW 18	55	82	53
Wed Feb  3 01:25:44 2010	Columbus, OH 43085  	38.1	0	28	N/A	43	SSE 10	38	N/A	--
Wed Feb  3 01:25:47 2010	Dallas, TX 75201  	51.4	2	42	0.00	55	NW 18	51	60	38
Wed Feb  3 01:25:48 2010	Houston, TX 77001  	54.0	3	45	0.01	55	NNE 15	54	80	48
Wed Feb  3 01:25:50 2010	Seattle, WA 98101  	53.7	1	43	0.01	54	SW 12	54	60	40
Wed Feb  3 01:25:52 2010	Milwaukee, WI 53201  	30.1	2	24	0.00	31	S 10	30	100	30
Wed Feb  3 01:25:55 2010	Detroit, MI 48201  	26.8	3	22	0.00	30	ENE 12	23	95	26
Wed Feb  3 01:25:58 2010	Philadelphia, PA 19019  	34.4	4	26	0.00	36	SE 12	31	66	24
Wed Feb  3 02:13:56 2010	San Jose, CA 95101  	55.0	0	47	0.02	59	NW 6	55	79	49
Wed Feb  3 02:13:59 2010	Charlotte, NC 28201  	35.9	2	32	0.41	38	NE 14	36	100	36
Wed Feb  3 02:14:02 2010	San Diego, CA 92101  	57.5	5	52	0.00	63	W 13	57	87	54
Wed Feb  3 02:14:05 2010	Denver, CO 80214  	38.7	0	19	0.00	48	ESE 11	39	36	14
Wed Feb  3 02:14:07 2010	Memphis, TN 37501  	39.0	3	36	0.00	45	N 11	37	72	31
Wed Feb  3 02:14:16 2010	Los Angeles, CA 90001  	59.4	6	52	0.00	68	WNW 17	59	71	50
Wed Feb  3 02:14:19 2010	El Paso, TX 79901  	58.4	5	41	0.00	66	SE 20	58	41	35
Wed Feb  3 02:14:23 2010	New York, NY 10001  	32.0	5	28	0.00	34	SSW 12	27	67	22
Wed Feb  3 02:14:26 2010	Baltimore, MD 21201  	29.6	6	26	0.00	35	SE 16	23	93	28
Wed Feb  3 02:14:28 2010	Las Vegas, NV 89101  	54.0	3	41	0.00	59	NE 16	54	39	30
Wed Feb  3 02:14:32 2010	Washington, DC 20001  	31.5	4	27	0.00	40	SE 11	27	100	31
Wed Feb  3 02:14:34 2010	Austin, TX 73301  	48.9	7	45	0.00	53	NE 15	46	88	46
Wed Feb  3 02:14:36 2010	San Francisco, CA 94101  	56.4	0	50	0.00	59	SW 11	56	N/A	--
Wed Feb  3 02:14:39 2010	Oklahoma City, OK 73101  	32.3	2	30	0.23	42	WSW 7	32	98	32
Wed Feb  3 02:14:43 2010	Nashville, TN 37201  	42.7	1	36	0.11	52	SW 11	43	71	34
Wed Feb  3 02:14:51 2010	Fort Worth, TX 76101  	46.6	4	40	0.00	52	NE 12	45	71	38
Wed Feb  3 02:14:53 2010	Phoenix, AZ 85001  	68.3	1	53	0.00	74	E 11	68	32	38
Wed Feb  3 02:14:56 2010	Portland, OR 97201  	50.0	0	40	0.00	54	WNW 9	50	67	40
Wed Feb  3 02:15:02 2010	Chicago, IL 60601  	31.0	1	28	0.00	34	SSW 24	31	83	26
Wed Feb  3 02:15:04 2010	San Antonio, TX 78201  	47.0	9	43	0.00	49	NNE 16	43	98	46
Wed Feb  3 02:15:07 2010	Indianapolis, IN 46201  	34.3	3	31	0.00	41	WNW 14	32	84	30
Wed Feb  3 02:15:11 2010	Boston, MA 02101  	27.5	5	22	0.00	31	NNW 15	22	51	11
Wed Feb  3 02:15:15 2010	Jacksonville, FL 32099  	57.0	11	55	0.47	61	WNW 18	54	80	51
Wed Feb  3 02:15:18 2010	Columbus, OH 43085  	36.4	0	28	N/A	43	SSE 10	36	N/A	--
Wed Feb  3 02:15:20 2010	Dallas, TX 75201  	49.0	4	42	0.00	55	NW 18	48	67	38
Wed Feb  3 02:15:24 2010	Houston, TX 77001  	54.0	5	45	0.01	55	NNE 15	53	80	48
Wed Feb  3 02:15:26 2010	Seattle, WA 98101  	50.3	2	43	0.01	54	SW 12	50	61	37
Wed Feb  3 02:15:31 2010	Milwaukee, WI 53201  	29.1	3	24	0.00	31	S 10	29	100	29
Wed Feb  3 02:15:33 2010	Detroit, MI 48201  	26.7	2	22	0.00	30	ENE 12	27	94	25
Wed Feb  3 02:15:36 2010	Philadelphia, PA 19019  	34.1	3	26	0.00	36	SE 12	31	69	25
Wed Feb  3 03:01:32 2010	San Jose, CA 95101  	55.0	0	47	0.02	59	NW 6	55	79	49
Wed Feb  3 03:01:36 2010	Charlotte, NC 28201  	35.9	2	32	0.41	38	NE 14	36	100	36
Wed Feb  3 03:01:38 2010	San Diego, CA 92101  	57.5	5	52	0.00	63	W 13	57	87	54
Wed Feb  3 03:01:44 2010	Denver, CO 80214  	38.7	0	19	0.00	48	ESE 11	39	36	14
Wed Feb  3 03:01:46 2010	Memphis, TN 37501  	39.0	3	36	0.00	45	N 11	37	72	31
Wed Feb  3 03:01:48 2010	Los Angeles, CA 90001  	59.4	6	52	0.00	68	WNW 17	59	71	50
Wed Feb  3 03:01:50 2010	El Paso, TX 79901  	58.4	5	41	0.00	66	SE 20	58	41	35
Wed Feb  3 03:01:52 2010	New York, NY 10001  	32.0	5	28	0.00	34	SSW 12	27	67	22
Wed Feb  3 03:01:54 2010	Baltimore, MD 21201  	29.6	6	26	0.00	35	SE 16	23	93	28
Wed Feb  3 03:01:56 2010	Las Vegas, NV 89101  	54.0	3	41	0.00	59	NE 16	54	39	30
Wed Feb  3 03:01:59 2010	Washington, DC 20001  	31.5	4	27	0.00	40	SE 11	27	100	31
Wed Feb  3 03:02:04 2010	Austin, TX 73301  	48.8	4	41	0.00	49	ENE 17	48	84	44
Wed Feb  3 03:02:06 2010	San Francisco, CA 94101  	56.4	0	50	0.00	59	SW 11	56	N/A	--
Wed Feb  3 03:02:08 2010	Oklahoma City, OK 73101  	32.3	2	30	0.23	42	WSW 7	32	98	32
Wed Feb  3 03:02:10 2010	Nashville, TN 37201  	42.7	1	36	0.11	52	SW 11	43	71	34
Wed Feb  3 03:02:12 2010	Fort Worth, TX 76101  	46.6	4	40	0.00	52	NE 12	45	71	38
Wed Feb  3 03:02:15 2010	Phoenix, AZ 85001  	68.3	1	53	0.00	74	E 11	68	32	38
Wed Feb  3 03:02:19 2010	Portland, OR 97201  	50.0	0	40	0.00	54	WNW 9	50	67	40
Wed Feb  3 03:02:21 2010	Chicago, IL 60601  	31.0	1	28	0.00	34	SSW 24	31	83	26
Wed Feb  3 03:02:23 2010	San Antonio, TX 78201  	47.0	9	43	0.00	49	NNE 16	43	98	46
Wed Feb  3 03:02:25 2010	Indianapolis, IN 46201  	34.3	3	31	0.00	41	WNW 14	32	84	30
Wed Feb  3 03:02:27 2010	Boston, MA 02101  	27.5	5	22	0.00	31	NNW 15	22	51	11
Wed Feb  3 03:02:29 2010	Jacksonville, FL 32099  	57.0	11	55	0.47	61	WNW 18	54	80	51
Wed Feb  3 03:02:31 2010	Columbus, OH 43085  	36.4	0	28	N/A	43	SSE 10	36	N/A	--
Wed Feb  3 03:02:33 2010	Dallas, TX 75201  	49.0	4	42	0.00	55	NW 18	48	67	38
Wed Feb  3 03:02:34 2010	Houston, TX 77001  	54.0	5	45	0.01	55	NNE 15	53	80	48
Wed Feb  3 03:02:36 2010	Seattle, WA 98101  	50.3	2	43	0.01	54	SW 12	50	61	37
Wed Feb  3 03:02:38 2010	Milwaukee, WI 53201  	29.1	3	24	0.00	31	S 10	29	100	29
Wed Feb  3 03:02:39 2010	Detroit, MI 48201  	26.7	2	22	0.00	30	ENE 12	27	94	25
Wed Feb  3 03:02:41 2010	Philadelphia, PA 19019  	34.1	3	26	0.00	36	SE 12	31	69	25
Wed Feb  3 03:48:20 2010	San Jose, CA 95101  	55.0	0	47	0.02	59	NW 6	55	79	49
Wed Feb  3 03:48:22 2010	Charlotte, NC 28201  	36.2	2	32	0.41	38	NE 14	36	100	36
Wed Feb  3 03:48:26 2010	San Diego, CA 92101  	57.5	4	52	0.00	63	W 13	57	86	53
Wed Feb  3 03:48:29 2010	Denver, CO 80214  	34.8	0	19	0.00	48	ESE 11	35	45	15
Wed Feb  3 03:48:31 2010	Memphis, TN 37501  	37.0	3	36	0.00	45	N 11	35	74	30
Wed Feb  3 03:48:33 2010	Los Angeles, CA 90001  	56.9	2	52	0.00	68	WNW 17	57	78	50
Wed Feb  3 03:48:35 2010	El Paso, TX 79901  	55.7	7	41	0.00	66	SE 20	54	46	35
Wed Feb  3 03:48:38 2010	New York, NY 10001  	31.1	0	28	0.00	34	SSW 12	31	85	27
Wed Feb  3 03:48:44 2010	Baltimore, MD 21201  	30.7	3	26	0.00	35	SE 16	31	99	31
Wed Feb  3 03:48:50 2010	Las Vegas, NV 89101  	51.6	1	41	0.00	59	NE 16	52	43	30
Wed Feb  3 03:48:57 2010	Washington, DC 20001  	31.9	4	27	0.00	40	SE 11	29	100	32
Wed Feb  3 03:49:05 2010	Austin, TX 73301  	52.0	6	45	0.00	54	NE 15	50	80	46
Wed Feb  3 03:49:14 2010	San Francisco, CA 94101  	55.5	3	50	0.00	59	SW 11	56	N/A	--
Wed Feb  3 03:49:17 2010	Oklahoma City, OK 73101  	31.5	1	30	0.23	42	WSW 7	32	100	32
Wed Feb  3 03:49:21 2010	Nashville, TN 37201  	41.3	1	36	0.11	52	SW 11	41	75	34
Wed Feb  3 03:49:27 2010	Fort Worth, TX 76101  	44.7	3	40	0.00	52	NE 12	45	80	39
Wed Feb  3 03:49:32 2010	Phoenix, AZ 85001  	66.0	2	53	0.00	74	E 11	66	36	39
Wed Feb  3 03:49:37 2010	Portland, OR 97201  	47.5	5	40	0.01	54	E 13	45	77	41
Wed Feb  3 03:49:42 2010	Chicago, IL 60601  	28.4	11	28	0.00	34	SSW 24	19	82	24
Wed Feb  3 03:49:56 2010	San Antonio, TX 78201  	46.9	4	43	0.00	49	NNE 19	46	96	46
Wed Feb  3 03:50:01 2010	Indianapolis, IN 46201  	33.8	2	31	0.00	41	WNW 14	34	89	31
Wed Feb  3 03:50:08 2010	Boston, MA 02101  	25.9	9	22	0.00	31	NNW 15	17	58	13
Wed Feb  3 03:50:16 2010	Jacksonville, FL 32099  	55.9	14	55	0.47	61	WNW 18	52	79	49
Wed Feb  3 03:50:22 2010	Columbus, OH 43085  	35.7	0	28	N/A	43	SSE 10	36	N/A	--
Wed Feb  3 03:50:28 2010	Dallas, TX 75201  	46.8	1	42	0.00	55	NW 18	47	74	39
Wed Feb  3 03:50:34 2010	Houston, TX 77001  	54.4	2	45	0.01	55	NNE 15	54	80	49
Wed Feb  3 03:50:38 2010	Seattle, WA 98101  	49.0	1	43	0.01	54	SW 12	49	66	38
Wed Feb  3 03:50:42 2010	Milwaukee, WI 53201  	28.2	4	24	0.00	31	S 10	24	100	28
Wed Feb  3 03:50:45 2010	Detroit, MI 48201  	28.0	0	22	0.00	30	ENE 12	28	91	26
Wed Feb  3 03:50:48 2010	Philadelphia, PA 19019  	33.9	3	26	0.00	36	SE 12	34	72	26
Wed Feb  3 04:33:22 2010	San Jose, CA 95101  	55.0	0	47	0.02	59	NW 6	55	79	49
Wed Feb  3 04:33:26 2010	Charlotte, NC 28201  	36.2	2	32	0.41	38	NE 14	36	100	36
Wed Feb  3 04:33:28 2010	San Diego, CA 92101  	57.5	4	52	0.00	63	W 13	57	86	53
Wed Feb  3 04:33:42 2010	Denver, CO 80214  	34.8	0	19	0.00	48	ESE 11	35	45	15
Wed Feb  3 04:33:44 2010	Memphis, TN 37501  	37.0	3	36	0.00	45	N 11	35	74	30
Wed Feb  3 04:33:48 2010	Los Angeles, CA 90001  	56.9	2	52	0.00	68	WNW 17	57	78	50
Wed Feb  3 04:33:51 2010	El Paso, TX 79901  	55.7	7	41	0.00	66	SE 20	54	46	35
Wed Feb  3 04:33:52 2010	New York, NY 10001  	31.1	0	28	0.00	34	SSW 12	31	85	27
Wed Feb  3 04:33:55 2010	Baltimore, MD 21201  	30.7	3	26	0.00	35	SE 16	31	99	31
Wed Feb  3 04:33:58 2010	Las Vegas, NV 89101  	51.6	1	41	0.00	59	NE 16	52	43	30
Wed Feb  3 04:34:00 2010	Washington, DC 20001  	31.9	4	27	0.00	40	SE 11	29	100	32
Wed Feb  3 04:34:08 2010	Austin, TX 73301  	48.4	1	41	0.00	49	ENE 17	48	85	44
Wed Feb  3 04:34:11 2010	San Francisco, CA 94101  	55.5	3	50	0.00	59	SW 11	56	N/A	--
Wed Feb  3 04:34:12 2010	Nashville, TN 37201  	41.3	1	36	0.11	52	SW 11	41	75	34
Wed Feb  3 04:34:12 2010	Oklahoma City, OK 73101  	31.5	1	30	0.23	42	WSW 7	32	100	32
Wed Feb  3 04:34:13 2010	Phoenix, AZ 85001  	66.0	2	53	0.00	74	E 11	66	36	39
Wed Feb  3 04:34:13 2010	Fort Worth, TX 76101  	44.7	3	40	0.00	52	NE 12	45	80	39
Wed Feb  3 04:34:14 2010	Portland, OR 97201  	47.5	5	40	0.01	54	E 13	45	77	41
Wed Feb  3 04:34:15 2010	San Antonio, TX 78201  	46.9	4	43	0.00	49	NNE 19	46	96	46
Wed Feb  3 04:34:15 2010	Chicago, IL 60601  	28.4	11	28	0.00	34	SSW 24	19	82	24
Wed Feb  3 04:34:16 2010	Indianapolis, IN 46201  	33.8	2	31	0.00	41	WNW 14	34	89	31
Wed Feb  3 04:34:17 2010	Boston, MA 02101  	25.9	9	22	0.00	31	NNW 15	17	58	13
Wed Feb  3 04:34:17 2010	Jacksonville, FL 32099  	55.9	14	55	0.47	61	WNW 18	52	79	49
Wed Feb  3 04:34:18 2010	Columbus, OH 43085  	35.7	0	28	N/A	43	SSE 10	36	N/A	--
Wed Feb  3 04:34:19 2010	Houston, TX 77001  	54.4	2	45	0.01	55	NNE 15	54	80	49
Wed Feb  3 04:34:19 2010	Dallas, TX 75201  	46.8	1	42	0.00	55	NW 18	47	74	39
Wed Feb  3 04:34:20 2010	Milwaukee, WI 53201  	28.2	4	24	0.00	31	S 10	24	100	28
Wed Feb  3 04:34:20 2010	Seattle, WA 98101  	49.0	1	43	0.01	54	SW 12	49	66	38
Wed Feb  3 04:34:21 2010	Detroit, MI 48201  	28.0	0	22	0.00	30	ENE 12	28	91	26
Wed Feb  3 04:34:22 2010	Philadelphia, PA 19019  	33.9	3	26	0.00	36	SE 12	34	72	26
Wed Feb  3 05:20:51 2010	San Jose, CA 95101  	53.1	6	47	0.02	59	NW 6	51	84	48
Wed Feb  3 05:20:54 2010	Charlotte, NC 28201  	36.4	0	32	0.41	38	NE 14	36	100	36
Wed Feb  3 05:20:57 2010	San Diego, CA 92101  	57.2	1	52	0.00	63	W 13	57	89	54
Wed Feb  3 05:21:02 2010	Denver, CO 80214  	33.4	0	19	0.00	48	ESE 11	33	47	15
Wed Feb  3 05:21:04 2010	Memphis, TN 37501  	36.0	0	36	0.00	45	N 11	36	76	29
Wed Feb  3 05:21:08 2010	Los Angeles, CA 90001  	56.3	2	52	0.00	68	WNW 17	56	86	52
Wed Feb  3 05:21:11 2010	El Paso, TX 79901  	52.3	9	41	0.00	66	SE 20	49	55	37
Wed Feb  3 05:21:14 2010	New York, NY 10001  	30.1	1	28	0.00	34	SSW 12	30	89	27
Wed Feb  3 05:21:16 2010	Baltimore, MD 21201  	30.5	3	26	0.00	35	SE 16	31	97	30
Wed Feb  3 05:21:19 2010	Las Vegas, NV 89101  	49.3	1	41	0.00	59	NE 16	49	48	30
Wed Feb  3 05:21:29 2010	Washington, DC 20001  	31.7	1	27	0.00	40	SE 11	32	100	32
Wed Feb  3 05:21:32 2010	Austin, TX 73301  	50.0	5	45	0.00	54	NE 15	48	86	46
Wed Feb  3 05:21:35 2010	San Francisco, CA 94101  	55.4	0	50	0.00	59	SW 11	55	N/A	--
Wed Feb  3 05:21:38 2010	Oklahoma City, OK 73101  	29.3	2	29	0.23	42	WSW 7	29	84	25
Wed Feb  3 05:21:42 2010	Nashville, TN 37201  	39.5	3	36	0.11	52	NW 13	38	76	33
Wed Feb  3 05:21:44 2010	Fort Worth, TX 76101  	43.7	2	40	0.00	52	NE 12	44	83	39
Wed Feb  3 05:21:50 2010	Phoenix, AZ 85001  	63.9	1	53	0.00	74	E 11	64	39	38
Wed Feb  3 05:21:58 2010	Portland, OR 97201  	46.3	1	40	0.01	54	E 13	46	89	43
Wed Feb  3 05:22:03 2010	Chicago, IL 60601  	26.2	5	26	0.00	34	SSW 24	21	83	22
Wed Feb  3 05:22:06 2010	San Antonio, TX 78201  	46.5	5	43	0.03	49	NE 19	44	99	46
Wed Feb  3 05:22:12 2010	Indianapolis, IN 46201  	33.4	2	31	0.00	41	WNW 15	33	88	30
Wed Feb  3 05:22:16 2010	Boston, MA 02101  	27.6	0	22	0.00	31	NNW 15	28	58	14
Wed Feb  3 05:22:31 2010	Jacksonville, FL 32099  	54.0	10	54	0.47	61	WNW 18	51	81	48
Wed Feb  3 05:22:36 2010	Columbus, OH 43085  	36.0	1	28	N/A	43	SSE 10	36	N/A	--
Wed Feb  3 05:22:41 2010	Dallas, TX 75201  	45.0	1	42	0.00	55	NW 18	45	79	39
Wed Feb  3 05:22:46 2010	Houston, TX 77001  	51.6	5	45	0.01	55	NNE 15	50	84	47
Wed Feb  3 05:22:51 2010	Seattle, WA 98101  	48.1	3	43	0.01	54	SW 12	47	73	40
Wed Feb  3 05:22:55 2010	Milwaukee, WI 53201  	27.5	4	24	0.00	31	W 11	24	100	28
Wed Feb  3 05:23:00 2010	Detroit, MI 48201  	27.1	1	22	0.00	30	ENE 12	27	93	25
Wed Feb  3 05:23:06 2010	Philadelphia, PA 19019  	32.0	2	26	0.00	36	SE 12	32	91	30
Wed Feb  3 06:07:55 2010	San Jose, CA 95101  	53.1	6	47	0.02	59	NW 6	51	84	48
Wed Feb  3 06:07:57 2010	Charlotte, NC 28201  	36.4	0	32	0.41	38	NE 14	36	100	36
Wed Feb  3 06:07:59 2010	San Diego, CA 92101  	57.2	1	52	0.00	63	W 13	57	89	54
Wed Feb  3 06:08:00 2010	Denver, CO 80214  	33.4	0	19	0.00	48	ESE 11	33	47	15
Wed Feb  3 06:08:02 2010	Memphis, TN 37501  	36.0	0	36	0.00	45	N 11	36	76	29
Wed Feb  3 06:08:03 2010	Los Angeles, CA 90001  	56.3	2	52	0.00	68	WNW 17	56	86	52
Wed Feb  3 06:08:05 2010	El Paso, TX 79901  	52.3	9	41	0.00	66	SE 20	49	55	37
Wed Feb  3 06:08:06 2010	New York, NY 10001  	30.1	1	28	0.00	34	SSW 12	30	89	27
Wed Feb  3 06:08:08 2010	Baltimore, MD 21201  	30.5	3	26	0.00	35	SE 16	31	97	30
Wed Feb  3 06:08:09 2010	Las Vegas, NV 89101  	49.3	1	41	0.00	59	NE 16	49	48	30
Wed Feb  3 06:08:11 2010	Washington, DC 20001  	31.7	1	27	0.00	40	SE 11	32	100	32
Wed Feb  3 06:08:12 2010	Austin, TX 73301  	50.0	5	45	0.00	54	NE 15	48	86	46
Wed Feb  3 06:08:14 2010	San Francisco, CA 94101  	55.4	0	50	0.00	59	SW 11	55	N/A	--
Wed Feb  3 06:08:15 2010	Oklahoma City, OK 73101  	29.3	2	29	0.23	42	WSW 7	29	84	25
Wed Feb  3 06:08:17 2010	Nashville, TN 37201  	39.5	3	36	0.11	52	NW 13	38	76	33
Wed Feb  3 06:08:18 2010	Fort Worth, TX 76101  	43.7	2	40	0.00	52	NE 12	44	83	39
Wed Feb  3 06:08:20 2010	Phoenix, AZ 85001  	63.9	1	53	0.00	74	E 11	64	39	38
Wed Feb  3 06:08:21 2010	Portland, OR 97201  	46.3	1	40	0.01	54	E 13	46	89	43
Wed Feb  3 06:08:23 2010	Chicago, IL 60601  	26.2	5	26	0.00	34	SSW 24	21	83	22
Wed Feb  3 06:08:24 2010	San Antonio, TX 78201  	46.5	5	43	0.03	49	NE 19	44	99	46
Wed Feb  3 06:08:26 2010	Indianapolis, IN 46201  	33.4	2	31	0.00	41	WNW 15	33	88	30
Wed Feb  3 06:08:27 2010	Boston, MA 02101  	27.6	0	22	0.00	31	NNW 15	28	58	14
Wed Feb  3 06:08:29 2010	Jacksonville, FL 32099  	54.0	10	54	0.47	61	WNW 18	51	81	48
Wed Feb  3 06:08:30 2010	Columbus, OH 43085  	36.0	1	28	N/A	43	SSE 10	36	N/A	--
Wed Feb  3 06:08:32 2010	Dallas, TX 75201  	45.0	1	42	0.00	55	NW 18	45	79	39
Wed Feb  3 06:08:33 2010	Houston, TX 77001  	51.6	5	45	0.01	55	NNE 15	50	84	47
Wed Feb  3 06:08:35 2010	Seattle, WA 98101  	48.1	3	43	0.01	54	SW 12	47	73	40
Wed Feb  3 06:08:37 2010	Milwaukee, WI 53201  	27.5	4	24	0.00	31	W 11	24	100	28
Wed Feb  3 06:08:38 2010	Detroit, MI 48201  	27.1	1	22	0.00	30	ENE 12	27	93	25
Wed Feb  3 06:08:40 2010	Philadelphia, PA 19019  	32.0	2	26	0.00	36	SE 12	32	91	30
Wed Feb  3 06:55:17 2010	San Jose, CA 95101  	52.0	0	47	0.02	59	NW 6	52	90	49
Wed Feb  3 06:55:21 2010	Charlotte, NC 28201  	36.8	0	37	0.00	37	WNW 3	37	100	37
Wed Feb  3 06:55:24 2010	San Diego, CA 92101  	57.3	2	52	0.00	63	W 13	57	89	54
Wed Feb  3 06:55:27 2010	Denver, CO 80214  	31.0	0	19	0.00	48	ESE 11	31	47	13
Wed Feb  3 06:55:30 2010	Memphis, TN 37501  	32.0	0	32	0.00	45	N 11	32	81	27
Wed Feb  3 06:55:33 2010	Los Angeles, CA 90001  	55.0	0	52	0.00	68	WNW 17	55	89	52
Wed Feb  3 06:55:37 2010	El Paso, TX 79901  	47.6	5	41	0.00	66	SE 20	45	68	38
Wed Feb  3 06:55:40 2010	New York, NY 10001  	30.1	2	30	0.00	30	SE 7	30	92	28
Wed Feb  3 06:55:43 2010	Baltimore, MD 21201  	30.8	3	30	0.00	31	ENE 7	28	96	30
Wed Feb  3 06:55:45 2010	Las Vegas, NV 89101  	46.6	0	41	0.00	59	NE 16	47	58	33
Wed Feb  3 06:55:48 2010	Washington, DC 20001  	31.5	4	31	0.00	32	NE 9	28	100	32
Wed Feb  3 06:55:52 2010	Austin, TX 73301  	51.1	6	45	0.00	54	NE 15	49	80	45
Wed Feb  3 06:55:54 2010	San Francisco, CA 94101  	53.9	1	50	0.00	59	SW 11	54	N/A	--
Wed Feb  3 06:55:57 2010	Oklahoma City, OK 73101  	29.0	2	28	0.23	42	WSW 7	29	65	19
Wed Feb  3 06:56:00 2010	Nashville, TN 37201  	39.0	2	36	0.11	52	NW 13	39	77	32
Wed Feb  3 06:56:03 2010	Fort Worth, TX 76101  	42.6	1	40	0.00	52	NE 12	43	88	39
Wed Feb  3 06:56:06 2010	Phoenix, AZ 85001  	62.6	1	53	0.00	74	E 11	63	39	38
Wed Feb  3 06:56:10 2010	Portland, OR 97201  	45.0	1	40	0.01	54	E 13	45	86	41
Wed Feb  3 06:56:13 2010	Chicago, IL 60601  	24.2	7	24	0.00	34	SSW 24	16	85	20
Wed Feb  3 06:56:16 2010	San Antonio, TX 78201  	45.8	11	43	0.14	49	NE 19	41	100	46
Wed Feb  3 06:56:18 2010	Indianapolis, IN 46201  	33.0	2	33	0.00	33	WNW 10	33	88	30
Wed Feb  3 06:56:22 2010	Boston, MA 02101  	27.8	0	27	0.00	28	NW 5	28	59	15
Wed Feb  3 06:56:24 2010	Jacksonville, FL 32099  	52.0	9	52	0.47	61	WNW 18	49	77	45
Wed Feb  3 06:56:27 2010	Columbus, OH 43085  	34.6	4	35	N/A	36	NNW 17	31	N/A	--
Wed Feb  3 06:56:31 2010	Dallas, TX 75201  	44.1	2	42	0.00	55	NW 18	44	80	38
Wed Feb  3 06:56:34 2010	Houston, TX 77001  	51.4	9	45	0.01	55	NNE 15	48	81	46
Wed Feb  3 06:56:36 2010	Seattle, WA 98101  	46.7	0	43	0.01	54	SW 12	47	78	40
Wed Feb  3 06:56:40 2010	Milwaukee, WI 53201  	27.5	4	24	0.00	31	W 11	23	100	28
Wed Feb  3 06:56:43 2010	Detroit, MI 48201  	27.7	0	27	0.00	28	SSE 4	28	93	26
Wed Feb  3 06:56:45 2010	Philadelphia, PA 19019  	30.8	5	30	0.00	31	NE 7	25	100	31
Wed Feb  3 07:39:29 2010	San Jose, CA 95101  	52.0	0	47	0.02	59	NW 6	52	90	49
Wed Feb  3 07:39:30 2010	Charlotte, NC 28201  	36.8	0	37	0.00	37	WNW 3	37	100	37
Wed Feb  3 07:39:31 2010	Denver, CO 80214  	31.0	0	19	0.00	48	ESE 11	31	47	13
Wed Feb  3 07:39:31 2010	San Diego, CA 92101  	57.3	2	52	0.00	63	W 13	57	89	54
Wed Feb  3 07:39:32 2010	Memphis, TN 37501  	32.0	0	32	0.00	45	N 11	32	81	27
Wed Feb  3 07:39:33 2010	El Paso, TX 79901  	47.6	5	41	0.00	66	SE 20	45	68	38
Wed Feb  3 07:39:33 2010	Los Angeles, CA 90001  	55.0	0	52	0.00	68	WNW 17	55	89	52
Wed Feb  3 07:39:34 2010	New York, NY 10001  	30.1	2	30	0.00	30	SE 7	30	92	28
Wed Feb  3 07:39:35 2010	Baltimore, MD 21201  	30.8	3	30	0.00	31	ENE 7	28	96	30
Wed Feb  3 07:39:35 2010	Las Vegas, NV 89101  	46.6	0	41	0.00	59	NE 16	47	58	33
Wed Feb  3 07:39:36 2010	Washington, DC 20001  	31.5	4	31	0.00	32	NE 9	28	100	32
Wed Feb  3 07:39:37 2010	Austin, TX 73301  	51.1	6	45	0.00	54	NE 15	49	80	45
Wed Feb  3 07:39:37 2010	San Francisco, CA 94101  	53.9	1	50	0.00	59	SW 11	54	N/A	--
Wed Feb  3 07:39:38 2010	Oklahoma City, OK 73101  	29.0	2	28	0.23	42	WSW 7	29	65	19
Wed Feb  3 07:39:39 2010	Fort Worth, TX 76101  	42.6	1	40	0.00	52	NE 12	43	88	39
Wed Feb  3 07:39:39 2010	Nashville, TN 37201  	39.0	2	36	0.11	52	NW 13	39	77	32
Wed Feb  3 07:39:40 2010	Phoenix, AZ 85001  	62.6	1	53	0.00	74	E 11	63	39	38
Wed Feb  3 07:39:41 2010	Portland, OR 97201  	45.0	1	40	0.01	54	E 13	45	86	41
Wed Feb  3 07:39:42 2010	San Antonio, TX 78201  	45.8	11	43	0.14	49	NE 19	41	100	46
Wed Feb  3 07:39:42 2010	Chicago, IL 60601  	24.2	7	24	0.00	34	SSW 24	16	85	20
Wed Feb  3 07:39:43 2010	Boston, MA 02101  	27.8	0	27	0.00	28	NW 5	28	59	15
Wed Feb  3 07:39:43 2010	Indianapolis, IN 46201  	33.0	2	33	0.00	33	WNW 10	33	88	30
Wed Feb  3 07:39:44 2010	Jacksonville, FL 32099  	52.0	9	52	0.47	61	WNW 18	49	77	45
Wed Feb  3 07:39:45 2010	Columbus, OH 43085  	34.6	4	35	N/A	36	NNW 17	31	N/A	--
Wed Feb  3 07:39:45 2010	Dallas, TX 75201  	44.1	2	42	0.00	55	NW 18	44	80	38
Wed Feb  3 07:39:46 2010	Houston, TX 77001  	51.4	9	45	0.01	55	NNE 15	48	81	46
Wed Feb  3 07:39:47 2010	Seattle, WA 98101  	46.7	0	43	0.01	54	SW 12	47	78	40
Wed Feb  3 07:39:48 2010	Milwaukee, WI 53201  	27.5	4	24	0.00	31	W 11	23	100	28
Wed Feb  3 07:39:49 2010	Detroit, MI 48201  	27.7	0	27	0.00	28	SSE 4	28	93	26
Wed Feb  3 07:39:50 2010	Philadelphia, PA 19019  	30.8	5	30	0.00	31	NE 7	25	100	31
Wed Feb  3 08:22:33 2010	San Jose, CA 95101  	50.0	3	47	0.02	59	NW 6	49	93	48
Wed Feb  3 08:22:36 2010	Charlotte, NC 28201  	36.1	3	36	0.00	37	NW 8	34	100	36
Wed Feb  3 08:22:37 2010	San Diego, CA 92101  	56.5	0	52	0.00	63	W 13	56	91	54
Wed Feb  3 08:22:38 2010	Denver, CO 80214  	30.7	0	30	0.00	31	NE 2	31	48	13
Wed Feb  3 08:22:39 2010	Memphis, TN 37501  	33.1	3	33	0.00	33	NNE 3	30	76	26
Wed Feb  3 08:22:41 2010	Los Angeles, CA 90001  	54.7	0	52	0.00	68	WNW 17	55	90	52
Wed Feb  3 08:22:42 2010	El Paso, TX 79901  	47.2	5	47	0.00	47	ESE 17	45	69	38
Wed Feb  3 08:22:45 2010	New York, NY 10001  	30.8	6	30	0.00	31	SSE 9	25	92	29
Wed Feb  3 08:22:46 2010	Baltimore, MD 21201  	29.8	1	30	0.00	31	ENE 7	30	96	29
Wed Feb  3 08:22:47 2010	Las Vegas, NV 89101  	45.0	2	41	0.00	59	NE 16	45	63	33
Wed Feb  3 08:22:48 2010	Washington, DC 20001  	32.0	3	31	0.00	32	NE 9	29	100	32
Wed Feb  3 08:22:50 2010	Austin, TX 73301  	48.9	7	49	0.00	49	NNE 7	46	92	47
Wed Feb  3 08:22:52 2010	San Francisco, CA 94101  	53.5	2	50	0.00	59	SW 11	53	N/A	--
Wed Feb  3 08:22:53 2010	Oklahoma City, OK 73101  	27.1	0	27	0.00	30	SW 6	27	5	-37
Wed Feb  3 08:22:54 2010	Nashville, TN 37201  	37.7	2	38	0.00	39	NNW 12	38	72	29
Wed Feb  3 08:22:55 2010	Fort Worth, TX 76101  	40.1	4	40	0.00	43	ENE 8	38	95	39
Wed Feb  3 08:22:57 2010	Phoenix, AZ 85001  	59.9	2	60	0.00	60	W 7	60	48	40
Wed Feb  3 08:22:58 2010	Portland, OR 97201  	43.7	2	40	0.01	54	E 13	44	87	40
Wed Feb  3 08:22:59 2010	Chicago, IL 60601  	23.5	8	23	0.00	25	W 21	15	85	20
Wed Feb  3 08:23:00 2010	San Antonio, TX 78201  	45.9	9	46	0.13	46	NE 18	41	100	46
Wed Feb  3 08:23:02 2010	Indianapolis, IN 46201  	32.7	6	33	0.00	33	WNW 10	27	90	30
Wed Feb  3 08:23:04 2010	Boston, MA 02101  	26.4	0	26	0.00	28	NW 5	26	75	19
Wed Feb  3 08:23:05 2010	Jacksonville, FL 32099  	51.1	15	51	0.00	51	NNE 22	46	72	42
Wed Feb  3 08:23:06 2010	Columbus, OH 43085  	33.7	3	33	N/A	36	NNW 17	31	N/A	--
Wed Feb  3 08:23:07 2010	Dallas, TX 75201  	42.8	7	43	0.00	44	E 11	39	82	38
Wed Feb  3 08:23:09 2010	Houston, TX 77001  	50.5	6	51	0.00	52	ENE 12	48	79	44
Wed Feb  3 08:23:10 2010	Seattle, WA 98101  	45.0	1	43	0.01	54	SW 12	45	87	42
Wed Feb  3 08:23:16 2010	Milwaukee, WI 53201  	26.5	0	26	0.00	28	NW 11	27	100	27
Wed Feb  3 08:23:17 2010	Detroit, MI 48201  	26.8	2	26	0.00	28	WSW 6	27	96	26
Wed Feb  3 08:23:18 2010	Philadelphia, PA 19019  	31.7	2	30	0.00	32	NE 7	32	100	32
Wed Feb  3 09:09:02 2010	San Jose, CA 95101  	50.0	3	47	0.02	59	NW 6	49	93	48
Wed Feb  3 09:09:04 2010	Charlotte, NC 28201  	36.1	3	36	0.00	37	NW 8	34	100	36
Wed Feb  3 09:09:06 2010	San Diego, CA 92101  	56.5	0	52	0.00	63	W 13	56	91	54
Wed Feb  3 09:09:08 2010	Denver, CO 80214  	30.7	0	30	0.00	31	NE 2	31	48	13
Wed Feb  3 09:09:09 2010	Memphis, TN 37501  	33.1	3	33	0.00	33	NNE 3	30	76	26
Wed Feb  3 09:09:11 2010	Los Angeles, CA 90001  	54.7	0	52	0.00	68	WNW 17	55	90	52
Wed Feb  3 09:09:12 2010	El Paso, TX 79901  	47.2	5	47	0.00	47	ESE 17	45	69	38
Wed Feb  3 09:09:14 2010	New York, NY 10001  	30.8	6	30	0.00	31	SSE 9	25	92	29
Wed Feb  3 09:09:16 2010	Baltimore, MD 21201  	29.8	1	30	0.00	31	ENE 7	30	96	29
Wed Feb  3 09:09:18 2010	Las Vegas, NV 89101  	45.0	2	41	0.00	59	NE 16	45	63	33
Wed Feb  3 09:09:19 2010	Washington, DC 20001  	32.0	3	31	0.00	32	NE 9	29	100	32
Wed Feb  3 09:09:22 2010	Austin, TX 73301  	45.5	2	45	0.00	46	NE 13	46	90	43
Wed Feb  3 09:09:23 2010	San Francisco, CA 94101  	53.5	2	50	0.00	59	SW 11	53	N/A	--
Wed Feb  3 09:09:25 2010	Oklahoma City, OK 73101  	27.1	0	27	0.00	30	SW 6	27	5	-37
Wed Feb  3 09:09:26 2010	Nashville, TN 37201  	37.7	2	38	0.00	39	NNW 12	38	72	29
Wed Feb  3 09:09:28 2010	Fort Worth, TX 76101  	40.1	4	40	0.00	43	ENE 8	38	95	39
Wed Feb  3 09:09:29 2010	Phoenix, AZ 85001  	59.9	2	60	0.00	60	W 7	60	48	40
Wed Feb  3 09:09:31 2010	Portland, OR 97201  	43.7	2	40	0.01	54	E 13	44	87	40
Wed Feb  3 09:09:33 2010	Chicago, IL 60601  	23.5	8	23	0.00	25	W 21	15	85	20
Wed Feb  3 09:09:34 2010	San Antonio, TX 78201  	45.9	9	46	0.13	46	NE 18	41	100	46
Wed Feb  3 09:09:36 2010	Indianapolis, IN 46201  	32.7	6	33	0.00	33	WNW 10	27	90	30
Wed Feb  3 09:09:37 2010	Boston, MA 02101  	26.4	0	26	0.00	28	NW 5	26	75	19
Wed Feb  3 09:09:39 2010	Jacksonville, FL 32099  	51.1	15	51	0.00	51	NNE 22	46	72	42
Wed Feb  3 09:09:41 2010	Columbus, OH 43085  	33.7	3	33	N/A	36	NNW 17	31	N/A	--
Wed Feb  3 09:09:42 2010	Dallas, TX 75201  	42.8	7	43	0.00	44	E 11	39	82	38
Wed Feb  3 09:09:44 2010	Houston, TX 77001  	50.5	6	51	0.00	52	ENE 12	48	79	44
Wed Feb  3 09:09:45 2010	Seattle, WA 98101  	45.0	1	43	0.01	54	SW 12	45	87	42
Wed Feb  3 09:09:47 2010	Milwaukee, WI 53201  	26.5	0	26	0.00	28	NW 11	27	100	27
Wed Feb  3 09:09:49 2010	Detroit, MI 48201  	26.8	2	26	0.00	28	WSW 6	27	96	26
Wed Feb  3 09:09:51 2010	Philadelphia, PA 19019  	31.7	2	30	0.00	32	NE 7	32	100	32
Wed Feb  3 09:52:44 2010	San Jose, CA 95101  	48.0	0	47	0.02	59	NW 6	48	92	46
Wed Feb  3 09:52:46 2010	Charlotte, NC 28201  	35.9	4	36	0.00	37	NW 8	33	100	36
Wed Feb  3 09:52:48 2010	San Diego, CA 92101  	54.3	0	54	0.00	56	NW 4	54	97	53
Wed Feb  3 09:52:52 2010	Denver, CO 80214  	30.0	0	30	0.00	34	SW 3	30	43	10
Wed Feb  3 09:52:55 2010	Memphis, TN 37501  	30.0	0	30	0.00	33	NNE 3	30	84	26
Wed Feb  3 09:52:57 2010	Los Angeles, CA 90001  	52.6	0	53	0.00	54	E 4	53	93	51
Wed Feb  3 09:52:58 2010	El Paso, TX 79901  	45.4	3	45	0.00	47	ESE 21	44	81	40
Wed Feb  3 09:53:00 2010	New York, NY 10001  	29.9	1	30	0.00	31	SSE 9	30	91	28
Wed Feb  3 09:53:03 2010	Baltimore, MD 21201  	29.7	2	30	0.00	31	ENE 7	30	96	29
Wed Feb  3 09:53:05 2010	Las Vegas, NV 89101  	44.1	1	44	0.00	45	NNW 2	44	65	33
Wed Feb  3 09:53:07 2010	Washington, DC 20001  	31.9	4	31	0.00	32	NE 9	28	100	32
Wed Feb  3 09:53:08 2010	Austin, TX 73301  	45.5	2	45	0.00	46	NE 13	46	90	43
Wed Feb  3 09:53:10 2010	San Francisco, CA 94101  	52.9	1	52	0.00	53	WSW 6	53	N/A	--
Wed Feb  3 09:53:11 2010	Oklahoma City, OK 73101  	27.0	0	27	0.00	30	SW 6	27	5	-37
Wed Feb  3 09:53:13 2010	Nashville, TN 37201  	37.3	2	37	0.00	39	NW 13	37	70	28
Wed Feb  3 09:53:15 2010	Fort Worth, TX 76101  	38.9	0	39	0.00	43	NE 10	39	99	39
Wed Feb  3 09:53:17 2010	Phoenix, AZ 85001  	55.9	3	56	0.00	60	W 7	56	62	43
Wed Feb  3 09:53:18 2010	Portland, OR 97201  	43.8	1	44	0.00	44	WNW 6	44	87	40
Wed Feb  3 09:53:19 2010	Chicago, IL 60601  	24.4	8	23	0.00	25	W 21	16	84	20
Wed Feb  3 09:53:21 2010	San Antonio, TX 78201  	45.8	4	46	0.18	46	NE 19	44	100	46
Wed Feb  3 09:53:22 2010	Indianapolis, IN 46201  	29.9	9	30	0.00	33	NW 14	22	96	29
Wed Feb  3 09:53:23 2010	Boston, MA 02101  	25.3	1	25	0.00	28	NW 5	25	90	23
Wed Feb  3 09:53:25 2010	Jacksonville, FL 32099  	51.1	12	51	0.00	51	NNE 22	47	72	42
Wed Feb  3 09:53:27 2010	Columbus, OH 43085  	33.2	5	33	N/A	36	NNW 17	29	N/A	--
Wed Feb  3 09:53:28 2010	Dallas, TX 75201  	41.0	9	41	0.00	44	E 15	35	87	38
Wed Feb  3 09:53:30 2010	Houston, TX 77001  	49.0	7	49	0.00	52	ENE 17	46	82	44
Wed Feb  3 09:53:32 2010	Seattle, WA 98101  	44.5	1	44	0.00	45	ENE 4	45	89	41
Wed Feb  3 09:53:33 2010	Milwaukee, WI 53201  	25.9	2	26	0.00	28	WNW 12	26	100	26
Wed Feb  3 09:53:34 2010	Detroit, MI 48201  	27.4	0	26	0.00	28	S 6	27	94	26
Wed Feb  3 09:53:36 2010	Philadelphia, PA 19019  	32.1	3	30	0.00	32	NE 7	29	100	32
Wed Feb  3 10:36:45 2010	San Jose, CA 95101  	48.0	0	47	0.02	59	NW 6	48	92	46
Wed Feb  3 10:36:46 2010	San Diego, CA 92101  	54.3	0	54	0.00	56	NW 4	54	97	53
Wed Feb  3 10:36:46 2010	Charlotte, NC 28201  	35.9	4	36	0.00	37	NW 8	33	100	36
Wed Feb  3 10:36:47 2010	Denver, CO 80214  	30.0	0	30	0.00	34	SW 3	30	43	10
Wed Feb  3 10:36:48 2010	Memphis, TN 37501  	30.0	0	30	0.00	33	NNE 3	30	84	26
Wed Feb  3 10:36:49 2010	Los Angeles, CA 90001  	52.6	0	53	0.00	54	E 4	53	93	51
Wed Feb  3 10:36:49 2010	El Paso, TX 79901  	45.4	3	45	0.00	47	ESE 21	44	81	40
Wed Feb  3 10:36:50 2010	New York, NY 10001  	29.9	1	30	0.00	31	SSE 9	30	91	28
Wed Feb  3 10:36:51 2010	Baltimore, MD 21201  	29.7	2	30	0.00	31	ENE 7	30	96	29
Wed Feb  3 10:36:53 2010	Las Vegas, NV 89101  	44.1	1	44	0.00	45	NNW 2	44	65	33
Wed Feb  3 10:36:55 2010	Washington, DC 20001  	31.9	4	31	0.00	32	NE 9	28	100	32
Wed Feb  3 10:36:57 2010	Austin, TX 73301  	44.5	4	45	0.00	46	NE 13	43	91	42
Wed Feb  3 10:36:58 2010	San Francisco, CA 94101  	52.9	1	52	0.00	53	WSW 6	53	N/A	--
Wed Feb  3 10:36:59 2010	Nashville, TN 37201  	37.3	2	37	0.00	39	NW 13	37	70	28
Wed Feb  3 10:36:59 2010	Oklahoma City, OK 73101  	27.0	0	27	0.00	30	SW 6	27	5	-37
Wed Feb  3 10:37:00 2010	Fort Worth, TX 76101  	38.9	0	39	0.00	43	NE 10	39	99	39
Wed Feb  3 10:37:01 2010	Phoenix, AZ 85001  	55.9	3	56	0.00	60	W 7	56	62	43
Wed Feb  3 10:37:02 2010	Portland, OR 97201  	43.8	1	44	0.00	44	WNW 6	44	87	40
Wed Feb  3 10:37:03 2010	Chicago, IL 60601  	24.4	8	23	0.00	25	W 21	16	84	20
Wed Feb  3 10:37:04 2010	San Antonio, TX 78201  	45.8	4	46	0.18	46	NE 19	44	100	46
Wed Feb  3 10:37:05 2010	Indianapolis, IN 46201  	29.9	9	30	0.00	33	NW 14	22	96	29
Wed Feb  3 10:37:05 2010	Boston, MA 02101  	25.3	1	25	0.00	28	NW 5	25	90	23
Wed Feb  3 10:37:07 2010	Jacksonville, FL 32099  	51.1	12	51	0.00	51	NNE 22	47	72	42
Wed Feb  3 10:37:07 2010	Columbus, OH 43085  	33.2	5	33	N/A	36	NNW 17	29	N/A	--
Wed Feb  3 10:37:08 2010	Dallas, TX 75201  	41.0	9	41	0.00	44	E 15	35	87	38
Wed Feb  3 10:37:09 2010	Houston, TX 77001  	49.0	7	49	0.00	52	ENE 17	46	82	44
Wed Feb  3 10:37:09 2010	Seattle, WA 98101  	44.5	1	44	0.00	45	ENE 4	45	89	41
Wed Feb  3 10:37:10 2010	Milwaukee, WI 53201  	25.9	2	26	0.00	28	WNW 12	26	100	26
Wed Feb  3 10:37:11 2010	Detroit, MI 48201  	27.4	0	26	0.00	28	S 6	27	94	26
Wed Feb  3 10:37:12 2010	Philadelphia, PA 19019  	32.1	3	30	0.00	32	NE 7	29	100	32
Wed Feb  3 11:23:38 2010	San Jose, CA 95101  	44.1	5	44	0.00	47	ESE 5	42	98	44
Wed Feb  3 11:23:41 2010	Charlotte, NC 28201  	34.5	1	34	0.00	37	NW 8	35	100	35
Wed Feb  3 11:23:44 2010	San Diego, CA 92101  	54.0	2	53	0.00	56	NNW 4	54	98	53
Wed Feb  3 11:23:48 2010	Denver, CO 80214  	27.6	0	27	0.00	34	SW 3	28	48	10
Wed Feb  3 11:23:51 2010	Memphis, TN 37501  	28.9	0	29	0.00	33	NNE 3	29	91	27
Wed Feb  3 11:23:54 2010	Los Angeles, CA 90001  	51.5	0	51	0.00	54	E 4	51	93	50
Wed Feb  3 11:23:56 2010	El Paso, TX 79901  	44.0	11	44	0.04	47	ESE 21	38	86	40
Wed Feb  3 11:23:59 2010	New York, NY 10001  	30.2	4	29	0.00	31	SSE 9	27	93	28
Wed Feb  3 11:24:02 2010	Baltimore, MD 21201  	29.9	2	29	0.00	31	ENE 7	30	94	28
Wed Feb  3 11:24:06 2010	Las Vegas, NV 89101  	42.7	2	42	0.00	45	NW 5	43	66	32
Wed Feb  3 11:24:09 2010	Washington, DC 20001  	31.4	2	31	0.00	32	NNW 10	31	100	31
Wed Feb  3 11:24:11 2010	Austin, TX 73301  	48.0	10	48	0.01	49	NE 10	43	88	45
Wed Feb  3 11:24:14 2010	San Francisco, CA 94101  	52.2	2	52	0.00	53	WSW 6	52	N/A	--
Wed Feb  3 11:24:16 2010	Oklahoma City, OK 73101  	27.0	0	27	0.00	30	SW 6	27	5	-37
Wed Feb  3 11:24:19 2010	Nashville, TN 37201  	37.4	1	37	0.00	39	NW 13	37	71	29
Wed Feb  3 11:24:24 2010	Fort Worth, TX 76101  	38.6	5	39	0.00	43	NE 10	35	100	39
Wed Feb  3 11:24:31 2010	Phoenix, AZ 85001  	55.6	4	55	0.00	60	SSW 7	56	61	42
Wed Feb  3 11:24:35 2010	Portland, OR 97201  	44.7	2	44	0.00	45	WNW 6	45	83	40
Wed Feb  3 11:24:38 2010	Chicago, IL 60601  	24.0	4	23	0.00	25	W 21	18	85	20
Wed Feb  3 11:24:41 2010	San Antonio, TX 78201  	45.5	6	45	0.32	46	NE 19	42	100	46
Wed Feb  3 11:24:46 2010	Indianapolis, IN 46201  	29.5	9	29	0.00	33	NW 14	21	86	26
Wed Feb  3 11:24:50 2010	Boston, MA 02101  	25.9	1	25	0.00	28	ENE 6	26	88	23
Wed Feb  3 11:24:52 2010	Jacksonville, FL 32099  	48.9	6	49	0.00	51	NNE 22	47	79	43
Wed Feb  3 11:24:55 2010	Columbus, OH 43085  	32.8	4	33	N/A	36	NNW 17	29	N/A	--
Wed Feb  3 11:24:57 2010	Dallas, TX 75201  	40.0	5	40	0.00	44	E 16	37	88	37
Wed Feb  3 11:24:59 2010	Houston, TX 77001  	47.2	4	47	0.00	52	E 19	46	86	43
Wed Feb  3 11:25:02 2010	Seattle, WA 98101  	44.0	3	44	0.00	45	NE 5	44	93	42
Wed Feb  3 11:25:05 2010	Milwaukee, WI 53201  	24.8	8	25	0.00	28	N 14	16	99	25
Wed Feb  3 11:25:09 2010	Detroit, MI 48201  	26.9	4	26	0.00	28	WSW 7	22	96	26
Wed Feb  3 11:25:11 2010	Philadelphia, PA 19019  	32.2	1	30	0.00	32	NE 7	32	100	32
Wed Feb  3 12:08:03 2010	San Jose, CA 95101  	44.1	5	44	0.00	47	ESE 5	42	98	44
Wed Feb  3 12:08:04 2010	San Diego, CA 92101  	54.0	2	53	0.00	56	NNW 4	54	98	53
Wed Feb  3 12:08:04 2010	Charlotte, NC 28201  	34.5	1	34	0.00	37	NW 8	35	100	35
Wed Feb  3 12:08:05 2010	Denver, CO 80214  	27.6	0	27	0.00	34	SW 3	28	48	10
Wed Feb  3 12:08:06 2010	Memphis, TN 37501  	28.9	0	29	0.00	33	NNE 3	29	91	27
Wed Feb  3 12:08:07 2010	Los Angeles, CA 90001  	51.5	0	51	0.00	54	E 4	51	93	50
Wed Feb  3 12:08:08 2010	El Paso, TX 79901  	44.0	11	44	0.04	47	ESE 21	38	86	40
Wed Feb  3 12:08:08 2010	New York, NY 10001  	30.2	4	29	0.00	31	SSE 9	27	93	28
Wed Feb  3 12:08:09 2010	Baltimore, MD 21201  	29.9	2	29	0.00	31	ENE 7	30	94	28
Wed Feb  3 12:08:10 2010	Washington, DC 20001  	31.4	2	31	0.00	32	NNW 10	31	100	31
Wed Feb  3 12:08:10 2010	Las Vegas, NV 89101  	42.7	2	42	0.00	45	NW 5	43	66	32
Wed Feb  3 12:08:11 2010	Austin, TX 73301  	48.0	10	48	0.01	49	NE 10	43	88	45
Wed Feb  3 12:08:12 2010	San Francisco, CA 94101  	52.2	2	52	0.00	53	WSW 6	52	N/A	--
Wed Feb  3 12:08:13 2010	Oklahoma City, OK 73101  	27.0	0	27	0.00	30	SW 6	27	5	-37
Wed Feb  3 12:08:14 2010	Nashville, TN 37201  	37.4	1	37	0.00	39	NW 13	37	71	29
Wed Feb  3 12:08:15 2010	Fort Worth, TX 76101  	38.6	5	39	0.00	43	NE 10	35	100	39
Wed Feb  3 12:08:16 2010	Phoenix, AZ 85001  	55.6	4	55	0.00	60	SSW 7	56	61	42
Wed Feb  3 12:08:16 2010	Portland, OR 97201  	44.7	2	44	0.00	45	WNW 6	45	83	40
Wed Feb  3 12:08:17 2010	Chicago, IL 60601  	24.0	4	23	0.00	25	W 21	18	85	20
Wed Feb  3 12:08:18 2010	San Antonio, TX 78201  	45.5	6	45	0.32	46	NE 19	42	100	46
Wed Feb  3 12:08:20 2010	Boston, MA 02101  	25.9	1	25	0.00	28	ENE 6	26	88	23
Wed Feb  3 12:08:20 2010	Indianapolis, IN 46201  	29.5	9	29	0.00	33	NW 14	21	86	26
Wed Feb  3 12:08:21 2010	Jacksonville, FL 32099  	48.9	6	49	0.00	51	NNE 22	47	79	43
Wed Feb  3 12:08:22 2010	Dallas, TX 75201  	40.0	5	40	0.00	44	E 16	37	88	37
Wed Feb  3 12:08:22 2010	Columbus, OH 43085  	32.8	4	33	N/A	36	NNW 17	29	N/A	--
Wed Feb  3 12:08:23 2010	Houston, TX 77001  	47.2	4	47	0.00	52	E 19	46	86	43
Wed Feb  3 12:08:24 2010	Milwaukee, WI 53201  	24.8	8	25	0.00	28	N 14	16	99	25
Wed Feb  3 12:08:24 2010	Seattle, WA 98101  	44.0	3	44	0.00	45	NE 5	44	93	42
Wed Feb  3 12:08:25 2010	Detroit, MI 48201  	26.9	4	26	0.00	28	WSW 7	22	96	26
Wed Feb  3 12:08:26 2010	Philadelphia, PA 19019  	32.2	1	30	0.00	32	NE 7	32	100	32
Wed Feb  3 12:50:52 2010	San Jose, CA 95101  	46.0	3	44	0.00	47	ESE 5	45	91	44
Wed Feb  3 12:50:55 2010	Charlotte, NC 28201  	34.1	1	34	0.00	37	NW 8	34	100	34
Wed Feb  3 12:50:56 2010	San Diego, CA 92101  	54.0	1	53	0.00	56	NNE 5	54	98	53
Wed Feb  3 12:51:03 2010	Denver, CO 80214  	31.7	1	25	0.00	34	SSW 4	32	37	8
Wed Feb  3 12:51:05 2010	Memphis, TN 37501  	28.9	0	29	0.00	33	NNE 3	29	87	25
Wed Feb  3 12:51:06 2010	Los Angeles, CA 90001  	50.4	0	50	0.00	54	E 4	50	94	49
Wed Feb  3 12:51:12 2010	El Paso, TX 79901  	43.3	3	43	0.08	47	ESE 21	42	88	40
Wed Feb  3 12:51:13 2010	New York, NY 10001  	31.5	0	29	0.00	32	SSE 9	32	91	29
Wed Feb  3 12:51:15 2010	Baltimore, MD 21201  	29.3	3	29	0.00	31	ENE 7	29	94	28
Wed Feb  3 12:51:17 2010	Las Vegas, NV 89101  	41.1	0	41	0.00	45	NW 5	41	69	32
Wed Feb  3 12:51:18 2010	Washington, DC 20001  	32.1	3	31	0.00	32	NNW 10	29	100	32
Wed Feb  3 12:51:20 2010	Austin, TX 73301  	46.4	8	46	0.07	49	NE 10	42	93	45
Wed Feb  3 12:51:21 2010	San Francisco, CA 94101  	50.7	1	51	0.00	53	WSW 6	51	N/A	--
Wed Feb  3 12:51:23 2010	Oklahoma City, OK 73101  	27.0	0	27	0.00	30	SW 6	27	5	-37
Wed Feb  3 12:51:24 2010	Nashville, TN 37201  	37.2	0	37	0.00	39	NW 13	37	71	29
Wed Feb  3 12:51:26 2010	Fort Worth, TX 76101  	37.5	8	38	0.00	43	ENE 11	31	100	38
Wed Feb  3 12:51:27 2010	Phoenix, AZ 85001  	55.7	1	55	0.00	60	SSW 7	56	58	41
Wed Feb  3 12:51:29 2010	Portland, OR 97201  	44.6	2	44	0.00	45	SSE 10	45	81	39
Wed Feb  3 12:51:31 2010	Chicago, IL 60601  	24.0	5	23	0.00	25	W 21	18	85	20
Wed Feb  3 12:51:32 2010	San Antonio, TX 78201  	45.7	11	45	0.60	46	NE 19	40	100	46
Wed Feb  3 12:51:34 2010	Indianapolis, IN 46201  	25.8	2	26	0.00	33	NW 14	26	87	22
Wed Feb  3 12:51:38 2010	Boston, MA 02101  	25.4	2	24	0.00	28	SSW 6	25	87	22
Wed Feb  3 12:51:40 2010	Jacksonville, FL 32099  	46.9	3	47	0.00	51	NNE 22	46	85	43
Wed Feb  3 12:51:42 2010	Columbus, OH 43085  	32.7	4	33	N/A	36	NNW 17	29	N/A	--
Wed Feb  3 12:51:43 2010	Dallas, TX 75201  	40.7	3	40	0.00	44	E 16	41	89	38
Wed Feb  3 12:51:44 2010	Houston, TX 77001  	46.3	10	46	0.00	52	E 19	41	88	43
Wed Feb  3 12:51:46 2010	Seattle, WA 98101  	44.4	0	44	0.00	45	NE 5	44	87	41
Wed Feb  3 12:51:58 2010	Milwaukee, WI 53201  	22.4	3	22	0.00	28	N 14	18	100	22
Wed Feb  3 12:52:00 2010	Detroit, MI 48201  	27.6	3	26	0.00	28	WSW 7	24	96	26
Wed Feb  3 12:52:01 2010	Philadelphia, PA 19019  	32.1	1	30	0.00	32	NE 7	32	100	32
Wed Feb  3 13:36:01 2010	San Jose, CA 95101  	46.0	3	44	0.00	47	ESE 5	45	91	44
Wed Feb  3 13:36:03 2010	Charlotte, NC 28201  	34.1	1	34	0.00	37	NW 8	34	100	34
Wed Feb  3 13:36:06 2010	San Diego, CA 92101  	54.0	1	53	0.00	56	NNE 5	54	98	53
Wed Feb  3 13:36:09 2010	Denver, CO 80214  	31.7	1	25	0.00	34	SSW 4	32	37	8
Wed Feb  3 13:36:11 2010	Memphis, TN 37501  	28.9	0	29	0.00	33	NNE 3	29	87	25
Wed Feb  3 13:36:13 2010	Los Angeles, CA 90001  	50.4	0	50	0.00	54	E 4	50	94	49
Wed Feb  3 13:36:15 2010	El Paso, TX 79901  	43.3	3	43	0.08	47	ESE 21	42	88	40
Wed Feb  3 13:36:17 2010	New York, NY 10001  	31.5	0	29	0.00	32	SSE 9	32	91	29
Wed Feb  3 13:36:19 2010	Baltimore, MD 21201  	29.3	3	29	0.00	31	ENE 7	29	94	28
Wed Feb  3 13:36:21 2010	Las Vegas, NV 89101  	41.1	0	41	0.00	45	NW 5	41	69	32
Wed Feb  3 13:36:34 2010	Washington, DC 20001  	32.0	1	31	0.00	32	NNW 10	32	100	32
Wed Feb  3 13:36:37 2010	Austin, TX 73301  	42.7	4	42	0.22	46	ENE 14	41	100	43
Wed Feb  3 13:36:39 2010	San Francisco, CA 94101  	50.7	1	51	0.00	53	WSW 6	51	N/A	--
Wed Feb  3 13:36:41 2010	Oklahoma City, OK 73101  	27.0	0	27	0.00	30	SW 6	27	5	-37
Wed Feb  3 13:36:43 2010	Nashville, TN 37201  	37.2	0	37	0.00	39	NW 13	37	71	29
Wed Feb  3 13:36:52 2010	Fort Worth, TX 76101  	37.5	8	38	0.00	43	ENE 11	31	100	38
Wed Feb  3 13:36:54 2010	Phoenix, AZ 85001  	55.7	1	55	0.00	60	SSW 7	56	58	41
Wed Feb  3 13:36:56 2010	Portland, OR 97201  	44.6	2	44	0.00	45	SSE 10	45	81	39
Wed Feb  3 13:36:58 2010	Chicago, IL 60601  	24.0	5	23	0.00	25	W 21	18	85	20
Wed Feb  3 13:37:00 2010	San Antonio, TX 78201  	45.7	11	45	0.60	46	NE 19	40	100	46
Wed Feb  3 13:37:02 2010	Indianapolis, IN 46201  	25.8	2	26	0.00	33	NW 14	26	87	22
Wed Feb  3 13:37:04 2010	Boston, MA 02101  	25.4	2	24	0.00	28	SSW 6	25	87	22
Wed Feb  3 13:37:06 2010	Jacksonville, FL 32099  	46.9	3	47	0.00	51	NNE 22	46	85	43
Wed Feb  3 13:37:10 2010	Columbus, OH 43085  	32.7	4	33	N/A	36	NNW 17	29	N/A	--
Wed Feb  3 13:37:12 2010	Dallas, TX 75201  	40.7	3	40	0.00	44	E 16	41	89	38
Wed Feb  3 13:37:14 2010	Houston, TX 77001  	46.3	10	46	0.00	52	E 19	41	88	43
Wed Feb  3 13:37:16 2010	Seattle, WA 98101  	44.4	0	44	0.00	45	NE 5	44	87	41
Wed Feb  3 13:37:18 2010	Milwaukee, WI 53201  	22.4	3	22	0.00	28	N 14	18	100	22
Wed Feb  3 13:37:20 2010	Detroit, MI 48201  	27.6	3	26	0.00	28	WSW 7	24	96	26
Wed Feb  3 13:37:22 2010	Philadelphia, PA 19019  	32.1	1	30	0.00	32	NE 7	32	100	32
Wed Feb  3 14:21:31 2010	San Jose, CA 95101  	45.0	0	44	0.00	47	ESE 5	45	98	44
Wed Feb  3 14:21:34 2010	Charlotte, NC 28201  	34.2	0	34	0.00	37	NW 8	34	100	34
Wed Feb  3 14:21:38 2010	San Diego, CA 92101  	55.4	2	53	0.00	56	NNE 5	55	91	53
Wed Feb  3 14:21:41 2010	Denver, CO 80214  	28.2	0	25	0.00	34	SSW 4	28	43	8
Wed Feb  3 14:21:43 2010	Memphis, TN 37501  	28.0	0	28	0.00	33	NNE 3	28	87	25
Wed Feb  3 14:21:46 2010	Los Angeles, CA 90001  	49.0	0	49	0.00	54	E 4	49	93	47
Wed Feb  3 14:21:50 2010	El Paso, TX 79901  	42.3	7	42	0.15	47	ESE 23	38	89	39
Wed Feb  3 14:21:53 2010	New York, NY 10001  	30.2	2	29	0.00	32	SSE 9	30	91	28
Wed Feb  3 14:21:55 2010	Baltimore, MD 21201  	29.2	4	29	0.00	31	ENE 7	25	94	28
Wed Feb  3 14:21:58 2010	Las Vegas, NV 89101  	38.8	0	39	0.00	45	NW 5	39	76	32
Wed Feb  3 14:22:01 2010	Washington, DC 20001  	32.1	4	31	0.00	32	NNW 10	28	100	32
Wed Feb  3 14:22:05 2010	Austin, TX 73301  	46.9	9	46	0.29	49	NE 10	43	99	47
Wed Feb  3 14:22:08 2010	San Francisco, CA 94101  	50.2	2	50	0.00	53	SE 7	50	N/A	--
Wed Feb  3 14:22:11 2010	Oklahoma City, OK 73101  	27.1	0	27	0.00	30	SW 6	27	5	-37
Wed Feb  3 14:22:14 2010	Nashville, TN 37201  	38.2	2	37	0.00	39	NW 13	38	69	29
Wed Feb  3 14:22:17 2010	Fort Worth, TX 76101  	38.6	2	37	0.00	43	E 12	39	98	38
Wed Feb  3 14:22:21 2010	Phoenix, AZ 85001  	54.4	3	54	0.00	60	SSW 7	54	61	41
Wed Feb  3 14:22:24 2010	Portland, OR 97201  	43.5	2	43	0.00	45	SSE 10	43	96	42
Wed Feb  3 14:22:28 2010	Chicago, IL 60601  	23.6	7	23	0.00	25	W 21	16	84	20
Wed Feb  3 14:22:30 2010	San Antonio, TX 78201  	45.8	6	45	0.81	46	NE 21	43	100	46
Wed Feb  3 14:22:33 2010	Indianapolis, IN 46201  	25.1	6	25	0.00	33	NW 14	18	89	22
Wed Feb  3 14:22:38 2010	Boston, MA 02101  	26.4	1	24	0.00	28	SSW 6	26	90	24
Wed Feb  3 14:22:40 2010	Jacksonville, FL 32099  	46.9	9	47	0.00	51	NNE 22	43	81	42
Wed Feb  3 14:22:43 2010	Columbus, OH 43085  	31.7	5	31	N/A	36	NNW 17	26	N/A	--
Wed Feb  3 14:22:46 2010	Dallas, TX 75201  	42.3	5	40	0.00	44	E 16	40	87	39
Wed Feb  3 14:22:49 2010	Houston, TX 77001  	45.5	11	45	0.01	52	E 19	40	91	43
Wed Feb  3 14:22:52 2010	Seattle, WA 98101  	42.9	4	43	0.01	45	NE 9	41	82	38
Wed Feb  3 14:22:55 2010	Milwaukee, WI 53201  	21.9	2	22	0.00	28	N 14	22	100	22
Wed Feb  3 14:22:58 2010	Detroit, MI 48201  	28.0	5	26	0.00	28	SSW 9	22	95	27
Wed Feb  3 14:23:01 2010	Philadelphia, PA 19019  	31.9	2	30	0.00	32	NE 7	32	100	32
Wed Feb  3 15:07:23 2010	San Jose, CA 95101  	45.0	0	44	0.00	47	ESE 5	45	98	44
Wed Feb  3 15:07:27 2010	Charlotte, NC 28201  	34.2	0	34	0.00	37	NW 8	34	100	34
Wed Feb  3 15:07:29 2010	San Diego, CA 92101  	55.4	2	53	0.00	56	NNE 5	55	91	53
Wed Feb  3 15:07:35 2010	Denver, CO 80214  	28.2	0	25	0.00	34	SSW 4	28	43	8
Wed Feb  3 15:07:36 2010	Memphis, TN 37501  	28.0	0	28	0.00	33	NNE 3	28	87	25
Wed Feb  3 15:07:39 2010	Los Angeles, CA 90001  	49.0	0	49	0.00	54	E 4	49	93	47
Wed Feb  3 15:07:41 2010	El Paso, TX 79901  	42.3	7	42	0.15	47	ESE 23	38	89	39
Wed Feb  3 15:07:43 2010	New York, NY 10001  	30.2	2	29	0.00	32	SSE 9	30	91	28
Wed Feb  3 15:07:45 2010	Baltimore, MD 21201  	29.2	4	29	0.00	31	ENE 7	25	94	28
Wed Feb  3 15:07:47 2010	Las Vegas, NV 89101  	38.8	0	39	0.00	45	NW 5	39	76	32
Wed Feb  3 15:07:49 2010	Washington, DC 20001  	32.1	4	31	0.00	32	NNW 10	28	100	32
Wed Feb  3 15:07:55 2010	Austin, TX 73301  	46.9	9	46	0.29	49	NE 10	43	99	47
Wed Feb  3 15:07:58 2010	San Francisco, CA 94101  	50.2	2	50	0.00	53	SE 7	50	N/A	--
Wed Feb  3 15:08:01 2010	Oklahoma City, OK 73101  	27.1	0	27	0.00	30	SW 6	27	5	-37
Wed Feb  3 15:08:06 2010	Nashville, TN 37201  	38.2	2	37	0.00	39	NW 13	38	69	29
Wed Feb  3 15:08:09 2010	Fort Worth, TX 76101  	38.6	2	37	0.00	43	E 12	39	98	38
Wed Feb  3 15:08:10 2010	Phoenix, AZ 85001  	54.4	3	54	0.00	60	SSW 7	54	61	41
Wed Feb  3 15:08:13 2010	Portland, OR 97201  	43.5	2	43	0.00	45	SSE 10	43	96	42
Wed Feb  3 15:08:15 2010	Chicago, IL 60601  	23.6	7	23	0.00	25	W 21	16	84	20
Wed Feb  3 15:08:18 2010	San Antonio, TX 78201  	45.8	6	45	0.81	46	NE 21	43	100	46
Wed Feb  3 15:08:20 2010	Indianapolis, IN 46201  	25.1	6	25	0.00	33	NW 14	18	89	22
Wed Feb  3 15:08:22 2010	Boston, MA 02101  	26.4	1	24	0.00	28	SSW 6	26	90	24
Wed Feb  3 15:08:23 2010	Jacksonville, FL 32099  	46.9	9	47	0.00	51	NNE 22	43	81	42
Wed Feb  3 15:08:26 2010	Columbus, OH 43085  	31.7	5	31	N/A	36	NNW 17	26	N/A	--
Wed Feb  3 15:08:28 2010	Dallas, TX 75201  	42.3	5	40	0.00	44	E 16	40	87	39
Wed Feb  3 15:08:30 2010	Houston, TX 77001  	45.5	11	45	0.01	52	E 19	40	91	43
Wed Feb  3 15:08:33 2010	Seattle, WA 98101  	42.9	4	43	0.01	45	NE 9	41	82	38
Wed Feb  3 15:08:35 2010	Milwaukee, WI 53201  	21.9	2	22	0.00	28	N 14	22	100	22
Wed Feb  3 15:08:38 2010	Detroit, MI 48201  	28.0	5	26	0.00	28	SSW 9	22	95	27
Wed Feb  3 15:08:41 2010	Philadelphia, PA 19019  	31.9	2	30	0.00	32	NE 7	32	100	32
Wed Feb  3 15:52:30 2010	San Jose, CA 95101  	44.1	3	44	0.00	47	ESE 5	43	94	42
Wed Feb  3 15:52:33 2010	Charlotte, NC 28201  	35.0	0	34	0.00	37	NW 8	35	100	35
Wed Feb  3 15:52:36 2010	San Diego, CA 92101  	56.0	1	53	0.00	56	NNE 5	56	90	53
Wed Feb  3 15:52:38 2010	Denver, CO 80214  	28.2	0	25	0.00	34	SSW 4	28	46	10
Wed Feb  3 15:52:42 2010	Memphis, TN 37501  	30.9	0	28	0.00	33	NNE 3	31	88	28
Wed Feb  3 15:52:46 2010	Los Angeles, CA 90001  	48.3	0	48	0.00	54	ENE 5	48	90	46
Wed Feb  3 15:52:55 2010	El Paso, TX 79901  	43.2	10	42	0.23	47	ESE 23	38	86	39
Wed Feb  3 15:52:59 2010	New York, NY 10001  	31.9	0	29	0.00	32	SSE 9	32	88	29
Wed Feb  3 15:53:02 2010	Baltimore, MD 21201  	32.9	7	29	0.00	34	ENE 7	27	85	29
Wed Feb  3 15:53:09 2010	Las Vegas, NV 89101  	37.9	0	38	0.00	45	NW 5	38	77	31
Wed Feb  3 15:53:12 2010	Washington, DC 20001  	32.4	6	31	0.00	33	WNW 12	27	100	32
Wed Feb  3 15:53:15 2010	Austin, TX 73301  	48.0	12	46	0.38	49	ENE 12	43	95	47
Wed Feb  3 15:53:19 2010	San Francisco, CA 94101  	50.0	3	50	0.00	53	SE 7	50	N/A	--
Wed Feb  3 15:53:21 2010	Oklahoma City, OK 73101  	29.7	0	27	0.00	30	SW 6	30	68	20
Wed Feb  3 15:53:29 2010	Nashville, TN 37201  	40.2	3	37	0.00	40	NW 13	38	65	29
Wed Feb  3 15:53:33 2010	Fort Worth, TX 76101  	40.1	7	37	0.00	43	E 12	36	97	39
Wed Feb  3 15:53:37 2010	Phoenix, AZ 85001  	52.9	4	53	0.00	60	SSW 7	53	67	42
Wed Feb  3 15:53:40 2010	Portland, OR 97201  	43.2	0	43	0.04	45	SSE 10	43	100	43
Wed Feb  3 15:53:43 2010	Chicago, IL 60601  	24.7	7	23	0.00	25	W 21	17	84	21
Wed Feb  3 15:53:46 2010	San Antonio, TX 78201  	45.8	6	45	1.13	46	NE 21	43	100	46
Wed Feb  3 15:53:52 2010	Indianapolis, IN 46201  	25.0	3	24	0.00	33	NW 14	21	89	22
Wed Feb  3 15:53:55 2010	Boston, MA 02101  	25.7	5	24	0.00	28	NW 8	20	92	24
Wed Feb  3 15:54:02 2010	Jacksonville, FL 32099  	48.0	15	47	0.00	51	NNE 22	42	76	41
Wed Feb  3 15:54:05 2010	Columbus, OH 43085  	34.0	7	31	N/A	36	NNW 17	28	N/A	--
Wed Feb  3 15:54:09 2010	Dallas, TX 75201  	42.9	0	40	0.00	44	E 16	43	88	40
Wed Feb  3 15:54:12 2010	Houston, TX 77001  	45.7	12	45	0.01	52	ENE 28	40	86	42
Wed Feb  3 15:54:16 2010	Seattle, WA 98101  	43.4	1	43	0.01	45	NE 9	43	79	37
Wed Feb  3 15:54:19 2010	Milwaukee, WI 53201  	23.0	8	22	0.00	28	NNW 15	14	98	23
Wed Feb  3 15:54:23 2010	Detroit, MI 48201  	27.8	7	26	0.00	29	WNW 18	20	83	23
Wed Feb  3 15:54:26 2010	Philadelphia, PA 19019  	33.7	4	30	0.00	34	W 9	30	100	34
Wed Feb  3 16:40:26 2010	San Jose, CA 95101  	44.1	3	44	0.00	47	ESE 5	43	94	42
Wed Feb  3 16:40:28 2010	Charlotte, NC 28201  	35.0	0	34	0.00	37	NW 8	35	100	35
Wed Feb  3 16:40:30 2010	San Diego, CA 92101  	56.0	1	53	0.00	56	NNE 5	56	90	53
Wed Feb  3 16:40:33 2010	Denver, CO 80214  	28.2	0	25	0.00	34	SSW 4	28	46	10
Wed Feb  3 16:40:34 2010	Memphis, TN 37501  	30.9	0	28	0.00	33	NNE 3	31	88	28
Wed Feb  3 16:40:37 2010	Los Angeles, CA 90001  	48.3	0	48	0.00	54	ENE 5	48	90	46
Wed Feb  3 16:40:39 2010	El Paso, TX 79901  	43.2	10	42	0.23	47	ESE 23	38	86	39
Wed Feb  3 16:40:41 2010	New York, NY 10001  	31.9	0	29	0.00	32	SSE 9	32	88	29
Wed Feb  3 16:40:43 2010	Baltimore, MD 21201  	32.9	7	29	0.00	34	ENE 7	27	85	29
Wed Feb  3 16:40:44 2010	Las Vegas, NV 89101  	37.9	0	38	0.00	45	NW 5	38	77	31
Wed Feb  3 16:40:46 2010	Washington, DC 20001  	32.4	6	31	0.00	33	WNW 12	27	100	32
Wed Feb  3 16:40:48 2010	Austin, TX 73301  	48.0	12	46	0.38	49	ENE 12	43	95	47
Wed Feb  3 16:40:50 2010	San Francisco, CA 94101  	50.0	3	50	0.00	53	SE 7	50	N/A	--
Wed Feb  3 16:40:52 2010	Oklahoma City, OK 73101  	29.7	0	27	0.00	30	SW 6	30	68	20
Wed Feb  3 16:40:54 2010	Nashville, TN 37201  	40.2	3	37	0.00	40	NW 13	38	65	29
Wed Feb  3 16:40:56 2010	Fort Worth, TX 76101  	40.1	7	37	0.00	43	E 12	36	97	39
Wed Feb  3 16:40:58 2010	Phoenix, AZ 85001  	52.9	4	53	0.00	60	SSW 7	53	67	42
Wed Feb  3 16:41:00 2010	Portland, OR 97201  	43.2	0	43	0.04	45	SSE 10	43	100	43
Wed Feb  3 16:41:03 2010	Chicago, IL 60601  	24.7	7	23	0.00	25	W 21	17	84	21
Wed Feb  3 16:41:05 2010	San Antonio, TX 78201  	45.8	6	45	1.13	46	NE 21	43	100	46
Wed Feb  3 16:41:07 2010	Indianapolis, IN 46201  	25.0	3	24	0.00	33	NW 14	21	89	22
Wed Feb  3 16:41:11 2010	Boston, MA 02101  	25.7	5	24	0.00	28	NW 8	20	92	24
Wed Feb  3 16:41:13 2010	Jacksonville, FL 32099  	48.0	15	47	0.00	51	NNE 22	42	76	41
Wed Feb  3 16:41:16 2010	Columbus, OH 43085  	34.0	7	31	N/A	36	NNW 17	28	N/A	--
Wed Feb  3 16:41:18 2010	Dallas, TX 75201  	42.9	0	40	0.00	44	E 16	43	88	40
Wed Feb  3 16:41:20 2010	Houston, TX 77001  	45.7	12	45	0.01	52	ENE 28	40	86	42
Wed Feb  3 16:41:22 2010	Seattle, WA 98101  	43.4	1	43	0.01	45	NE 9	43	79	37
Wed Feb  3 16:41:24 2010	Milwaukee, WI 53201  	23.0	8	22	0.00	28	NNW 15	14	98	23
Wed Feb  3 16:41:26 2010	Detroit, MI 48201  	27.8	7	26	0.00	29	WNW 18	20	83	23
Wed Feb  3 16:41:29 2010	Philadelphia, PA 19019  	33.7	4	30	0.00	34	W 9	30	100	34
Wed Feb  3 17:28:13 2010	San Jose, CA 95101  	46.0	5	44	0.00	47	ESE 5	44	88	43
Wed Feb  3 17:28:18 2010	Charlotte, NC 28201  	39.6	1	34	0.00	40	NW 8	40	95	38
Wed Feb  3 17:28:23 2010	San Diego, CA 92101  	55.7	2	53	0.00	56	NNE 5	56	90	53
Wed Feb  3 17:28:26 2010	Denver, CO 80214  	40.0	2	25	0.00	40	SSW 4	40	32	12
Wed Feb  3 17:28:29 2010	Memphis, TN 37501  	39.9	7	28	0.00	40	NE 7	35	69	31
Wed Feb  3 17:28:33 2010	Los Angeles, CA 90001  	55.2	0	48	0.00	55	ENE 5	55	77	48
Wed Feb  3 17:28:36 2010	El Paso, TX 79901  	43.1	7	42	0.28	47	ESE 23	39	90	40
Wed Feb  3 17:28:43 2010	New York, NY 10001  	32.8	5	29	0.01	33	WNW 10	28	86	29
Wed Feb  3 17:28:46 2010	Baltimore, MD 21201  	35.4	4	29	0.00	36	NNW 9	32	80	30
Wed Feb  3 17:28:50 2010	Las Vegas, NV 89101  	42.3	0	38	0.00	45	NW 5	42	64	31
Wed Feb  3 17:28:53 2010	Washington, DC 20001  	36.4	4	31	0.00	37	WNW 12	33	89	34
Wed Feb  3 17:28:57 2010	Austin, TX 73301  	48.0	10	46	0.50	49	ENE 12	43	88	45
Wed Feb  3 17:29:01 2010	San Francisco, CA 94101  	50.6	7	50	0.00	53	E 9	48	N/A	--
Wed Feb  3 17:29:09 2010	Oklahoma City, OK 73101  	34.4	1	27	0.02	34	SE 6	34	92	32
Wed Feb  3 17:29:13 2010	Nashville, TN 37201  	43.0	5	37	0.00	43	NW 13	40	60	30
Wed Feb  3 17:29:15 2010	Fort Worth, TX 76101  	43.9	3	37	0.00	44	E 12	43	91	42
Wed Feb  3 17:29:19 2010	Phoenix, AZ 85001  	56.8	3	53	0.00	60	SSW 7	57	56	42
Wed Feb  3 17:29:25 2010	Portland, OR 97201  	44.2	2	43	0.04	45	SSE 10	44	90	42
Wed Feb  3 17:29:29 2010	Chicago, IL 60601  	27.2	0	23	0.00	27	W 21	27	80	22
Wed Feb  3 17:29:33 2010	San Antonio, TX 78201  	46.3	6	45	1.37	47	NE 25	43	100	46
Wed Feb  3 17:29:36 2010	Indianapolis, IN 46201  	26.6	1	24	0.00	33	NW 14	27	86	23
Wed Feb  3 17:29:39 2010	Boston, MA 02101  	28.2	1	24	0.00	29	NW 8	28	82	23
Wed Feb  3 17:29:42 2010	Jacksonville, FL 32099  	52.0	10	47	0.00	52	NNE 22	48	66	41
Wed Feb  3 17:29:45 2010	Columbus, OH 43085  	34.6	5	31	N/A	36	NNW 17	30	N/A	--
Wed Feb  3 17:29:48 2010	Dallas, TX 75201  	44.7	2	40	0.00	45	E 16	45	85	41
Wed Feb  3 17:29:51 2010	Houston, TX 77001  	46.5	11	45	0.02	52	ENE 28	41	85	42
Wed Feb  3 17:29:54 2010	Seattle, WA 98101  	44.5	0	43	0.01	45	NE 9	45	78	38
Wed Feb  3 17:29:57 2010	Milwaukee, WI 53201  	24.4	5	22	0.00	28	NNW 15	18	88	21
Wed Feb  3 17:30:01 2010	Detroit, MI 48201  	29.0	4	26	0.00	29	WNW 18	25	80	24
Wed Feb  3 17:30:04 2010	Philadelphia, PA 19019  	33.3	7	30	0.01	34	NNW 11	27	94	32
Wed Feb  3 18:13:01 2010	San Jose, CA 95101  	46.0	5	44	0.00	47	ESE 5	44	88	43
Wed Feb  3 18:13:02 2010	San Diego, CA 92101  	55.7	2	53	0.00	56	NNE 5	56	90	53
Wed Feb  3 18:13:02 2010	Charlotte, NC 28201  	39.6	1	34	0.00	40	NW 8	40	95	38
Wed Feb  3 18:13:03 2010	Denver, CO 80214  	40.0	2	25	0.00	40	SSW 4	40	32	12
Wed Feb  3 18:13:05 2010	Memphis, TN 37501  	39.9	7	28	0.00	40	NE 7	35	69	31
Wed Feb  3 18:13:06 2010	Los Angeles, CA 90001  	55.2	0	48	0.00	55	ENE 5	55	77	48
Wed Feb  3 18:13:07 2010	El Paso, TX 79901  	43.1	7	42	0.28	47	ESE 23	39	90	40
Wed Feb  3 18:13:08 2010	New York, NY 10001  	32.8	5	29	0.01	33	WNW 10	28	86	29
Wed Feb  3 18:13:09 2010	Baltimore, MD 21201  	35.4	4	29	0.00	36	NNW 9	32	80	30
Wed Feb  3 18:13:10 2010	Las Vegas, NV 89101  	42.3	0	38	0.00	45	NW 5	42	64	31
Wed Feb  3 18:13:10 2010	Washington, DC 20001  	36.4	4	31	0.00	37	WNW 12	33	89	34
Wed Feb  3 18:13:11 2010	Austin, TX 73301  	48.0	10	46	0.50	49	ENE 12	43	88	45
Wed Feb  3 18:13:12 2010	San Francisco, CA 94101  	50.6	7	50	0.00	53	E 9	48	N/A	--
Wed Feb  3 18:13:13 2010	Oklahoma City, OK 73101  	34.4	1	27	0.02	34	SE 6	34	92	32
Wed Feb  3 18:13:14 2010	Nashville, TN 37201  	43.0	5	37	0.00	43	NW 13	40	60	30
Wed Feb  3 18:13:15 2010	Fort Worth, TX 76101  	43.9	3	37	0.00	44	E 12	43	91	42
Wed Feb  3 18:13:15 2010	Phoenix, AZ 85001  	56.8	3	53	0.00	60	SSW 7	57	56	42
Wed Feb  3 18:13:17 2010	Portland, OR 97201  	44.2	2	43	0.04	45	SSE 10	44	90	42
Wed Feb  3 18:13:17 2010	Chicago, IL 60601  	27.2	0	23	0.00	27	W 21	27	80	22
Wed Feb  3 18:13:18 2010	San Antonio, TX 78201  	46.3	6	45	1.37	47	NE 25	43	100	46
Wed Feb  3 18:13:19 2010	Indianapolis, IN 46201  	26.6	1	24	0.00	33	NW 14	27	86	23
Wed Feb  3 18:13:20 2010	Jacksonville, FL 32099  	52.0	10	47	0.00	52	NNE 22	48	66	41
Wed Feb  3 18:13:20 2010	Boston, MA 02101  	28.2	1	24	0.00	29	NW 8	28	82	23
Wed Feb  3 18:13:21 2010	Columbus, OH 43085  	34.6	5	31	N/A	36	NNW 17	30	N/A	--
Wed Feb  3 18:13:22 2010	Dallas, TX 75201  	44.7	2	40	0.00	45	E 16	45	85	41
Wed Feb  3 18:13:23 2010	Houston, TX 77001  	46.5	11	45	0.02	52	ENE 28	41	85	42
Wed Feb  3 18:13:24 2010	Seattle, WA 98101  	44.5	0	43	0.01	45	NE 9	45	78	38
Wed Feb  3 18:13:25 2010	Milwaukee, WI 53201  	24.4	5	22	0.00	28	NNW 15	18	88	21
Wed Feb  3 18:13:26 2010	Philadelphia, PA 19019  	33.3	7	30	0.01	34	NNW 11	27	94	32
Wed Feb  3 18:13:26 2010	Detroit, MI 48201  	29.0	4	26	0.00	29	WNW 18	25	80	24
Wed Feb  3 18:56:00 2010	San Jose, CA 95101  	48.9	3	44	0.00	49	ESE 5	48	92	47
Wed Feb  3 18:56:01 2010	Charlotte, NC 28201  	44.7	6	34	0.00	46	WNW 8	41	67	34
Wed Feb  3 18:56:03 2010	San Diego, CA 92101  	57.9	5	53	0.00	59	W 10	58	79	52
Wed Feb  3 18:56:05 2010	Denver, CO 80214  	44.7	1	25	0.00	47	SSE 5	45	25	10
Wed Feb  3 18:56:06 2010	Memphis, TN 37501  	43.0	5	28	0.00	43	NE 7	40	60	30
Wed Feb  3 18:56:16 2010	Los Angeles, CA 90001  	62.7	0	48	0.00	63	ENE 5	63	52	45
Wed Feb  3 18:56:21 2010	El Paso, TX 79901  	43.5	8	42	0.33	47	ESE 23	39	90	41
Wed Feb  3 18:56:23 2010	New York, NY 10001  	36.8	3	29	0.08	37	NW 12	37	73	29
Wed Feb  3 18:56:25 2010	Baltimore, MD 21201  	38.6	10	29	0.19	39	NW 13	32	71	30
Wed Feb  3 18:56:27 2010	Las Vegas, NV 89101  	49.7	4	38	0.00	50	NE 7	48	50	32
Wed Feb  3 18:56:29 2010	Washington, DC 20001  	39.8	1	31	0.09	40	NW 14	40	86	36
Wed Feb  3 18:56:31 2010	Austin, TX 73301  	48.2	8	46	0.52	49	ENE 12	45	87	45
Wed Feb  3 18:56:33 2010	San Francisco, CA 94101  	53.7	5	50	0.00	54	ESE 10	53	N/A	--
Wed Feb  3 18:56:35 2010	Oklahoma City, OK 73101  	35.2	2	27	0.08	35	SE 9	35	94	34
Wed Feb  3 18:56:37 2010	Nashville, TN 37201  	45.3	5	37	0.00	47	NW 13	43	56	31
Wed Feb  3 18:56:40 2010	Fort Worth, TX 76101  	45.8	8	37	0.00	46	E 16	42	83	41
Wed Feb  3 18:56:42 2010	Phoenix, AZ 85001  	58.9	1	53	0.00	60	SSW 7	59	52	41
Wed Feb  3 18:56:45 2010	Portland, OR 97201  	47.2	3	43	0.04	48	SSE 10	46	80	41
Wed Feb  3 18:56:47 2010	Chicago, IL 60601  	28.5	8	23	0.00	29	W 21	21	75	21
Wed Feb  3 18:56:49 2010	San Antonio, TX 78201  	45.8	2	45	1.67	47	NE 25	46	100	46
Wed Feb  3 18:56:50 2010	Indianapolis, IN 46201  	28.8	3	24	0.00	33	NW 14	29	82	24
Wed Feb  3 18:56:53 2010	Boston, MA 02101  	30.7	3	24	0.01	31	NNW 9	28	72	23
Wed Feb  3 18:56:55 2010	Jacksonville, FL 32099  	54.0	7	47	0.00	54	NNE 22	52	65	42
Wed Feb  3 18:56:57 2010	Columbus, OH 43085  	35.5	9	31	N/A	36	NNW 17	29	N/A	--
Wed Feb  3 18:56:59 2010	Dallas, TX 75201  	46.4	0	40	0.00	47	E 16	46	80	41
Wed Feb  3 18:57:02 2010	Houston, TX 77001  	48.6	14	45	0.02	52	ENE 28	43	79	42
Wed Feb  3 18:57:04 2010	Seattle, WA 98101  	44.9	0	43	0.01	45	NE 9	45	87	41
Wed Feb  3 18:57:05 2010	Milwaukee, WI 53201  	25.7	0	22	0.00	28	NNW 15	26	81	21
Wed Feb  3 18:57:07 2010	Detroit, MI 48201  	30.8	4	26	0.01	31	WNW 18	27	74	23
Wed Feb  3 18:57:08 2010	Philadelphia, PA 19019  	36.8	5	30	0.04	37	WNW 14	32	81	32
Wed Feb  3 19:40:27 2010	San Jose, CA 95101  	48.9	3	44	0.00	49	ESE 5	48	92	47
Wed Feb  3 19:40:28 2010	Charlotte, NC 28201  	44.7	6	34	0.00	46	WNW 8	41	67	34
Wed Feb  3 19:40:29 2010	San Diego, CA 92101  	57.9	5	53	0.00	59	W 10	58	79	52
Wed Feb  3 19:40:30 2010	Memphis, TN 37501  	43.0	5	28	0.00	43	NE 7	40	60	30
Wed Feb  3 19:40:30 2010	Denver, CO 80214  	44.7	1	25	0.00	47	SSE 5	45	25	10
Wed Feb  3 19:40:31 2010	Los Angeles, CA 90001  	62.7	0	48	0.00	63	ENE 5	63	52	45
Wed Feb  3 19:40:33 2010	El Paso, TX 79901  	43.5	8	42	0.33	47	ESE 23	39	90	41
Wed Feb  3 19:40:33 2010	New York, NY 10001  	36.8	3	29	0.08	37	NW 12	37	73	29
Wed Feb  3 19:40:34 2010	Baltimore, MD 21201  	38.6	10	29	0.19	39	NW 13	32	71	30
Wed Feb  3 19:40:35 2010	Las Vegas, NV 89101  	49.7	4	38	0.00	50	NE 7	48	50	32
Wed Feb  3 19:40:37 2010	Washington, DC 20001  	39.4	9	31	0.16	41	NW 17	33	82	34
Wed Feb  3 19:40:40 2010	San Francisco, CA 94101  	53.7	5	50	0.00	54	ESE 10	53	N/A	--
Wed Feb  3 19:40:40 2010	Austin, TX 73301  	43.9	7	42	0.55	46	SE 20	40	95	42
Wed Feb  3 19:40:41 2010	Oklahoma City, OK 73101  	35.2	2	27	0.08	35	SE 9	35	94	34
Wed Feb  3 19:40:42 2010	Nashville, TN 37201  	45.3	5	37	0.00	47	NW 13	43	56	31
Wed Feb  3 19:40:43 2010	Fort Worth, TX 76101  	45.8	8	37	0.00	46	E 16	42	83	41
Wed Feb  3 19:40:43 2010	Phoenix, AZ 85001  	58.9	1	53	0.00	60	SSW 7	59	52	41
Wed Feb  3 19:40:44 2010	Portland, OR 97201  	47.2	3	43	0.04	48	SSE 10	46	80	41
Wed Feb  3 19:40:45 2010	San Antonio, TX 78201  	45.8	2	45	1.67	47	NE 25	46	100	46
Wed Feb  3 19:40:45 2010	Chicago, IL 60601  	28.5	8	23	0.00	29	W 21	21	75	21
Wed Feb  3 19:40:46 2010	Indianapolis, IN 46201  	28.8	3	24	0.00	33	NW 14	29	82	24
Wed Feb  3 19:40:50 2010	Jacksonville, FL 32099  	54.0	7	47	0.00	54	NNE 22	52	65	42
Wed Feb  3 19:40:50 2010	Boston, MA 02101  	30.7	3	24	0.01	31	NNW 9	28	72	23
Wed Feb  3 19:40:51 2010	Columbus, OH 43085  	35.5	9	31	N/A	36	NNW 17	29	N/A	--
Wed Feb  3 19:40:52 2010	Dallas, TX 75201  	46.4	0	40	0.00	47	E 16	46	80	41
Wed Feb  3 19:40:52 2010	Houston, TX 77001  	48.6	14	45	0.02	52	ENE 28	43	79	42
Wed Feb  3 19:40:53 2010	Seattle, WA 98101  	44.9	0	43	0.01	45	NE 9	45	87	41
Wed Feb  3 19:40:54 2010	Milwaukee, WI 53201  	25.7	0	22	0.00	28	NNW 15	26	81	21
Wed Feb  3 19:40:55 2010	Philadelphia, PA 19019  	36.8	5	30	0.04	37	WNW 14	32	81	32
Wed Feb  3 19:40:55 2010	Detroit, MI 48201  	30.8	4	26	0.01	31	WNW 18	27	74	23
Wed Feb  3 20:24:28 2010	San Jose, CA 95101  	57.9	0	44	0.00	58	ESE 5	58	68	48
Wed Feb  3 20:24:30 2010	Charlotte, NC 28201  	48.3	1	34	0.00	48	WNW 8	48	59	35
Wed Feb  3 20:24:33 2010	San Diego, CA 92101  	59.9	10	53	0.00	60	WNW 15	58	76	53
Wed Feb  3 20:24:35 2010	Denver, CO 80214  	47.8	3	25	0.00	48	SE 7	48	20	8
Wed Feb  3 20:24:38 2010	Memphis, TN 37501  	48.0	8	28	0.00	48	NE 8	44	49	30
Wed Feb  3 20:24:47 2010	Los Angeles, CA 90001  	66.4	0	48	0.00	67	WSW 9	66	45	45
Wed Feb  3 20:24:48 2010	El Paso, TX 79901  	44.1	7	42	0.45	47	ESE 23	40	93	42
Wed Feb  3 20:24:51 2010	New York, NY 10001  	38.8	5	29	0.08	39	WSW 13	35	62	27
Wed Feb  3 20:25:00 2010	Las Vegas, NV 89101  	57.2	1	38	0.00	57	NE 7	57	37	31
Wed Feb  3 20:25:03 2010	Washington, DC 20001  	39.8	14	31	0.22	41	NW 21	32	76	33
Wed Feb  3 20:25:05 2010	Austin, TX 73301  	48.9	11	46	0.54	49	E 16	44	92	47
Wed Feb  3 20:25:07 2010	San Francisco, CA 94101  	57.1	4	50	0.00	57	E 10	57	N/A	--
Wed Feb  3 20:25:09 2010	Oklahoma City, OK 73101  	37.7	2	27	0.17	38	SE 9	38	89	35
Wed Feb  3 20:25:10 2010	Nashville, TN 37201  	48.9	2	37	0.00	49	NW 13	49	49	31
Wed Feb  3 20:25:11 2010	Fort Worth, TX 76101  	44.7	8	37	0.00	46	SE 17	40	89	42
Wed Feb  3 20:25:13 2010	Phoenix, AZ 85001  	66.2	1	53	0.00	68	SSW 7	66	34	37
Wed Feb  3 20:25:14 2010	Portland, OR 97201  	46.4	2	43	0.05	48	SSE 10	46	81	41
Wed Feb  3 20:25:16 2010	Chicago, IL 60601  	27.8	2	23	0.00	30	W 21	28	77	21
Wed Feb  3 20:25:17 2010	San Antonio, TX 78201  	44.9	7	45	2.03	47	NE 25	41	100	45
Wed Feb  3 20:25:18 2010	Indianapolis, IN 46201  	29.5	5	24	0.00	33	NW 14	24	81	24
Wed Feb  3 20:25:21 2010	Boston, MA 02101  	29.8	4	24	0.01	31	NW 10	26	71	21
Wed Feb  3 20:25:23 2010	Jacksonville, FL 32099  	53.1	10	47	0.00	54	NNE 22	50	67	42
Wed Feb  3 20:25:26 2010	Columbus, OH 43085  	34.4	5	31	N/A	36	NNW 17	30	N/A	--
Wed Feb  3 20:25:28 2010	Dallas, TX 75201  	47.1	0	40	0.00	47	E 16	47	81	42
Wed Feb  3 20:25:30 2010	Houston, TX 77001  	49.8	21	45	0.02	52	ENE 28	43	75	42
Wed Feb  3 20:25:32 2010	Seattle, WA 98101  	44.3	0	43	0.07	45	NE 9	44	92	42
Wed Feb  3 20:25:40 2010	Milwaukee, WI 53201  	24.4	3	22	0.00	28	NNW 15	24	76	18
Wed Feb  3 20:25:42 2010	Detroit, MI 48201  	31.5	2	26	0.01	32	WNW 18	32	70	23
Wed Feb  3 20:25:43 2010	Philadelphia, PA 19019  	37.7	7	30	0.04	38	NNE 19	32	75	31
Wed Feb  3 21:12:34 2010	San Jose, CA 95101  	57.9	0	44	0.00	58	ESE 5	58	68	48
Wed Feb  3 21:12:35 2010	Charlotte, NC 28201  	48.3	1	34	0.00	48	WNW 8	48	59	35
Wed Feb  3 21:12:37 2010	San Diego, CA 92101  	59.9	10	53	0.00	60	WNW 15	58	76	53
Wed Feb  3 21:12:39 2010	Denver, CO 80214  	47.8	3	25	0.00	48	SE 7	48	20	8
Wed Feb  3 21:12:41 2010	Memphis, TN 37501  	48.0	8	28	0.00	48	NE 8	44	49	30
Wed Feb  3 21:12:42 2010	Los Angeles, CA 90001  	66.4	0	48	0.00	67	WSW 9	66	45	45
Wed Feb  3 21:12:44 2010	El Paso, TX 79901  	44.1	7	42	0.45	47	ESE 23	40	93	42
Wed Feb  3 21:12:45 2010	New York, NY 10001  	38.8	5	29	0.08	39	WSW 13	35	62	27
Wed Feb  3 21:12:48 2010	Las Vegas, NV 89101  	57.2	1	38	0.00	57	NE 7	57	37	31
Wed Feb  3 21:12:51 2010	Washington, DC 20001  	39.4	11	31	0.23	41	NW 21	33	81	34
Wed Feb  3 21:12:54 2010	Austin, TX 73301  	44.0	5	42	0.61	46	SE 20	41	96	43
Wed Feb  3 21:12:55 2010	San Francisco, CA 94101  	57.1	4	50	0.00	57	E 10	57	N/A	--
Wed Feb  3 21:12:57 2010	Oklahoma City, OK 73101  	37.7	2	27	0.17	38	SE 9	38	89	35
Wed Feb  3 21:12:59 2010	Nashville, TN 37201  	48.9	2	37	0.00	49	NW 13	49	49	31
Wed Feb  3 21:13:01 2010	Fort Worth, TX 76101  	44.7	8	37	0.00	46	SE 17	40	89	42
Wed Feb  3 21:13:03 2010	Phoenix, AZ 85001  	66.2	1	53	0.00	68	SSW 7	66	34	37
Wed Feb  3 21:13:05 2010	Portland, OR 97201  	46.4	2	43	0.05	48	SSE 10	46	81	41
Wed Feb  3 21:13:07 2010	Chicago, IL 60601  	27.8	2	23	0.00	30	W 21	28	77	21
Wed Feb  3 21:13:08 2010	San Antonio, TX 78201  	44.9	7	45	2.03	47	NE 25	41	100	45
Wed Feb  3 21:13:10 2010	Indianapolis, IN 46201  	29.5	5	24	0.00	33	NW 14	24	81	24
Wed Feb  3 21:13:11 2010	Boston, MA 02101  	29.8	4	24	0.01	31	NW 10	26	71	21
Wed Feb  3 21:13:13 2010	Jacksonville, FL 32099  	53.1	10	47	0.00	54	NNE 22	50	67	42
Wed Feb  3 21:13:15 2010	Columbus, OH 43085  	34.4	5	31	N/A	36	NNW 17	30	N/A	--
Wed Feb  3 21:13:17 2010	Dallas, TX 75201  	47.1	0	40	0.00	47	E 16	47	81	42
Wed Feb  3 21:13:19 2010	Houston, TX 77001  	49.8	21	45	0.02	52	ENE 28	43	75	42
Wed Feb  3 21:13:21 2010	Seattle, WA 98101  	44.3	0	43	0.07	45	NE 9	44	92	42
Wed Feb  3 21:13:24 2010	Milwaukee, WI 53201  	24.4	3	22	0.00	28	NNW 15	24	76	18
Wed Feb  3 21:13:26 2010	Detroit, MI 48201  	31.5	2	26	0.01	32	WNW 18	32	70	23
Wed Feb  3 21:13:27 2010	Philadelphia, PA 19019  	37.7	7	30	0.04	38	NNE 19	32	75	31
Wed Feb  3 21:57:56 2010	San Jose, CA 95101  	60.1	0	44	0.00	60	ESE 5	60	60	46
Wed Feb  3 21:57:58 2010	Charlotte, NC 28201  	48.9	5	34	0.00	50	WNW 8	47	55	34
Wed Feb  3 21:58:00 2010	San Diego, CA 92101  	62.5	5	53	0.00	63	WNW 15	63	70	53
Wed Feb  3 21:58:02 2010	Denver, CO 80214  	48.1	2	25	0.00	49	ESE 10	48	21	10
Wed Feb  3 21:58:04 2010	Memphis, TN 37501  	46.9	7	28	0.00	48	NE 8	44	52	30
Wed Feb  3 21:58:06 2010	Los Angeles, CA 90001  	66.0	5	48	0.00	69	SSW 14	66	51	48
Wed Feb  3 21:58:10 2010	El Paso, TX 79901  	44.7	10	42	0.51	47	ESE 23	39	87	41
Wed Feb  3 21:58:12 2010	New York, NY 10001  	38.2	2	29	0.08	39	NW 16	38	58	25
Wed Feb  3 21:58:14 2010	Baltimore, MD 21201  	38.4	10	29	0.19	40	WNW 24	32	61	26
Wed Feb  3 21:58:16 2010	Las Vegas, NV 89101  	58.3	4	38	0.00	59	NE 7	58	35	31
Wed Feb  3 21:58:17 2010	Washington, DC 20001  	39.4	11	31	0.23	41	NW 21	33	81	34
Wed Feb  3 21:58:19 2010	Austin, TX 73301  	44.0	5	42	0.61	46	SE 20	41	96	43
Wed Feb  3 21:58:21 2010	San Francisco, CA 94101  	58.6	5	50	0.00	59	E 10	58	N/A	--
Wed Feb  3 21:58:23 2010	Oklahoma City, OK 73101  	38.5	0	27	0.25	40	SE 9	39	87	35
Wed Feb  3 21:58:25 2010	Nashville, TN 37201  	48.2	3	37	0.00	50	NW 13	48	50	30
Wed Feb  3 21:58:27 2010	Fort Worth, TX 76101  	43.1	7	37	0.05	46	NE 18	39	100	43
Wed Feb  3 21:58:29 2010	Phoenix, AZ 85001  	67.7	4	53	0.00	69	SE 9	68	30	35
Wed Feb  3 21:58:31 2010	Portland, OR 97201  	46.1	0	43	0.10	48	SSE 10	46	93	44
Wed Feb  3 21:58:33 2010	Chicago, IL 60601  	28.8	2	23	0.00	30	W 21	29	74	22
Wed Feb  3 21:58:36 2010	San Antonio, TX 78201  	44.6	8	44	2.23	47	NE 25	40	100	45
Wed Feb  3 21:58:40 2010	Indianapolis, IN 46201  	30.3	7	24	0.00	33	NW 14	24	80	25
Wed Feb  3 21:58:42 2010	Boston, MA 02101  	29.9	4	24	0.01	31	NW 11	26	68	21
Wed Feb  3 21:58:44 2010	Jacksonville, FL 32099  	53.1	14	47	0.00	54	NNE 22	49	70	44
Wed Feb  3 21:58:47 2010	Columbus, OH 43085  	33.7	5	31	N/A	36	NNW 17	29	N/A	--
Wed Feb  3 21:58:49 2010	Dallas, TX 75201  	44.8	11	40	0.01	47	E 19	39	87	41
Wed Feb  3 21:58:52 2010	Houston, TX 77001  	49.4	4	45	0.02	52	ENE 28	48	79	43
Wed Feb  3 21:58:55 2010	Seattle, WA 98101  	44.1	3	43	0.14	45	NE 9	43	93	42
Wed Feb  3 21:58:57 2010	Milwaukee, WI 53201  	24.4	4	22	0.00	28	NNW 15	19	77	18
Wed Feb  3 21:59:01 2010	Detroit, MI 48201  	31.3	8	26	0.01	32	WNW 18	24	69	22
Wed Feb  3 21:59:04 2010	Philadelphia, PA 19019  	38.0	7	30	0.04	39	NNE 19	33	77	31
Wed Feb  3 22:48:51 2010	San Jose, CA 95101  	60.1	0	44	0.00	60	ESE 5	60	60	46
Wed Feb  3 22:48:52 2010	Charlotte, NC 28201  	48.9	5	34	0.00	50	WNW 8	47	55	34
Wed Feb  3 22:48:54 2010	San Diego, CA 92101  	62.5	5	53	0.00	63	WNW 15	63	70	53
Wed Feb  3 22:48:55 2010	Denver, CO 80214  	48.1	2	25	0.00	49	ESE 10	48	21	10
Wed Feb  3 22:48:57 2010	Memphis, TN 37501  	46.9	7	28	0.00	48	NE 8	44	52	30
Wed Feb  3 22:48:58 2010	Los Angeles, CA 90001  	66.0	5	48	0.00	69	SSW 14	66	51	48
Wed Feb  3 22:49:00 2010	El Paso, TX 79901  	44.7	10	42	0.51	47	ESE 23	39	87	41
Wed Feb  3 22:49:01 2010	New York, NY 10001  	38.2	2	29	0.08	39	NW 16	38	58	25
Wed Feb  3 22:49:03 2010	Baltimore, MD 21201  	38.4	10	29	0.19	40	WNW 24	32	61	26
Wed Feb  3 22:49:05 2010	Las Vegas, NV 89101  	58.3	4	38	0.00	59	NE 7	58	35	31
Wed Feb  3 22:49:08 2010	Washington, DC 20001  	39.5	8	31	0.23	41	NW 21	34	84	35
Wed Feb  3 22:49:10 2010	Austin, TX 73301  	48.9	10	46	0.60	49	E 16	45	92	47
Wed Feb  3 22:49:12 2010	San Francisco, CA 94101  	58.6	5	50	0.00	59	E 10	58	N/A	--
Wed Feb  3 22:49:13 2010	Oklahoma City, OK 73101  	38.5	0	27	0.25	40	SE 9	39	87	35
Wed Feb  3 22:49:15 2010	Nashville, TN 37201  	48.2	3	37	0.00	50	NW 13	48	50	30
Wed Feb  3 22:49:16 2010	Fort Worth, TX 76101  	43.1	7	37	0.05	46	NE 18	39	100	43
Wed Feb  3 22:49:18 2010	Phoenix, AZ 85001  	67.7	4	53	0.00	69	SE 9	68	30	35
Wed Feb  3 22:49:19 2010	Portland, OR 97201  	46.1	0	43	0.10	48	SSE 10	46	93	44
Wed Feb  3 22:49:21 2010	Chicago, IL 60601  	28.8	2	23	0.00	30	W 21	29	74	22
Wed Feb  3 22:49:23 2010	San Antonio, TX 78201  	44.6	8	44	2.23	47	NE 25	40	100	45
Wed Feb  3 22:49:24 2010	Indianapolis, IN 46201  	30.3	7	24	0.00	33	NW 14	24	80	25
Wed Feb  3 22:49:26 2010	Boston, MA 02101  	29.9	4	24	0.01	31	NW 11	26	68	21
Wed Feb  3 22:49:27 2010	Jacksonville, FL 32099  	53.1	14	47	0.00	54	NNE 22	49	70	44
Wed Feb  3 22:49:29 2010	Columbus, OH 43085  	33.7	5	31	N/A	36	NNW 17	29	N/A	--
Wed Feb  3 22:49:30 2010	Dallas, TX 75201  	44.8	11	40	0.01	47	E 19	39	87	41
Wed Feb  3 22:49:32 2010	Houston, TX 77001  	49.4	4	45	0.02	52	ENE 28	48	79	43
Wed Feb  3 22:49:41 2010	Seattle, WA 98101  	44.1	3	43	0.14	45	NE 9	43	93	42
Wed Feb  3 22:49:43 2010	Milwaukee, WI 53201  	24.4	4	22	0.00	28	NNW 15	19	77	18
Wed Feb  3 22:49:44 2010	Detroit, MI 48201  	31.3	8	26	0.01	32	WNW 18	24	69	22
Wed Feb  3 22:49:46 2010	Philadelphia, PA 19019  	38.0	7	30	0.04	39	NNE 19	33	77	31
Wed Feb  3 23:34:00 2010	San Jose, CA 95101  	62.1	5	44	0.00	62	WNW 6	62	50	44
Wed Feb  3 23:34:02 2010	Charlotte, NC 28201  	48.3	0	34	0.00	51	WNW 8	48	56	33
Wed Feb  3 23:34:04 2010	San Diego, CA 92101  	63.1	0	53	0.00	63	WNW 15	63	69	53
Wed Feb  3 23:34:11 2010	Denver, CO 80214  	47.5	2	25	0.00	49	SE 12	48	23	11
Wed Feb  3 23:34:15 2010	Memphis, TN 37501  	46.9	10	28	0.00	48	ENE 11	42	50	29
Wed Feb  3 23:34:17 2010	Los Angeles, CA 90001  	67.3	6	48	0.00	69	SSW 14	67	42	44
Wed Feb  3 23:34:20 2010	El Paso, TX 79901  	47.2	9	42	0.56	48	ESE 23	43	85	43
Wed Feb  3 23:34:22 2010	New York, NY 10001  	36.7	2	29	0.08	39	NNW 17	37	58	23
Wed Feb  3 23:34:24 2010	Baltimore, MD 21201  	37.0	7	29	0.19	40	WNW 24	32	62	25
Wed Feb  3 23:34:26 2010	Las Vegas, NV 89101  	59.8	4	38	0.00	61	ENE 10	60	33	31
Wed Feb  3 23:34:28 2010	Washington, DC 20001  	39.2	10	31	0.23	41	NW 21	33	79	33
Wed Feb  3 23:34:30 2010	Austin, TX 73301  	44.2	6	42	0.67	46	SE 20	41	99	44
Wed Feb  3 23:34:32 2010	San Francisco, CA 94101  	60.1	0	50	0.00	61	E 10	60	N/A	--
Wed Feb  3 23:34:34 2010	Oklahoma City, OK 73101  	38.2	0	27	0.34	40	SE 9	38	89	35
Wed Feb  3 23:34:36 2010	Nashville, TN 37201  	45.7	6	37	0.00	50	NW 13	42	54	30
Wed Feb  3 23:34:38 2010	Fort Worth, TX 76101  	42.8	7	37	0.15	46	NE 18	39	100	43
Wed Feb  3 23:34:50 2010	Phoenix, AZ 85001  	66.9	3	53	0.00	69	SW 11	67	33	37
Wed Feb  3 23:34:52 2010	Portland, OR 97201  	47.6	6	43	0.12	48	SSE 10	45	87	44
Wed Feb  3 23:34:54 2010	Chicago, IL 60601  	28.8	3	23	0.00	30	W 21	29	71	20
Wed Feb  3 23:34:56 2010	San Antonio, TX 78201  	45.7	13	44	2.31	47	NE 25	40	100	46
Wed Feb  3 23:34:58 2010	Indianapolis, IN 46201  	30.5	2	24	0.00	33	NW 14	31	80	25
Wed Feb  3 23:35:00 2010	Boston, MA 02101  	29.9	6	24	0.01	31	NNW 12	24	66	20
Wed Feb  3 23:35:04 2010	Jacksonville, FL 32099  	54.0	6	47	0.00	54	NNE 22	53	67	43
Wed Feb  3 23:35:07 2010	Columbus, OH 43085  	33.1	6	31	N/A	36	NNW 17	27	N/A	--
Wed Feb  3 23:35:11 2010	Dallas, TX 75201  	45.4	0	40	0.07	47	E 19	45	88	42
Wed Feb  3 23:35:13 2010	Houston, TX 77001  	48.9	11	45	0.02	52	ENE 28	44	85	45
Wed Feb  3 23:35:21 2010	Seattle, WA 98101  	44.5	4	43	0.16	46	NE 9	43	96	44
Wed Feb  3 23:35:24 2010	Milwaukee, WI 53201  	25.3	4	22	0.00	28	NNW 15	20	75	19
Wed Feb  3 23:35:27 2010	Detroit, MI 48201  	31.0	3	26	0.01	32	WNW 18	28	70	22
Wed Feb  3 23:35:29 2010	Philadelphia, PA 19019  	37.8	4	30	0.04	39	NNE 19	35	69	29
